# Wetter Temperatur Luftdruck Luftfeuchtigkeit Sichtweite Windgeschwindigkeit Windrichtung Zeit
1 Haze 33 1009 55 5000 5.7 50 07:20 11.07.2020
2 Haze 33 1009 55 5000 5.7 50 06:55 11.07.2020
3 Haze 31 1010 62 5000 3.6 60 06:22 11.07.2020
4 Haze 30 1011 66 4000 2.1 70 05:22 11.07.2020
5 Haze 29 1011 66 4000 2.1 70 04:55 11.07.2020
6 Haze 29 1011 70 4000 1.5 120 04:32 11.07.2020
7 Haze 27 1011 88 2000 1.09 118 03:24 11.07.2020
8 Mist 27 1010 100 1500 1.5 150 02:38 11.07.2020
9 Mist 25 1010 100 1500 1.03 179 01:37 11.07.2020
10 Mist 25 1010 100 2000 1.19 179 01:18 11.07.2020
11 Mist 25 1010 100 2000 1.19 179 00:41 11.07.2020
12 Mist 25 1010 100 2000 1.01 162 00:22 11.07.2020
13 Mist 25 1010 100 2000 1.01 162 23:57 10.07.2020
14 Haze 25 1009 88 4000 0.5 0 23:39 10.07.2020
15 Haze 25 1009 88 4000 0.5 0 23:19 10.07.2020
16 Haze 25 1009 88 4500 1 0 22:45 10.07.2020
17 Rain 25 1009 88 4000 1.5 0 22:21 10.07.2020
18 Thunderstorm 25 1010 94 3000 2.1 0 21:56 10.07.2020
19 Thunderstorm 26 1010 83 3000 2.6 0 21:36 10.07.2020
20 Haze 27 1010 83 3000 2.1 200 21:18 10.07.2020
21 Haze 27 1010 83 4000 1.5 0 20:41 10.07.2020
22 Haze 27 1010 83 4000 1.5 0 20:23 10.07.2020
23 Haze 27 1011 83 4000 1 300 19:57 10.07.2020
24 Haze 27 1011 83 4000 1 300 19:57 10.07.2020
25 Haze 27 1011 88 4000 1.5 270 19:39 10.07.2020
26 Haze 27 1011 83 4000 1 240 19:20 10.07.2020
27 Haze 27 1011 88 3000 1 290 18:42 10.07.2020
28 Haze 27 1011 88 4000 1 350 18:21 10.07.2020
29 Haze 27 1011 88 4000 1 350 17:58 10.07.2020
30 Haze 27 1011 83 4000 1 320 17:39 10.07.2020
31 Haze 27 1011 83 4000 1 320 17:21 10.07.2020
32 Haze 27 1011 83 4000 1 360 16:43 10.07.2020
33 Haze 27 1011 83 4000 1 360 16:21 10.07.2020
34 Haze 27 1011 83 4000 1.5 340 15:48 10.07.2020
35 Haze 28 1009 66 4000 3.1 20 15:27 10.07.2020
36 Haze 28 1009 66 4000 3.1 20 15:00 10.07.2020
37 Haze 29 1009 66 4000 3.1 20 14:40 10.07.2020
38 Haze 29 1009 66 4000 3.1 20 14:20 10.07.2020
39 Haze 29 1009 70 4000 3.1 20 13:58 10.07.2020
40 Haze 29 1008 70 4000 4.1 60 13:39 10.07.2020
41 Haze 29 1008 66 4000 2.6 20 13:21 10.07.2020
42 Haze 30 1008 66 4000 2.6 20 12:57 10.07.2020
43 Haze 30 1008 66 4000 4.1 10 12:37 10.07.2020
44 Haze 30 1008 66 4000 4.1 10 12:19 10.07.2020
45 Haze 30 1008 62 4000 3.1 360 11:42 10.07.2020
46 Haze 30 1008 62 4000 3.1 360 11:21 10.07.2020
47 Haze 30 1008 58 4000 3.6 30 10:58 10.07.2020
48 Haze 31 1008 58 4000 3.6 30 10:39 10.07.2020
49 Haze 31 1008 58 4000 3.6 30 10:20 10.07.2020
50 Haze 31 1008 58 4000 3.6 30 09:41 10.07.2020
51 Haze 31 1008 58 4000 3.6 30 09:23 10.07.2020
52 Haze 32 1008 55 4000 4.1 30 08:59 10.07.2020
53 Haze 32 1009 52 4000 2.6 10 08:41 10.07.2020
54 Haze 32 1009 52 4000 2.6 10 08:23 10.07.2020
55 Haze 32 1009 52 4000 2.6 10 08:23 10.07.2020
56 Haze 33 1009 52 4000 1.5 270 07:47 10.07.2020
57 Haze 31 1009 52 4000 1.5 270 07:24 10.07.2020
58 Haze 31 1010 55 4000 1.5 270 06:57 10.07.2020
59 Haze 30 1010 55 4000 1.5 240 06:39 10.07.2020
60 Haze 31 1010 66 3000 1.5 210 05:40 10.07.2020
61 Haze 27 1010 78 3000 0.64 204 03:55 10.07.2020
62 Haze 26 1010 83 4000 0.8 177 02:55 10.07.2020
63 Haze 26 1009 88 4000 1.38 208 02:21 10.07.2020
64 Haze 25 1009 83 5000 0.92 197 00:55 10.07.2020
65 Haze 25 1009 88 5000 0.65 173 00:23 10.07.2020
66 Haze 25 1009 88 5000 0.65 173 23:56 09.07.2020
67 Haze 26 1009 88 5000 0.65 173 23:37 09.07.2020
68 Haze 26 1009 88 5000 0.97 150 23:19 09.07.2020
69 Haze 26 1009 83 5000 2.6 160 22:56 09.07.2020
70 Haze 26 1009 83 5000 2.6 170 22:38 09.07.2020
71 Haze 26 1009 83 5000 2.6 170 22:19 09.07.2020
72 Haze 26 1009 83 5000 2.6 170 21:55 09.07.2020
73 Haze 26 1009 88 5000 1.5 0 21:36 09.07.2020
74 Haze 26 1009 88 5000 1.5 0 21:18 09.07.2020
75 Haze 26 1010 83 4500 2.6 220 20:41 09.07.2020
76 Haze 26 1010 83 4500 2.6 220 20:23 09.07.2020
77 Haze 26 1010 88 4000 2.6 200 19:43 09.07.2020
78 Haze 26 1010 88 4000 2.6 200 19:22 09.07.2020
79 Haze 26 1010 88 4000 2.6 270 18:59 09.07.2020
80 Haze 26 1010 88 4000 2.6 250 18:41 09.07.2020
81 Haze 26 1010 88 4000 2.1 280 18:19 09.07.2020
82 Haze 25 1010 88 4000 1 320 17:43 09.07.2020
83 Haze 25 1010 88 4000 1 320 17:24 09.07.2020
84 Haze 27 1010 83 4000 1 270 16:59 09.07.2020
85 Clouds 28 1009 74 6000 1.5 330 16:41 09.07.2020
86 Clouds 28 1009 74 6000 1.5 330 16:19 09.07.2020
87 Clouds 28 1009 74 6000 1.5 330 15:59 09.07.2020
88 Clouds 28 1009 74 6000 1.5 330 15:40 09.07.2020
89 Clouds 28 1009 74 6000 1.5 330 15:21 09.07.2020
90 Clouds 28 1009 74 6000 2.4 359 14:58 09.07.2020
91 Haze 28 1008 74 5000 2.1 350 14:40 09.07.2020
92 Haze 28 1008 74 5000 2.1 350 14:22 09.07.2020
93 Haze 28 1008 74 5000 1.5 350 13:57 09.07.2020
94 Haze 29 1008 70 5000 2.6 350 13:38 09.07.2020
95 Haze 29 1007 66 5000 2.6 350 13:20 09.07.2020
96 Haze 30 1007 66 5000 2.6 350 12:43 09.07.2020
97 Haze 30 1007 66 5000 2.6 350 12:24 09.07.2020
98 Haze 30 1007 66 5000 2.6 350 12:24 09.07.2020
99 Haze 30 1007 62 5000 3.1 340 11:59 09.07.2020
100 Haze 31 1007 62 5000 3.1 10 11:41 09.07.2020
101 Haze 31 1007 62 5000 3.1 10 11:22 09.07.2020
102 Haze 31 1007 52 5000 3.1 20 10:58 09.07.2020
103 Haze 32 1007 52 5000 3.1 20 10:40 09.07.2020
104 Haze 32 1007 52 5000 3.1 20 10:21 09.07.2020
105 Haze 33 1007 52 5000 3.1 40 09:44 09.07.2020
106 Haze 33 1007 52 5000 3.1 40 09:24 09.07.2020
107 Clouds 33 1007 46 6000 2.6 50 08:56 09.07.2020
108 Clouds 33 1008 46 6000 1.5 170 08:37 09.07.2020
109 Clouds 32 1008 46 6000 2.1 220 08:18 09.07.2020
110 Clouds 33 1009 46 6000 2.6 190 07:45 09.07.2020
111 Clouds 32 1009 46 6000 2.6 190 07:21 09.07.2020
112 Clouds 30 1009 55 6000 1.5 190 06:40 09.07.2020
113 Clouds 30 1010 58 6000 2.6 210 06:19 09.07.2020
114 Clouds 28 1009 65 6000 3.1 210 04:29 09.07.2020
115 Clouds 26 1009 69 6000 3.6 220 03:25 09.07.2020
116 Haze 25 1009 83 5000 2.6 210 02:18 09.07.2020
117 Haze 24 1008 88 5000 2.1 270 01:31 09.07.2020
118 Haze 25 1008 83 5000 2.1 210 00:46 09.07.2020
119 Haze 25 1008 83 5000 2.1 210 00:23 09.07.2020
120 Haze 25 1008 83 5000 2.6 220 23:46 08.07.2020
121 Haze 25 1008 83 5000 2.6 220 23:27 08.07.2020
122 Clouds 25 1008 83 6000 1 210 22:58 08.07.2020
123 Clouds 25 1008 83 6000 1 0 22:39 08.07.2020
124 Clouds 25 1008 83 6000 1 0 22:21 08.07.2020
125 Clouds 25 1009 83 6000 1 190 21:58 08.07.2020
126 Mist 25 1009 83 5000 1.5 210 21:38 08.07.2020
127 Mist 25 1009 83 5000 1.5 210 21:20 08.07.2020
128 Mist 25 1009 83 5000 2.6 200 20:54 08.07.2020
129 Mist 25 1009 88 5000 2.1 210 20:36 08.07.2020
130 Mist 25 1009 88 5000 2.1 210 20:18 08.07.2020
131 Haze 26 1009 83 4500 2.6 0 19:42 08.07.2020
132 Haze 26 1009 83 4500 2.6 0 19:22 08.07.2020
133 Clouds 26 1009 78 6000 1.5 160 18:56 08.07.2020
134 Haze 25 1009 88 5000 0.57 295 18:38 08.07.2020
135 Haze 26 1009 88 5000 0.86 332 18:19 08.07.2020
136 Haze 26 1009 88 5000 0.86 332 18:19 08.07.2020
137 Haze 26 1009 88 5000 0.86 332 17:55 08.07.2020
138 Haze 26 1009 88 5000 0.86 332 17:37 08.07.2020
139 Haze 26 1009 88 5000 0.92 340 17:18 08.07.2020
140 Haze 26 1009 78 5000 6.2 210 16:39 08.07.2020
141 Haze 26 1009 78 5000 6.2 210 16:20 08.07.2020
142 Haze 26 1009 78 5000 6.2 210 15:58 08.07.2020
143 Haze 26 1009 78 5000 6.2 210 15:40 08.07.2020
144 Haze 27 1009 78 5000 6.2 210 15:19 08.07.2020
145 Haze 27 1009 78 5000 5.1 240 14:48 08.07.2020
146 Haze 27 1008 78 4000 6.2 220 14:29 08.07.2020
147 Rain 28 1008 74 4000 3.1 240 13:58 08.07.2020
148 Haze 28 1007 66 4000 6.2 220 13:40 08.07.2020
149 Haze 29 1007 66 4000 6.2 220 13:22 08.07.2020
150 Haze 31 1006 55 2000 6.7 40 12:44 08.07.2020
151 Haze 31 1006 55 2000 6.7 40 12:21 08.07.2020
152 Rain 32 1006 52 6000 6.2 60 11:57 08.07.2020
153 Clouds 32 1006 49 6000 3.1 90 11:38 08.07.2020
154 Clouds 32 1006 49 6000 3.1 90 11:20 08.07.2020
155 Clouds 32 1006 49 6000 3.1 90 11:20 08.07.2020
156 Haze 33 1006 59 5000 2.6 310 10:44 08.07.2020
157 Haze 33 1006 59 5000 2.6 310 10:44 08.07.2020
158 Haze 33 1006 59 5000 2.6 310 10:26 08.07.2020
159 Haze 33 1007 52 5000 2.6 350 09:47 08.07.2020
160 Haze 32 1007 58 5000 2.1 300 09:26 08.07.2020
161 Haze 33 1007 59 5000 3.6 270 08:58 08.07.2020
162 Haze 33 1008 49 5000 27.8 250 08:39 08.07.2020
163 Haze 33 1008 49 5000 27.8 250 08:20 08.07.2020
164 Haze 33 1008 49 5000 27.8 250 08:20 08.07.2020
165 Haze 33 1008 55 5000 2.1 230 07:46 08.07.2020
166 Haze 33 1008 55 5000 2.1 230 07:22 08.07.2020
167 Haze 32 1009 49 5000 1.5 300 06:53 08.07.2020
168 Haze 31 1009 55 5000 2.1 270 06:32 08.07.2020
169 Haze 31 1009 55 5000 2.1 270 05:54 08.07.2020
170 Haze 30 1009 55 5000 2.1 220 05:18 08.07.2020
171 Haze 30 1009 62 5000 2.1 130 04:20 08.07.2020
172 Haze 27 1010 83 4000 1.2 198 02:20 08.07.2020
173 Haze 26 1009 88 3000 1.2 198 01:44 08.07.2020
174 Haze 26 1009 83 3000 1.24 193 00:59 08.07.2020
175 Haze 27 1009 78 3000 1.5 170 00:22 08.07.2020
176 Haze 26 1009 83 3000 1.5 220 23:45 07.07.2020
177 Haze 26 1009 83 5000 2.6 180 23:24 07.07.2020
178 Haze 26 1009 83 5000 2.1 190 22:59 07.07.2020
179 Haze 26 1009 83 5000 1.5 190 22:41 07.07.2020
180 Haze 26 1009 83 5000 1.5 190 22:21 07.07.2020
181 Haze 26 1009 83 5000 1.5 170 21:59 07.07.2020
182 Clouds 26 1009 83 6000 2.1 180 21:39 07.07.2020
183 Clouds 26 1009 83 6000 2.1 180 21:21 07.07.2020
184 Clouds 27 1010 83 6000 1 150 20:56 07.07.2020
185 Clouds 27 1010 78 6000 1 130 20:37 07.07.2020
186 Clouds 27 1010 78 6000 1 0 20:19 07.07.2020
187 Clouds 27 1010 78 6000 1.5 140 19:39 07.07.2020
188 Clouds 27 1010 78 6000 1.5 130 19:21 07.07.2020
189 Clouds 27 1010 78 6000 1.5 130 18:56 07.07.2020
190 Clouds 27 1010 78 7000 2.1 130 18:38 07.07.2020
191 Clouds 27 1010 78 7000 2.1 0 18:19 07.07.2020
192 Clouds 27 1010 78 7000 2.1 0 17:57 07.07.2020
193 Clouds 27 1010 78 7000 3.1 110 17:38 07.07.2020
194 Clouds 27 1010 78 7000 3.1 110 17:20 07.07.2020
195 Clouds 28 1010 78 8000 3.1 90 16:43 07.07.2020
196 Clouds 28 1010 78 8000 3.1 90 16:23 07.07.2020
197 Clouds 28 1010 74 8000 3.1 100 15:57 07.07.2020
198 Clouds 28 1009 69 8000 4.6 90 15:38 07.07.2020
199 Clouds 28 1009 69 8000 4.6 90 15:19 07.07.2020
200 Clouds 30 1008 62 6000 4.1 40 14:46 07.07.2020
201 Clouds 30 1008 62 6000 4.1 40 14:25 07.07.2020
202 Clouds 30 1008 62 6000 4.1 70 13:46 07.07.2020
203 Clouds 30 1008 62 6000 4.1 70 13:22 07.07.2020
204 Clouds 31 1007 55 7000 4.1 50 12:59 07.07.2020
205 Clouds 31 1007 55 7000 4.1 50 12:40 07.07.2020
206 Clouds 31 1007 55 7000 4.1 50 12:22 07.07.2020
207 Clouds 32 1007 49 7000 4.1 40 11:49 07.07.2020
208 Clouds 33 1007 49 7000 4.1 40 11:25 07.07.2020
209 Clouds 33 1007 43 7000 4.6 70 10:59 07.07.2020
210 Clouds 33 1007 46 7000 4.6 90 10:41 07.07.2020
211 Clouds 33 1007 46 7000 4.6 90 10:22 07.07.2020
212 Clouds 33 1008 46 7000 4.6 60 09:56 07.07.2020
213 Clouds 34 1008 46 7000 4.1 80 09:38 07.07.2020
214 Clouds 33 1008 46 7000 4.1 80 09:19 07.07.2020
215 Clouds 33 1009 49 7000 4.1 40 08:42 07.07.2020
216 Clouds 33 1009 49 7000 4.1 40 08:23 07.07.2020
217 Clouds 33 1010 55 10000 6.7 80 07:43 07.07.2020
218 Clouds 32 1010 52 6000 4.1 60 07:22 07.07.2020
219 Clouds 32 1010 52 6000 4.1 60 06:49 07.07.2020
220 Clouds 32 1010 52 6000 4.1 60 06:29 07.07.2020
221 Clouds 31 1010 55 6000 3.6 80 05:53 07.07.2020
222 Clouds 30 1011 62 6000 3.1 60 05:22 07.07.2020
223 Haze 30 1011 66 5000 1.5 30 04:38 07.07.2020
224 Haze 27 1010 83 3000 1.53 224 03:35 07.07.2020
225 Mist 26 1010 100 3000 2.07 183 02:21 07.07.2020
226 Mist 25 1009 100 2000 3.23 142 01:23 07.07.2020
227 Mist 25 1009 100 3000 3.23 142 00:43 07.07.2020
228 Mist 25 1009 100 3000 4.32 118 00:24 07.07.2020
229 Haze 25 1009 94 4000 1.5 110 23:55 06.07.2020
230 Rain 25 1009 88 5000 1.5 110 23:37 06.07.2020
231 Rain 25 1009 88 5000 1.5 110 23:18 06.07.2020
232 Rain 25 1009 88 5000 2.1 110 22:41 06.07.2020
233 Rain 25 1009 88 5000 2.1 110 22:41 06.07.2020
234 Rain 25 1009 88 5000 2.1 110 22:20 06.07.2020
235 Rain 25 1009 88 5000 1.5 100 21:58 06.07.2020
236 Clouds 25 1009 83 6000 2.6 90 21:39 06.07.2020
237 Clouds 26 1009 83 6000 2.6 90 21:19 06.07.2020
238 Clouds 26 1010 83 6000 2.6 110 20:59 06.07.2020
239 Clouds 25 1010 83 6000 3.1 100 20:39 06.07.2020
240 Clouds 26 1010 83 6000 3.1 100 20:20 06.07.2020
241 Rain 25 1011 83 6000 4.1 100 19:57 06.07.2020
242 Rain 25 1011 88 4000 4.6 60 19:39 06.07.2020
243 Rain 25 1011 88 4000 4.6 60 19:20 06.07.2020
244 Rain 25 1011 88 4000 4.6 60 18:55 06.07.2020
245 Rain 25 1011 88 4000 4.6 60 18:37 06.07.2020
246 Rain 26 1011 88 4000 4.6 70 18:18 06.07.2020
247 Rain 26 1011 78 5000 4.1 60 17:42 06.07.2020
248 Rain 27 1011 78 5000 4.1 60 17:24 06.07.2020
249 Thunderstorm 27 1010 78 6000 2.6 190 16:57 06.07.2020
250 Clouds 27 1010 78 6000 2.1 180 16:39 06.07.2020
251 Clouds 27 1010 78 6000 2.1 180 16:21 06.07.2020
252 Clouds 28 1010 78 6000 2.1 180 15:42 06.07.2020
253 Clouds 28 1010 78 6000 2.1 180 15:24 06.07.2020
254 Clouds 27 1010 74 6000 4.6 130 14:57 06.07.2020
255 Clouds 28 1008 70 6000 4.6 60 14:38 06.07.2020
256 Clouds 29 1008 70 6000 4.6 60 14:19 06.07.2020
257 Clouds 29 1008 66 6000 5.1 60 13:51 06.07.2020
258 Clouds 30 1008 66 6000 5.1 60 13:28 06.07.2020
259 Clouds 30 1008 66 6000 5.1 40 12:59 06.07.2020
260 Clouds 31 1007 58 6000 5.1 60 12:41 06.07.2020
261 Clouds 32 1007 52 6000 5.1 30 12:18 06.07.2020
262 Clouds 32 1007 52 6000 5.1 30 11:57 06.07.2020
263 Clouds 33 1007 49 6000 5.1 50 11:38 06.07.2020
264 Clouds 33 1007 49 6000 5.1 50 11:19 06.07.2020
265 Clouds 33 1007 46 6000 5.1 90 10:43 06.07.2020
266 Clouds 34 1007 46 6000 5.1 90 10:22 06.07.2020
267 Clouds 33 1007 49 6000 6.2 90 09:59 06.07.2020
268 Clouds 34 1007 46 6000 6.2 100 09:41 06.07.2020
269 Clouds 34 1007 46 6000 6.2 100 09:21 06.07.2020
270 Clouds 34 1008 49 6000 6.2 100 08:55 06.07.2020
271 Clouds 34 1008 46 6000 6.2 70 08:36 06.07.2020
272 Clouds 34 1008 49 6000 6.7 60 08:18 06.07.2020
273 Clouds 34 1008 49 6000 6.7 40 07:43 06.07.2020
274 Clouds 34 1008 49 6000 6.7 40 07:23 06.07.2020
275 Clouds 33 1009 52 6000 5.1 90 06:39 06.07.2020
276 Haze 32 1009 52 5000 5.1 60 06:21 06.07.2020
277 Clouds 32 1010 52 6000 5.1 90 05:38 06.07.2020
278 Clouds 31 1010 52 6000 3.6 100 04:52 06.07.2020
279 Haze 28 1010 65 4000 2.31 112 03:40 06.07.2020
280 Haze 26 1009 78 4000 1.5 210 02:22 06.07.2020
281 Haze 24 1009 88 4000 1.5 200 01:28 06.07.2020
282 Haze 24 1009 94 4000 1.5 240 00:36 06.07.2020
283 Haze 24 1009 94 4000 2.46 119 00:18 06.07.2020
284 Haze 25 1009 88 4000 2.1 200 23:41 05.07.2020
285 Haze 25 1009 88 4000 2.1 200 23:23 05.07.2020
286 Clouds 25 1009 78 6000 1.5 150 22:59 05.07.2020
287 Clouds 26 1009 78 6000 2.1 150 22:40 05.07.2020
288 Clouds 26 1009 78 6000 2.1 150 22:20 05.07.2020
289 Clouds 26 1009 78 6000 2.1 150 21:57 05.07.2020
290 Haze 26 1009 78 5000 2.1 130 21:38 05.07.2020
291 Haze 26 1009 78 5000 2.1 130 21:18 05.07.2020
292 Haze 26 1009 78 5000 2.6 130 20:57 05.07.2020
293 Haze 26 1009 74 5000 3.6 130 20:38 05.07.2020
294 Haze 26 1009 74 5000 3.6 130 20:20 05.07.2020
295 Haze 27 1010 74 5000 3.6 120 19:43 05.07.2020
296 Haze 27 1010 74 5000 3.6 120 19:43 05.07.2020
297 Haze 27 1010 74 5000 3.6 120 19:21 05.07.2020
298 Haze 27 1010 74 5000 4.1 110 18:56 05.07.2020
299 Clouds 27 1010 74 6000 4.1 120 18:38 05.07.2020
300 Clouds 27 1010 74 6000 4.1 110 18:20 05.07.2020
301 Clouds 28 1009 69 6000 4.1 90 17:43 05.07.2020
302 Clouds 28 1009 69 6000 4.1 90 17:20 05.07.2020
303 Clouds 28 1009 69 6000 4.1 90 16:59 05.07.2020
304 Clouds 28 1009 69 6000 4.1 90 16:41 05.07.2020
305 Clouds 28 1009 69 6000 4.1 90 16:22 05.07.2020
306 Clouds 28 1009 66 6000 2.1 80 15:41 05.07.2020
307 Clouds 28 1009 66 6000 2.1 80 15:20 05.07.2020
308 Clouds 29 1008 62 6000 3.1 90 14:59 05.07.2020
309 Clouds 29 1008 62 6000 6.2 100 14:40 05.07.2020
310 Clouds 29 1008 62 6000 6.2 100 14:20 05.07.2020
311 Clouds 30 1008 58 6000 6.2 60 13:41 05.07.2020
312 Clouds 30 1008 58 6000 6.2 60 13:23 05.07.2020
313 Clouds 31 1007 55 7000 7.2 70 12:46 05.07.2020
314 Clouds 31 1007 55 7000 7.2 70 12:25 05.07.2020
315 Clouds 32 1007 62 10000 9.3 80 11:58 05.07.2020
316 Clouds 32 1007 49 7000 6.7 100 11:39 05.07.2020
317 Clouds 32 1007 49 7000 6.7 100 11:21 05.07.2020
318 Clouds 33 1007 49 7000 6.7 100 10:57 05.07.2020
319 Clouds 33 1007 46 7000 5.7 90 10:38 05.07.2020
320 Clouds 33 1007 46 7000 5.7 90 10:19 05.07.2020
321 Clouds 33 1008 49 6000 7.7 60 09:42 05.07.2020
322 Clouds 33 1008 49 6000 7.7 60 09:21 05.07.2020
323 Clouds 33 1009 52 6000 7.7 100 08:58 05.07.2020
324 Clouds 33 1009 52 6000 7.7 100 08:38 05.07.2020
325 Clouds 33 1009 52 6000 7.7 100 08:38 05.07.2020
326 Clouds 33 1009 52 6000 7.7 100 08:20 05.07.2020
327 Clouds 33 1009 55 6000 7.7 80 07:44 05.07.2020
328 Clouds 33 1010 52 6000 7.7 110 07:26 05.07.2020
329 Clouds 33 1010 52 6000 7.7 110 06:50 05.07.2020
330 Clouds 31 1010 62 6000 7.7 90 05:18 05.07.2020
331 Haze 29 1010 69 4000 1.5 140 03:20 05.07.2020
332 Haze 27 1010 78 4000 1.5 130 02:41 05.07.2020
333 Haze 26 1010 88 3000 1.5 120 01:59 05.07.2020
334 Haze 25 1010 88 3000 1.5 120 01:32 05.07.2020
335 Haze 25 1010 88 3000 3.33 112 00:53 05.07.2020
336 Haze 26 1009 83 3000 1.5 130 00:31 05.07.2020
337 Haze 26 1009 83 3000 1.5 120 23:59 04.07.2020
338 Clouds 26 1009 78 7000 2.1 130 23:41 04.07.2020
339 Clouds 26 1009 78 7000 2.1 130 23:23 04.07.2020
340 Clouds 27 1009 74 7000 2.6 140 22:43 04.07.2020
341 Clouds 27 1009 74 7000 2.6 140 22:25 04.07.2020
342 Clouds 27 1009 69 8000 3.6 130 21:59 04.07.2020
343 Clouds 27 1010 69 8000 3.6 130 21:40 04.07.2020
344 Clouds 27 1010 69 8000 3.6 130 21:22 04.07.2020
345 Clouds 27 1010 74 8000 3.6 120 20:54 04.07.2020
346 Clouds 27 1010 74 8000 4.1 110 20:36 04.07.2020
347 Clouds 27 1010 74 8000 4.1 110 20:18 04.07.2020
348 Clouds 27 1010 74 8000 4.1 110 19:41 04.07.2020
349 Clouds 27 1010 74 8000 3.6 120 19:21 04.07.2020
350 Clouds 27 1011 74 7000 4.1 110 18:55 04.07.2020
351 Clouds 27 1011 74 7000 4.1 110 18:36 04.07.2020
352 Clouds 27 1011 74 7000 4.1 110 18:18 04.07.2020
353 Clouds 27 1010 78 7000 4.1 110 17:42 04.07.2020
354 Clouds 27 1010 78 7000 4.1 110 17:42 04.07.2020
355 Clouds 27 1010 78 7000 4.1 110 17:22 04.07.2020
356 Clouds 27 1010 78 6000 4.6 120 16:56 04.07.2020
357 Haze 27 1010 78 5000 4.6 120 16:37 04.07.2020
358 Haze 27 1010 78 5000 4.6 120 16:37 04.07.2020
359 Haze 27 1010 78 5000 3.6 120 16:18 04.07.2020
360 Haze 27 1010 78 5000 3.6 120 15:45 04.07.2020
361 Clouds 28 1009 70 6000 5.1 60 15:26 04.07.2020
362 Clouds 28 1009 70 6000 5.1 60 14:59 04.07.2020
363 Clouds 29 1009 70 6000 5.1 60 14:37 04.07.2020
364 Clouds 29 1009 70 6000 5.1 60 14:19 04.07.2020
365 Clouds 29 1009 70 6000 5.1 60 13:56 04.07.2020
366 Clouds 29 1008 62 6000 5.1 60 13:37 04.07.2020
367 Clouds 30 1008 58 6000 6.7 60 13:18 04.07.2020
368 Clouds 30 1008 62 6000 5.1 60 12:41 04.07.2020
369 Clouds 31 1008 58 6000 5.1 90 12:20 04.07.2020
370 Clouds 31 1008 59 6000 5.1 60 11:46 04.07.2020
371 Clouds 32 1008 59 6000 5.1 60 11:25 04.07.2020
372 Clouds 32 1008 58 6000 5.1 90 11:00 04.07.2020
373 Clouds 32 1008 55 6000 5.1 60 10:41 04.07.2020
374 Clouds 32 1008 55 6000 5.1 60 10:21 04.07.2020
375 Clouds 32 1008 55 6000 5.1 30 09:57 04.07.2020
376 Clouds 32 1008 55 6000 5.1 30 09:57 04.07.2020
377 Haze 32 1008 55 5000 4.1 80 09:37 04.07.2020
378 Haze 32 1008 55 5000 4.1 80 09:18 04.07.2020
379 Haze 33 1009 55 5000 4.6 60 08:46 04.07.2020
380 Haze 32 1009 58 5000 5.1 90 08:27 04.07.2020
381 Haze 32 1010 58 4000 4.1 90 07:46 04.07.2020
382 Haze 32 1010 58 4000 4.1 90 07:26 04.07.2020
383 Haze 32 1011 58 4000 3.1 120 06:53 04.07.2020
384 Haze 32 1011 62 4000 2.1 90 06:22 04.07.2020
385 Haze 30 1011 70 4000 4.06 69 05:34 04.07.2020
386 Haze 29 1011 78 4000 3.88 78 04:42 04.07.2020
387 Haze 27 1011 88 4000 2.94 101 02:51 04.07.2020
388 Haze 26 1010 88 4000 2.59 111 02:19 04.07.2020
389 Haze 26 1010 88 4000 2.5 114 01:26 04.07.2020
390 Haze 26 1010 88 4000 2.5 114 01:26 04.07.2020
391 Haze 26 1010 83 5000 2.5 114 00:41 04.07.2020
392 Haze 26 1010 83 5000 2.32 107 00:22 04.07.2020
393 Clouds 26 1009 83 7000 0.5 0 23:40 03.07.2020
394 Clouds 26 1009 83 7000 0.5 0 23:19 03.07.2020
395 Clouds 26 1010 83 7000 0.5 0 22:55 03.07.2020
396 Clouds 26 1010 83 8000 1.5 0 22:37 03.07.2020
397 Clouds 26 1010 83 8000 1.5 0 22:19 03.07.2020
398 Clouds 25 1010 83 8000 1 250 21:41 03.07.2020
399 Clouds 25 1010 83 8000 1 250 21:20 03.07.2020
400 Thunderstorm 26 1010 78 8000 1.5 0 20:55 03.07.2020
401 Thunderstorm 26 1010 78 8000 1.5 0 20:55 03.07.2020
402 Clouds 26 1010 83 8000 2.1 230 20:37 03.07.2020
403 Clouds 26 1010 83 8000 2.1 230 20:19 03.07.2020
404 Clouds 26 1012 78 8000 2.1 200 19:41 03.07.2020
405 Clouds 26 1012 78 8000 2.1 200 19:19 03.07.2020
406 Clouds 26 1012 78 8000 2.1 200 18:56 03.07.2020
407 Clouds 26 1012 78 8000 2.1 200 18:38 03.07.2020
408 Clouds 26 1011 78 8000 1.5 0 18:19 03.07.2020
409 Clouds 26 1011 83 8000 3.1 200 17:42 03.07.2020
410 Clouds 26 1011 83 6000 4.1 190 17:22 03.07.2020
411 Clouds 26 1011 83 6000 4.1 190 16:46 03.07.2020
412 Clouds 26 1011 83 6000 4.1 190 16:28 03.07.2020
413 Haze 27 1010 83 5000 2.1 200 15:49 03.07.2020
414 Haze 27 1010 83 5000 2.1 200 15:26 03.07.2020
415 Haze 29 1010 62 5000 2.1 170 15:00 03.07.2020
416 Haze 29 1010 62 5000 2.1 170 14:41 03.07.2020
417 Haze 29 1010 62 5000 2.1 170 14:41 03.07.2020
418 Haze 29 1010 62 5000 2.1 170 14:22 03.07.2020
419 Haze 29 1010 62 5000 2.1 170 13:59 03.07.2020
420 Haze 30 1009 62 4000 6.7 50 13:40 03.07.2020
421 Haze 30 1009 62 4000 6.7 50 13:21 03.07.2020
422 Haze 31 1008 52 5000 4.1 60 12:40 03.07.2020
423 Clouds 31 1007 52 6000 3.1 20 12:21 03.07.2020
424 Clouds 32 1007 49 6000 3.1 10 11:44 03.07.2020
425 Clouds 32 1007 49 6000 3.1 10 11:25 03.07.2020
426 Clouds 33 1007 55 6000 3.1 360 10:59 03.07.2020
427 Clouds 32 1008 62 10000 5.1 70 10:41 03.07.2020
428 Clouds 31 1008 55 6000 2.1 50 10:21 03.07.2020
429 Clouds 31 1008 55 6000 2.1 50 09:58 03.07.2020
430 Clouds 32 1008 55 6000 2.1 50 09:38 03.07.2020
431 Clouds 32 1008 55 6000 2.1 50 09:38 03.07.2020
432 Clouds 32 1008 55 6000 2.1 50 09:19 03.07.2020
433 Clouds 33 1008 52 6000 2.6 20 08:55 03.07.2020
434 Clouds 33 1009 52 6000 2.6 70 08:37 03.07.2020
435 Clouds 33 1009 49 6000 2.1 130 08:18 03.07.2020
436 Clouds 33 1010 52 6000 2.6 40 07:41 03.07.2020
437 Clouds 32 1010 52 6000 2.6 40 07:21 03.07.2020
438 Haze 31 1010 55 5000 3.6 80 06:29 03.07.2020
439 Haze 30 1011 62 5000 1.5 110 05:34 03.07.2020
440 Haze 29 1011 74 4000 3.1 170 03:59 03.07.2020
441 Haze 27 1011 88 4000 2.16 92 02:52 03.07.2020
442 Haze 26 1010 94 4000 1.9 104 02:30 03.07.2020
443 Haze 25 1010 88 3000 1.9 104 01:41 03.07.2020
444 Haze 25 1010 88 3000 1.71 108 01:20 03.07.2020
445 Haze 25 1009 88 3000 1.71 108 00:40 03.07.2020
446 Haze 25 1009 88 3000 1.61 118 23:56 02.07.2020
447 Haze 25 1009 88 3000 1.61 118 23:37 02.07.2020
448 Haze 25 1009 88 3000 1.53 142 23:18 02.07.2020
449 Rain 25 1009 88 1400 2.1 20 22:54 02.07.2020
450 Haze 25 1009 88 4000 1.5 20 22:36 02.07.2020
451 Haze 25 1009 88 4000 1.5 20 22:18 02.07.2020
452 Haze 25 1008 88 5000 2.6 220 21:42 02.07.2020
453 Haze 25 1008 88 5000 2.6 220 21:20 02.07.2020
454 Haze 25 1008 88 5000 3.1 210 20:58 02.07.2020
455 Haze 25 1009 88 5000 3.6 200 20:40 02.07.2020
456 Haze 25 1009 88 5000 3.6 200 20:20 02.07.2020
457 Haze 25 1010 88 5000 3.6 180 19:43 02.07.2020
458 Haze 25 1010 88 5000 2.6 0 19:24 02.07.2020
459 Haze 25 1010 88 5000 2.6 0 18:59 02.07.2020
460 Haze 25 1010 88 5000 3.1 200 18:40 02.07.2020
461 Haze 26 1011 83 5000 3.1 190 18:22 02.07.2020
462 Haze 26 1011 83 5000 3.1 190 17:57 02.07.2020
463 Haze 26 1011 83 5000 3.6 180 17:38 02.07.2020
464 Haze 26 1011 83 5000 3.6 180 17:18 02.07.2020
465 Clouds 26 1011 88 6000 2.1 190 16:43 02.07.2020
466 Haze 26 1012 88 4000 1.5 130 16:21 02.07.2020
467 Haze 26 1012 88 4000 1.5 130 15:59 02.07.2020
468 Haze 26 1012 88 4000 1.5 130 15:38 02.07.2020
469 Rain 26 1011 88 4000 2.6 140 15:20 02.07.2020
470 Rain 26 1011 88 4000 2.6 140 14:46 02.07.2020
471 Rain 27 1011 88 4000 2.6 140 14:23 02.07.2020
472 Haze 27 1011 83 4000 2.1 220 13:57 02.07.2020
473 Haze 27 1011 83 4000 2.1 220 13:57 02.07.2020
474 Haze 27 1011 83 4000 2.1 350 13:39 02.07.2020
475 Haze 27 1011 83 4000 2.1 350 13:19 02.07.2020
476 Haze 27 1010 83 4000 2.1 320 12:57 02.07.2020
477 Haze 27 1009 83 4000 2.6 310 12:38 02.07.2020
478 Haze 27 1009 83 4000 2.6 310 12:38 02.07.2020
479 Rain 27 1009 83 4000 2.6 310 12:19 02.07.2020
480 Haze 27 1009 83 4000 3.1 330 11:42 02.07.2020
481 Haze 27 1009 83 4000 3.1 330 11:24 02.07.2020
482 Haze 27 1009 78 5000 2.6 270 10:47 02.07.2020
483 Haze 27 1009 78 5000 2.6 270 10:27 02.07.2020
484 Rain 27 1009 83 5000 2.6 300 09:57 02.07.2020
485 Haze 26 1009 83 5000 2.6 340 09:37 02.07.2020
486 Haze 26 1009 83 5000 2.6 340 09:19 02.07.2020
487 Thunderstorm 27 1010 74 5000 5.1 270 08:43 02.07.2020
488 Thunderstorm 27 1010 74 5000 5.1 270 08:24 02.07.2020
489 Thunderstorm 27 1009 83 4000 6.7 310 07:55 02.07.2020
490 Thunderstorm 28 1010 83 4000 7.7 330 07:37 02.07.2020
491 Thunderstorm 30 1010 58 5000 2.23 334 07:18 02.07.2020
492 Haze 32 1010 62 5000 3.1 240 06:39 02.07.2020
493 Haze 30 1010 62 5000 2.6 230 06:19 02.07.2020
494 Haze 30 1010 66 5000 2.6 260 05:43 02.07.2020
495 Haze 29 1010 66 5000 1.5 10 03:55 02.07.2020
496 Haze 28 1010 83 3000 1.5 240 03:31 02.07.2020
497 Haze 26 1008 88 3000 1.5 160 00:48 02.07.2020
498 Haze 26 1008 88 3000 1.5 160 00:25 02.07.2020
499 Haze 26 1008 83 3000 2.1 190 23:47 01.07.2020
500 Haze 26 1008 83 3000 2.1 190 23:27 01.07.2020
501 Haze 26 1008 83 3000 2.1 190 22:57 01.07.2020
502 Haze 26 1008 83 3000 2.1 210 22:38 01.07.2020
503 Haze 26 1008 83 3000 2.1 210 22:19 01.07.2020
504 Haze 26 1008 83 3000 1.5 230 21:58 01.07.2020
505 Haze 26 1008 83 3000 1.5 230 21:58 01.07.2020
506 Haze 26 1008 83 3000 1.5 180 21:40 01.07.2020
507 Haze 26 1008 83 3000 1.5 180 21:22 01.07.2020
508 Haze 26 1009 83 3000 1.5 200 20:56 01.07.2020
509 Haze 26 1009 83 3000 1.5 200 20:56 01.07.2020
510 Haze 27 1009 83 3000 2.1 210 20:38 01.07.2020
511 Haze 27 1009 83 3000 2.1 210 20:38 01.07.2020
512 Haze 27 1009 83 3000 2.1 210 20:19 01.07.2020
513 Haze 27 1010 78 3000 1 270 19:43 01.07.2020
514 Haze 27 1010 78 3000 1 270 19:24 01.07.2020
515 Haze 27 1010 78 3000 1.5 0 18:59 01.07.2020
516 Haze 27 1011 78 3000 1.5 210 18:40 01.07.2020
517 Haze 27 1010 78 4000 1.5 240 18:21 01.07.2020
518 Haze 27 1010 78 4000 1.5 240 17:56 01.07.2020
519 Haze 27 1010 78 4000 1.5 240 17:37 01.07.2020
520 Haze 27 1010 78 4000 1.5 240 17:18 01.07.2020
521 Haze 27 1010 78 4000 1.5 190 16:44 01.07.2020
522 Haze 28 1010 78 4000 1.5 190 16:26 01.07.2020
523 Clouds 29 1009 66 6000 2.1 130 15:43 01.07.2020
524 Clouds 29 1009 66 6000 2.1 130 15:25 01.07.2020
525 Clouds 29 1009 62 6000 4.1 60 14:59 01.07.2020
526 Clouds 30 1008 58 6000 4.1 60 14:41 01.07.2020
527 Clouds 30 1008 58 6000 4.1 60 14:21 01.07.2020
528 Clouds 30 1008 55 6000 4.1 60 13:56 01.07.2020
529 Clouds 30 1008 55 6000 4.1 60 13:37 01.07.2020
530 Clouds 31 1007 58 6000 6.2 50 13:19 01.07.2020
531 Clouds 31 1007 58 6000 6.2 50 12:54 01.07.2020
532 Clouds 31 1007 58 6000 6.2 50 12:36 01.07.2020
533 Clouds 32 1007 55 6000 6.2 60 12:18 01.07.2020
534 Clouds 32 1007 55 6000 5.1 60 11:40 01.07.2020
535 Clouds 32 1007 55 6000 5.1 60 11:21 01.07.2020
536 Clouds 34 1007 49 6000 5.1 60 10:57 01.07.2020
537 Clouds 34 1007 49 6000 5.1 60 10:57 01.07.2020
538 Clouds 34 1007 46 6000 4.6 60 10:39 01.07.2020
539 Clouds 34 1007 46 6000 4.6 60 10:20 01.07.2020
540 Clouds 33 1007 44 6000 5.1 90 09:39 01.07.2020
541 Clouds 34 1007 44 6000 5.1 90 09:20 01.07.2020
542 Clouds 34 1007 46 6000 6.2 30 08:59 01.07.2020
543 Clouds 34 1008 49 6000 5.1 120 08:40 01.07.2020
544 Clouds 34 1008 49 6000 5.1 120 08:19 01.07.2020
545 Clouds 34 1008 49 6000 5.1 90 07:42 01.07.2020
546 Clouds 33 1008 49 6000 5.1 90 07:24 01.07.2020
547 Clouds 32 1009 52 6000 2.6 90 06:57 01.07.2020
548 Haze 32 1009 52 5000 5.1 90 06:38 01.07.2020
549 Haze 32 1010 52 5000 3.6 90 06:20 01.07.2020
550 Haze 30 1010 62 5000 2.1 210 04:30 01.07.2020
551 Haze 29 1010 69 5000 3.1 180 03:44 01.07.2020
552 Haze 28 1010 69 5000 3.1 180 03:22 01.07.2020
553 Mist 26 1009 100 2000 1.5 220 02:19 01.07.2020
554 Mist 25 1009 94 2000 1.87 104 01:23 01.07.2020
555 Haze 25 1009 94 4000 1.87 104 00:38 01.07.2020
556 Haze 26 1009 94 4000 2.13 111 00:19 01.07.2020
557 Haze 26 1008 88 5000 2.13 111 23:40 30.06.2020
558 Haze 26 1008 88 5000 2.33 109 23:20 30.06.2020
559 Haze 26 1008 83 3500 2.1 220 22:42 30.06.2020
560 Haze 26 1008 83 3500 2.1 220 22:19 30.06.2020
561 Haze 26 1008 83 5000 2.1 0 21:54 30.06.2020
562 Haze 26 1009 83 5000 2.1 140 21:36 30.06.2020
563 Haze 26 1009 83 5000 2.1 140 21:18 30.06.2020
564 Haze 27 1009 83 5000 3.1 120 20:42 30.06.2020
565 Haze 27 1009 83 5000 3.1 120 20:21 30.06.2020
566 Clouds 27 1010 83 6000 3.1 120 19:44 30.06.2020
567 Clouds 27 1010 83 6000 3.1 120 19:21 30.06.2020
568 Clouds 27 1010 78 6000 3.1 110 18:58 30.06.2020
569 Clouds 27 1009 78 6000 3.6 120 18:40 30.06.2020
570 Clouds 27 1010 83 6000 3.6 120 18:20 30.06.2020
571 Clouds 27 1010 83 6000 4.1 100 17:40 30.06.2020
572 Clouds 27 1010 83 6000 4.1 100 17:21 30.06.2020
573 Clouds 27 1010 83 6000 3.1 110 16:58 30.06.2020
574 Clouds 27 1010 83 7000 3.6 90 16:40 30.06.2020
575 Clouds 28 1010 83 7000 3.6 90 16:21 30.06.2020
576 Clouds 28 1009 78 7000 5.1 90 15:56 30.06.2020
577 Haze 29 1008 70 5000 4.1 40 15:38 30.06.2020
578 Haze 29 1008 70 5000 4.1 40 15:19 30.06.2020
579 Haze 29 1008 70 5000 4.1 40 14:43 30.06.2020
580 Haze 29 1008 70 5000 4.1 40 14:21 30.06.2020
581 Haze 30 1008 66 5000 5.1 60 13:57 30.06.2020
582 Haze 30 1008 62 5000 4.6 80 13:37 30.06.2020
583 Haze 31 1008 62 5000 6.2 60 13:19 30.06.2020
584 Haze 31 1008 62 5000 6.2 60 12:55 30.06.2020
585 Haze 31 1007 58 5000 6.2 80 12:37 30.06.2020
586 Clouds 32 1007 52 6000 6.2 70 12:18 30.06.2020
587 Clouds 32 1007 52 6000 6.2 70 12:18 30.06.2020
588 Clouds 32 1007 52 6000 6.2 70 11:56 30.06.2020
589 Clouds 32 1007 49 6000 5.1 90 11:37 30.06.2020
590 Clouds 32 1007 49 6000 5.1 90 11:18 30.06.2020
591 Clouds 28 1011 78 7000 2.6 90 16:47 28.06.2020
592 Clouds 28 1011 78 7000 3.1 90 16:28 28.06.2020
593 Clouds 28 1010 74 7000 3.1 80 15:59 28.06.2020
594 -273 0 0 0 0 0 15:59 28.06.2020
595 Haze 29 1009 66 5000 2.1 60 15:40 28.06.2020
596 Haze 29 1009 66 5000 2.1 60 15:20 28.06.2020
597 Haze 29 1009 66 5000 2.1 60 14:58 28.06.2020
598 Haze 29 1009 66 5000 2.1 60 14:39 28.06.2020
599 Haze 29 1009 66 5000 2.1 60 14:21 28.06.2020
600 Haze 30 1009 58 4000 3.6 40 13:40 28.06.2020
601 Haze 30 1009 58 4000 3.6 40 13:21 28.06.2020
602 Haze 31 1008 58 5000 4.1 40 12:58 28.06.2020
603 Haze 31 1008 58 5000 4.1 20 12:38 28.06.2020
604 Haze 31 1008 58 5000 4.1 20 12:38 28.06.2020
605 Haze 32 1008 55 5000 4.1 20 12:19 28.06.2020
606 Haze 32 1008 55 5000 4.1 20 11:59 28.06.2020
607 Haze 32 1007 49 5000 2.1 360 11:40 28.06.2020
608 Haze 32 1007 49 5000 2.1 360 11:20 28.06.2020
609 Haze 32 1007 49 5000 2.1 360 10:58 28.06.2020
610 Haze 32 1007 49 5000 2.6 40 10:40 28.06.2020
611 Haze 32 1007 49 5000 2.6 40 10:21 28.06.2020
612 Haze 33 1008 46 5000 1.5 30 09:42 28.06.2020
613 Haze 34 1008 46 5000 1.5 30 09:23 28.06.2020
614 Haze 32 1008 46 5000 2.6 60 08:57 28.06.2020
615 Haze 33 1009 49 5000 1.5 360 08:38 28.06.2020
616 Haze 33 1009 49 5000 1.5 360 08:20 28.06.2020
617 Haze 32 1010 49 5000 2.1 80 07:33 28.06.2020
618 Haze 32 1011 55 5000 3.1 110 06:56 28.06.2020
619 Haze 31 1011 55 5000 3.1 110 06:32 28.06.2020
620 Haze 30 1012 62 4000 2.1 90 05:45 28.06.2020
621 Haze 30 1012 66 4000 2.1 110 04:27 28.06.2020
622 Haze 27 1012 83 3000 1.5 180 02:58 28.06.2020
623 Haze 27 1012 88 3000 2.45 101 02:21 28.06.2020
624 Haze 26 1011 88 3000 2.45 101 01:45 28.06.2020
625 Haze 27 1011 94 3000 2.21 111 00:57 28.06.2020
626 Haze 27 1011 88 3000 2.21 112 00:30 28.06.2020
627 Haze 26 1011 94 3000 1.5 210 23:58 27.06.2020
628 Haze 26 1011 94 3000 1.5 150 23:39 27.06.2020
629 Haze 26 1011 94 3000 1.5 150 23:21 27.06.2020
630 Haze 26 1011 83 4000 1.5 160 22:42 27.06.2020
631 Haze 26 1011 83 4000 1.5 160 22:23 27.06.2020
632 Haze 26 1011 83 4000 1.5 160 22:23 27.06.2020
633 Haze 26 1011 83 5000 1.5 210 21:59 27.06.2020
634 Haze 26 1011 83 5000 2.1 200 21:41 27.06.2020
635 Haze 26 1011 83 5000 2.1 200 21:20 27.06.2020
636 Haze 26 1011 83 5000 1.5 200 20:55 27.06.2020
637 Haze 26 1011 83 5000 2.1 230 20:37 27.06.2020
638 Haze 27 1011 83 5000 2.1 230 20:18 27.06.2020
639 Haze 27 1012 83 3000 1.5 170 19:38 27.06.2020
640 Haze 27 1012 83 3000 1.5 170 19:19 27.06.2020
641 Haze 27 1012 83 3000 1.5 170 18:57 27.06.2020
642 Haze 27 1012 83 3000 1.5 170 18:37 27.06.2020
643 Haze 28 1012 83 3000 1.5 120 18:19 27.06.2020
644 Haze 28 1012 78 3000 1.5 120 17:41 27.06.2020
645 Haze 28 1012 78 3000 1.5 120 17:20 27.06.2020
646 Haze 28 1012 78 3000 2.1 90 16:57 27.06.2020
647 Haze 28 1011 78 3000 3.1 90 16:38 27.06.2020
648 Haze 28 1011 78 3000 3.1 90 16:19 27.06.2020
649 Clouds 28 1011 78 7000 3.6 80 15:43 27.06.2020
650 Haze 29 1010 70 5000 4.1 70 15:24 27.06.2020
651 Haze 29 1010 70 5000 4.1 70 14:57 27.06.2020
652 Haze 29 1010 70 5000 4.1 70 14:38 27.06.2020
653 Haze 29 1010 70 5000 4.1 70 14:19 27.06.2020
654 Haze 30 1009 62 5000 4.1 60 13:54 27.06.2020
655 Clouds 30 1009 62 6000 4.1 60 13:36 27.06.2020
656 Clouds 30 1009 58 6000 4.6 60 13:18 27.06.2020
657 Clouds 31 1008 55 6000 4.6 30 12:40 27.06.2020
658 Clouds 31 1008 58 6000 5.1 60 12:22 27.06.2020
659 Clouds 31 1008 58 6000 5.1 60 11:59 27.06.2020
660 Clouds 31 1008 58 6000 5.1 60 11:40 27.06.2020
661 Clouds 31 1008 58 6000 5.1 60 11:21 27.06.2020
662 Clouds 32 1008 55 6000 4.6 60 10:41 27.06.2020
663 Clouds 32 1008 55 6000 4.6 60 10:19 27.06.2020
664 Clouds 33 1008 55 6000 4.1 90 09:58 27.06.2020
665 Clouds 33 1008 55 6000 5.1 120 09:39 27.06.2020
666 Clouds 33 1008 55 6000 5.1 120 09:20 27.06.2020
667 Clouds 33 1009 55 6000 5.1 90 08:44 27.06.2020
668 Clouds 33 1009 55 6000 5.1 90 08:23 27.06.2020
669 Haze 33 1010 52 5000 2.6 110 07:48 27.06.2020
670 Haze 33 1010 55 5000 5.1 60 07:25 27.06.2020
671 Haze 32 1010 58 5000 5.7 110 06:51 27.06.2020
672 Haze 32 1010 58 5000 5.7 110 06:33 27.06.2020
673 Haze 31 1011 66 5000 5.1 90 04:44 27.06.2020
674 Haze 30 1011 66 4000 3.6 120 04:18 27.06.2020
675 Haze 28 1011 74 4000 1.5 100 03:43 27.06.2020
676 Haze 27 1010 88 3000 1.5 140 02:42 27.06.2020
677 Haze 27 1010 88 3000 1.5 140 02:22 27.06.2020
678 Mist 26 1010 94 3000 3.32 107 01:24 27.06.2020
679 Haze 26 1009 88 3000 3.32 107 00:47 27.06.2020
680 Haze 26 1009 88 3000 3.34 104 23:47 26.06.2020
681 Haze 26 1009 88 3000 3.39 102 23:27 26.06.2020
682 Haze 26 1009 83 3000 1.5 190 22:58 26.06.2020
683 Haze 26 1009 83 3000 1.5 220 22:39 26.06.2020
684 Haze 26 1009 83 3000 1.5 220 22:21 26.06.2020
685 Haze 26 1010 88 3000 1 190 21:58 26.06.2020
686 Haze 26 1010 83 3600 0.5 10 21:39 26.06.2020
687 Haze 26 1010 83 3600 0.5 10 21:20 26.06.2020
688 Haze 27 1010 83 5000 1.5 0 20:47 26.06.2020
689 Haze 27 1010 83 5000 1.5 0 20:27 26.06.2020
690 Rain 27 1010 83 5000 3.1 260 19:55 26.06.2020
691 Rain 27 1011 83 3500 3.6 290 19:37 26.06.2020
692 Rain 28 1011 78 3300 2.6 250 19:18 26.06.2020
693 Rain 28 1010 78 6000 1.5 0 18:41 26.06.2020
694 Rain 28 1010 78 6000 1.5 0 18:23 26.06.2020
695 Clouds 28 1011 78 6000 2.1 70 17:45 26.06.2020
696 Clouds 28 1011 78 6000 2.1 70 17:45 26.06.2020
697 Clouds 28 1011 78 6000 2.6 80 17:27 26.06.2020
698 Clouds 28 1010 78 6000 2.6 100 16:59 26.06.2020
699 Haze 28 1010 74 5000 3.1 70 16:41 26.06.2020
700 Haze 29 1010 74 5000 3.1 70 16:21 26.06.2020
701 Haze 29 1009 70 5000 3.6 80 15:41 26.06.2020
702 Haze 29 1009 70 5000 3.6 80 15:21 26.06.2020
703 Haze 29 1009 70 5000 3.6 80 14:58 26.06.2020
704 Haze 29 1009 66 5000 3.1 70 14:39 26.06.2020
705 Haze 29 1009 66 5000 3.1 70 14:21 26.06.2020
706 Haze 30 1008 62 4000 3.6 30 13:45 26.06.2020
707 Haze 30 1008 62 4000 3.6 30 13:24 26.06.2020
708 Haze 30 1008 58 5000 4.1 40 12:57 26.06.2020
709 Haze 31 1008 58 5000 4.1 40 12:38 26.06.2020
710 Haze 31 1007 58 5000 4.6 20 12:19 26.06.2020
711 Haze 31 1007 58 5000 4.6 20 11:57 26.06.2020
712 Clouds 31 1007 58 6000 4.1 10 11:38 26.06.2020
713 Clouds 31 1007 58 6000 4.1 10 11:20 26.06.2020
714 Clouds 32 1007 59 6000 6.2 30 10:57 26.06.2020
715 Haze 32 1007 59 5000 6.2 20 10:37 26.06.2020
716 Haze 33 1007 59 5000 6.2 20 10:18 26.06.2020
717 Haze 33 1007 55 5000 4.1 340 09:42 26.06.2020
718 Haze 33 1007 55 5000 4.1 340 09:22 26.06.2020
719 Haze 33 1007 55 5000 3.6 60 08:51 26.06.2020
720 Haze 33 1008 52 5000 3.6 80 08:28 26.06.2020
721 Haze 34 1009 49 5000 3.1 30 07:52 26.06.2020
722 Haze 33 1009 52 5000 3.1 120 07:24 26.06.2020
723 Haze 32 1009 52 5000 2.1 60 06:57 26.06.2020
724 Haze 32 1010 55 5000 2.6 90 06:35 26.06.2020
725 Haze 31 1010 59 5000 2.1 120 05:58 26.06.2020
726 Haze 31 1010 62 5000 1.5 150 05:33 26.06.2020
727 Haze 27 1010 94 2000 2.01 123 02:42 26.06.2020
728 Haze 27 1010 94 2000 2.27 139 02:22 26.06.2020
729 Haze 25 1010 94 3000 2.32 138 01:19 26.06.2020
730 Haze 25 1009 94 3000 2.32 138 00:39 26.06.2020
731 Haze 25 1009 94 3000 2.17 131 00:18 26.06.2020
732 Haze 25 1009 94 3000 2.17 131 23:39 25.06.2020
733 Haze 25 1009 94 3000 2.25 119 23:18 25.06.2020
734 Haze 24 1009 88 2500 1 250 22:54 25.06.2020
735 Haze 24 1009 88 2500 1 250 22:54 25.06.2020
736 Haze 24 1009 88 2500 1 250 22:36 25.06.2020
737 Haze 24 1009 88 2500 1 250 22:18 25.06.2020
738 Mist 24 1009 94 3000 1 260 21:54 25.06.2020
739 Haze 24 1009 88 3000 1 290 21:36 25.06.2020
740 Haze 24 1009 88 3000 1 20 21:18 25.06.2020
741 Haze 26 1010 83 3500 2.61 112 20:43 25.06.2020
742 Haze 27 1010 83 3500 2.67 105 20:23 25.06.2020
743 Haze 27 1010 83 4000 1.5 280 19:57 25.06.2020
744 Haze 27 1010 83 4000 1.5 280 19:38 25.06.2020
745 Haze 27 1010 83 4400 1 230 19:18 25.06.2020
746 Haze 27 1010 78 5000 0.5 0 18:55 25.06.2020
747 Haze 27 1010 78 5000 0.5 0 18:36 25.06.2020
748 Haze 27 1010 78 5000 0.5 0 18:36 25.06.2020
749 Clouds 27 1010 78 5000 1.5 250 18:18 25.06.2020
750 Haze 27 1009 83 5000 2.1 260 17:39 25.06.2020
751 Haze 27 1009 83 5000 2.1 260 17:19 25.06.2020
752 Clouds 27 1009 78 6000 1 270 16:41 25.06.2020
753 Clouds 27 1009 78 6000 1 270 16:21 25.06.2020
754 Clouds 28 1009 74 6000 2.57 89 15:45 25.06.2020
755 Clouds 28 1009 74 6000 3.07 80 15:27 25.06.2020
756 Clouds 28 1009 74 6000 3.07 80 14:58 25.06.2020
757 Clouds 29 1008 66 6000 3.1 30 14:40 25.06.2020
758 Clouds 29 1008 66 6000 3.1 30 14:22 25.06.2020
759 Haze 29 1008 66 5000 3.6 20 13:56 25.06.2020
760 Haze 30 1007 66 5000 4.1 20 13:37 25.06.2020
761 Haze 30 1007 66 5000 4.6 30 13:19 25.06.2020
762 Haze 30 1007 66 5000 4.1 20 13:19 25.06.2020
763 Haze 31 1006 55 5000 4.6 20 12:44 25.06.2020
764 Clouds 31 1006 52 6000 3.6 60 12:20 25.06.2020
765 Clouds 32 1006 49 6000 3.6 90 11:44 25.06.2020
766 Clouds 33 1006 49 6000 3.6 90 11:25 25.06.2020
767 Clouds 33 1006 46 6000 4.6 50 10:59 25.06.2020
768 Clouds 34 1006 44 6000 4.6 60 10:40 25.06.2020
769 Clouds 34 1006 44 6000 4.6 60 10:22 25.06.2020
770 Clouds 34 1007 46 6000 4.6 20 09:41 25.06.2020
771 Clouds 34 1007 46 6000 4.6 20 09:41 25.06.2020
772 Clouds 34 1007 46 6000 4.6 20 09:23 25.06.2020
773 Clouds 34 1008 49 6000 4.1 100 08:47 25.06.2020
774 Clouds 33 1008 49 6000 4.1 100 08:20 25.06.2020
775 Clouds 32 1008 49 6000 4.1 90 07:56 25.06.2020
776 Clouds 34 1008 49 6000 4.1 90 07:38 25.06.2020
777 Clouds 33 1009 55 6000 5.1 90 07:19 25.06.2020
778 Haze 32 1009 58 5000 3.6 110 06:28 25.06.2020
779 Haze 32 1010 62 5000 3.6 110 05:53 25.06.2020
780 Haze 30 1010 74 4000 2.6 90 04:56 25.06.2020
781 Haze 29 1010 83 2000 1.5 100 03:35 25.06.2020
782 Mist 27 1010 100 1500 2.86 103 02:44 25.06.2020
783 Mist 26 1010 100 1500 2 135 02:18 25.06.2020
784 Mist 25 1010 94 2000 1.61 142 01:29 25.06.2020
785 Mist 25 1009 100 2000 1.5 220 00:47 25.06.2020
786 Mist 25 1009 100 2000 1.5 270 00:22 25.06.2020
787 Mist 25 1009 100 2000 1.5 270 23:58 24.06.2020
788 Mist 25 1009 100 2000 1.05 154 23:37 24.06.2020
789 Mist 25 1009 100 2000 0.52 158 23:18 24.06.2020
790 Haze 26 1010 83 3500 1 0 22:41 24.06.2020
791 Haze 26 1010 83 3500 1 0 22:20 24.06.2020
792 Haze 25 1010 83 3500 1 220 21:57 24.06.2020
793 Haze 25 1010 83 3500 1 230 21:37 24.06.2020
794 Haze 25 1010 83 3500 1 230 21:19 24.06.2020
795 Haze 26 1010 78 4000 1.5 230 20:58 24.06.2020
796 Haze 26 1011 78 4000 1 0 20:39 24.06.2020
797 Haze 26 1011 78 4000 1 0 20:20 24.06.2020
798 Haze 26 1011 78 4000 1 220 19:57 24.06.2020
799 Haze 26 1011 83 4000 1.5 240 19:38 24.06.2020
800 Haze 27 1011 78 4000 2.1 220 19:19 24.06.2020
801 Haze 27 1011 94 3000 1.5 220 18:58 24.06.2020
802 Haze 27 1011 94 3000 1.5 220 18:39 24.06.2020
803 Haze 27 1011 94 3000 1.5 220 18:20 24.06.2020
804 Haze 27 1011 94 3000 1.5 220 17:54 24.06.2020
805 Haze 26 1011 94 3000 1.5 220 17:36 24.06.2020
806 Haze 26 1011 94 3000 1.5 220 17:18 24.06.2020
807 Haze 26 1011 94 3000 1.5 220 16:54 24.06.2020
808 Haze 26 1011 94 3000 1.5 60 16:36 24.06.2020
809 Haze 26 1010 94 3000 1.5 140 16:18 24.06.2020
810 Haze 27 1010 78 4000 1 230 15:39 24.06.2020
811 Haze 27 1009 94 3000 1.5 210 15:20 24.06.2020
812 Haze 27 1009 94 3000 1.5 210 14:59 24.06.2020
813 Haze 27 1009 94 3000 1.5 210 14:40 24.06.2020
814 Haze 27 1009 94 3000 1.5 210 14:21 24.06.2020
815 Haze 28 1009 88 3000 1.5 240 13:42 24.06.2020
816 Haze 28 1009 88 4000 1.5 270 13:21 24.06.2020
817 Haze 28 1009 83 4000 1.5 320 12:44 24.06.2020
818 Haze 28 1008 88 4000 2.6 300 12:21 24.06.2020
819 Haze 28 1008 88 4000 2.6 300 11:58 24.06.2020
820 Rain 28 1008 88 4000 3.6 240 11:40 24.06.2020
821 Thunderstorm 28 1008 88 4000 5.1 180 11:22 24.06.2020
822 Rain 30 1008 70 5000 1.5 330 10:48 24.06.2020
823 Rain 31 1008 70 5000 1.5 330 10:20 24.06.2020
824 Haze 33 1008 59 5000 2.6 340 09:57 24.06.2020
825 Clouds 33 1008 52 6000 2.6 270 09:39 24.06.2020
826 Clouds 33 1008 52 6000 2.6 270 09:20 24.06.2020
827 Clouds 33 1009 52 6000 2.6 150 08:40 24.06.2020
828 Clouds 33 1009 52 6000 2.6 150 08:19 24.06.2020
829 Clouds 32 1010 58 6000 2.1 170 07:50 24.06.2020
830 Clouds 31 1010 55 6000 2.6 120 07:26 24.06.2020
831 Clouds 31 1010 62 6000 2.6 150 06:46 24.06.2020
832 Clouds 31 1011 62 6000 2.6 60 06:24 24.06.2020
833 Clouds 30 1011 62 6000 1.12 331 05:46 24.06.2020
834 Clouds 29 1011 66 6000 2.6 210 04:40 24.06.2020
835 Clouds 27 1010 78 6000 1.5 240 03:40 24.06.2020
836 Clouds 26 1010 83 6000 1.5 220 03:18 24.06.2020
837 Clouds 26 1010 88 6000 0.66 185 02:41 24.06.2020
838 Haze 25 1010 88 5000 2.6 200 00:58 24.06.2020
839 Haze 25 1009 88 5000 2.6 210 00:39 24.06.2020
840 Haze 25 1009 94 5000 2.1 230 00:21 24.06.2020
841 Haze 25 1009 94 5000 2.1 240 23:40 23.06.2020
842 Haze 25 1010 88 5000 1 250 23:18 23.06.2020
843 Haze 25 1010 83 5000 1.5 0 22:41 23.06.2020
844 Haze 26 1010 83 5000 2.6 200 22:19 23.06.2020
845 Haze 26 1010 83 5000 2.6 200 21:59 23.06.2020
846 Haze 25 1010 88 5000 1.5 210 21:38 23.06.2020
847 Clouds 25 1010 88 5000 3.1 200 21:18 23.06.2020
848 Haze 25 1010 88 5000 3.6 200 20:55 23.06.2020
849 Haze 25 1010 88 5000 3.6 200 20:37 23.06.2020
850 Haze 26 1010 88 5000 3.6 200 20:18 23.06.2020
851 Haze 26 1011 83 4500 3.1 190 19:44 23.06.2020
852 Haze 26 1011 83 4000 2.1 240 19:24 23.06.2020
853 Haze 26 1011 83 4000 2.1 240 18:40 23.06.2020
854 Haze 26 1011 83 3500 2.6 240 18:19 23.06.2020
855 Haze 26 1011 83 3500 2.6 240 17:56 23.06.2020
856 Haze 26 1011 83 4000 2.6 240 17:38 23.06.2020
857 Haze 26 1011 83 4000 2.1 0 17:18 23.06.2020
858 Haze 27 1011 83 4000 2.1 0 16:54 23.06.2020
859 Haze 27 1011 83 5000 2.1 110 16:36 23.06.2020
860 Clouds 27 1011 88 6000 2.1 50 16:18 23.06.2020
861 Clouds 27 1011 88 7000 1.5 30 15:43 23.06.2020
862 Haze 28 1009 70 5000 3.1 70 15:24 23.06.2020
863 Haze 28 1009 70 5000 3.1 70 14:55 23.06.2020
864 Haze 28 1009 70 5000 3.1 70 14:37 23.06.2020
865 Haze 29 1009 70 5000 4.1 50 14:18 23.06.2020
866 Haze 29 1009 66 5000 4.1 40 13:45 23.06.2020
867 Haze 30 1008 62 5000 4.1 40 13:25 23.06.2020
868 Clouds 30 1008 55 6000 4.6 30 12:59 23.06.2020
869 Clouds 31 1008 55 6000 4.6 30 12:39 23.06.2020
870 Clouds 31 1007 52 6000 4.1 60 12:19 23.06.2020
871 Clouds 32 1007 55 6000 4.1 50 11:43 23.06.2020
872 Clouds 33 1007 55 6000 4.1 50 11:23 23.06.2020
873 Clouds 32 1007 52 6000 4.1 50 10:58 23.06.2020
874 Clouds 33 1007 52 6000 6.2 50 10:40 23.06.2020
875 Clouds 33 1007 62 10000 6.2 60 10:22 23.06.2020
876 Haze 33 1008 52 5000 5.1 50 09:57 23.06.2020
877 Haze 33 1008 52 5000 5.1 50 09:38 23.06.2020
878 Haze 33 1008 52 5000 5.1 50 09:19 23.06.2020
879 Haze 33 1008 52 5000 5.1 50 08:46 23.06.2020
880 Haze 33 1008 52 5000 5.1 50 08:26 23.06.2020
881 Haze 32 1009 66 4000 5.7 60 07:47 23.06.2020
882 Haze 31 1010 70 4000 5.1 110 07:24 23.06.2020
883 Haze 30 1010 66 4000 2.6 120 06:53 23.06.2020
884 Haze 30 1010 66 4000 2.6 120 06:32 23.06.2020
885 Haze 30 1010 66 4000 2.6 60 05:56 23.06.2020
886 Haze 29 1010 74 4000 1.9 80 05:26 23.06.2020
887 Haze 26 1010 83 5000 1.85 98 03:22 23.06.2020
888 Mist 26 1010 100 3000 1.85 98 02:49 23.06.2020
889 Mist 26 1010 100 3000 1.65 103 02:29 23.06.2020
890 Haze 25 1009 94 3000 1.4 112 01:46 23.06.2020
891 Haze 24 1009 94 3000 1.5 210 01:24 23.06.2020
892 Rain 24 1009 100 3000 1.5 220 00:41 23.06.2020
893 Rain 24 1009 100 3000 1.5 230 00:20 23.06.2020
894 Rain 24 1009 100 3000 1.5 230 23:54 22.06.2020
895 Rain 24 1009 100 3000 1.5 230 23:54 22.06.2020
896 Rain 24 1008 94 4000 1.5 270 23:36 22.06.2020
897 Rain 24 1008 94 4000 1.5 270 23:18 22.06.2020
898 Thunderstorm 25 1009 88 4000 4.1 120 22:54 22.06.2020
899 Thunderstorm 26 1008 88 4000 7.2 110 22:36 22.06.2020
900 Clouds 26 1009 83 4000 3.1 100 22:18 22.06.2020
901 Thunderstorm 26 1008 88 4000 7.2 110 22:18 22.06.2020
902 Haze 26 1009 83 5000 1 180 21:40 22.06.2020
903 Haze 26 1009 83 5000 1 180 21:22 22.06.2020
904 Haze 26 1009 83 5000 1 210 20:59 22.06.2020
905 Haze 26 1010 83 5000 1.5 200 20:40 22.06.2020
906 Haze 26 1010 83 5000 2.1 190 20:20 22.06.2020
907 Haze 26 1010 83 5000 2.1 190 19:44 22.06.2020
908 Haze 26 1010 83 5000 2.1 190 19:19 22.06.2020
909 Haze 26 1010 83 5000 2.1 210 18:57 22.06.2020
910 Haze 26 1010 83 5000 2.1 210 18:38 22.06.2020
911 Clouds 26 1010 83 6000 1.5 220 18:19 22.06.2020
912 Clouds 26 1010 83 6000 1.5 220 17:55 22.06.2020
913 Clouds 26 1010 83 6000 1.5 200 17:37 22.06.2020
914 Clouds 26 1010 83 6000 2.1 210 17:18 22.06.2020
915 Clouds 26 1010 78 6000 2.1 210 16:43 22.06.2020
916 Clouds 27 1010 78 6000 2.1 210 16:19 22.06.2020
917 Clouds 27 1010 83 6000 4.1 130 15:58 22.06.2020
918 Haze 27 1009 83 4000 4.6 90 15:39 22.06.2020
919 Haze 27 1009 83 4000 4.6 90 15:21 22.06.2020
920 Haze 27 1009 83 4000 4.6 90 14:40 22.06.2020
921 Haze 27 1008 83 4000 1.5 120 14:21 22.06.2020
922 Haze 27 1008 83 4000 1.5 120 13:58 22.06.2020
923 Haze 27 1008 83 4000 1.5 120 13:39 22.06.2020
924 Haze 27 1008 83 4000 1.5 120 13:20 22.06.2020
925 Haze 28 1007 78 4000 4.1 40 12:44 22.06.2020
926 Haze 28 1007 78 4000 4.1 40 12:44 22.06.2020
927 Haze 28 1007 88 3000 4.1 30 12:23 22.06.2020
928 Haze 28 1007 88 3000 4.1 30 11:59 22.06.2020
929 Rain 27 1007 100 3000 1.5 70 11:37 22.06.2020
930 Rain 28 1007 78 3000 7.7 70 11:19 22.06.2020
931 Rain 29 1007 78 3000 7.7 70 10:55 22.06.2020
932 Rain 31 1007 62 4000 4.1 80 10:36 22.06.2020
933 Haze 31 1007 58 4000 4.1 60 10:18 22.06.2020
934 Haze 31 1007 58 4000 4.1 60 09:55 22.06.2020
935 Haze 30 1007 62 4000 4.1 60 09:37 22.06.2020
936 Haze 30 1008 62 4000 3.1 60 09:18 22.06.2020
937 Haze 31 1008 62 5000 4.6 50 08:40 22.06.2020
938 Haze 31 1008 62 5000 4.6 50 08:21 22.06.2020
939 Haze 31 1008 62 5000 4.1 90 07:53 22.06.2020
940 Haze 31 1009 58 5000 4.1 80 07:34 22.06.2020
941 Haze 32 1009 58 5000 4.1 60 06:56 22.06.2020
942 Haze 31 1009 58 5000 4.1 40 06:36 22.06.2020
943 Haze 31 1009 58 5000 3.1 100 06:18 22.06.2020
944 Haze 31 1009 58 5000 4.1 90 05:41 22.06.2020
945 Haze 28 1009 70 4000 0.77 62 02:59 22.06.2020
946 Haze 28 1009 70 4000 0.77 62 02:59 22.06.2020
947 Haze 26 1008 83 4000 1.24 122 01:38 22.06.2020
948 Haze 26 1008 83 5000 1.5 270 00:41 22.06.2020
949 Haze 26 1007 83 5000 1.5 200 00:19 22.06.2020
950 Haze 26 1007 83 5000 1.5 200 23:55 21.06.2020
951 Haze 27 1007 83 5000 2.1 240 23:36 21.06.2020
952 Haze 26 1007 83 5000 2.1 200 23:18 21.06.2020
953 Haze 26 1007 83 5000 2.1 200 22:54 21.06.2020
954 Thunderstorm 27 1008 88 2500 1 240 22:36 21.06.2020
955 Thunderstorm 27 1008 88 2500 1 240 22:36 21.06.2020
956 Thunderstorm 27 1008 88 2500 1 240 22:36 21.06.2020
957 Thunderstorm 27 1008 83 2500 2.1 190 22:18 21.06.2020
958 Thunderstorm 27 1008 83 2500 2.1 190 21:54 21.06.2020
959 Haze 27 1008 83 2500 2.6 220 21:36 21.06.2020
960 Haze 27 1008 83 3000 2.6 220 21:18 21.06.2020
961 Haze 27 1008 78 4000 2.1 260 20:39 21.06.2020
962 Haze 27 1008 78 4000 2.1 260 20:19 21.06.2020
963 Haze 27 1009 78 5000 2.1 260 19:59 21.06.2020
964 Haze 27 1009 78 5000 1.94 123 19:40 21.06.2020
965 Haze 27 1009 78 5000 2.3 119 19:20 21.06.2020
966 Haze 27 1009 78 5000 1 290 18:55 21.06.2020
967 Clouds 28 1008 74 6000 2.6 80 18:37 21.06.2020
968 Clouds 28 1008 74 6000 2.6 80 18:19 21.06.2020
969 Clouds 28 1008 74 6000 2.6 80 18:19 21.06.2020
970 Clouds 28 1008 74 6000 2.6 80 17:41 21.06.2020
971 Clouds 28 1008 74 6000 3.1 110 17:21 21.06.2020
972 Clouds 28 1008 74 6000 3.1 110 16:57 21.06.2020
973 Clouds 28 1008 78 6000 1.5 130 16:39 21.06.2020
974 Clouds 28 1008 78 6000 1.5 130 16:21 21.06.2020
975 Clouds 28 1007 74 7000 2.6 120 15:40 21.06.2020
976 Clouds 28 1007 74 6000 2.1 90 15:40 21.06.2020
977 Clouds 28 1007 74 6000 2.1 90 15:22 21.06.2020
978 Clouds 28 1007 74 6000 2.1 90 14:58 21.06.2020
979 Clouds 28 1007 74 6000 2.1 90 14:37 21.06.2020
980 Clouds 28 1007 74 6000 2.6 60 14:19 21.06.2020
981 Clouds 28 1007 74 6000 2.6 60 13:55 21.06.2020
982 Clouds 29 1007 70 6000 4.1 60 13:36 21.06.2020
983 Clouds 29 1007 70 6000 4.6 50 13:18 21.06.2020
984 Clouds 30 1007 66 6000 4.6 30 12:42 21.06.2020
985 Clouds 30 1007 66 6000 4.6 30 12:23 21.06.2020
986 Clouds 31 1007 58 6000 5.1 10 11:43 21.06.2020
987 Clouds 31 1007 58 6000 5.1 10 11:25 21.06.2020
988 Clouds 31 1007 55 6000 5.1 10 10:59 21.06.2020
989 Clouds 32 1007 52 6000 5.1 30 10:40 21.06.2020
990 Clouds 32 1007 49 6000 5.7 30 10:22 21.06.2020
991 Clouds 32 1007 49 6000 5.7 30 09:58 21.06.2020
992 Clouds 33 1007 52 6000 5.7 20 09:36 21.06.2020
993 Clouds 33 1007 49 6000 4.1 340 09:18 21.06.2020
994 Clouds 33 1007 49 6000 4.1 340 08:54 21.06.2020
995 Clouds 33 1008 46 6000 5.1 30 08:36 21.06.2020
996 Clouds 33 1008 46 6000 6.2 70 08:18 21.06.2020
997 Clouds 33 1008 44 6000 4.6 40 07:40 21.06.2020
998 Clouds 34 1008 44 6000 4.6 40 07:20 21.06.2020
999 Clouds 32 1009 46 6000 2.39 56 06:48 21.06.2020
1000 Clouds 31 1009 55 6000 1.5 210 05:59 21.06.2020
1001 Haze 30 1010 66 5000 2.1 240 04:50 21.06.2020
1002 Haze 27 1009 83 4000 3.1 210 03:20 21.06.2020
1003 Haze 27 1009 83 4000 3.1 210 02:53 21.06.2020
1004 Haze 26 1008 88 4000 2.1 250 01:49 21.06.2020
1005 Haze 25 1008 88 4000 2.1 250 01:21 21.06.2020
1006 Haze 25 1008 88 4000 2.1 250 00:55 21.06.2020
1007 Haze 25 1008 83 4000 2.1 210 00:37 21.06.2020
1008 Haze 25 1008 83 4000 1.5 210 00:18 21.06.2020
1009 Haze 25 1008 88 4000 1.5 210 23:43 20.06.2020
1010 Haze 25 1008 88 5000 1.5 230 23:21 20.06.2020
1011 Haze 25 1008 88 5000 1.5 230 22:55 20.06.2020
1012 Haze 26 1008 88 5000 1.5 230 22:37 20.06.2020
1013 Haze 26 1009 88 5000 2.1 240 22:18 20.06.2020
1014 Haze 26 1009 88 4000 1.5 240 21:56 20.06.2020
1015 Haze 26 1009 88 4000 1.5 240 21:37 20.06.2020
1016 Haze 26 1009 83 4400 2.6 220 21:19 20.06.2020
1017 Haze 26 1009 83 4400 2.6 220 20:55 20.06.2020
1018 Haze 26 1010 88 4500 2.6 240 20:37 20.06.2020
1019 Haze 27 1010 83 4500 1.5 260 20:19 20.06.2020
1020 Haze 27 1010 83 4900 1 230 19:43 20.06.2020
1021 Haze 27 1010 88 5000 1.5 0 19:22 20.06.2020
1022 Haze 27 1010 88 5000 1.5 0 18:54 20.06.2020
1023 Clouds 27 1010 83 6000 2.6 240 18:36 20.06.2020
1024 Clouds 28 1010 78 7000 2.6 210 18:18 20.06.2020
1025 Clouds 28 1010 78 7000 2.6 210 17:54 20.06.2020
1026 Clouds 29 1010 74 8000 1.5 200 17:36 20.06.2020
1027 Clouds 28 1010 78 8000 2.1 120 17:18 20.06.2020
1028 Clouds 28 1010 78 8000 2.1 120 16:39 20.06.2020
1029 Clouds 28 1010 74 8000 3.1 80 16:18 20.06.2020
1030 Clouds 28 1009 74 8000 3.1 90 15:42 20.06.2020
1031 Clouds 29 1008 70 6000 5.1 40 15:19 20.06.2020
1032 Clouds 29 1008 70 6000 5.1 40 14:57 20.06.2020
1033 Clouds 29 1008 70 6000 5.1 40 14:39 20.06.2020
1034 Clouds 30 1008 66 6000 4.1 60 14:19 20.06.2020
1035 Clouds 30 1007 66 6000 5.1 60 13:41 20.06.2020
1036 Clouds 30 1007 66 6000 5.1 60 13:20 20.06.2020
1037 Clouds 31 1007 62 6000 5.1 60 12:55 20.06.2020
1038 Clouds 32 1007 59 6000 5.1 60 12:37 20.06.2020
1039 Clouds 32 1007 59 6000 5.1 60 12:18 20.06.2020
1040 Clouds 33 1006 46 6000 5.1 60 11:39 20.06.2020
1041 Clouds 34 1007 46 6000 5.1 90 11:20 20.06.2020
1042 Clouds 34 1007 46 6000 5.1 90 10:57 20.06.2020
1043 Clouds 33 1007 44 6000 5.1 60 10:38 20.06.2020
1044 Clouds 34 1007 44 6000 5.1 80 10:18 20.06.2020
1045 Clouds 34 1008 44 6000 5.1 80 09:42 20.06.2020
1046 Clouds 34 1008 46 6000 4.1 70 09:24 20.06.2020
1047 Clouds 34 1008 46 6000 4.1 70 08:58 20.06.2020
1048 Clouds 33 1008 46 6000 5.1 90 08:39 20.06.2020
1049 Clouds 34 1008 46 6000 5.1 60 08:21 20.06.2020
1050 Clouds 34 1008 46 6000 5.1 60 07:50 20.06.2020
1051 Clouds 34 1009 46 6000 5.1 60 07:25 20.06.2020
1052 Clouds 33 1010 49 6000 4.1 120 06:43 20.06.2020
1053 Haze 32 1010 52 5000 4.1 60 06:20 20.06.2020
1054 Haze 32 1010 55 5000 4.1 100 05:47 20.06.2020
1055 Haze 28 1011 70 4000 1.5 250 03:53 20.06.2020
1056 Haze 26 1009 88 4000 1.67 213 01:54 20.06.2020
1057 Haze 25 1009 88 4000 1.67 213 01:36 20.06.2020
1058 Clouds 26 1009 83 6000 1.56 210 00:45 20.06.2020
1059 Clouds 26 1009 83 6000 1.16 210 00:20 20.06.2020
1060 Clouds 26 1009 88 6000 1.16 210 23:41 19.06.2020
1061 Haze 25 1009 88 2500 1.5 230 23:20 19.06.2020
1062 Haze 25 1009 88 2500 1.5 230 22:56 19.06.2020
1063 Haze 25 1009 88 2500 1.5 230 22:56 19.06.2020
1064 Haze 25 1009 88 2500 1.5 250 22:37 19.06.2020
1065 Haze 26 1010 88 2500 1.5 260 22:19 19.06.2020
1066 Haze 26 1010 88 2500 1.5 260 21:55 19.06.2020
1067 Haze 26 1010 88 2500 1.5 250 21:37 19.06.2020
1068 Mist 26 1010 88 2500 2.1 250 21:18 19.06.2020
1069 Mist 26 1010 88 2500 2.1 250 20:56 19.06.2020
1070 Mist 26 1011 88 2500 1.5 240 20:38 19.06.2020
1071 Mist 26 1011 88 2500 1.5 240 20:20 19.06.2020
1072 Mist 26 1011 83 3000 1.5 200 19:42 19.06.2020
1073 Mist 26 1011 83 3000 1.5 200 19:23 19.06.2020
1074 Haze 26 1011 83 3000 1.5 210 18:59 19.06.2020
1075 Haze 24 1011 83 2600 1.5 210 18:39 19.06.2020
1076 Haze 26 1012 83 3000 2.1 230 18:20 19.06.2020
1077 Haze 26 1012 83 3000 2.6 0 17:42 19.06.2020
1078 Haze 26 1012 83 3000 2.6 0 17:23 19.06.2020
1079 Haze 26 1012 83 3000 2.1 240 16:58 19.06.2020
1080 Haze 26 1012 83 3000 2.6 230 16:40 19.06.2020
1081 Haze 26 1011 83 4000 2.6 230 16:22 19.06.2020
1082 Haze 26 1011 83 4000 3.1 230 15:47 19.06.2020
1083 Clouds 27 1011 74 6000 2.1 240 15:27 19.06.2020
1084 Clouds 27 1011 74 6000 2.1 240 14:58 19.06.2020
1085 Clouds 27 1011 74 6000 2.1 240 14:40 19.06.2020
1086 Clouds 27 1010 66 6000 2.6 60 14:21 19.06.2020
1087 Clouds 27 1010 66 6000 2.6 60 13:58 19.06.2020
1088 Clouds 28 1010 62 6000 3.1 50 13:40 19.06.2020
1089 Clouds 28 1010 62 6000 3.1 50 13:22 19.06.2020
1090 Rain 28 1009 70 6000 1.5 320 12:45 19.06.2020
1091 Rain 28 1009 70 6000 1.5 320 12:22 19.06.2020
1092 Rain 29 1009 70 6000 2.1 300 11:56 19.06.2020
1093 Rain 31 1009 52 6000 4.1 60 11:36 19.06.2020
1094 Rain 31 1009 52 6000 4.1 80 11:18 19.06.2020
1095 Rain 32 1009 49 6000 3.6 50 10:41 19.06.2020
1096 Clouds 32 1009 52 6000 4.1 90 10:21 19.06.2020
1097 Clouds 32 1009 52 6000 4.1 90 09:56 19.06.2020
1098 Clouds 32 1009 55 6000 4.1 60 09:37 19.06.2020
1099 Clouds 32 1010 49 6000 4.6 130 09:19 19.06.2020
1100 Haze 32 1010 55 5000 4.1 120 08:41 19.06.2020
1101 Haze 33 1010 55 5000 4.1 120 08:23 19.06.2020
1102 Haze 32 1011 62 4000 1.5 160 07:42 19.06.2020
1103 Haze 32 1011 62 4000 1.5 160 07:22 19.06.2020
1104 Haze 32 1011 66 4000 1.71 338 06:59 19.06.2020
1105 Haze 29 1012 70 4000 1.28 304 06:23 19.06.2020
1106 Haze 31 1012 66 5000 2.6 40 05:34 19.06.2020
1107 Haze 28 1012 70 4000 1.5 170 04:23 19.06.2020
1108 Haze 26 1011 83 4000 1.5 240 02:27 19.06.2020
1109 Haze 25 1010 83 4000 2.1 240 00:47 19.06.2020
1110 Haze 25 1010 83 4000 2.1 240 00:22 19.06.2020
1111 Haze 25 1010 83 4000 2.1 240 23:58 18.06.2020
1112 Haze 25 1010 83 4000 1.5 220 23:40 18.06.2020
1113 Haze 25 1010 83 4000 1.5 220 23:22 18.06.2020
1114 Haze 24 1010 83 5000 1 250 22:41 18.06.2020
1115 Haze 24 1010 83 5000 1 250 22:41 18.06.2020
1116 Haze 24 1010 83 5000 1.5 210 22:21 18.06.2020
1117 Haze 24 1010 83 5000 1.5 210 21:58 18.06.2020
1118 Haze 24 1010 83 5000 1.5 210 21:58 18.06.2020
1119 Haze 24 1010 83 5000 1 0 21:38 18.06.2020
1120 Haze 24 1010 83 5000 1.5 230 21:19 18.06.2020
1121 Haze 24 1011 83 5000 1 200 20:44 18.06.2020
1122 Haze 24 1011 83 5000 2.1 190 20:22 18.06.2020
1123 Haze 24 1011 83 5000 2.1 190 19:58 18.06.2020
1124 Haze 24 1011 83 5000 1.5 200 19:40 18.06.2020
1125 Haze 27 1012 83 5000 1.5 270 19:20 18.06.2020
1126 Haze 27 1012 83 5000 1.5 270 18:44 18.06.2020
1127 Haze 27 1012 83 5000 1.5 270 18:25 18.06.2020
1128 Haze 27 1011 83 5000 2.1 240 17:59 18.06.2020
1129 Haze 27 1011 83 5000 2.1 240 17:41 18.06.2020
1130 Haze 27 1011 83 5000 2.1 240 17:23 18.06.2020
1131 Haze 27 1011 83 5000 2.6 240 16:44 18.06.2020
1132 Haze 27 1011 83 5000 2.6 240 16:25 18.06.2020
1133 Clouds 28 1011 78 6000 2.6 260 15:59 18.06.2020
1134 Clouds 28 1011 78 6000 1 260 15:40 18.06.2020
1135 Haze 29 1009 70 5000 2.6 30 15:20 18.06.2020
1136 Haze 29 1009 70 5000 2.6 30 14:57 18.06.2020
1137 Haze 29 1009 70 5000 2.6 30 14:39 18.06.2020
1138 Haze 29 1009 74 5000 3.1 30 14:20 18.06.2020
1139 Haze 30 1009 70 5000 2.6 10 13:48 18.06.2020
1140 Haze 30 1009 70 5000 2.6 10 13:29 18.06.2020
1141 Haze 30 1008 66 5000 5.1 30 12:58 18.06.2020
1142 Haze 30 1008 66 5000 5.1 30 12:58 18.06.2020
1143 Haze 31 1008 59 5000 5.1 30 12:40 18.06.2020
1144 Haze 31 1008 59 5000 7.7 60 12:20 18.06.2020
1145 Haze 31 1008 59 5000 7.7 60 11:59 18.06.2020
1146 Haze 32 1008 59 5000 5.1 60 11:40 18.06.2020
1147 Haze 33 1007 52 5000 5.1 60 11:19 18.06.2020
1148 Haze 33 1007 52 5000 5.1 60 11:19 18.06.2020
1149 Haze 33 1007 52 5000 5.1 40 10:41 18.06.2020
1150 Haze 33 1007 52 5000 5.1 40 10:41 18.06.2020
1151 Haze 33 1007 46 5000 5.1 40 10:19 18.06.2020
1152 Haze 33 1007 46 5000 5.1 40 09:54 18.06.2020
1153 Haze 33 1009 52 5000 5.1 30 09:36 18.06.2020
1154 Rain 33 1009 52 5000 5.1 30 09:18 18.06.2020
1155 Haze 33 1009 52 5000 5.1 30 08:39 18.06.2020
1156 Rain 33 1009 52 5000 5.1 60 08:20 18.06.2020
1157 Haze 34 1009 52 5000 2.6 90 07:46 18.06.2020
1158 Haze 34 1009 52 5000 2.6 90 07:26 18.06.2020
1159 Haze 33 1010 55 5000 3.6 30 06:54 18.06.2020
1160 Haze 31 1011 55 5000 4.6 100 05:40 18.06.2020
1161 Haze 30 1011 70 5000 2.6 160 04:21 18.06.2020
1162 Haze 27 1010 78 5000 1.5 240 02:51 18.06.2020
1163 Haze 26 1010 83 4000 1.5 210 01:28 18.06.2020
1164 Haze 26 1010 88 4000 1.5 200 00:55 18.06.2020
1165 Haze 26 1009 88 4000 1.5 240 00:33 18.06.2020
1166 Haze 27 1009 88 4000 1.68 222 23:58 17.06.2020
1167 Haze 27 1009 88 4000 1.68 222 23:39 17.06.2020
1168 Haze 27 1009 83 2600 1.5 190 23:20 17.06.2020
1169 Haze 27 1009 83 2600 1.5 190 22:57 17.06.2020
1170 Haze 25 1009 83 2500 2.6 230 22:38 17.06.2020
1171 Haze 25 1010 83 2300 2.6 220 22:20 17.06.2020
1172 Haze 25 1010 83 2300 2.6 220 22:20 17.06.2020
1173 Haze 25 1010 83 2400 2.1 250 21:42 17.06.2020
1174 Haze 25 1010 83 2400 0.55 131 21:24 17.06.2020
1175 Haze 25 1010 83 2400 0.55 131 21:00 17.06.2020
1176 Haze 28 1010 83 2400 1.5 240 20:38 17.06.2020
1177 Haze 28 1010 83 2600 2.1 240 20:19 17.06.2020
1178 Haze 28 1010 83 2600 2.1 240 20:19 17.06.2020
1179 Haze 28 1011 83 3100 1.5 210 19:46 17.06.2020
1180 Haze 28 1011 83 3100 1.5 210 19:23 17.06.2020
1181 Haze 28 1011 78 3500 1.5 0 18:59 17.06.2020
1182 Haze 28 1011 78 4000 1.5 230 18:41 17.06.2020
1183 Haze 28 1011 78 4000 1.5 230 18:23 17.06.2020
1184 Clouds 29 1011 74 7000 2.1 100 17:44 17.06.2020
1185 Clouds 29 1011 74 7000 2.1 100 17:22 17.06.2020
1186 Clouds 28 1011 78 7000 2.1 110 16:57 17.06.2020
1187 Clouds 28 1011 78 7000 3.1 90 16:39 17.06.2020
1188 Clouds 28 1011 78 7000 3.1 90 16:20 17.06.2020
1189 Clouds 29 1010 74 7000 3.1 100 15:56 17.06.2020
1190 Clouds 29 1010 66 6000 5.1 70 15:38 17.06.2020
1191 Clouds 30 1010 66 6000 5.1 70 15:19 17.06.2020
1192 Clouds 30 1010 66 6000 5.1 70 14:57 17.06.2020
1193 Clouds 30 1010 66 6000 5.1 70 14:38 17.06.2020
1194 Clouds 30 1009 62 6000 5.7 40 14:19 17.06.2020
1195 Clouds 30 1009 62 6000 5.7 40 14:19 17.06.2020
1196 Clouds 30 1009 62 6000 5.7 50 13:55 17.06.2020
1197 Clouds 30 1009 62 6000 5.7 50 13:36 17.06.2020
1198 Clouds 31 1008 58 7000 5.1 60 13:18 17.06.2020
1199 Clouds 31 1008 52 7000 6.2 50 12:41 17.06.2020
1200 Clouds 31 1008 52 7000 6.2 50 12:21 17.06.2020
1201 Clouds 33 1007 49 7000 4.6 30 11:45 17.06.2020
1202 Clouds 33 1007 49 7000 4.6 30 11:26 17.06.2020
1203 Clouds 34 1007 44 7000 6.7 70 10:59 17.06.2020
1204 Clouds 34 1007 46 7000 6.7 80 10:38 17.06.2020
1205 Clouds 34 1007 46 7000 7.2 70 10:19 17.06.2020
1206 Clouds 35 1007 46 7000 7.2 70 09:55 17.06.2020
1207 Clouds 35 1008 44 7000 7.2 60 09:37 17.06.2020
1208 Clouds 35 1008 44 7000 7.7 110 09:18 17.06.2020
1209 Clouds 35 1009 44 6000 7.2 100 08:44 17.06.2020
1210 Clouds 35 1009 44 6000 7.2 100 08:19 17.06.2020
1211 Clouds 35 1010 46 6000 6.7 130 07:44 17.06.2020
1212 Clouds 34 1010 46 6000 6.7 130 07:23 17.06.2020
1213 Clouds 33 1010 49 6000 5.7 100 06:59 17.06.2020
1214 Clouds 33 1010 52 6000 5.7 120 06:40 17.06.2020
1215 Clouds 33 1010 52 6000 5.7 120 06:22 17.06.2020
1216 Clouds 32 1011 59 6000 5.7 100 05:49 17.06.2020
1217 Haze 30 1011 70 5000 1.5 140 04:38 17.06.2020
1218 Mist 27 1010 100 2000 1.22 127 02:21 17.06.2020
1219 Mist 26 1010 100 3000 1.58 128 00:53 17.06.2020
1220 Mist 26 1010 100 3000 1.58 128 00:30 17.06.2020
1221 Mist 26 1010 100 4000 1.93 126 23:59 16.06.2020
1222 Mist 26 1010 100 4000 1.93 126 23:41 16.06.2020
1223 Haze 26 1009 88 3500 1.5 210 23:22 16.06.2020
1224 Haze 26 1009 88 3500 1.5 210 22:57 16.06.2020
1225 Haze 26 1009 88 4000 1.5 200 22:38 16.06.2020
1226 Haze 26 1010 88 4000 2.1 200 22:19 16.06.2020
1227 Haze 26 1010 88 4000 2.1 200 22:19 16.06.2020
1228 Haze 26 1010 88 4000 2.1 200 21:57 16.06.2020
1229 Haze 27 1010 83 4000 2.1 210 21:39 16.06.2020
1230 Haze 27 1010 83 4000 2.1 210 21:20 16.06.2020
1231 Haze 28 1010 78 5000 2.1 130 20:43 16.06.2020
1232 Haze 28 1010 78 5000 2.1 130 20:22 16.06.2020
1233 Clouds 27 1010 83 5000 1.5 170 19:58 16.06.2020
1234 Clouds 27 1010 83 7000 1.5 200 19:40 16.06.2020
1235 Clouds 27 1011 78 8000 2.1 130 19:22 16.06.2020
1236 Clouds 28 1011 78 8000 2.1 130 18:58 16.06.2020
1237 Clouds 28 1011 83 8000 3.1 120 18:39 16.06.2020
1238 Clouds 28 1011 78 8000 3.1 100 18:20 16.06.2020
1239 Clouds 28 1011 78 8000 3.1 100 17:56 16.06.2020
1240 Clouds 28 1011 78 8000 3.6 110 17:37 16.06.2020
1241 Clouds 29 1011 74 8000 4.1 120 17:19 16.06.2020
1242 Clouds 29 1011 74 8000 4.1 120 16:56 16.06.2020
1243 Clouds 29 1010 74 8000 3.6 120 16:38 16.06.2020
1244 Clouds 29 1010 74 8000 4.1 110 16:19 16.06.2020
1245 Clouds 29 1010 74 8000 4.1 110 15:56 16.06.2020
1246 Clouds 29 1009 74 6000 4.1 80 15:38 16.06.2020
1247 Clouds 29 1009 74 6000 4.1 80 15:20 16.06.2020
1248 Clouds 29 1009 74 6000 4.1 80 14:43 16.06.2020
1249 Clouds 29 1009 74 6000 4.1 80 14:25 16.06.2020
1250 Clouds 30 1009 70 6000 5.1 70 13:57 16.06.2020
1251 Clouds 30 1008 70 6000 4.6 50 13:39 16.06.2020
1252 Rain 31 1008 66 6000 5.1 90 13:20 16.06.2020
1253 Rain 31 1008 66 6000 5.1 90 12:41 16.06.2020
1254 Rain 31 1007 62 6000 6.7 60 12:21 16.06.2020
1255 Rain 31 1007 62 6000 6.7 60 11:56 16.06.2020
1256 Clouds 32 1007 62 6000 5.1 60 11:38 16.06.2020
1257 Rain 32 1007 66 6000 5.1 100 11:19 16.06.2020
1258 Rain 32 1007 62 6000 6.7 50 10:43 16.06.2020
1259 Rain 32 1007 62 6000 6.7 50 10:21 16.06.2020
1260 Rain 32 1007 66 6000 7.2 50 09:59 16.06.2020
1261 Rain 33 1007 55 6000 6.2 40 09:41 16.06.2020
1262 Clouds 34 1007 52 6000 6.7 40 09:21 16.06.2020
1263 Clouds 34 1008 52 6000 6.2 60 08:48 16.06.2020
1264 Clouds 34 1008 52 6000 6.2 60 08:30 16.06.2020
1265 Clouds 33 1009 62 6000 6.2 100 07:51 16.06.2020
1266 Clouds 32 1009 62 6000 6.2 100 07:27 16.06.2020
1267 Rain 32 1010 66 6000 6.2 80 06:54 16.06.2020
1268 Rain 32 1010 66 6000 6.2 80 06:27 16.06.2020
1269 Clouds 32 1010 66 6000 5.1 60 05:45 16.06.2020
1270 Haze 32 1011 66 5000 4.1 80 04:40 16.06.2020
1271 Haze 30 1011 74 5000 3.1 110 03:30 16.06.2020
1272 Haze 28 1010 88 4000 2.1 120 02:18 16.06.2020
1273 Haze 27 1010 88 4000 3.48 104 01:31 16.06.2020
1274 Haze 27 1009 88 4000 3.48 104 00:52 16.06.2020
1275 Haze 27 1009 88 4000 3.5 104 00:22 16.06.2020
1276 Haze 27 1009 88 4000 3.5 104 23:43 15.06.2020
1277 Haze 27 1009 88 4000 3.66 102 23:23 15.06.2020
1278 Haze 27 1009 83 5000 2.1 180 22:56 15.06.2020
1279 Haze 27 1009 88 5000 1.5 0 22:38 15.06.2020
1280 Haze 27 1009 83 5000 1 200 22:19 15.06.2020
1281 Haze 27 1009 83 5000 1 200 21:56 15.06.2020
1282 Haze 27 1009 83 5000 2.1 0 21:37 15.06.2020
1283 Clouds 27 1009 83 6000 1.5 150 21:19 15.06.2020
1284 Clouds 27 1009 83 6000 1.5 150 20:56 15.06.2020
1285 Clouds 28 1009 78 6000 3.1 110 20:37 15.06.2020
1286 Clouds 28 1010 83 6000 2.6 110 20:19 15.06.2020
1287 Clouds 27 1010 83 6000 2.6 110 19:56 15.06.2020
1288 Haze 28 1010 83 4000 2.6 70 19:37 15.06.2020
1289 Haze 28 1010 83 4000 2.6 70 19:19 15.06.2020
1290 Haze 28 1010 83 4000 2.6 70 18:55 15.06.2020
1291 Haze 28 1010 83 4000 2.6 70 18:55 15.06.2020
1292 Haze 28 1010 83 4000 2.6 70 18:37 15.06.2020
1293 Haze 28 1010 83 4000 2.1 90 18:18 15.06.2020
1294 Haze 28 1010 79 5000 1.5 40 17:42 15.06.2020
1295 Haze 28 1010 79 5000 1.5 40 17:21 15.06.2020
1296 Haze 29 1010 79 5000 1.5 70 16:59 15.06.2020
1297 Haze 29 1010 79 5000 2.6 60 16:40 15.06.2020
1298 Clouds 28 1010 79 6000 2.1 70 16:19 15.06.2020
1299 Clouds 28 1010 79 6000 2.1 70 15:56 15.06.2020
1300 Clouds 29 1009 74 6000 2.1 60 15:37 15.06.2020
1301 Clouds 29 1009 74 6000 2.1 60 15:18 15.06.2020
1302 Clouds 29 1009 74 6000 2.1 60 14:42 15.06.2020
1303 Clouds 29 1009 70 6000 3.1 50 14:21 15.06.2020
1304 Clouds 29 1009 70 6000 3.1 50 13:59 15.06.2020
1305 Clouds 29 1009 70 6000 3.1 70 13:41 15.06.2020
1306 Clouds 29 1009 70 6000 3.1 70 13:41 15.06.2020
1307 Clouds 30 1009 70 6000 3.1 70 13:22 15.06.2020
1308 Clouds 30 1009 70 6000 4.1 50 12:57 15.06.2020
1309 Haze 31 1008 66 5000 6.2 40 12:39 15.06.2020
1310 Haze 31 1008 66 5000 6.7 70 12:21 15.06.2020
1311 Haze 31 1008 66 5000 6.7 60 11:43 15.06.2020
1312 Haze 31 1008 66 5000 6.2 50 11:25 15.06.2020
1313 Haze 32 1008 62 5000 6.2 30 10:45 15.06.2020
1314 Haze 32 1008 62 5000 7.2 50 10:23 15.06.2020
1315 Haze 32 1008 62 5000 7.2 50 09:57 15.06.2020
1316 Haze 32 1008 59 5000 5.7 70 09:39 15.06.2020
1317 Haze 33 1008 59 5000 5.7 70 09:20 15.06.2020
1318 Haze 33 1009 55 5000 4.6 70 08:41 15.06.2020
1319 Haze 33 1009 59 4000 2.1 90 08:23 15.06.2020
1320 Haze 33 1010 55 4000 3.1 110 07:47 15.06.2020
1321 Haze 33 1010 55 4000 3.1 110 07:28 15.06.2020
1322 Haze 33 1011 62 4000 2.1 100 06:49 15.06.2020
1323 Haze 33 1011 62 4000 2.1 100 06:26 15.06.2020
1324 Haze 32 1011 70 4000 2.6 90 05:47 15.06.2020
1325 Haze 30 1011 70 4000 2.6 90 05:26 15.06.2020
1326 Haze 30 1012 79 3000 1.5 150 04:20 15.06.2020
1327 Haze 29 1012 83 3000 1.5 240 03:42 15.06.2020
1328 Haze 29 1011 88 3000 1.5 230 02:54 15.06.2020
1329 Haze 28 1011 94 3000 1.5 180 01:58 15.06.2020
1330 Haze 27 1010 94 3000 1.5 170 01:35 15.06.2020
1331 Haze 27 1010 94 3000 1.5 240 00:59 15.06.2020
1332 Rain 27 1010 94 3000 1.5 230 00:39 15.06.2020
1333 Haze 27 1010 88 3000 1.5 220 00:20 15.06.2020
1334 Haze 27 1009 88 3000 1.5 270 23:47 14.06.2020
1335 Haze 27 1009 88 3000 1.5 270 23:25 14.06.2020
1336 Haze 28 1010 83 4000 1.5 290 22:58 14.06.2020
1337 Thunderstorm 28 1009 83 2500 1.5 220 22:39 14.06.2020
1338 Thunderstorm 28 1009 78 2500 1.5 230 22:20 14.06.2020
1339 Thunderstorm 28 1009 78 2500 1.5 230 22:20 14.06.2020
1340 Thunderstorm 28 1009 78 2500 1.5 230 21:57 14.06.2020
1341 Thunderstorm 28 1009 83 2500 1.5 240 21:39 14.06.2020
1342 Thunderstorm 28 1010 83 2500 2.6 0 21:19 14.06.2020
1343 Thunderstorm 28 1010 83 2500 2.6 0 20:58 14.06.2020
1344 Haze 29 1010 83 2500 2.1 250 20:39 14.06.2020
1345 Haze 29 1010 83 3500 2.1 230 20:20 14.06.2020
1346 Haze 29 1010 83 3500 2.1 230 19:59 14.06.2020
1347 Haze 29 1010 79 3500 1.5 0 19:38 14.06.2020
1348 Haze 29 1011 83 3500 1 0 19:19 14.06.2020
1349 Haze 28 1011 83 3500 1 0 18:57 14.06.2020
1350 Haze 28 1011 83 2500 1 310 18:39 14.06.2020
1351 Haze 28 1011 83 2500 2.1 300 18:20 14.06.2020
1352 Haze 28 1011 83 2500 2.1 300 17:58 14.06.2020
1353 Haze 28 1011 83 2500 1.5 280 17:39 14.06.2020
1354 Haze 28 1010 83 2500 2.1 270 17:19 14.06.2020
1355 Haze 29 1010 79 3500 2.1 280 16:41 14.06.2020
1356 Haze 29 1010 79 3500 2.1 280 16:22 14.06.2020
1357 Clouds 29 1010 79 6000 1.5 0 15:59 14.06.2020
1358 Clouds 30 1009 70 6000 2.6 30 15:40 14.06.2020
1359 Clouds 30 1009 70 6000 2.6 30 15:19 14.06.2020
1360 Clouds 30 1009 70 6000 2.6 30 14:59 14.06.2020
1361 Clouds 30 1009 70 6000 2.6 30 14:40 14.06.2020
1362 Clouds 30 1009 70 6000 4.1 40 14:21 14.06.2020
1363 Clouds 30 1009 70 6000 4.1 40 13:57 14.06.2020
1364 Clouds 31 1008 66 6000 4.1 60 13:39 14.06.2020
1365 Clouds 31 1008 66 6000 4.1 60 13:21 14.06.2020
1366 Clear 32 1008 59 6000 4.1 60 12:55 14.06.2020
1367 Clear 32 1008 59 6000 5.1 60 12:37 14.06.2020
1368 Clear 33 1007 55 6000 5.1 60 12:18 14.06.2020
1369 Clear 33 1007 55 6000 5.1 60 11:56 14.06.2020
1370 Clear 34 1007 52 6000 5.1 90 11:37 14.06.2020
1371 Clear 35 1007 49 6000 5.1 60 11:18 14.06.2020
1372 Clear 35 1007 46 6000 5.1 90 10:42 14.06.2020
1373 Clear 35 1007 44 6000 4.1 60 10:19 14.06.2020
1374 Clear 35 1007 44 6000 5.1 60 09:45 14.06.2020
1375 Clear 35 1008 44 6000 5.1 60 09:25 14.06.2020
1376 Clear 35 1008 44 6000 5.1 60 08:57 14.06.2020
1377 Clear 35 1008 46 6000 5.1 60 08:39 14.06.2020
1378 Clouds 34 1008 44 6000 7.2 90 08:18 14.06.2020
1379 Clouds 35 1009 49 6000 5.1 120 07:48 14.06.2020
1380 Clouds 33 1009 49 6000 5.1 120 07:30 14.06.2020
1381 Clouds 33 1010 49 6000 5.1 90 06:31 14.06.2020
1382 Haze 32 1010 62 5000 3.1 90 05:43 14.06.2020
1383 Haze 31 1010 62 5000 3.6 80 04:55 14.06.2020
1384 Haze 30 1011 66 5000 3.1 90 04:30 14.06.2020
1385 Haze 29 1011 78 4000 3.6 90 03:23 14.06.2020
1386 Haze 28 1010 78 3000 1.5 100 02:27 14.06.2020
1387 Haze 26 1010 83 4000 2.07 112 01:41 14.06.2020
1388 Haze 26 1010 83 5000 1.5 120 01:18 14.06.2020
1389 Haze 26 1009 78 5000 3.1 160 00:38 14.06.2020
1390 Haze 26 1009 78 5000 3.1 170 00:18 14.06.2020
1391 Haze 26 1009 78 4900 2.6 0 23:42 13.06.2020
1392 Haze 26 1009 78 4900 2.6 0 23:23 13.06.2020
1393 Haze 26 1009 78 5000 2.6 160 22:56 13.06.2020
1394 Haze 26 1009 83 5000 2.1 110 22:37 13.06.2020
1395 Haze 26 1010 83 5000 1.5 150 22:18 13.06.2020
1396 Haze 26 1010 83 5000 1.5 150 21:55 13.06.2020
1397 Haze 26 1010 83 5000 2.1 160 21:37 13.06.2020
1398 Haze 26 1010 83 5000 1.5 0 21:18 13.06.2020
1399 Haze 26 1010 83 5000 1.5 180 20:42 13.06.2020
1400 Haze 26 1010 78 5000 1 190 20:19 13.06.2020
1401 Haze 27 1010 78 5000 2.6 0 19:42 13.06.2020
1402 Haze 27 1011 78 5000 2.1 0 19:22 13.06.2020
1403 Haze 27 1011 78 5000 2.1 0 18:59 13.06.2020
1404 Haze 27 1011 78 5000 2.6 220 18:41 13.06.2020
1405 Haze 27 1011 78 5000 3.6 210 18:21 13.06.2020
1406 -273 0 0 0 0 0 18:00 13.06.2020
1407 Clouds 27 1011 78 6000 2.1 230 17:41 13.06.2020
1408 Clouds 27 1011 78 6000 2.1 230 17:23 13.06.2020
1409 Clouds 28 1011 74 6000 1.5 250 16:56 13.06.2020
1410 Clouds 28 1011 74 6000 1 0 16:38 13.06.2020
1411 Clouds 29 1010 70 6000 1.5 290 16:19 13.06.2020
1412 Clouds 29 1010 70 6000 1 0 15:45 13.06.2020
1413 Haze 29 1009 70 5000 1.5 40 15:27 13.06.2020
1414 Haze 29 1009 70 5000 1.5 40 14:59 13.06.2020
1415 Haze 29 1009 70 5000 1.5 40 14:39 13.06.2020
1416 Haze 29 1009 70 5000 1.5 50 14:20 13.06.2020
1417 Haze 30 1008 66 5000 3.6 20 13:44 13.06.2020
1418 Haze 30 1008 66 5000 3.6 20 13:26 13.06.2020
1419 Haze 30 1007 58 5000 4.1 20 12:45 13.06.2020
1420 Haze 31 1007 58 5000 4.1 20 12:27 13.06.2020
1421 Haze 31 1007 62 5000 5.1 30 11:59 13.06.2020
1422 Haze 31 1007 62 5000 5.1 30 11:40 13.06.2020
1423 Haze 32 1007 52 5000 4.1 30 11:19 13.06.2020
1424 Haze 32 1007 52 5000 4.1 30 10:58 13.06.2020
1425 Haze 32 1007 49 5000 2.6 70 10:39 13.06.2020
1426 Haze 33 1007 49 5000 2.6 40 10:20 13.06.2020
1427 Haze 33 1007 52 5000 2.6 30 09:45 13.06.2020
1428 Haze 33 1007 52 5000 2.6 30 09:27 13.06.2020
1429 Haze 32 1008 52 5000 1.5 270 08:56 13.06.2020
1430 Haze 32 1008 52 5000 1.5 270 08:37 13.06.2020
1431 Haze 33 1008 46 5000 2.1 150 08:19 13.06.2020
1432 Haze 33 1008 46 5000 2.1 150 07:42 13.06.2020
1433 Clouds 33 1009 52 6000 2.6 110 07:23 13.06.2020
1434 Clouds 33 1009 52 6000 2.6 110 06:44 13.06.2020
1435 Clouds 32 1010 58 6000 2.6 100 06:24 13.06.2020
1436 Clouds 31 1010 58 6000 2.1 200 05:27 13.06.2020
1437 Haze 30 1010 62 5000 1.5 90 04:34 13.06.2020
1438 Haze 28 1010 74 5000 1.5 150 03:33 13.06.2020
1439 Haze 28 1009 88 4000 1.5 240 02:38 13.06.2020
1440 Haze 26 1009 94 4000 0.48 119 01:48 13.06.2020
1441 Haze 25 1009 94 4000 0.68 136 01:22 13.06.2020
1442 Haze 25 1009 94 4000 0.68 136 00:48 13.06.2020
1443 Haze 25 1009 94 4000 1.05 143 00:27 13.06.2020
1444 Haze 26 1008 94 4000 1.05 143 23:57 12.06.2020
1445 Haze 25 1008 94 4000 1.05 143 23:38 12.06.2020
1446 Clouds 25 1008 88 4500 1.5 210 23:18 12.06.2020
1447 Clouds 26 1008 83 4500 2.1 190 22:41 12.06.2020
1448 Clouds 26 1008 83 4500 3.1 180 22:19 12.06.2020
1449 Clouds 26 1008 83 4500 3.1 180 21:54 12.06.2020
1450 Haze 26 1008 83 5000 2.1 190 21:36 12.06.2020
1451 Haze 26 1008 83 5000 2.1 200 21:18 12.06.2020
1452 Haze 26 1008 83 5000 2.1 200 20:55 12.06.2020
1453 Haze 26 1009 83 5000 1.5 200 20:36 12.06.2020
1454 Haze 26 1009 83 5000 2.1 200 20:18 12.06.2020
1455 Haze 27 1009 78 5000 1.5 170 19:39 12.06.2020
1456 Haze 27 1009 78 5000 1.5 170 19:19 12.06.2020
1457 Haze 27 1009 78 5000 1.5 170 18:39 12.06.2020
1458 Haze 27 1009 83 5000 2.45 90 18:19 12.06.2020
1459 Haze 27 1009 83 5000 2.45 90 17:59 12.06.2020
1460 Haze 28 1009 74 5000 2.45 90 17:39 12.06.2020
1461 Haze 28 1009 74 5000 2.1 110 17:21 12.06.2020
1462 Haze 28 1009 74 5000 2.1 110 16:45 12.06.2020
1463 Haze 29 1008 70 5000 2.6 70 16:21 12.06.2020
1464 Clouds 28 1008 78 7000 3.1 80 15:49 12.06.2020
1465 Clouds 29 1007 70 6000 4.6 40 15:27 12.06.2020
1466 Clouds 29 1007 70 6000 4.6 40 14:58 12.06.2020
1467 Clouds 29 1007 70 6000 4.6 40 14:39 12.06.2020
1468 Clouds 29 1006 70 6000 3.6 40 14:21 12.06.2020
1469 Clouds 30 1006 66 6000 4.1 60 13:42 12.06.2020
1470 Clouds 31 1006 62 6000 5.1 40 13:22 12.06.2020
1471 Clouds 31 1005 62 6000 4.6 60 12:41 12.06.2020
1472 Clouds 32 1005 59 6000 5.1 60 12:20 12.06.2020
1473 Clouds 32 1005 59 6000 5.1 60 11:59 12.06.2020
1474 Clouds 32 1005 59 6000 5.1 40 11:40 12.06.2020
1475 Clouds 32 1005 59 6000 5.1 40 11:22 12.06.2020
1476 Clouds 32 1005 49 6000 4.6 50 10:47 12.06.2020
1477 Clouds 33 1005 49 6000 4.6 50 10:25 12.06.2020
1478 Clouds 33 1006 52 6000 4.1 70 09:48 12.06.2020
1479 Clouds 33 1006 52 6000 4.1 70 09:22 12.06.2020
1480 Clouds 34 1006 52 6000 4.1 20 08:46 12.06.2020
1481 Clouds 34 1006 52 6000 4.1 20 08:25 12.06.2020
1482 Clouds 34 1007 55 6000 4.1 70 07:57 12.06.2020
1483 Clouds 34 1007 49 6000 2.6 120 07:39 12.06.2020
1484 Clouds 34 1008 55 6000 4.1 90 07:21 12.06.2020
1485 Clouds 34 1008 52 6000 4.1 120 06:38 12.06.2020
1486 Clouds 32 1009 55 6000 5.1 60 06:19 12.06.2020
1487 Haze 31 1009 62 5000 2.1 120 05:47 12.06.2020
1488 Haze 30 1009 66 5000 2.1 120 05:20 12.06.2020
1489 Haze 28 1009 88 4000 1.5 220 03:43 12.06.2020
1490 Haze 27 1009 100 3000 1.5 240 02:24 12.06.2020
1491 Mist 25 1009 100 3000 1.5 240 01:33 12.06.2020
1492 Mist 25 1008 100 3000 1.5 240 00:57 12.06.2020
1493 Haze 25 1008 94 3000 1.5 240 00:38 12.06.2020
1494 Haze 24 1008 94 3000 1.5 240 00:20 12.06.2020
1495 Haze 25 1008 94 3000 1.5 240 23:56 11.06.2020
1496 Haze 24 1008 100 3000 1.5 240 23:37 11.06.2020
1497 Clouds 23 1008 83 7000 1.5 0 23:19 11.06.2020
1498 Clouds 23 1008 83 7000 1.5 280 22:41 11.06.2020
1499 Clouds 26 1008 83 7000 1.5 280 22:21 11.06.2020
1500 Clouds 26 1008 78 7000 1.5 0 21:57 11.06.2020
1501 Clouds 26 1008 78 7000 3.1 140 21:38 11.06.2020
1502 Clouds 23 1009 78 6000 3.1 140 21:20 11.06.2020
1503 Clouds 23 1009 78 6000 3.1 140 20:56 11.06.2020
1504 Thunderstorm 23 1009 83 5000 2.1 100 20:38 11.06.2020
1505 Thunderstorm 24 1009 74 5000 3.6 140 20:20 11.06.2020
1506 Haze 23 1009 83 5000 2.6 150 19:42 11.06.2020
1507 Haze 23 1009 83 5000 2.6 150 19:22 11.06.2020
1508 Haze 23 1009 88 5000 2.6 190 18:44 11.06.2020
1509 Haze 26 1009 88 5000 2.6 190 18:26 11.06.2020
1510 Clouds 26 1009 88 6000 2.1 0 17:59 11.06.2020
1511 Clouds 26 1009 83 6000 2.1 0 17:39 11.06.2020
1512 Clouds 26 1009 83 6000 2.1 0 17:20 11.06.2020
1513 Clouds 26 1009 83 6000 3.1 170 16:59 11.06.2020
1514 Clouds 26 1009 78 7000 3.1 180 16:41 11.06.2020
1515 Clouds 26 1009 78 7000 3.1 180 16:23 11.06.2020
1516 Clouds 27 1009 74 7000 3.1 190 15:57 11.06.2020
1517 Haze 27 1008 74 5000 5.1 40 15:38 11.06.2020
1518 Haze 27 1008 74 5000 5.1 40 15:19 11.06.2020
1519 Haze 28 1008 74 5000 5.1 40 14:43 11.06.2020
1520 Haze 28 1008 74 5000 5.1 40 14:21 11.06.2020
1521 Haze 29 1007 74 5000 5.1 60 13:56 11.06.2020
1522 Clouds 30 1007 66 6000 5.1 30 13:38 11.06.2020
1523 Clouds 31 1006 66 6000 6.2 30 13:20 11.06.2020
1524 Clouds 31 1006 66 6000 6.2 30 12:56 11.06.2020
1525 Clouds 31 1006 62 6000 6.2 30 12:38 11.06.2020
1526 Clouds 32 1006 62 6000 5.1 60 12:19 11.06.2020
1527 Clouds 32 1006 59 6000 6.2 30 11:57 11.06.2020
1528 Clouds 32 1006 59 6000 6.2 30 11:38 11.06.2020
1529 Clouds 32 1006 59 6000 6.2 30 11:19 11.06.2020
1530 Clouds 32 1006 59 6000 6.2 30 10:54 11.06.2020
1531 Clouds 33 1006 55 6000 5.1 60 10:36 11.06.2020
1532 Clouds 33 1006 55 6000 5.1 40 10:18 11.06.2020
1533 Clouds 34 1006 55 6000 4.1 60 09:40 11.06.2020
1534 Haze 34 1007 55 5000 5.1 60 09:22 11.06.2020
1535 Haze 34 1008 52 5000 5.1 60 08:43 11.06.2020
1536 Haze 33 1008 52 5000 5.1 60 08:19 11.06.2020
1537 Haze 34 1008 49 5000 5.1 60 07:42 11.06.2020
1538 Haze 33 1008 52 5000 5.1 110 07:24 11.06.2020
1539 Haze 33 1009 52 5000 5.1 60 06:40 11.06.2020
1540 Haze 32 1009 55 5000 5.1 120 06:21 11.06.2020
1541 Haze 31 1010 62 5000 2.6 60 05:28 11.06.2020
1542 Haze 29 1010 78 3000 2.6 90 03:28 11.06.2020
1543 Haze 29 1010 88 3000 1.5 170 02:50 11.06.2020
1544 Haze 28 1010 83 3000 3.52 107 02:31 11.06.2020
1545 Haze 27 1009 94 3000 3.32 115 01:43 11.06.2020
1546 Haze 27 1009 94 4000 1.5 150 01:22 11.06.2020
1547 Haze 27 1009 94 4000 2.97 115 00:45 11.06.2020
1548 Haze 27 1009 83 5000 2.71 110 00:26 11.06.2020
1549 Haze 27 1009 83 5000 1.5 70 23:43 10.06.2020
1550 Haze 27 1009 83 5000 1.5 70 23:24 10.06.2020
1551 Clouds 27 1009 83 8000 3.1 200 22:56 10.06.2020
1552 Clouds 27 1009 83 8000 3.1 200 22:37 10.06.2020
1553 Clouds 27 1009 83 8000 2.1 0 22:19 10.06.2020
1554 Clouds 27 1009 83 8000 2.1 0 21:55 10.06.2020
1555 Clouds 27 1009 78 8000 3.1 130 21:37 10.06.2020
1556 Clouds 28 1009 83 8000 3.6 120 21:18 10.06.2020
1557 Clouds 28 1009 83 8000 3.1 120 20:56 10.06.2020
1558 Clouds 28 1009 83 8000 3.1 120 20:37 10.06.2020
1559 Clouds 28 1010 83 8000 2.6 120 20:19 10.06.2020
1560 Clouds 28 1010 83 8000 2.6 120 19:40 10.06.2020
1561 Clouds 28 1010 88 8000 3.1 110 19:19 10.06.2020
1562 Clouds 28 1010 88 7000 3.1 100 18:57 10.06.2020
1563 Clouds 28 1010 88 7000 3.1 100 18:39 10.06.2020
1564 Clouds 28 1010 83 8000 3.1 100 18:19 10.06.2020
1565 Clouds 28 1010 83 8000 3.1 100 17:55 10.06.2020
1566 Clouds 28 1010 83 6000 3.6 110 17:37 10.06.2020
1567 Clouds 28 1010 78 7000 4.1 110 17:18 10.06.2020
1568 Clouds 28 1010 78 7000 4.1 110 16:56 10.06.2020
1569 Clouds 28 1009 78 7000 3.6 100 16:38 10.06.2020
1570 Clouds 28 1009 78 7000 3.6 110 16:18 10.06.2020
1571 Clouds 28 1009 78 8000 3.6 100 15:40 10.06.2020
1572 Clouds 28 1009 78 8000 3.6 100 15:40 10.06.2020
1573 Clouds 29 1008 74 6000 5.1 50 15:21 10.06.2020
1574 Clouds 29 1008 74 6000 5.1 50 14:56 10.06.2020
1575 Clouds 29 1008 74 6000 5.1 50 14:38 10.06.2020
1576 Clouds 29 1008 74 6000 3.6 70 14:19 10.06.2020
1577 Clouds 30 1008 70 6000 4.1 50 13:40 10.06.2020
1578 Clouds 30 1007 70 6000 5.1 50 13:21 10.06.2020
1579 Clouds 31 1007 62 6000 5.1 60 12:44 10.06.2020
1580 Clouds 31 1007 62 6000 5.1 50 12:20 10.06.2020
1581 Clouds 31 1007 62 6000 5.1 50 11:58 10.06.2020
1582 Rain 31 1007 62 6000 5.1 10 11:40 10.06.2020
1583 Rain 31 1007 62 6000 5.1 10 11:19 10.06.2020
1584 Clouds 32 1007 59 6000 4.6 50 10:57 10.06.2020
1585 Clouds 32 1007 59 6000 4.6 50 10:39 10.06.2020
1586 Clouds 33 1007 59 6000 4.1 70 10:20 10.06.2020
1587 Clouds 33 1008 59 6000 4.1 60 09:41 10.06.2020
1588 Clouds 33 1008 59 6000 4.1 60 09:41 10.06.2020
1589 Clouds 33 1008 59 6000 4.1 60 09:41 10.06.2020
1590 Clouds 33 1008 55 6000 4.1 60 09:22 10.06.2020
1591 Clouds 33 1008 55 6000 4.1 70 08:44 10.06.2020
1592 Clouds 33 1008 55 6000 5.1 40 08:24 10.06.2020
1593 Clouds 33 1008 55 6000 5.1 40 07:58 10.06.2020
1594 Clouds 33 1009 59 6000 4.6 100 07:38 10.06.2020
1595 Clouds 33 1010 59 6000 4.1 80 07:20 10.06.2020
1596 Clouds 32 1010 62 6000 4.6 80 06:44 10.06.2020
1597 Clouds 32 1011 62 6000 3.6 100 06:22 10.06.2020
1598 Clouds 31 1011 62 6000 3.6 100 05:55 10.06.2020
1599 Clouds 32 1011 62 6000 4.1 100 05:25 10.06.2020
1600 Haze 31 1011 70 5000 4.1 100 04:34 10.06.2020
1601 Haze 28 1011 94 3000 1.5 210 02:56 10.06.2020
1602 Mist 26 1011 100 2000 2.96 110 02:20 10.06.2020
1603 Mist 25 1010 100 2000 2.96 110 01:36 10.06.2020
1604 Mist 26 1010 100 3000 2.94 113 00:39 10.06.2020
1605 Mist 26 1010 100 3000 2.87 111 00:21 10.06.2020
1606 Mist 26 1010 100 3000 2.87 111 23:56 09.06.2020
1607 Mist 26 1010 94 3000 2.87 111 23:37 09.06.2020
1608 Haze 26 1010 88 5000 1.5 130 23:19 09.06.2020
1609 Haze 26 1010 88 5000 1.5 130 22:55 09.06.2020
1610 Haze 26 1010 88 5000 2.1 0 22:37 09.06.2020
1611 Haze 26 1010 88 5000 2.6 120 22:18 09.06.2020
1612 Haze 26 1010 88 5000 2.6 120 21:55 09.06.2020
1613 Haze 26 1010 88 5000 1.5 150 21:37 09.06.2020
1614 Haze 26 1010 88 5000 1.5 150 21:19 09.06.2020
1615 Haze 26 1010 88 5000 2.1 120 20:56 09.06.2020
1616 Haze 26 1010 83 5000 2.6 0 20:38 09.06.2020
1617 Haze 26 1011 88 5000 2.1 120 20:18 09.06.2020
1618 Haze 26 1011 88 5000 2.1 120 19:55 09.06.2020
1619 Haze 26 1011 94 3000 3.26 105 19:36 09.06.2020
1620 Haze 26 1011 94 3000 3.48 105 19:18 09.06.2020
1621 Haze 27 1011 94 3000 3.48 105 18:44 09.06.2020
1622 Haze 27 1011 94 3000 3.49 99 18:25 09.06.2020
1623 Haze 27 1011 94 3000 3.49 99 17:57 09.06.2020
1624 Haze 27 1011 94 3000 3.49 99 17:39 09.06.2020
1625 Haze 27 1011 94 3000 3.41 90 17:21 09.06.2020
1626 Haze 27 1011 94 3000 3.41 90 16:55 09.06.2020
1627 Haze 27 1010 88 4000 2.1 110 16:36 09.06.2020
1628 Haze 27 1010 88 4000 2.1 110 16:18 09.06.2020
1629 Rain 27 1010 88 4000 2.1 110 15:40 09.06.2020
1630 Haze 27 1010 88 4000 2.1 110 15:21 09.06.2020
1631 Haze 27 1010 88 4000 2.1 150 14:57 09.06.2020
1632 Haze 27 1010 88 4000 2.1 180 14:37 09.06.2020
1633 Rain 28 1009 83 4000 1.5 180 14:18 09.06.2020
1634 Haze 28 1009 78 4000 1.5 150 13:46 09.06.2020
1635 Haze 29 1009 79 5000 2.1 130 13:22 09.06.2020
1636 Haze 29 1009 79 5000 2.1 130 12:59 09.06.2020
1637 Rain 30 1008 74 6000 2.6 30 12:41 09.06.2020
1638 Rain 30 1008 74 6000 2.1 20 12:19 09.06.2020
1639 Rain 30 1008 74 6000 2.1 20 11:56 09.06.2020
1640 Rain 30 1008 70 6000 1.5 20 11:37 09.06.2020
1641 Rain 30 1009 79 6000 2.1 250 11:19 09.06.2020
1642 Rain 30 1009 79 6000 2.1 250 11:19 09.06.2020
1643 Rain 30 1008 74 6000 2.1 300 10:45 09.06.2020
1644 Rain 31 1008 74 6000 2.1 300 10:27 09.06.2020
1645 Haze 30 1009 83 5000 2.1 250 09:59 09.06.2020
1646 Rain 28 1009 94 4000 2.6 240 09:39 09.06.2020
1647 Rain 28 1010 94 2000 2.1 330 09:19 09.06.2020
1648 Rain 28 1010 83 1000 8.2 60 08:40 09.06.2020
1649 Rain 28 1010 83 1000 8.2 60 08:21 09.06.2020
1650 Rain 30 1010 62 4000 2.6 90 08:21 09.06.2020
1651 Haze 31 1010 59 4000 2.1 270 07:43 09.06.2020
1652 Rain 31 1010 62 5000 2.26 92 07:23 09.06.2020
1653 Haze 31 1011 58 5000 2.26 92 06:55 09.06.2020
1654 Haze 30 1011 58 5000 2.26 92 06:36 09.06.2020
1655 Haze 30 1012 62 5000 3.6 120 05:48 09.06.2020
1656 Haze 27 1012 78 4000 2.1 220 03:55 09.06.2020
1657 Haze 26 1011 94 3000 1.5 230 02:22 09.06.2020
1658 Haze 26 1010 94 3000 1.5 280 01:37 09.06.2020
1659 Haze 26 1010 94 3000 1.5 80 01:18 09.06.2020
1660 Haze 26 1010 94 3000 1.5 80 00:42 09.06.2020
1661 Haze 26 1010 88 3000 1.5 150 00:19 09.06.2020
1662 Haze 26 1010 88 3000 1.5 90 23:42 08.06.2020
1663 Haze 26 1010 88 3000 1.5 90 23:21 08.06.2020
1664 Haze 26 1010 88 2500 2.1 210 22:59 08.06.2020
1665 Haze 26 1010 88 2600 3.1 210 22:39 08.06.2020
1666 Haze 26 1010 88 2600 3.1 210 22:20 08.06.2020
1667 Haze 26 1010 88 2500 3.6 190 21:56 08.06.2020
1668 Haze 26 1010 88 2500 3.1 210 21:38 08.06.2020
1669 Haze 26 1010 88 2900 3.1 210 21:19 08.06.2020
1670 Haze 26 1010 88 2900 3.1 210 20:55 08.06.2020
1671 Haze 26 1010 88 3600 2.6 210 20:37 08.06.2020
1672 Haze 26 1010 88 4100 2.6 190 20:18 08.06.2020
1673 Haze 26 1010 88 4100 2.6 190 20:18 08.06.2020
1674 Mist 26 1010 94 5000 2.6 180 19:43 08.06.2020
1675 Mist 26 1010 94 5000 2.6 180 19:21 08.06.2020
1676 Clouds 27 1010 88 6000 0.5 0 18:44 08.06.2020
1677 Rain 27 1011 83 4500 3.1 290 18:22 08.06.2020
1678 Rain 27 1011 83 4500 3.1 290 17:58 08.06.2020
1679 Rain 27 1011 83 4500 5.7 300 17:40 08.06.2020
1680 Rain 26 1011 83 4500 5.7 300 17:22 08.06.2020
1681 Rain 27 1010 88 4500 2.6 200 16:59 08.06.2020
1682 Rain 27 1010 83 4800 2.6 230 16:41 08.06.2020
1683 Rain 27 1010 83 4800 2.6 230 16:22 08.06.2020
1684 Clouds 28 1009 74 7000 2.6 180 15:44 08.06.2020
1685 Clouds 28 1009 74 6000 2.6 50 15:22 08.06.2020
1686 Clouds 29 1009 74 6000 2.6 50 14:59 08.06.2020
1687 Clouds 29 1009 74 6000 2.6 50 14:40 08.06.2020
1688 Clouds 28 1008 74 6000 4.1 60 14:20 08.06.2020
1689 Clouds 29 1008 70 6000 5.1 60 13:44 08.06.2020
1690 Clouds 30 1008 66 6000 4.1 40 13:25 08.06.2020
1691 Clouds 31 1008 58 6000 5.1 40 12:44 08.06.2020
1692 Clouds 31 1008 58 6000 5.1 40 12:44 08.06.2020
1693 Clouds 31 1007 55 6000 3.1 50 12:22 08.06.2020
1694 Clouds 32 1007 55 6000 3.1 50 11:59 08.06.2020
1695 Rain 32 1007 59 6000 5.1 50 11:41 08.06.2020
1696 Rain 32 1007 59 6000 5.1 50 11:22 08.06.2020
1697 Haze 32 1007 59 5000 5.1 30 10:58 08.06.2020
1698 Haze 33 1007 52 5000 6.2 60 10:39 08.06.2020
1699 Haze 33 1007 59 5000 5.1 50 10:20 08.06.2020
1700 Haze 32 1007 59 5000 5.1 50 09:58 08.06.2020
1701 Haze 32 1008 55 5000 6.2 60 09:40 08.06.2020
1702 Haze 33 1008 55 5000 6.2 60 09:21 08.06.2020
1703 Clouds 33 1009 59 6000 5.1 60 08:46 08.06.2020
1704 Clouds 33 1009 59 6000 5.1 60 08:22 08.06.2020
1705 Clouds 33 1009 59 6000 3.6 80 07:46 08.06.2020
1706 Haze 33 1010 62 5000 5.1 80 07:23 08.06.2020
1707 Haze 33 1010 62 5000 3.1 90 06:50 08.06.2020
1708 Haze 33 1010 59 5000 4.1 80 06:30 08.06.2020
1709 Haze 32 1011 59 5000 5.1 80 05:51 08.06.2020
1710 Haze 30 1011 70 4000 3.1 100 04:29 08.06.2020
1711 Haze 28 1010 88 4000 2.97 99 02:32 08.06.2020
1712 Haze 27 1010 88 4000 2.63 103 01:55 08.06.2020
1713 Haze 26 1009 88 4000 1.5 160 01:30 08.06.2020
1714 Haze 26 1009 88 5000 2.72 95 00:33 08.06.2020
1715 Haze 26 1009 88 5000 2.72 95 23:57 07.06.2020
1716 Haze 26 1009 88 5000 2.72 95 23:36 07.06.2020
1717 Haze 26 1009 88 3500 1.5 180 23:18 07.06.2020
1718 Haze 26 1009 88 4000 2.1 200 22:39 07.06.2020
1719 Haze 26 1009 88 4000 2.1 200 22:20 07.06.2020
1720 Haze 26 1009 88 4500 1 0 21:59 07.06.2020
1721 Haze 26 1009 88 4500 1.5 0 21:39 07.06.2020
1722 Haze 26 1009 88 4500 1.5 0 21:20 07.06.2020
1723 Haze 26 1009 88 4700 1.5 210 21:20 07.06.2020
1724 Haze 26 1009 88 4700 1.5 210 21:20 07.06.2020
1725 Haze 26 1009 88 4500 1.5 0 21:20 07.06.2020
1726 Haze 26 1009 88 4700 1.5 210 20:57 07.06.2020
1727 Haze 27 1010 83 5000 1.5 180 20:38 07.06.2020
1728 Haze 27 1010 83 5000 1.5 150 20:19 07.06.2020
1729 Haze 27 1010 83 5000 1.5 150 19:56 07.06.2020
1730 Haze 27 1010 83 5000 1.5 150 19:38 07.06.2020
1731 Haze 27 1010 83 5000 2.1 180 19:19 07.06.2020
1732 Haze 27 1010 83 5000 2.6 160 18:55 07.06.2020
1733 Haze 27 1010 83 5000 2.6 160 18:36 07.06.2020
1734 Clouds 27 1010 78 6000 3.1 200 18:18 07.06.2020
1735 Clouds 28 1010 78 8000 2.1 0 17:41 07.06.2020
1736 Clouds 28 1010 78 8000 2.1 0 17:23 07.06.2020
1737 Clouds 28 1010 78 8000 2.1 130 16:59 07.06.2020
1738 Clouds 28 1009 78 8000 2.1 110 16:41 07.06.2020
1739 Clouds 28 1009 78 8000 2.1 110 16:20 07.06.2020
1740 Clouds 28 1009 78 8000 2.1 110 16:20 07.06.2020
1741 Clouds 28 1004 74 6000 2.1 50 15:37 07.06.2020
1742 Clouds 29 1004 74 6000 2.1 50 15:18 07.06.2020
1743 Clouds 29 1004 74 6000 2.1 50 14:39 07.06.2020
1744 Clouds 29 1004 74 6000 2.1 50 14:39 07.06.2020
1745 Clouds 29 1004 74 6000 2.1 50 14:21 07.06.2020
1746 Clouds 29 1007 74 6000 4.1 60 13:47 07.06.2020
1747 Clouds 29 1007 74 6000 4.1 60 13:47 07.06.2020
1748 Clouds 29 1007 74 6000 4.1 60 13:47 07.06.2020
1749 Clouds 30 1007 70 6000 4.1 40 13:21 07.06.2020
1750 Clouds 30 1007 66 6000 4.6 40 12:55 07.06.2020
1751 Clouds 30 1007 66 6000 4.6 40 12:36 07.06.2020
1752 Rain 31 1006 62 6000 5.1 40 12:18 07.06.2020
1753 Rain 31 1006 62 6000 5.1 40 11:54 07.06.2020
1754 Rain 31 1006 62 6000 5.1 40 11:36 07.06.2020
1755 Rain 31 1006 62 6000 5.1 40 11:18 07.06.2020
1756 Clouds 32 1006 55 6000 5.1 40 10:42 07.06.2020
1757 Clouds 33 1006 49 6000 4.1 60 10:20 07.06.2020
1758 Clouds 33 1006 49 6000 4.1 60 09:57 07.06.2020
1759 Clouds 33 1006 49 6000 4.1 60 09:38 07.06.2020
1760 Clouds 33 1006 49 6000 4.1 60 09:20 07.06.2020
1761 Haze 33 1007 52 5000 4.1 50 08:48 07.06.2020
1762 Haze 33 1007 52 5000 4.1 50 08:24 07.06.2020
1763 Haze 34 1007 52 5000 4.1 50 08:24 07.06.2020
1764 Haze 33 1008 52 5000 3.6 80 07:50 07.06.2020
1765 Haze 33 1008 52 5000 3.6 80 07:30 07.06.2020
1766 Haze 32 1009 66 5000 3.1 90 06:48 07.06.2020
1767 Haze 31 1010 62 5000 2.6 90 05:41 07.06.2020
1768 Haze 30 1010 70 5000 1.5 120 04:20 07.06.2020
1769 Haze 27 1010 83 5000 2.6 93 02:36 07.06.2020
1770 Haze 26 1009 88 4000 2.05 112 01:55 07.06.2020
1771 Haze 26 1009 88 4000 1.92 115 01:25 07.06.2020
1772 Haze 26 1009 88 4000 1.92 115 00:46 07.06.2020
1773 Haze 26 1009 83 4000 1.96 110 00:19 07.06.2020
1774 Haze 26 1009 83 4000 1.96 110 23:57 06.06.2020
1775 Haze 26 1009 83 4000 1.96 110 23:37 06.06.2020
1776 Clouds 26 1009 74 6000 2.6 170 23:19 06.06.2020
1777 Clouds 27 1009 74 6000 2.6 170 22:56 06.06.2020
1778 Haze 27 1009 78 5000 2.6 170 22:37 06.06.2020
1779 Thunderstorm 27 1010 83 4000 2.6 200 22:18 06.06.2020
1780 Thunderstorm 27 1010 83 4000 2.6 200 21:45 06.06.2020
1781 Thunderstorm 27 1010 83 4000 2.6 200 21:22 06.06.2020
1782 Haze 27 1010 78 4000 1.5 0 20:57 06.06.2020
1783 Haze 27 1010 88 4000 1.5 0 20:38 06.06.2020
1784 Haze 28 1011 83 5000 0.5 0 20:18 06.06.2020
1785 Haze 28 1011 83 5000 0.5 0 20:18 06.06.2020
1786 Haze 27 1011 83 5000 0.5 0 19:57 06.06.2020
1787 Haze 28 1011 78 5000 1.75 74 19:37 06.06.2020
1788 Haze 28 1011 78 5000 2.1 63 19:19 06.06.2020
1789 Haze 28 1011 78 5000 2.1 63 18:43 06.06.2020
1790 Clouds 29 1011 78 6000 2.28 53 18:24 06.06.2020
1791 Clouds 29 1011 78 6000 2.28 53 17:58 06.06.2020
1792 Clouds 28 1011 74 6000 2.28 53 17:39 06.06.2020
1793 Clouds 29 1011 70 6000 2.38 47 17:19 06.06.2020
1794 Haze 29 1011 70 5000 1 10 16:44 06.06.2020
1795 Haze 29 1011 70 5000 1 10 16:22 06.06.2020
1796 Clouds 29 1010 66 6000 1.5 30 15:58 06.06.2020
1797 Clouds 29 1010 66 6000 1.5 30 15:40 06.06.2020
1798 Clouds 29 1010 66 6000 1.5 30 15:20 06.06.2020
1799 Clouds 29 1009 66 6000 1.5 300 14:44 06.06.2020
1800 Clouds 29 1009 66 6000 1.5 300 14:25 06.06.2020
1801 Clouds 30 1009 58 6000 2.6 330 13:59 06.06.2020
1802 Clouds 30 1009 58 6000 2.1 20 13:41 06.06.2020
1803 Clouds 30 1008 58 6000 2.6 350 13:18 06.06.2020
1804 Clouds 31 1008 55 6000 3.1 20 12:43 06.06.2020
1805 Clouds 31 1008 52 6000 2.6 340 12:24 06.06.2020
1806 Clouds 32 1008 52 6000 2.6 340 11:59 06.06.2020
1807 Clouds 32 1008 52 6000 4.1 350 11:39 06.06.2020
1808 Clouds 33 1008 52 6000 4.1 350 11:20 06.06.2020
1809 Clouds 33 1008 49 6000 2.1 350 10:59 06.06.2020
1810 Haze 33 1008 49 5000 3.1 10 10:39 06.06.2020
1811 Haze 34 1008 49 5000 3.1 10 10:21 06.06.2020
1812 Haze 33 1008 52 5000 2.6 20 09:58 06.06.2020
1813 Haze 33 1008 52 5000 2.1 300 09:40 06.06.2020
1814 Haze 34 1008 52 5000 2.1 300 09:21 06.06.2020
1815 Haze 34 1009 52 5000 2.1 220 08:43 06.06.2020
1816 Haze 32 1009 52 5000 2.1 220 08:23 06.06.2020
1817 Haze 33 1009 55 5000 2.6 160 07:46 06.06.2020
1818 Haze 31 1010 59 5000 2.1 240 07:23 06.06.2020
1819 Haze 31 1010 59 5000 2.1 240 07:23 06.06.2020
1820 Haze 31 1011 58 5000 1.5 90 06:49 06.06.2020
1821 Haze 31 1011 58 5000 1.5 90 06:31 06.06.2020
1822 Haze 31 1011 62 5000 1.5 270 05:58 06.06.2020
1823 Haze 30 1012 62 5000 1.5 240 05:30 06.06.2020
1824 Haze 29 1012 74 4000 1.5 260 04:47 06.06.2020
1825 Haze 28 1012 88 3000 2.1 120 03:21 06.06.2020
1826 Mist 26 1011 94 3000 1.5 230 01:58 06.06.2020
1827 Mist 25 1011 100 3000 1.5 240 01:20 06.06.2020
1828 Mist 25 1011 100 3000 1.45 117 00:46 06.06.2020
1829 Mist 25 1011 100 3000 1.5 240 00:27 06.06.2020
1830 Mist 25 1011 100 3000 1.5 240 23:59 05.06.2020
1831 Haze 26 1010 94 3000 1.5 230 23:39 05.06.2020
1832 Mist 25 1010 88 4000 1.5 200 23:19 05.06.2020
1833 Mist 25 1010 88 4000 1.5 200 22:55 05.06.2020
1834 Mist 25 1010 88 4000 1.5 240 22:37 05.06.2020
1835 Mist 25 1010 88 4000 0.5 0 22:18 05.06.2020
1836 Mist 25 1011 88 4000 1.5 190 21:42 05.06.2020
1837 Mist 25 1011 88 4000 1.5 190 21:22 05.06.2020
1838 Mist 26 1011 83 4000 1.5 210 20:58 05.06.2020
1839 Mist 26 1011 83 4000 2.6 180 20:39 05.06.2020
1840 Mist 26 1012 83 3000 2.1 170 20:21 05.06.2020
1841 Mist 26 1012 83 3000 1.5 190 19:42 05.06.2020
1842 Mist 26 1012 83 3500 3.1 180 19:23 05.06.2020
1843 Mist 26 1012 83 3500 3.1 180 18:57 05.06.2020
1844 Mist 26 1012 83 3500 2.6 190 18:38 05.06.2020
1845 Haze 26 1012 83 3000 2.1 200 18:19 05.06.2020
1846 Haze 26 1012 83 3000 2.1 200 17:57 05.06.2020
1847 Haze 27 1012 83 2500 1 220 17:39 05.06.2020
1848 Haze 27 1012 83 2500 1 190 17:18 05.06.2020
1849 Haze 27 1012 83 2500 1 0 16:39 05.06.2020
1850 Haze 27 1012 74 2500 1 0 16:20 05.06.2020
1851 Haze 27 1011 83 3500 1 310 15:47 05.06.2020
1852 Rain 28 1010 74 6000 2.1 330 15:23 05.06.2020
1853 Rain 28 1010 74 6000 2.1 330 14:59 05.06.2020
1854 Rain 28 1010 74 6000 2.1 330 14:40 05.06.2020
1855 Rain 28 1010 74 6000 2.1 330 14:22 05.06.2020
1856 Rain 29 1010 70 6000 1.5 360 13:58 05.06.2020
1857 Clouds 29 1010 70 6000 1.5 350 13:39 05.06.2020
1858 Clouds 30 1010 66 6000 1.5 360 13:20 05.06.2020
1859 Clouds 30 1009 62 6000 2.1 330 12:42 05.06.2020
1860 Clouds 31 1009 62 6000 2.1 330 12:20 05.06.2020
1861 Clouds 31 1009 62 6000 2.1 330 11:56 05.06.2020
1862 Clouds 32 1009 55 6000 2.6 360 11:37 05.06.2020
1863 Clouds 32 1009 55 6000 2.1 20 11:19 05.06.2020
1864 Clouds 31 1009 55 6000 3.1 360 10:42 05.06.2020
1865 Clouds 31 1009 55 6000 3.1 360 10:21 05.06.2020
1866 Clouds 31 1009 49 6000 2.6 360 09:58 05.06.2020
1867 Clouds 32 1009 49 6000 2.6 30 09:40 05.06.2020
1868 Clouds 32 1009 49 6000 2.6 30 09:21 05.06.2020
1869 Clouds 33 1010 49 6000 4.1 30 08:59 05.06.2020
1870 Clouds 33 1010 46 6000 1.5 160 08:41 05.06.2020
1871 Clouds 32 1010 46 6000 1.5 240 08:19 05.06.2020
1872 Clouds 32 1010 46 6000 1.5 240 07:53 05.06.2020
1873 Clouds 33 1011 46 6000 3.1 130 07:35 05.06.2020
1874 Clouds 31 1011 55 6000 1.5 220 06:54 05.06.2020
1875 Clouds 30 1012 62 6000 1.5 240 05:24 05.06.2020
1876 Haze 29 1012 70 5000 2.6 230 04:44 05.06.2020
1877 Haze 28 1012 70 5000 2.6 200 03:50 05.06.2020
1878 Haze 27 1010 83 5000 1.5 220 02:39 05.06.2020
1879 Haze 26 1010 88 4000 2.1 210 02:18 05.06.2020
1880 Haze 26 1010 88 5000 1.14 199 01:49 05.06.2020
1881 Haze 25 1010 88 5000 1.5 230 00:58 05.06.2020
1882 Haze 25 1010 88 5000 1.25 186 00:39 05.06.2020
1883 Haze 25 1010 88 5000 1.5 230 00:19 05.06.2020
1884 Haze 26 1009 83 3300 1.5 210 23:46 04.06.2020
1885 Haze 26 1009 83 3300 1.5 210 23:46 04.06.2020
1886 Haze 26 1009 83 3300 1.5 210 23:24 04.06.2020
1887 Haze 26 1010 83 5000 2.1 200 22:44 04.06.2020
1888 Haze 26 1010 83 5000 2.1 200 22:22 04.06.2020
1889 Haze 26 1010 83 5000 1 220 21:59 04.06.2020
1890 Haze 26 1010 83 5000 1.5 230 21:40 04.06.2020
1891 Haze 26 1010 83 5000 1.5 230 21:22 04.06.2020
1892 Haze 26 1010 83 5000 1.5 230 20:58 04.06.2020
1893 Haze 27 1010 83 5000 1.5 230 20:39 04.06.2020
1894 Haze 27 1010 78 5000 1.5 210 20:20 04.06.2020
1895 Clouds 27 1011 78 6000 2.1 140 19:57 04.06.2020
1896 Clouds 27 1011 78 6000 2.1 140 19:38 04.06.2020
1897 Clouds 27 1011 78 6000 2.6 130 19:19 04.06.2020
1898 Clouds 27 1011 78 6000 1 0 18:40 04.06.2020
1899 Clouds 27 1011 78 6000 2.6 90 18:21 04.06.2020
1900 Clouds 27 1011 78 6000 2.6 90 17:59 04.06.2020
1901 Clouds 28 1011 78 7000 3.1 100 17:41 04.06.2020
1902 Clouds 28 1011 78 7000 3.1 100 17:20 04.06.2020
1903 Clouds 28 1011 78 7000 3.6 110 16:41 04.06.2020
1904 Clouds 28 1011 78 7000 3.6 110 16:21 04.06.2020
1905 Clouds 28 1011 78 7000 3.6 110 16:21 04.06.2020
1906 Clouds 28 1010 74 7000 4.1 110 15:56 04.06.2020
1907 Clouds 29 1009 70 6000 4.1 80 15:37 04.06.2020
1908 Clouds 29 1009 70 6000 4.1 80 15:19 04.06.2020
1909 Clouds 29 1009 70 6000 4.1 80 14:38 04.06.2020
1910 Clouds 29 1009 62 6000 5.1 60 14:19 04.06.2020
1911 Clouds 29 1009 58 6000 5.1 70 13:54 04.06.2020
1912 Clouds 30 1009 58 6000 5.1 70 13:36 04.06.2020
1913 Clouds 30 1008 58 6000 5.1 50 13:18 04.06.2020
1914 Clouds 31 1008 58 6000 5.1 80 12:41 04.06.2020
1915 Clouds 31 1008 52 6000 5.1 80 12:23 04.06.2020
1916 Clouds 31 1008 52 6000 5.1 80 11:59 04.06.2020
1917 Clouds 31 1008 49 6000 6.2 70 11:38 04.06.2020
1918 Clouds 31 1008 49 6000 6.2 70 11:20 04.06.2020
1919 Clouds 32 1008 52 7000 6.2 50 10:57 04.06.2020
1920 Clouds 33 1008 49 7000 5.1 60 10:38 04.06.2020
1921 Clouds 33 1008 46 7000 5.1 60 10:19 04.06.2020
1922 Clouds 33 1008 46 7000 5.1 60 10:19 04.06.2020
1923 Clouds 33 1009 43 7000 5.1 70 09:43 04.06.2020
1924 Clouds 33 1009 43 7000 5.1 70 09:24 04.06.2020
1925 Clouds 33 1009 41 7000 5.1 110 08:46 04.06.2020
1926 Clouds 33 1009 41 7000 5.1 110 08:26 04.06.2020
1927 Clouds 33 1009 41 7000 5.7 90 07:48 04.06.2020
1928 Clouds 33 1010 46 7000 6.2 90 07:28 04.06.2020
1929 Clouds 32 1010 41 7000 6.2 90 06:44 04.06.2020
1930 Clouds 32 1011 46 7000 6.2 90 06:25 04.06.2020
1931 Clouds 32 1011 52 7000 7.2 90 05:39 04.06.2020
1932 Clouds 32 1011 52 6000 7.7 90 05:20 04.06.2020
1933 Haze 29 1012 78 4000 2.6 100 03:25 04.06.2020
1934 Haze 24 1010 94 4000 3.51 110 01:57 04.06.2020
1935 Haze 25 1010 94 4000 3.46 116 01:20 04.06.2020
1936 Mist 25 1010 94 4000 3.46 116 00:49 04.06.2020
1937 Haze 25 1009 94 4000 3.55 119 23:48 03.06.2020
1938 Haze 25 1009 94 4000 3.61 114 23:21 03.06.2020
1939 Haze 25 1009 94 4000 3.61 114 22:59 03.06.2020
1940 Haze 24 1010 83 4400 2.1 190 22:39 03.06.2020
1941 Haze 24 1010 83 4000 1.5 190 22:19 03.06.2020
1942 Haze 24 1010 83 4000 1.5 190 21:57 03.06.2020
1943 Haze 24 1010 88 4000 1 250 21:39 03.06.2020
1944 Haze 27 1011 78 5000 1.5 250 21:21 03.06.2020
1945 Haze 27 1011 78 5000 1.5 250 20:56 03.06.2020
1946 Clouds 27 1011 78 6000 1 190 20:37 03.06.2020
1947 Clouds 27 1011 78 6000 2.1 200 20:19 03.06.2020
1948 Clouds 27 1011 78 6000 2.1 200 19:56 03.06.2020
1949 Clouds 27 1011 83 6000 4.12 103 19:36 03.06.2020
1950 Clouds 27 1011 83 6000 4.47 91 19:18 03.06.2020
1951 Clouds 27 1011 83 6000 4.47 91 18:43 03.06.2020
1952 Clouds 27 1011 83 6000 4.91 86 18:22 03.06.2020
1953 Clouds 27 1011 83 6000 4.91 86 17:57 03.06.2020
1954 Clouds 27 1011 78 6000 1.5 110 17:37 03.06.2020
1955 Clouds 27 1011 78 6000 1.5 110 17:19 03.06.2020
1956 Clouds 26 1011 74 7000 2.6 120 16:42 03.06.2020
1957 Clouds 28 1011 74 7000 2.6 130 16:21 03.06.2020
1958 Clouds 28 1010 78 6000 2.1 120 15:59 03.06.2020
1959 Clouds 28 1010 78 6000 2.1 120 15:41 03.06.2020
1960 Clouds 28 1010 78 6000 2.1 120 15:20 03.06.2020
1961 Clouds 28 1010 74 6000 3.6 90 14:47 03.06.2020
1962 Clouds 28 1010 74 6000 3.6 90 14:25 03.06.2020
1963 Clouds 28 1010 74 6000 3.1 90 13:56 03.06.2020
1964 Clouds 29 1010 70 6000 2.6 120 13:38 03.06.2020
1965 Clouds 28 1009 66 6000 4.6 110 13:18 03.06.2020
1966 Clouds 28 1009 66 6000 6.2 100 12:42 03.06.2020
1967 Rain 30 1008 70 6000 6.7 120 12:21 03.06.2020
1968 Rain 30 1008 70 6000 5.7 90 11:45 03.06.2020
1969 Rain 30 1008 70 6000 5.7 90 11:27 03.06.2020
1970 Rain 29 1008 74 6000 2.6 90 10:57 03.06.2020
1971 Rain 28 1008 74 6000 3.6 60 10:39 03.06.2020
1972 Rain 29 1008 74 6000 3.6 60 10:20 03.06.2020
1973 Rain 30 1009 78 5000 3.6 130 09:44 03.06.2020
1974 Rain 30 1009 78 5000 3.6 130 09:20 03.06.2020
1975 Rain 31 1010 83 5000 6.7 150 08:48 03.06.2020
1976 Rain 31 1010 83 5000 6.7 150 08:28 03.06.2020
1977 Rain 31 1010 79 5000 6.7 100 07:59 03.06.2020
1978 Clouds 32 1011 59 6000 5.7 100 07:41 03.06.2020
1979 Clouds 32 1011 59 6000 5.7 100 07:19 03.06.2020
1980 Clouds 32 1011 62 6000 6.7 110 06:49 03.06.2020
1981 Clouds 32 1011 62 6000 6.7 110 06:30 03.06.2020
1982 Clouds 31 1011 70 6000 6.7 70 05:46 03.06.2020
1983 Haze 30 1012 74 5000 4.6 120 04:44 03.06.2020
1984 Haze 29 1012 79 5000 4.1 90 03:50 03.06.2020
1985 Haze 26 1011 94 3000 1.5 160 02:46 03.06.2020
1986 Mist 25 1010 100 3000 2.44 118 01:51 03.06.2020
1987 Haze 24 1010 100 3000 2.93 115 00:43 03.06.2020
1988 Haze 25 1010 100 3000 3.18 111 00:24 03.06.2020
1989 Rain 25 1010 88 3000 2.1 80 23:51 02.06.2020
1990 Rain 25 1010 88 3000 2.1 80 23:28 02.06.2020
1991 Rain 24 1010 88 5000 2.6 0 22:56 02.06.2020
1992 Clouds 24 1010 88 6000 1.5 220 22:38 02.06.2020
1993 Clouds 24 1010 88 7000 1.5 220 22:18 02.06.2020
1994 Clouds 24 1010 88 7000 1.5 220 21:56 02.06.2020
1995 Clouds 24 1011 88 7000 1.5 220 21:37 02.06.2020
1996 Clouds 25 1011 88 7000 1.5 0 21:19 02.06.2020
1997 Clouds 25 1011 88 7000 1.5 0 20:55 02.06.2020
1998 Clouds 25 1011 88 7000 1 230 20:36 02.06.2020
1999 Clouds 25 1011 88 8000 1.5 200 20:18 02.06.2020
2000 Clouds 25 1012 88 7000 1.5 0 19:42 02.06.2020
2001 Clouds 26 1012 88 7000 1.5 0 19:24 02.06.2020
2002 Clouds 26 1012 88 7000 1.5 0 18:57 02.06.2020
2003 Clouds 26 1012 88 7000 2.1 0 18:39 02.06.2020
2004 Clouds 26 1012 88 7000 2.1 220 18:20 02.06.2020
2005 Clouds 26 1012 88 7000 2.1 220 17:55 02.06.2020
2006 Clouds 26 1012 88 7000 2.6 0 17:37 02.06.2020
2007 Thunderstorm 26 1012 88 7000 3.1 200 17:18 02.06.2020
2008 Clouds 26 1012 88 7000 3.6 200 16:40 02.06.2020
2009 Clouds 26 1012 88 7000 3.6 200 16:21 02.06.2020
2010 Clouds 26 1012 88 7000 3.6 200 16:21 02.06.2020
2011 Rain 26 1012 88 7000 3.6 190 15:57 02.06.2020
2012 Rain 28 1010 79 6000 3.1 70 15:37 02.06.2020
2013 Rain 28 1010 79 6000 3.1 70 15:19 02.06.2020
2014 Rain 28 1010 79 6000 3.1 70 14:45 02.06.2020
2015 Rain 29 1010 79 6000 3.1 70 14:26 02.06.2020
2016 Rain 29 1010 74 6000 4.1 50 13:54 02.06.2020
2017 Rain 30 1009 70 6000 5.1 60 13:36 02.06.2020
2018 Rain 30 1008 70 6000 7.7 40 13:18 02.06.2020
2019 Clouds 31 1008 66 6000 7.7 30 12:40 02.06.2020
2020 Clouds 31 1008 66 6000 7.7 30 12:22 02.06.2020
2021 Clouds 31 1007 66 6000 5.1 50 11:59 02.06.2020
2022 Clouds 32 1007 59 6000 5.1 50 11:40 02.06.2020
2023 Clouds 33 1007 59 6000 5.1 50 11:20 02.06.2020
2024 Clouds 33 1007 59 6000 5.1 50 10:50 02.06.2020
2025 Clouds 33 1007 59 6000 5.1 40 10:29 02.06.2020
2026 Clouds 34 1007 52 6000 2.6 90 09:59 02.06.2020
2027 Clouds 34 1008 55 6000 2.6 90 09:40 02.06.2020
2028 Clouds 34 1008 55 6000 2.6 90 09:20 02.06.2020
2029 Clouds 34 1008 55 6000 5.1 90 08:53 02.06.2020
2030 Clouds 34 1009 55 6000 5.1 70 08:27 02.06.2020
2031 Clouds 34 1010 55 6000 4.1 80 07:54 02.06.2020
2032 Clouds 34 1010 55 6000 4.1 80 07:31 02.06.2020
2033 Clouds 33 1011 59 6000 5.1 90 06:51 02.06.2020
2034 Clouds 33 1012 62 6000 5.1 80 06:31 02.06.2020
2035 Clouds 31 1012 62 6000 5.7 120 05:28 02.06.2020
2036 Clouds 30 1012 70 6000 2.1 140 03:53 02.06.2020
2037 Haze 28 1011 88 5000 1.5 130 02:30 02.06.2020
2038 Clouds 25 1011 94 6000 1.5 230 01:43 02.06.2020
2039 Rain 26 1010 83 6000 3.6 190 00:27 02.06.2020
2040 Rain 26 1010 88 6000 1.5 130 23:59 01.06.2020
2041 Clouds 26 1010 83 6000 1 0 23:38 01.06.2020
2042 Clouds 26 1010 83 6000 1 0 23:19 01.06.2020
2043 Clouds 26 1011 83 7000 1.5 0 22:56 01.06.2020
2044 Clouds 26 1011 83 7000 1 0 22:37 01.06.2020
2045 Clouds 26 1011 78 7000 0.5 20 22:18 01.06.2020
2046 Clouds 26 1011 83 7000 1 0 21:41 01.06.2020
2047 Thunderstorm 26 1011 83 7000 0.5 0 21:20 01.06.2020
2048 Thunderstorm 26 1011 83 7000 0.5 0 20:58 01.06.2020
2049 Thunderstorm 26 1012 78 7000 2.1 220 20:40 01.06.2020
2050 Thunderstorm 26 1012 78 7000 2.1 220 20:20 01.06.2020
2051 Thunderstorm 26 1012 78 7000 2.1 220 20:20 01.06.2020
2052 Thunderstorm 26 1012 78 7000 2.1 220 19:58 01.06.2020
2053 Thunderstorm 26 1012 78 7000 2.1 220 19:39 01.06.2020
2054 Clouds 26 1012 78 8000 3.6 240 19:20 01.06.2020
2055 Clouds 25 1013 78 8000 2.1 270 18:57 01.06.2020
2056 Clouds 26 1013 78 8000 2.1 270 18:38 01.06.2020
2057 Clouds 26 1013 78 7000 2.1 240 18:18 01.06.2020
2058 Clouds 26 1013 78 7000 1.5 230 17:41 01.06.2020
2059 Clouds 25 1013 78 7000 1.5 230 17:20 01.06.2020
2060 Clouds 27 1013 74 7000 2.1 230 16:56 01.06.2020
2061 Clouds 26 1013 78 7000 2.6 250 16:37 01.06.2020
2062 Clouds 25 1012 78 7000 4.1 260 16:18 01.06.2020
2063 Clouds 25 1012 78 7000 4.1 250 15:44 01.06.2020
2064 Clouds 27 1010 78 6000 3.6 230 15:21 01.06.2020
2065 Clouds 27 1010 78 6000 3.6 230 14:59 01.06.2020
2066 Clouds 27 1010 78 6000 3.6 230 14:41 01.06.2020
2067 Clouds 27 1010 78 6000 3.6 230 14:21 01.06.2020
2068 Clouds 28 1010 70 6000 2.6 10 13:56 01.06.2020
2069 Clouds 28 1010 70 6000 2.6 10 13:38 01.06.2020
2070 Clouds 28 1010 70 6000 2.6 10 13:19 01.06.2020
2071 Clouds 29 1010 78 7000 4.1 300 12:57 01.06.2020
2072 Clouds 30 1010 70 8000 4.1 70 12:39 01.06.2020
2073 Clouds 31 1009 59 6000 5.1 70 12:20 01.06.2020
2074 Clouds 31 1009 59 6000 5.1 70 11:41 01.06.2020
2075 Clouds 32 1009 59 6000 5.1 70 11:23 01.06.2020
2076 Clouds 32 1009 59 6000 5.1 80 10:59 01.06.2020
2077 Clouds 32 1009 55 6000 5.1 80 10:39 01.06.2020
2078 Clouds 33 1009 52 6000 6.2 50 10:20 01.06.2020
2079 Clouds 33 1009 52 6000 6.2 50 09:55 01.06.2020
2080 Clouds 33 1009 52 6000 6.2 50 09:37 01.06.2020
2081 Clouds 33 1010 55 6000 5.1 70 09:19 01.06.2020
2082 Clouds 33 1010 52 6000 5.7 70 08:45 01.06.2020
2083 Clouds 33 1010 52 6000 5.7 70 08:25 01.06.2020
2084 Clouds 32 1011 59 6000 4.1 60 07:45 01.06.2020
2085 Clouds 33 1011 59 6000 4.1 60 07:27 01.06.2020
2086 Clouds 33 1011 59 6000 2.6 50 06:54 01.06.2020
2087 Haze 33 1011 62 5000 1.96 61 06:20 01.06.2020
2088 Haze 32 1012 66 5000 1.5 40 05:50 01.06.2020
2089 Haze 29 1013 78 4000 1.79 92 04:23 01.06.2020
2090 Haze 28 1012 83 4000 1.5 150 03:45 01.06.2020
2091 Haze 28 1012 83 4000 1.5 150 03:18 01.06.2020
2092 Mist 25 1011 100 3000 1.53 114 01:47 01.06.2020
2093 Mist 25 1011 100 3000 1.85 106 01:29 01.06.2020
2094 Mist 25 1011 100 4000 1.85 106 00:57 01.06.2020
2095 Mist 25 1011 100 4000 1.85 106 00:39 01.06.2020
2096 Mist 25 1011 100 3000 2.13 96 00:21 01.06.2020
2097 Mist 25 1011 100 3000 2.13 96 23:55 31.05.2020
2098 Mist 25 1011 100 2500 2.13 96 23:37 31.05.2020
2099 Clouds 25 1011 88 6000 1 230 23:19 31.05.2020
2100 Clouds 26 1011 83 6000 1.5 230 22:43 31.05.2020
2101 Clouds 26 1011 83 6000 1.5 230 22:43 31.05.2020
2102 Clouds 26 1011 83 6000 1.5 230 22:43 31.05.2020
2103 Clouds 26 1011 83 6000 1.5 230 22:25 31.05.2020
2104 Clouds 26 1011 83 6000 1 0 21:58 31.05.2020
2105 Clouds 26 1011 83 6000 2.1 230 21:39 31.05.2020
2106 Clouds 26 1012 88 6000 2.6 220 21:21 31.05.2020
2107 Clouds 26 1012 88 6000 2.6 220 20:48 31.05.2020
2108 Clouds 26 1012 88 6000 2.1 220 20:26 31.05.2020
2109 Clouds 26 1012 83 6000 1 0 19:59 31.05.2020
2110 Clouds 26 1012 88 6000 1.5 300 19:40 31.05.2020
2111 Haze 26 1013 94 5000 0.65 111 19:22 31.05.2020
2112 Haze 26 1013 94 5000 0.65 111 18:59 31.05.2020
2113 Haze 26 1013 94 5000 0.65 111 18:41 31.05.2020
2114 Haze 26 1013 94 5000 0.48 112 18:22 31.05.2020
2115 Clouds 26 1013 88 6000 0.48 112 17:43 31.05.2020
2116 Clouds 26 1013 88 6000 0.6 103 17:24 31.05.2020
2117 Clouds 27 1013 88 6000 0.6 103 16:55 31.05.2020
2118 Clouds 27 1013 88 6000 0.6 103 16:37 31.05.2020
2119 Clouds 27 1013 83 7000 2.6 130 16:18 31.05.2020
2120 Clouds 27 1012 74 7000 2.1 210 15:39 31.05.2020
2121 Rain 25 1012 88 4000 2.1 180 15:21 31.05.2020
2122 Rain 25 1012 88 4000 2.1 180 14:47 31.05.2020
2123 Thunderstorm 26 1012 94 4000 3.1 250 14:21 31.05.2020
2124 Thunderstorm 26 1012 94 4000 3.1 250 13:56 31.05.2020
2125 Rain 27 1011 78 3000 5.7 210 13:38 31.05.2020
2126 Haze 29 1010 74 5000 2.6 120 13:20 31.05.2020
2127 Rain 30 1010 74 5000 2.6 120 12:56 31.05.2020
2128 Rain 30 1010 66 6000 3.1 40 12:37 31.05.2020
2129 Rain 31 1010 66 6000 2.6 40 12:19 31.05.2020
2130 Rain 32 1010 59 6000 2.6 30 11:47 31.05.2020
2131 Rain 32 1010 59 6000 2.6 30 11:23 31.05.2020
2132 Rain 32 1010 59 6000 2.6 10 10:56 31.05.2020
2133 Rain 33 1010 59 6000 3.6 80 10:38 31.05.2020
2134 Rain 34 1010 59 6000 4.1 70 10:18 31.05.2020
2135 Rain 32 1010 52 6000 3.1 80 09:42 31.05.2020
2136 Rain 32 1010 52 6000 3.1 80 09:22 31.05.2020
2137 Rain 33 1010 52 6000 4.6 60 08:57 31.05.2020
2138 Rain 33 1011 55 6000 4.1 30 08:37 31.05.2020
2139 Rain 33 1011 55 6000 4.1 30 08:19 31.05.2020
2140 Clouds 33 1011 59 6000 2.6 90 07:42 31.05.2020
2141 Clouds 34 1012 59 6000 3.6 60 07:20 31.05.2020
2142 Clouds 33 1013 62 6000 2.1 110 06:50 31.05.2020
2143 Clouds 33 1013 62 6000 2.1 110 06:31 31.05.2020
2144 Clouds 32 1013 66 6000 2.6 100 05:41 31.05.2020
2145 Haze 30 1014 74 4000 2.1 130 04:27 31.05.2020
2146 Haze 28 1013 94 3000 1.5 150 03:48 31.05.2020
2147 Mist 28 1013 100 3000 1.5 170 02:59 31.05.2020
2148 Haze 26 1012 94 3000 1.85 155 01:48 31.05.2020
2149 Haze 26 1012 94 3000 1.87 147 01:19 31.05.2020
2150 Haze 26 1011 94 4000 1.5 210 00:30 31.05.2020
2151 Haze 26 1011 94 4000 2.09 138 23:55 30.05.2020
2152 Haze 26 1011 94 4000 2.1 120 23:36 30.05.2020
2153 Haze 26 1011 88 5000 0.5 0 23:18 30.05.2020
2154 Haze 26 1011 88 5000 1.5 160 22:41 30.05.2020
2155 Haze 26 1011 88 5000 1.5 160 22:22 30.05.2020
2156 Haze 26 1011 88 5000 1.5 160 22:22 30.05.2020
2157 Haze 27 1012 83 5000 2.1 140 21:56 30.05.2020
2158 Haze 27 1012 83 5000 2.1 140 21:56 30.05.2020
2159 Haze 27 1012 83 5000 2.1 0 21:37 30.05.2020
2160 Haze 27 1012 83 5000 1.5 0 21:19 30.05.2020
2161 Haze 27 1012 83 5000 1.5 0 20:56 30.05.2020
2162 Haze 26 1012 88 5000 2.1 200 20:37 30.05.2020
2163 Clouds 25 1012 88 6000 1 210 20:19 30.05.2020
2164 Clouds 25 1012 83 6000 2.1 0 19:42 30.05.2020
2165 Clouds 27 1012 83 6000 1.5 210 19:21 30.05.2020
2166 Clouds 27 1012 83 6000 1 210 18:46 30.05.2020
2167 Clouds 27 1012 83 6000 1 210 18:24 30.05.2020
2168 Clouds 27 1012 83 6000 1.5 200 17:55 30.05.2020
2169 Clouds 27 1013 83 6000 2.1 0 17:37 30.05.2020
2170 Clouds 27 1013 83 7000 1 0 17:18 30.05.2020
2171 Clouds 27 1012 83 7000 1.5 210 16:42 30.05.2020
2172 Clouds 27 1012 83 7000 1.5 210 16:22 30.05.2020
2173 Clouds 27 1012 83 7000 3.1 230 15:49 30.05.2020
2174 Haze 27 1011 78 5000 2.6 210 15:29 30.05.2020
2175 Haze 27 1011 78 5000 2.6 210 14:59 30.05.2020
2176 Haze 28 1011 78 5000 2.6 210 14:41 30.05.2020
2177 Haze 28 1011 74 5000 3.1 220 14:18 30.05.2020
2178 Haze 28 1011 74 5000 4.1 210 13:41 30.05.2020
2179 Rain 29 1010 62 6000 4.1 60 13:18 30.05.2020
2180 Rain 31 1010 62 6000 4.1 30 12:39 30.05.2020
2181 Rain 31 1010 62 6000 4.1 30 12:20 30.05.2020
2182 Rain 31 1009 59 6000 4.1 30 11:54 30.05.2020
2183 Rain 32 1009 59 6000 6.2 60 11:36 30.05.2020
2184 Rain 32 1008 59 6000 5.1 60 11:18 30.05.2020
2185 Rain 33 1008 59 6000 5.1 60 10:39 30.05.2020
2186 Rain 34 1009 56 6000 6.2 60 10:20 30.05.2020
2187 Clouds 34 1009 56 6000 6.2 40 09:46 30.05.2020
2188 Clouds 33 1009 56 6000 6.2 40 09:28 30.05.2020
2189 Clouds 33 1009 55 6000 5.1 40 08:46 30.05.2020
2190 Clouds 33 1009 55 6000 5.1 40 08:27 30.05.2020
2191 Clouds 34 1010 55 6000 4.1 30 07:44 30.05.2020
2192 Clouds 34 1010 55 6000 4.1 30 07:20 30.05.2020
2193 Clouds 33 1011 59 6000 5.1 120 06:33 30.05.2020
2194 Clouds 33 1011 55 6000 4.1 70 05:52 30.05.2020
2195 Clouds 31 1012 59 6000 7.2 90 05:30 30.05.2020
2196 Haze 29 1012 74 5000 2.6 120 03:38 30.05.2020
2197 Haze 26 1012 88 4000 2.96 95 02:29 30.05.2020
2198 Haze 26 1011 94 4000 2.89 95 01:45 30.05.2020
2199 Haze 25 1011 94 5000 2.68 100 00:38 30.05.2020
2200 Haze 26 1011 94 5000 2.69 100 00:18 30.05.2020
2201 Haze 26 1011 83 5000 2.1 180 23:42 29.05.2020
2202 Haze 26 1011 83 5000 2.1 180 23:21 29.05.2020
2203 Haze 26 1010 83 5000 2.6 160 22:58 29.05.2020
2204 Haze 26 1010 83 5000 2.1 150 22:40 29.05.2020
2205 Haze 26 1010 83 5000 2.1 150 22:19 29.05.2020
2206 Haze 26 1010 83 5000 1.5 0 21:58 29.05.2020
2207 Haze 26 1011 83 5000 2.6 0 21:36 29.05.2020
2208 Haze 26 1011 83 5000 2.1 210 21:18 29.05.2020
2209 Clouds 26 1011 83 6000 2.1 210 20:44 29.05.2020
2210 Clouds 26 1012 83 6000 2.1 200 20:20 29.05.2020
2211 Clouds 26 1012 83 6000 2.1 200 19:58 29.05.2020
2212 Haze 26 1012 83 5000 1.5 0 19:38 29.05.2020
2213 Clouds 27 1012 83 6000 1.5 170 19:19 29.05.2020
2214 Clouds 27 1012 83 6000 1.5 200 18:46 29.05.2020
2215 Clouds 27 1012 83 6000 2.1 230 18:19 29.05.2020
2216 Clouds 27 1012 83 6000 2.1 230 18:19 29.05.2020
2217 Clouds 27 1012 83 6000 2.1 230 17:56 29.05.2020
2218 Clouds 27 1012 78 6000 2.6 0 17:38 29.05.2020
2219 Clouds 27 1012 78 6000 2.6 210 17:19 29.05.2020
2220 Clouds 27 1012 78 6000 1.5 190 16:43 29.05.2020
2221 Clouds 27 1012 78 6000 1.5 190 16:24 29.05.2020
2222 Clouds 27 1012 78 6000 2.1 160 15:56 29.05.2020
2223 Haze 27 1011 83 5000 2.6 130 15:38 29.05.2020
2224 Haze 27 1011 83 5000 2.6 130 15:19 29.05.2020
2225 Haze 27 1011 83 5000 2.6 130 14:43 29.05.2020
2226 Haze 27 1011 83 5000 2.6 130 14:23 29.05.2020
2227 Haze 27 1011 83 5000 1.5 140 13:57 29.05.2020
2228 Haze 27 1011 83 5000 1.5 140 13:38 29.05.2020
2229 Haze 28 1010 83 5000 2.6 130 13:18 29.05.2020
2230 Rain 29 1009 74 5000 3.1 150 12:42 29.05.2020
2231 Haze 29 1009 74 5000 3.1 150 12:23 29.05.2020
2232 Thunderstorm 31 1009 74 5000 5.1 200 11:45 29.05.2020
2233 Thunderstorm 31 1009 74 5000 5.1 200 11:27 29.05.2020
2234 Rain 33 1009 62 5000 5.1 50 10:58 29.05.2020
2235 Haze 32 1008 70 5000 5.1 40 10:38 29.05.2020
2236 Rain 33 1008 66 5000 5.1 40 10:18 29.05.2020
2237 Clouds 34 1008 56 5000 3.6 20 09:44 29.05.2020
2238 Clouds 34 1009 56 6000 3.1 10 09:20 29.05.2020
2239 Clouds 34 1009 56 6000 3.1 10 08:56 29.05.2020
2240 Clouds 34 1009 59 6000 2.1 50 08:37 29.05.2020
2241 Clouds 34 1009 59 6000 2.1 50 08:19 29.05.2020
2242 Clouds 32 1010 59 6000 2.1 30 07:40 29.05.2020
2243 Clouds 32 1010 59 6000 2.1 30 07:22 29.05.2020
2244 Clouds 32 1011 55 6000 2.1 80 06:48 29.05.2020
2245 Clouds 32 1011 55 6000 2.1 80 06:28 29.05.2020
2246 Clouds 31 1012 59 6000 2.6 30 05:52 29.05.2020
2247 Haze 27 1012 83 4000 3.01 118 02:56 29.05.2020
2248 Mist 27 1011 94 3000 3.46 112 01:46 29.05.2020
2249 Mist 26 1011 94 3000 2.9 103 01:23 29.05.2020
2250 Mist 26 1011 94 4000 2.9 103 00:47 29.05.2020
2251 Mist 26 1011 94 4000 2.82 99 00:22 29.05.2020
2252 Mist 26 1011 94 4000 2.82 99 23:40 28.05.2020
2253 Thunderstorm 27 1010 88 5000 1.5 130 23:19 28.05.2020
2254 Thunderstorm 27 1010 88 5000 2.6 0 22:45 28.05.2020
2255 Thunderstorm 27 1010 88 5000 2.6 0 22:45 28.05.2020
2256 Thunderstorm 27 1010 88 5000 2.6 0 22:26 28.05.2020
2257 Thunderstorm 27 1010 94 6000 3.6 230 21:59 28.05.2020
2258 Thunderstorm 27 1011 94 4000 2.6 250 21:40 28.05.2020
2259 Thunderstorm 27 1011 94 4500 2.1 0 21:20 28.05.2020
2260 Thunderstorm 27 1011 94 4500 2.1 0 20:58 28.05.2020
2261 Thunderstorm 27 1011 88 5000 1 0 20:39 28.05.2020
2262 Rain 27 1011 94 4000 2.1 0 20:19 28.05.2020
2263 Rain 27 1011 94 4000 2.1 0 19:57 28.05.2020
2264 Thunderstorm 28 1011 88 5000 2.6 0 19:39 28.05.2020
2265 Haze 28 1012 83 4000 1.5 100 19:20 28.05.2020
2266 Rain 28 1012 83 4000 1.5 100 18:43 28.05.2020
2267 Haze 28 1012 83 4000 1.5 100 18:25 28.05.2020
2268 Thunderstorm 28 1012 83 4000 3.1 100 17:57 28.05.2020
2269 Haze 29 1012 83 5000 2.6 50 17:39 28.05.2020
2270 Haze 29 1012 83 5000 2.6 50 17:19 28.05.2020
2271 Haze 29 1012 83 5000 2.1 70 16:45 28.05.2020
2272 Haze 29 1012 83 5000 2.1 70 16:21 28.05.2020
2273 Clouds 29 1011 79 6000 2.1 30 15:47 28.05.2020
2274 Haze 29 1010 79 5000 2.1 50 15:25 28.05.2020
2275 Haze 29 1010 79 5000 2.1 50 14:59 28.05.2020
2276 Haze 29 1010 79 5000 2.1 50 14:40 28.05.2020
2277 Haze 29 1010 79 5000 2.1 50 14:22 28.05.2020
2278 Haze 29 1010 79 5000 2.1 50 14:22 28.05.2020
2279 Haze 30 1009 74 5000 2.6 40 13:45 28.05.2020
2280 Haze 30 1009 74 5000 2.6 40 13:27 28.05.2020
2281 Haze 31 1009 66 5000 2.6 70 12:43 28.05.2020
2282 Haze 31 1009 66 5000 2.6 70 12:20 28.05.2020
2283 Haze 31 1008 62 5000 2.1 60 11:57 28.05.2020
2284 Haze 31 1008 62 5000 2.6 70 11:39 28.05.2020
2285 Haze 31 1008 66 5000 3.1 60 11:20 28.05.2020
2286 Haze 31 1009 66 5000 3.1 50 10:43 28.05.2020
2287 Rain 32 1009 66 5000 3.1 50 10:25 28.05.2020
2288 Haze 32 1009 66 5000 3.1 90 09:56 28.05.2020
2289 Haze 32 1009 66 5000 3.1 90 09:38 28.05.2020
2290 Haze 33 1009 66 5000 3.6 90 09:18 28.05.2020
2291 Haze 33 1010 66 5000 3.6 100 08:43 28.05.2020
2292 Haze 33 1010 66 5000 3.6 100 08:22 28.05.2020
2293 Haze 32 1011 55 5000 1.5 130 07:41 28.05.2020
2294 Haze 32 1011 55 5000 1.5 130 07:23 28.05.2020
2295 Clouds 31 1011 62 9000 2.1 320 06:44 28.05.2020
2296 Clouds 31 1011 62 9000 2.1 320 06:26 28.05.2020
2297 Clouds 32 1012 70 9000 1.5 0 05:39 28.05.2020
2298 Haze 29 1013 74 4000 1.5 180 04:37 28.05.2020
2299 Haze 28 1013 88 4000 1.24 216 04:18 28.05.2020
2300 Mist 28 1012 100 3000 1.57 210 02:56 28.05.2020
2301 Mist 27 1011 100 2500 1.57 210 02:38 28.05.2020
2302 Mist 25 1011 100 2000 1.38 179 01:45 28.05.2020
2303 Mist 26 1010 100 2500 1.5 90 00:49 28.05.2020
2304 Mist 26 1010 100 2500 1.5 90 00:20 28.05.2020
2305 Mist 26 1010 100 2500 1.5 100 23:56 27.05.2020
2306 Mist 26 1010 100 3000 1.37 150 23:37 27.05.2020
2307 Clouds 26 1010 88 9000 1 250 23:19 27.05.2020
2308 Clouds 26 1010 88 9000 1.5 0 22:42 27.05.2020
2309 Clouds 26 1010 88 9000 1.5 0 22:23 27.05.2020
2310 Clouds 26 1010 83 8000 2.1 230 21:57 27.05.2020
2311 Clouds 26 1010 83 8000 2.1 230 21:57 27.05.2020
2312 Clouds 26 1010 83 8000 3.1 250 21:39 27.05.2020
2313 Clouds 26 1010 83 8000 3.1 250 21:39 27.05.2020
2314 Clouds 26 1010 83 8000 3.1 250 21:20 27.05.2020
2315 Clouds 26 1011 83 8000 4.1 230 20:58 27.05.2020
2316 Clouds 26 1011 88 8000 3.1 230 20:39 27.05.2020
2317 Clouds 26 1012 88 8000 3.6 260 20:19 27.05.2020
2318 Clouds 26 1012 88 8000 3.1 270 19:46 27.05.2020
2319 Clouds 26 1012 88 8000 3.1 270 19:21 27.05.2020
2320 Clouds 27 1012 83 8000 2.6 290 18:54 27.05.2020
2321 Clouds 27 1012 83 8000 3.6 280 18:36 27.05.2020
2322 Clouds 27 1012 83 8000 2.6 280 18:18 27.05.2020
2323 Clouds 27 1012 78 8000 2.6 280 17:42 27.05.2020
2324 Clouds 28 1012 78 8000 2.6 280 17:23 27.05.2020
2325 Clouds 28 1012 78 8000 3.1 280 16:56 27.05.2020
2326 Clouds 28 1012 78 8000 3.1 260 16:38 27.05.2020
2327 Clouds 28 1012 78 8000 3.1 260 16:19 27.05.2020
2328 Clouds 28 1012 78 10000 4.1 260 15:49 27.05.2020
2329 Rain 29 1011 70 6000 3.1 220 15:23 27.05.2020
2330 Rain 30 1011 70 6000 3.1 220 14:55 27.05.2020
2331 Rain 30 1011 70 6000 3.1 220 14:37 27.05.2020
2332 Rain 30 1010 66 6000 4.1 240 14:19 27.05.2020
2333 Rain 30 1011 70 6000 3.1 220 14:19 27.05.2020
2334 Rain 30 1010 66 6000 4.1 270 13:41 27.05.2020
2335 Rain 30 1010 66 6000 4.1 270 13:23 27.05.2020
2336 Rain 31 1009 62 6000 2.6 270 12:42 27.05.2020
2337 Rain 31 1009 62 6000 2.6 270 12:24 27.05.2020
2338 Rain 31 1009 66 6000 1.5 270 11:58 27.05.2020
2339 Rain 32 1008 59 6000 3.1 290 11:37 27.05.2020
2340 Rain 33 1009 55 6000 2.1 300 11:19 27.05.2020
2341 Rain 33 1009 59 6000 4.1 360 10:44 27.05.2020
2342 Rain 33 1009 59 6000 4.1 360 10:24 27.05.2020
2343 Clouds 34 1009 59 6000 5.1 360 09:58 27.05.2020
2344 Clouds 34 1009 59 6000 3.1 340 09:39 27.05.2020
2345 Clouds 34 1009 59 6000 3.1 340 09:20 27.05.2020
2346 Clouds 32 1010 55 6000 2.1 150 08:42 27.05.2020
2347 Clouds 32 1010 55 6000 2.1 150 08:24 27.05.2020
2348 Clouds 31 1010 59 6000 2.1 30 07:54 27.05.2020
2349 Clouds 33 1010 62 6000 1.5 300 07:35 27.05.2020
2350 Clouds 30 1011 66 6000 3.1 30 06:57 27.05.2020
2351 Clouds 30 1012 62 6000 2.6 60 06:33 27.05.2020
2352 Clouds 30 1012 66 6000 2.6 60 05:55 27.05.2020
2353 Clouds 30 1012 62 6000 3.6 60 05:35 27.05.2020
2354 Clouds 28 1012 70 6000 1.5 90 04:19 27.05.2020
2355 Clouds 28 1012 83 6000 1.5 210 02:30 27.05.2020
2356 Clouds 26 1012 83 6000 2.19 144 01:51 27.05.2020
2357 Clouds 26 1011 83 6000 2.06 149 01:20 27.05.2020
2358 Clouds 26 1011 88 6000 1.5 220 00:44 27.05.2020
2359 Clouds 26 1011 88 6000 2.6 240 00:19 27.05.2020
2360 Clouds 26 1011 88 6000 2.1 220 23:43 26.05.2020
2361 Clouds 26 1011 88 6000 2.1 220 23:25 26.05.2020
2362 Clouds 26 1011 88 7000 3.6 240 22:59 26.05.2020
2363 Clouds 26 1011 88 7000 3.6 240 22:38 26.05.2020
2364 Clouds 26 1011 88 7000 3.6 240 22:20 26.05.2020
2365 Clouds 26 1011 88 7000 4.6 250 21:57 26.05.2020
2366 Clouds 26 1011 88 7000 3.6 250 21:39 26.05.2020
2367 Clouds 26 1011 88 8000 3.6 250 21:20 26.05.2020
2368 Clouds 26 1011 88 8000 3.6 250 20:42 26.05.2020
2369 Clouds 26 1011 88 8000 3.6 250 20:21 26.05.2020
2370 Clouds 26 1012 88 8000 3.1 270 19:56 26.05.2020
2371 Clouds 26 1012 88 8000 2.6 280 19:37 26.05.2020
2372 Clouds 26 1012 88 8000 1.5 280 19:18 26.05.2020
2373 Clouds 26 1012 88 8000 2.1 310 18:41 26.05.2020
2374 Clouds 27 1012 88 8000 2.1 310 18:22 26.05.2020
2375 Clouds 27 1012 83 8000 3.1 270 17:44 26.05.2020
2376 Clouds 27 1012 83 8000 3.1 270 17:26 26.05.2020
2377 Clouds 27 1012 78 8000 2.6 290 16:59 26.05.2020
2378 Clouds 27 1012 78 8000 3.1 280 16:41 26.05.2020
2379 Clouds 27 1012 78 8000 4.1 280 16:19 26.05.2020
2380 Clouds 28 1011 74 8000 3.6 280 15:44 26.05.2020
2381 Clouds 28 1010 70 6000 4.6 240 15:21 26.05.2020
2382 Clouds 28 1010 70 6000 4.6 240 14:59 26.05.2020
2383 Clouds 29 1010 70 6000 4.6 240 14:41 26.05.2020
2384 Clouds 29 1010 70 6000 4.1 240 14:22 26.05.2020
2385 Clouds 29 1010 70 6000 2.6 260 13:42 26.05.2020
2386 Clouds 29 1010 70 6000 2.6 260 13:24 26.05.2020
2387 Clouds 30 1009 66 6000 3.1 270 12:59 26.05.2020
2388 Clouds 30 1009 66 6000 3.1 270 12:39 26.05.2020
2389 Clouds 30 1009 66 6000 3.1 270 12:19 26.05.2020
2390 Rain 31 1009 62 6000 5.1 300 11:41 26.05.2020
2391 Rain 31 1009 62 6000 5.1 300 11:21 26.05.2020
2392 Clouds 31 1009 62 6000 5.1 270 10:59 26.05.2020
2393 Clouds 32 1008 62 7000 4.1 270 10:39 26.05.2020
2394 Clouds 32 1008 59 7000 3.1 290 10:18 26.05.2020
2395 Clouds 33 1008 59 7000 4.1 250 09:39 26.05.2020
2396 Clouds 34 1008 59 7000 4.1 250 09:19 26.05.2020
2397 Clouds 34 1009 59 10000 6.2 250 08:43 26.05.2020
2398 Clouds 34 1010 55 6000 4.1 260 08:22 26.05.2020
2399 Clouds 34 1010 55 6000 4.1 260 07:44 26.05.2020
2400 Clouds 34 1010 55 6000 4.1 260 07:25 26.05.2020
2401 Clouds 34 1011 62 6000 3.1 240 06:57 26.05.2020
2402 Clouds 33 1011 62 6000 3.1 240 06:39 26.05.2020
2403 Clouds 31 1011 62 6000 2.6 230 05:53 26.05.2020
2404 Clouds 31 1012 66 6000 1.5 200 05:29 26.05.2020
2405 Clouds 30 1012 66 6000 1.5 200 04:52 26.05.2020
2406 Haze 30 1012 70 5000 1.4 94 04:33 26.05.2020
2407 Haze 29 1012 70 5000 1.63 116 03:55 26.05.2020
2408 Haze 29 1011 88 5000 1.81 131 02:45 26.05.2020
2409 Haze 26 1011 94 5000 1.84 147 01:48 26.05.2020
2410 Haze 26 1011 94 5000 2.06 138 01:27 26.05.2020
2411 Haze 26 1011 88 4000 2.06 138 00:37 26.05.2020
2412 Haze 26 1010 94 4000 2.61 134 00:19 26.05.2020
2413 Haze 26 1010 94 4000 2.61 134 23:55 25.05.2020
2414 Haze 26 1010 94 4000 2.61 134 23:36 25.05.2020
2415 Haze 26 1010 88 5000 1.5 320 23:18 25.05.2020
2416 Haze 26 1010 88 5000 1.5 320 22:55 25.05.2020
2417 Haze 27 1010 83 5000 1 0 22:36 25.05.2020
2418 Haze 27 1010 78 5000 1.5 210 22:18 25.05.2020
2419 Haze 27 1010 78 5000 1.5 210 21:54 25.05.2020
2420 Haze 27 1010 83 5000 1.5 210 21:36 25.05.2020
2421 Haze 27 1011 83 5000 1 0 21:18 25.05.2020
2422 Clouds 27 1011 83 6000 1 0 20:42 25.05.2020
2423 Clouds 27 1011 83 6000 1 0 20:21 25.05.2020
2424 Clouds 27 1012 83 6000 1.5 0 19:59 25.05.2020
2425 Clouds 27 1012 83 6000 1.5 180 19:39 25.05.2020
2426 Clouds 27 1012 83 6000 2.1 180 19:18 25.05.2020
2427 Haze 27 1012 88 5000 4.31 120 18:54 25.05.2020
2428 Haze 27 1012 88 5000 4.31 120 18:36 25.05.2020
2429 Haze 28 1012 88 5000 4.4 128 18:18 25.05.2020
2430 Haze 28 1012 88 5000 4.4 128 17:41 25.05.2020
2431 Haze 28 1012 88 5000 3.66 136 17:23 25.05.2020
2432 Haze 28 1012 88 5000 3.66 136 16:56 25.05.2020
2433 Clouds 28 1012 74 8000 3.1 230 16:38 25.05.2020
2434 Clouds 28 1012 74 8000 3.1 230 16:19 25.05.2020
2435 Clouds 29 1011 70 8000 3.6 230 15:44 25.05.2020
2436 Rain 28 1011 94 5000 2.1 170 15:19 25.05.2020
2437 Rain 28 1011 94 5000 2.1 170 15:19 25.05.2020
2438 Rain 28 1011 94 5000 2.1 170 14:57 25.05.2020
2439 Rain 28 1011 94 5000 2.1 170 14:38 25.05.2020
2440 Rain 29 1011 83 5000 2.6 140 14:19 25.05.2020
2441 Rain 29 1010 78 6000 2.6 180 13:39 25.05.2020
2442 Rain 29 1010 78 6000 2.6 180 13:21 25.05.2020
2443 Rain 29 1010 78 6000 3.1 180 12:57 25.05.2020
2444 Rain 30 1009 78 5000 4.1 120 12:38 25.05.2020
2445 Thunderstorm 31 1009 74 5000 6.7 150 12:20 25.05.2020
2446 Haze 31 1009 70 5000 4.6 130 11:39 25.05.2020
2447 Haze 31 1009 70 5000 4.6 130 11:20 25.05.2020
2448 Rain 33 1008 66 6000 3.6 320 10:56 25.05.2020
2449 Rain 34 1009 63 6000 4.1 340 10:37 25.05.2020
2450 Rain 34 1009 63 6000 4.1 340 10:19 25.05.2020
2451 Clouds 35 1008 52 6000 3.6 330 10:19 25.05.2020
2452 Clouds 33 1008 52 6000 3.6 330 09:54 25.05.2020
2453 Clouds 33 1009 49 7000 4.1 260 09:36 25.05.2020
2454 Clouds 33 1009 52 7000 5.1 240 09:18 25.05.2020
2455 Clouds 34 1010 52 7000 3.6 300 08:39 25.05.2020
2456 Clouds 34 1010 52 7000 3.6 300 08:20 25.05.2020
2457 Clouds 33 1011 52 7000 6.7 230 07:49 25.05.2020
2458 Clouds 33 1011 52 7000 6.7 230 07:27 25.05.2020
2459 Clouds 34 1011 55 7000 6.7 220 06:57 25.05.2020
2460 Clouds 34 1011 52 7000 6.2 210 06:36 25.05.2020
2461 Clouds 32 1012 59 6000 4.6 240 05:25 25.05.2020
2462 Haze 30 1012 70 5000 1.5 180 03:28 25.05.2020
2463 Haze 28 1012 83 5000 1.5 120 02:47 25.05.2020
2464 Haze 29 1012 83 5000 1.5 120 02:20 25.05.2020
2465 Haze 28 1011 88 5000 1.23 188 01:42 25.05.2020
2466 Haze 27 1011 88 5000 1.33 196 00:47 25.05.2020
2467 Haze 27 1011 88 5000 1.37 189 00:26 25.05.2020
2468 Haze 27 1010 88 5000 1.37 189 23:58 24.05.2020
2469 Haze 27 1010 88 5000 1.5 160 23:39 24.05.2020
2470 Haze 27 1010 88 5000 1.5 160 23:39 24.05.2020
2471 Haze 27 1010 88 5000 1.5 160 23:39 24.05.2020
2472 Haze 27 1010 88 5000 1.5 160 23:39 24.05.2020
2473 Clouds 27 1010 83 6000 4.1 250 23:20 24.05.2020
2474 Clouds 27 1010 83 6000 4.1 250 22:55 24.05.2020
2475 Clouds 27 1010 83 6000 4.1 250 22:37 24.05.2020
2476 Clouds 27 1010 83 7000 3.6 260 22:18 24.05.2020
2477 Clouds 27 1010 83 7000 3.6 260 21:54 24.05.2020
2478 Clouds 27 1011 83 6000 3.1 240 21:36 24.05.2020
2479 Clouds 27 1011 78 6000 3.1 230 21:18 24.05.2020
2480 Clouds 27 1011 83 6000 3.6 240 20:43 24.05.2020
2481 Clouds 27 1011 83 6000 3.6 240 20:21 24.05.2020
2482 Clouds 27 1011 83 6000 3.1 240 19:56 24.05.2020
2483 Clouds 27 1012 83 6000 3.1 260 19:37 24.05.2020
2484 Clouds 27 1012 83 6000 2.6 270 19:18 24.05.2020
2485 Clouds 27 1012 83 7000 3.1 270 18:42 24.05.2020
2486 Clouds 28 1012 83 7000 3.1 270 18:23 24.05.2020
2487 Clouds 28 1012 74 8000 3.1 280 17:58 24.05.2020
2488 Clouds 28 1012 74 8000 3.1 230 17:40 24.05.2020
2489 Clouds 28 1012 74 8000 3.1 230 17:21 24.05.2020
2490 Clouds 28 1012 74 8000 3.1 260 16:56 24.05.2020
2491 Clouds 29 1012 70 8000 3.6 240 16:37 24.05.2020
2492 Clouds 29 1012 70 8000 3.6 240 16:19 24.05.2020
2493 Clouds 29 1011 70 8000 3.6 240 15:55 24.05.2020
2494 Rain 29 1011 70 6000 2.1 170 15:37 24.05.2020
2495 Rain 29 1011 70 6000 2.1 170 15:18 24.05.2020
2496 Rain 30 1011 70 6000 2.1 170 14:44 24.05.2020
2497 Rain 30 1011 70 6000 2.1 170 14:22 24.05.2020
2498 Rain 30 1010 70 6000 3.6 180 13:57 24.05.2020
2499 Rain 31 1009 66 6000 4.1 180 13:38 24.05.2020
2500 Rain 31 1009 66 6000 4.1 180 13:20 24.05.2020
2501 Rain 32 1009 59 6000 5.1 180 12:57 24.05.2020
2502 Rain 33 1009 49 6000 6.2 240 12:38 24.05.2020
2503 Rain 33 1009 49 6000 6.2 240 12:20 24.05.2020
2504 Rain 34 1008 52 6000 7.7 240 11:56 24.05.2020
2505 Rain 34 1008 52 6000 7.7 240 11:56 24.05.2020
2506 Rain 34 1008 52 6000 7.7 240 11:38 24.05.2020
2507 Rain 34 1008 52 6000 5.1 240 11:20 24.05.2020
2508 Rain 34 1008 52 6000 5.1 240 10:55 24.05.2020
2509 Clouds 34 1008 52 6000 5.1 270 10:36 24.05.2020
2510 Clouds 35 1008 49 6000 5.1 270 10:18 24.05.2020
2511 Clouds 35 1008 59 6000 5.1 240 09:41 24.05.2020
2512 Clouds 34 1009 56 6000 1.5 270 09:18 24.05.2020
2513 Clouds 35 1009 56 6000 1.5 270 08:54 24.05.2020
2514 Clouds 35 1009 52 6000 6.7 240 08:36 24.05.2020
2515 Clouds 35 1009 52 6000 5.1 280 08:18 24.05.2020
2516 Clouds 35 1010 56 6000 4.1 270 07:41 24.05.2020
2517 Clouds 35 1010 56 6000 4.1 270 07:22 24.05.2020
2518 Clear 34 1011 55 6000 7.7 260 06:47 24.05.2020
2519 Clear 33 1011 55 6000 7.7 240 05:50 24.05.2020
2520 Clear 32 1011 62 6000 4.1 220 04:51 24.05.2020
2521 Haze 30 1011 70 5000 2.1 240 03:41 24.05.2020
2522 Haze 29 1011 83 5000 1.56 166 02:31 24.05.2020
2523 Clouds 28 1010 78 7000 3.6 220 01:46 24.05.2020
2524 Clouds 26 1010 78 7000 3.1 200 00:39 24.05.2020
2525 Clouds 26 1010 78 7000 3.1 200 00:21 24.05.2020
2526 Clouds 26 1010 78 7000 2.6 210 23:43 23.05.2020
2527 Clouds 26 1010 78 7000 2.6 210 23:23 23.05.2020
2528 Clouds 26 1010 78 7000 2.1 200 22:57 23.05.2020
2529 Clouds 26 1010 78 7000 2.6 180 22:38 23.05.2020
2530 Clouds 26 1010 74 8000 2.6 230 22:20 23.05.2020
2531 Clouds 27 1010 74 8000 2.6 230 21:57 23.05.2020
2532 Clouds 27 1010 74 8000 1.5 230 21:37 23.05.2020
2533 Clouds 27 1011 74 8000 2.1 230 21:19 23.05.2020
2534 Clouds 27 1010 74 8000 1.5 230 21:19 23.05.2020
2535 Clouds 27 1011 74 8000 2.6 240 20:57 23.05.2020
2536 Clouds 27 1011 74 8000 2.6 240 20:37 23.05.2020
2537 Clouds 27 1011 78 9000 2.1 260 20:18 23.05.2020
2538 Clouds 27 1011 74 9000 2.1 230 19:41 23.05.2020
2539 Clouds 27 1012 78 9000 2.6 230 19:20 23.05.2020
2540 Clouds 27 1012 78 9000 2.6 230 18:57 23.05.2020
2541 Clouds 27 1012 78 8000 2.1 240 18:39 23.05.2020
2542 Clouds 27 1012 78 8000 3.1 250 18:21 23.05.2020
2543 Clouds 27 1012 78 8000 3.1 250 17:55 23.05.2020
2544 Clouds 27 1011 78 8000 3.6 250 17:37 23.05.2020
2545 Clouds 27 1011 78 8000 3.6 250 17:19 23.05.2020
2546 Clouds 27 1011 78 8000 3.6 250 16:56 23.05.2020
2547 Clouds 28 1011 74 8000 3.6 240 16:37 23.05.2020
2548 Clouds 28 1010 78 8000 2.6 260 16:18 23.05.2020
2549 Clouds 28 1010 74 8000 3.1 270 15:42 23.05.2020
2550 Clouds 29 1009 62 6000 3.6 250 15:23 23.05.2020
2551 Clouds 29 1009 62 6000 3.6 250 14:55 23.05.2020
2552 Clouds 29 1009 62 6000 3.6 250 14:37 23.05.2020
2553 Clouds 30 1008 55 6000 5.7 300 14:19 23.05.2020
2554 Clouds 30 1008 55 6000 5.7 300 13:40 23.05.2020
2555 Clouds 31 1008 49 6000 5.1 250 13:19 23.05.2020
2556 Clouds 31 1008 49 6000 5.1 250 12:54 23.05.2020
2557 Rain 32 1008 52 6000 4.6 240 12:36 23.05.2020
2558 Rain 33 1008 49 6000 4.1 250 12:18 23.05.2020
2559 Clouds 34 1007 52 6000 4.1 250 11:42 23.05.2020
2560 Clouds 34 1007 49 6000 5.7 300 11:20 23.05.2020
2561 Clouds 33 1007 49 6000 5.7 300 10:56 23.05.2020
2562 Clouds 33 1007 49 6000 5.7 300 10:38 23.05.2020
2563 Clouds 33 1008 52 6000 4.1 250 10:19 23.05.2020
2564 Clouds 33 1008 52 6000 4.1 250 09:56 23.05.2020
2565 Clouds 33 1008 52 6000 5.1 240 09:38 23.05.2020
2566 Clouds 32 1008 52 6000 5.1 240 09:19 23.05.2020
2567 Clouds 34 1009 52 6000 3.6 250 08:42 23.05.2020
2568 Clouds 34 1009 52 6000 4.1 220 08:19 23.05.2020
2569 Clouds 34 1009 52 6000 4.1 220 08:19 23.05.2020
2570 Clouds 34 1009 49 6000 4.1 240 07:46 23.05.2020
2571 Clouds 34 1009 49 6000 4.1 240 07:28 23.05.2020
2572 Clouds 32 1010 52 6000 2.6 100 06:53 23.05.2020
2573 Clouds 32 1010 52 6000 2.6 100 06:35 23.05.2020
2574 Haze 29 1011 70 5000 3.1 180 04:40 23.05.2020
2575 Haze 29 1011 78 4000 2.1 140 03:27 23.05.2020
2576 Haze 27 1010 94 4000 1.5 160 02:48 23.05.2020
2577 Haze 25 1010 94 5000 1.5 170 01:53 23.05.2020
2578 Haze 25 1010 94 5000 0.73 92 01:20 23.05.2020
2579 Clouds 25 1009 94 6000 1.5 220 00:45 23.05.2020
2580 Clouds 25 1009 94 6000 1.5 220 00:22 23.05.2020
2581 Clouds 25 1009 94 6000 1.5 200 23:55 22.05.2020
2582 Clouds 25 1009 94 6000 2.1 150 23:36 22.05.2020
2583 Clouds 25 1009 94 6000 1.25 132 23:18 22.05.2020
2584 Clouds 24 1009 88 8000 2.1 150 22:42 22.05.2020
2585 Clouds 24 1009 88 8000 2.1 150 22:21 22.05.2020
2586 Clouds 23 1010 88 8000 0.5 0 21:55 22.05.2020
2587 Clouds 23 1010 83 8000 0.5 0 21:37 22.05.2020
2588 Clouds 23 1010 83 8000 0.5 0 21:37 22.05.2020
2589 Clouds 25 1009 88 8000 1.5 60 21:19 22.05.2020
2590 Clouds 26 1010 83 8000 1.5 0 20:45 22.05.2020
2591 Clouds 24 1010 83 10000 1.5 320 20:21 22.05.2020
2592 Clouds 25 1010 83 7000 2.6 340 19:45 22.05.2020
2593 Haze 26 1010 94 5000 2.6 10 19:26 22.05.2020
2594 Haze 26 1010 94 5000 2.6 10 18:58 22.05.2020
2595 Haze 26 1010 94 5000 2.6 10 18:39 22.05.2020
2596 Thunderstorm 26 1011 94 5000 2.22 92 18:19 22.05.2020
2597 Thunderstorm 27 1011 83 5000 3.1 240 17:41 22.05.2020
2598 Thunderstorm 27 1011 83 5000 3.1 240 17:20 22.05.2020
2599 Thunderstorm 27 1011 83 6000 3.1 210 17:00 22.05.2020
2600 Clouds 27 1011 83 6000 2.89 85 16:41 22.05.2020
2601 Thunderstorm 27 1011 83 8000 3.02 83 16:20 22.05.2020
2602 Clouds 27 1011 83 6000 3.02 83 16:20 22.05.2020
2603 Thunderstorm 27 1011 83 8000 3.02 83 15:57 22.05.2020
2604 Clouds 28 1010 74 6000 2.1 50 15:38 22.05.2020
2605 Clouds 28 1010 74 6000 2.1 50 15:18 22.05.2020
2606 Clouds 28 1010 74 6000 2.1 50 14:41 22.05.2020
2607 Clouds 28 1010 74 6000 2.1 50 14:23 22.05.2020
2608 Clouds 30 1008 74 6000 3.6 30 13:45 22.05.2020
2609 Clouds 30 1008 74 6000 3.6 30 13:20 22.05.2020
2610 Rain 31 1007 70 6000 4.1 50 12:44 22.05.2020
2611 Rain 31 1007 70 6000 4.1 50 12:25 22.05.2020
2612 Rain 31 1007 66 6000 4.1 30 11:56 22.05.2020
2613 Clouds 32 1007 62 6000 2.6 40 11:37 22.05.2020
2614 Clouds 32 1007 55 6000 2.6 40 11:19 22.05.2020
2615 Clouds 32 1007 66 6000 3.6 40 10:41 22.05.2020
2616 Clouds 32 1007 66 6000 3.6 40 10:22 22.05.2020
2617 Clouds 32 1007 74 6000 4.1 20 09:59 22.05.2020
2618 Thunderstorm 32 1007 74 5000 3.6 360 09:40 22.05.2020
2619 Thunderstorm 33 1007 59 5000 2.6 60 09:18 22.05.2020
2620 Clouds 33 1008 59 6000 3.6 80 08:43 22.05.2020
2621 Clouds 34 1008 59 6000 3.6 80 08:20 22.05.2020
2622 Clouds 34 1008 62 6000 4.6 100 07:56 22.05.2020
2623 Clouds 34 1009 62 6000 3.6 30 07:24 22.05.2020
2624 Clouds 34 1009 59 6000 3.6 60 06:56 22.05.2020
2625 Clouds 33 1009 62 6000 4.1 80 06:36 22.05.2020
2626 Clouds 32 1010 62 6000 3.1 120 05:39 22.05.2020
2627 Clouds 32 1010 62 6000 3.1 120 05:39 22.05.2020
2628 Clouds 31 1010 66 6000 3.1 90 04:51 22.05.2020
2629 Clouds 30 1010 74 6000 4.1 90 04:24 22.05.2020
2630 Haze 29 1010 79 4000 4.1 130 03:47 22.05.2020
2631 Haze 28 1009 83 3000 2.6 120 02:59 22.05.2020
2632 Mist 27 1009 94 2500 1.5 90 01:56 22.05.2020
2633 Mist 27 1009 94 2500 1.5 130 01:28 22.05.2020
2634 Haze 27 1008 94 3000 1.5 130 00:46 22.05.2020
2635 Haze 27 1008 94 3000 1.5 130 00:27 22.05.2020
2636 Haze 27 1008 94 3000 1.5 130 23:42 21.05.2020
2637 Haze 27 1008 94 3000 1.5 130 23:24 21.05.2020
2638 Clouds 27 1008 78 8000 1 0 22:58 21.05.2020
2639 Clouds 27 1008 78 7000 1 0 22:38 21.05.2020
2640 Clouds 27 1009 78 7000 1 0 22:20 21.05.2020
2641 Clouds 27 1009 78 7000 1 0 21:56 21.05.2020
2642 Clouds 27 1009 78 7000 1 220 21:38 21.05.2020
2643 Clouds 27 1009 78 7000 2.6 0 21:18 21.05.2020
2644 Clouds 27 1009 78 7000 1 270 20:42 21.05.2020
2645 Clouds 27 1009 78 7000 1 270 20:22 21.05.2020
2646 Clouds 28 1010 74 7000 1.5 280 19:41 21.05.2020
2647 Clouds 28 1010 74 7000 1.5 280 19:21 21.05.2020
2648 Clouds 28 1010 74 7000 2.6 280 18:59 21.05.2020
2649 Clouds 28 1010 74 7000 2.1 270 18:39 21.05.2020
2650 Clouds 28 1010 78 7000 1.5 280 18:19 21.05.2020
2651 Clouds 28 1010 78 7000 1.5 280 17:56 21.05.2020
2652 Clouds 29 1010 70 7000 2.1 280 17:38 21.05.2020
2653 Clouds 29 1010 70 7000 2.1 280 17:38 21.05.2020
2654 Clouds 29 1010 70 7000 2.1 280 17:19 21.05.2020
2655 Clouds 28 1010 83 7000 2.1 290 16:44 21.05.2020
2656 Clouds 28 1010 83 7000 2.1 290 16:22 21.05.2020
2657 Clouds 29 1009 83 7000 1.5 330 15:44 21.05.2020
2658 Clouds 30 1008 58 6000 2.1 270 15:24 21.05.2020
2659 Clouds 30 1008 58 6000 2.1 270 14:43 21.05.2020
2660 Clouds 30 1008 58 6000 2.1 270 14:25 21.05.2020
2661 Clouds 30 1008 62 6000 3.1 270 14:00 21.05.2020
2662 Clouds 30 1008 66 6000 2.6 270 13:38 21.05.2020
2663 Clouds 31 1007 66 6000 2.1 270 13:20 21.05.2020
2664 Clouds 31 1007 59 6000 2.6 270 12:40 21.05.2020
2665 Clouds 32 1007 59 6000 2.6 270 12:22 21.05.2020
2666 Clouds 32 1006 66 6000 1.5 360 11:59 21.05.2020
2667 Clouds 32 1006 66 6000 2.6 330 11:39 21.05.2020
2668 Clouds 33 1006 66 6000 2.6 330 11:21 21.05.2020
2669 Clouds 33 1006 63 6000 2.1 330 10:54 21.05.2020
2670 Clouds 33 1006 59 6000 2.1 330 10:36 21.05.2020
2671 Clouds 34 1006 46 6000 4.1 240 10:18 21.05.2020
2672 Clouds 33 1006 46 6000 2.6 270 09:42 21.05.2020
2673 Clouds 34 1006 46 6000 2.6 270 09:24 21.05.2020
2674 Clouds 34 1007 49 6000 1.5 270 08:57 21.05.2020
2675 Clouds 33 1007 55 6000 2.6 240 08:38 21.05.2020
2676 Clouds 33 1008 55 7000 1.5 240 08:20 21.05.2020
2677 Clouds 32 1008 55 7000 3.1 280 07:42 21.05.2020
2678 Clouds 32 1008 55 7000 3.1 280 07:22 21.05.2020
2679 Clouds 31 1009 62 7000 1.5 240 06:37 21.05.2020
2680 Clouds 30 1009 62 7000 1.5 240 05:50 21.05.2020
2681 Clouds 29 1010 74 6000 1.5 210 04:18 21.05.2020
2682 Haze 27 1009 94 5000 1.35 33 03:21 21.05.2020
2683 Clouds 28 1010 83 6000 1.5 240 03:21 21.05.2020
2684 Clouds 28 1010 83 6000 1.5 240 03:21 21.05.2020
2685 Clouds 28 1010 83 6000 1.5 240 03:21 21.05.2020
2686 Haze 26 1009 94 5000 1.35 33 02:31 21.05.2020
2687 Haze 24 1009 100 5000 2.1 140 01:51 21.05.2020
2688 Haze 24 1009 100 5000 2.1 140 01:24 21.05.2020
2689 Clouds 24 1009 100 6000 2.1 210 00:59 21.05.2020
2690 Clouds 25 1009 94 6000 0.85 62 00:41 21.05.2020
2691 Clouds 25 1009 94 6000 1.47 69 00:18 21.05.2020
2692 Clouds 25 1008 94 6000 1.47 69 23:40 20.05.2020
2693 Clouds 25 1008 94 6000 2.29 119 23:19 20.05.2020
2694 Haze 25 1008 88 5000 2.1 270 22:55 20.05.2020
2695 Haze 25 1008 88 5000 0.5 0 22:36 20.05.2020
2696 Haze 25 1008 88 5000 2.1 350 22:18 20.05.2020
2697 Haze 25 1008 88 5000 2.1 300 21:39 20.05.2020
2698 Haze 25 1008 88 5000 1 90 21:20 20.05.2020
2699 Haze 25 1008 88 5000 1 0 20:44 20.05.2020
2700 Haze 25 1008 88 5000 1 0 20:24 20.05.2020
2701 Haze 25 1009 83 5000 1 0 19:54 20.05.2020
2702 Rain 25 1009 88 5000 4.6 160 19:36 20.05.2020
2703 Rain 25 1009 88 5000 5.1 170 19:18 20.05.2020
2704 Rain 25 1009 88 5000 5.7 170 18:42 20.05.2020
2705 Rain 24 1009 94 5000 5.7 170 18:21 20.05.2020
2706 Rain 24 1010 94 5000 6.2 180 17:41 20.05.2020
2707 Rain 24 1010 94 5000 5.1 180 17:22 20.05.2020
2708 Rain 24 1010 94 5000 5.1 180 16:55 20.05.2020
2709 Rain 24 1010 88 5000 4.6 170 16:37 20.05.2020
2710 Rain 25 1010 88 5000 3.6 190 16:18 20.05.2020
2711 Rain 25 1010 94 5000 2.1 0 15:43 20.05.2020
2712 Thunderstorm 25 1009 94 4000 3.6 280 15:25 20.05.2020
2713 Thunderstorm 25 1009 94 4000 3.6 280 14:44 20.05.2020
2714 Haze 27 1008 78 5000 1.5 260 14:23 20.05.2020
2715 Haze 27 1008 78 5000 1.5 260 13:55 20.05.2020
2716 Haze 27 1008 78 5000 1.5 260 13:37 20.05.2020
2717 Rain 29 1008 78 5000 2.1 260 13:18 20.05.2020
2718 Rain 30 1007 74 5000 3.6 250 12:42 20.05.2020
2719 Rain 30 1007 70 6000 4.1 30 12:20 20.05.2020
2720 Rain 30 1007 70 6000 5.1 30 11:37 20.05.2020
2721 Rain 31 1006 62 6000 5.1 30 11:19 20.05.2020
2722 Rain 33 1006 62 6000 4.6 20 10:44 20.05.2020
2723 Rain 33 1006 62 6000 4.6 20 10:22 20.05.2020
2724 Clouds 33 1006 56 6000 4.1 60 09:57 20.05.2020
2725 Clouds 33 1006 56 6000 4.1 60 09:38 20.05.2020
2726 Clouds 33 1007 56 6000 4.1 60 09:19 20.05.2020
2727 Clouds 34 1007 52 6000 4.6 60 08:41 20.05.2020
2728 Clouds 34 1008 52 6000 5.1 70 08:19 20.05.2020
2729 Clouds 35 1008 52 6000 5.1 70 07:49 20.05.2020
2730 Clouds 34 1008 52 6000 5.1 70 07:23 20.05.2020
2731 Clouds 34 1008 55 6000 5.1 60 06:52 20.05.2020
2732 Clouds 32 1009 62 6000 5.1 170 05:59 20.05.2020
2733 Haze 31 1009 70 5000 3.1 70 04:37 20.05.2020
2734 Haze 30 1009 70 5000 3.1 70 03:58 20.05.2020
2735 Haze 29 1009 70 5000 3.1 70 03:27 20.05.2020
2736 Haze 27 1008 88 4000 2.1 110 01:33 20.05.2020
2737 Haze 26 1008 94 4000 1.5 120 00:57 20.05.2020
2738 Haze 27 1008 88 4000 1.5 100 00:38 20.05.2020
2739 Haze 27 1008 88 4000 1.5 100 00:19 20.05.2020
2740 Haze 27 1008 88 4000 1.5 110 23:36 19.05.2020
2741 Haze 27 1008 88 4000 2.1 120 23:18 19.05.2020
2742 Haze 27 1008 88 4000 2.1 120 22:54 19.05.2020
2743 Clouds 27 1008 88 6000 2.1 140 22:36 19.05.2020
2744 Clouds 27 1008 88 6000 1.5 150 22:18 19.05.2020
2745 Clouds 27 1008 88 6000 1.5 150 21:54 19.05.2020
2746 Clouds 27 1008 88 6000 1.5 120 21:36 19.05.2020
2747 Clouds 27 1008 88 6000 2.1 120 21:18 19.05.2020
2748 Clouds 27 1008 88 6000 2.1 120 20:54 19.05.2020
2749 Clouds 27 1008 88 6000 2.1 120 20:36 19.05.2020
2750 Clouds 27 1009 88 6000 2.1 130 20:18 19.05.2020
2751 Clouds 27 1009 88 6000 1.5 130 19:37 19.05.2020
2752 Clouds 27 1009 88 6000 2.6 110 19:19 19.05.2020
2753 Clouds 27 1009 88 6000 1.5 100 18:43 19.05.2020
2754 Clouds 28 1009 88 6000 1.5 100 18:22 19.05.2020
2755 Clouds 28 1009 83 7000 2.6 120 17:57 19.05.2020
2756 Clouds 28 1009 88 8000 2.6 100 17:38 19.05.2020
2757 Clouds 28 1009 83 8000 3.6 100 17:19 19.05.2020
2758 Clouds 28 1009 83 8000 3.6 100 16:41 19.05.2020
2759 Clouds 28 1009 83 8000 3.6 100 16:22 19.05.2020
2760 Clouds 29 1009 83 8000 2.6 110 15:56 19.05.2020
2761 Rain 29 1008 74 6000 4.1 60 15:38 19.05.2020
2762 Rain 29 1008 74 6000 4.1 60 15:19 19.05.2020
2763 Rain 30 1008 74 6000 4.1 60 14:43 19.05.2020
2764 Rain 30 1007 70 6000 4.6 20 14:22 19.05.2020
2765 Rain 30 1007 70 6000 4.6 20 13:59 19.05.2020
2766 Rain 30 1007 70 6000 5.7 30 13:40 19.05.2020
2767 Rain 30 1007 70 6000 5.7 30 13:22 19.05.2020
2768 Clouds 31 1006 62 6000 4.6 40 12:59 19.05.2020
2769 Clouds 31 1006 62 6000 4.6 40 12:40 19.05.2020
2770 Clouds 32 1005 62 6000 4.1 50 12:22 19.05.2020
2771 Clouds 32 1005 62 6000 4.1 50 11:58 19.05.2020
2772 Clouds 33 1005 59 6000 5.1 30 11:40 19.05.2020
2773 Clouds 33 1005 59 6000 5.1 30 11:40 19.05.2020
2774 Clouds 33 1005 59 6000 5.1 30 11:21 19.05.2020
2775 Clouds 33 1005 59 6000 3.1 50 10:48 19.05.2020
2776 Clouds 34 1005 59 6000 3.1 50 10:29 19.05.2020
2777 Clouds 34 1005 56 6000 3.6 90 09:58 19.05.2020
2778 Clouds 33 1005 55 6000 3.1 90 09:40 19.05.2020
2779 Clouds 34 1005 55 6000 3.1 90 09:22 19.05.2020
2780 Clouds 34 1006 59 6000 2.1 150 08:43 19.05.2020
2781 Clouds 32 1006 59 6000 2.1 150 08:24 19.05.2020
2782 Clouds 32 1006 59 6000 2.1 150 08:24 19.05.2020
2783 Clouds 33 1007 62 6000 2.1 100 07:44 19.05.2020
2784 Clouds 31 1007 62 6000 2.1 100 07:26 19.05.2020
2785 Clouds 30 1008 66 6000 3.6 80 06:51 19.05.2020
2786 Clouds 31 1008 66 6000 3.6 80 06:25 19.05.2020
2787 Clouds 31 1008 66 6000 3.1 90 05:41 19.05.2020
2788 Clouds 31 1009 66 6000 3.6 90 04:56 19.05.2020
2789 Clouds 29 1008 66 6000 3.1 100 04:32 19.05.2020
2790 Mist 25 1007 100 3000 1.5 240 01:31 19.05.2020
2791 Haze 25 1007 94 4000 1.5 20 00:44 19.05.2020
2792 Haze 25 1007 94 4000 1.5 20 00:24 19.05.2020
2793 Haze 25 1007 94 4000 1.67 136 23:58 18.05.2020
2794 Haze 25 1007 94 4000 1.5 80 23:39 18.05.2020
2795 Haze 25 1007 88 5000 1 0 23:19 18.05.2020
2796 Haze 25 1007 88 5000 1 0 22:41 18.05.2020
2797 Haze 25 1007 88 5000 1 0 22:22 18.05.2020
2798 Haze 25 1007 88 5000 1.5 170 21:56 18.05.2020
2799 Mist 25 1008 88 5000 2.6 180 21:38 18.05.2020
2800 Mist 25 1008 94 5000 2.1 170 21:18 18.05.2020
2801 Mist 24 1008 94 5000 2.1 170 20:43 18.05.2020
2802 Mist 24 1009 94 5000 2.1 170 20:22 18.05.2020
2803 Mist 24 1009 94 5000 2.1 170 19:59 18.05.2020
2804 Clouds 24 1009 94 6000 2.1 180 19:40 18.05.2020
2805 Clouds 24 1010 94 6000 1 0 19:19 18.05.2020
2806 Clouds 25 1010 88 6000 1.5 230 18:46 18.05.2020
2807 Clouds 25 1010 88 6000 1.5 230 18:25 18.05.2020
2808 Clouds 25 1010 88 6000 2.6 230 17:55 18.05.2020
2809 Rain 25 1011 94 6000 2.1 220 17:36 18.05.2020
2810 Rain 24 1010 94 6000 2.6 220 17:18 18.05.2020
2811 Rain 24 1010 94 6000 2.6 220 17:18 18.05.2020
2812 Rain 24 1010 94 6000 2.6 220 17:18 18.05.2020
2813 Rain 24 1010 94 6000 2.6 210 16:43 18.05.2020
2814 Rain 24 1010 94 6000 2.6 210 16:21 18.05.2020
2815 Rain 24 1010 94 6000 3.1 210 15:58 18.05.2020
2816 Rain 24 1010 94 6000 2.1 190 15:39 18.05.2020
2817 Rain 24 1010 100 5000 1.5 170 15:20 18.05.2020
2818 Rain 24 1010 100 5000 1.5 170 14:56 18.05.2020
2819 Rain 24 1010 100 5000 1.5 170 14:38 18.05.2020
2820 Rain 24 1010 100 5000 1.5 170 14:19 18.05.2020
2821 Rain 24 1009 100 4000 2.6 90 13:41 18.05.2020
2822 Rain 24 1009 100 4000 2.6 90 13:20 18.05.2020
2823 Rain 24 1009 100 3000 4.1 90 12:58 18.05.2020
2824 Rain 24 1009 100 3000 5.1 70 12:40 18.05.2020
2825 Rain 25 1008 100 3000 4.1 60 12:19 18.05.2020
2826 Rain 25 1008 100 3000 4.1 60 11:57 18.05.2020
2827 Rain 25 1008 100 3000 5.1 60 11:38 18.05.2020
2828 Rain 25 1008 100 2000 10.3 60 11:20 18.05.2020
2829 Rain 28 1007 78 2000 4.6 60 10:42 18.05.2020
2830 Rain 29 1007 78 2000 4.6 60 10:23 18.05.2020
2831 Clouds 31 1007 74 9000 4.1 340 09:45 18.05.2020
2832 Clouds 31 1007 74 9000 4.1 340 09:26 18.05.2020
2833 Clouds 31 1007 74 9000 4.6 350 08:56 18.05.2020
2834 Clouds 31 1007 74 9000 4.1 320 08:38 18.05.2020
2835 Clouds 32 1008 74 9000 3.6 350 08:19 18.05.2020
2836 Clouds 32 1008 74 8000 3.1 340 07:42 18.05.2020
2837 Clouds 32 1008 74 8000 3.1 340 07:21 18.05.2020
2838 Clouds 30 1009 83 7000 3.1 300 06:47 18.05.2020
2839 Rain 29 1009 88 5000 3.6 300 06:21 18.05.2020
2840 Rain 29 1009 88 5000 3.1 290 05:42 18.05.2020
2841 Haze 28 1009 83 3500 2.6 280 03:37 18.05.2020
2842 Haze 27 1008 88 4500 2.6 270 02:31 18.05.2020
2843 Haze 26 1007 88 5000 2.6 290 01:34 18.05.2020
2844 Haze 26 1007 88 5000 1.5 240 00:38 18.05.2020
2845 Haze 26 1007 88 5000 1.5 240 00:38 18.05.2020
2846 Haze 26 1006 88 5000 2.6 250 00:18 18.05.2020
2847 Haze 26 1006 88 4500 2.6 240 23:42 17.05.2020
2848 Haze 25 1006 88 4000 2.1 250 23:20 17.05.2020
2849 Haze 25 1006 88 4000 2.1 250 22:59 17.05.2020
2850 Haze 25 1007 88 4000 2.6 280 22:39 17.05.2020
2851 Haze 25 1007 88 4000 2.6 280 22:21 17.05.2020
2852 Haze 25 1007 88 4000 2.1 250 21:59 17.05.2020
2853 Haze 25 1007 88 4000 2.1 270 21:41 17.05.2020
2854 Haze 27 1008 88 5000 2.1 250 21:19 17.05.2020
2855 Haze 27 1008 88 5000 2.1 250 20:55 17.05.2020
2856 Haze 27 1008 88 5000 2.1 250 20:37 17.05.2020
2857 Haze 27 1008 88 5000 2.6 220 20:18 17.05.2020
2858 Clouds 27 1008 88 8000 3.1 210 19:42 17.05.2020
2859 Clouds 27 1008 88 8000 3.1 210 19:42 17.05.2020
2860 Clouds 27 1008 88 8000 2.1 210 19:23 17.05.2020
2861 Clouds 27 1008 88 8000 2.1 210 18:56 17.05.2020
2862 Clouds 27 1008 88 7000 3.1 220 18:38 17.05.2020
2863 Clouds 27 1008 88 7000 3.1 220 18:20 17.05.2020
2864 Rain 27 1009 83 7000 3.6 200 17:40 17.05.2020
2865 Rain 27 1009 83 7000 3.6 200 17:22 17.05.2020
2866 Rain 27 1009 88 7000 3.6 190 16:57 17.05.2020
2867 Clouds 28 1008 79 7000 2.1 80 16:39 17.05.2020
2868 Clouds 28 1008 79 7000 2.1 80 16:39 17.05.2020
2869 Clouds 29 1008 79 7000 2.1 80 16:19 17.05.2020
2870 Clouds 30 1008 74 8000 2.6 60 15:46 17.05.2020
2871 Clouds 30 1008 74 8000 2.6 60 15:24 17.05.2020
2872 Clouds 30 1008 74 8000 3.1 50 14:58 17.05.2020
2873 Clouds 30 1007 74 8000 3.6 50 14:40 17.05.2020
2874 Clouds 30 1007 74 8000 3.6 40 14:21 17.05.2020
2875 Clouds 30 1006 74 8000 4.6 40 13:43 17.05.2020
2876 Clouds 31 1006 70 8000 5.7 50 13:21 17.05.2020
2877 Clouds 31 1006 70 8000 5.7 50 13:21 17.05.2020
2878 Clouds 34 1004 59 9000 4.1 40 10:35 17.05.2020
2879 Haze 30 1008 70 5000 2.6 220 03:53 17.05.2020
2880 Haze 28 1007 83 4000 1 180 02:27 17.05.2020
2881 Haze 27 1007 88 4000 2.1 190 01:55 17.05.2020
2882 Haze 26 1006 88 5000 1.5 200 00:56 17.05.2020
2883 Haze 26 1006 88 5000 2.6 210 00:36 17.05.2020
2884 Haze 26 1006 83 5000 1.5 180 23:57 16.05.2020
2885 Haze 27 1006 83 5000 1.5 250 23:39 16.05.2020
2886 Clouds 27 1006 88 6000 2.1 280 23:19 16.05.2020
2887 Clouds 27 1006 88 6000 2.1 280 22:55 16.05.2020
2888 Clouds 27 1006 78 7000 1 0 22:36 16.05.2020
2889 Clouds 27 1006 78 7000 1 170 22:18 16.05.2020
2890 Clouds 27 1006 83 7000 2.1 120 21:42 16.05.2020
2891 Clouds 27 1006 83 7000 2.1 120 21:24 16.05.2020
2892 Clouds 28 1007 74 8000 2.1 120 20:57 16.05.2020
2893 Clouds 28 1007 74 8000 2.1 120 20:39 16.05.2020
2894 Clouds 28 1007 74 8000 2.1 120 20:20 16.05.2020
2895 Clouds 28 1007 78 8000 2.6 130 19:56 16.05.2020
2896 Clouds 28 1007 78 8000 3.1 130 19:37 16.05.2020
2897 Clouds 28 1007 78 8000 3.1 130 19:19 16.05.2020
2898 Clouds 28 1008 78 8000 3.1 100 18:41 16.05.2020
2899 Clouds 28 1008 78 8000 3.1 100 18:22 16.05.2020
2900 Clouds 29 1008 74 8000 4.1 100 17:55 16.05.2020
2901 Clouds 29 1008 78 8000 4.6 100 17:36 16.05.2020
2902 Clouds 28 1008 78 8000 3.1 100 17:18 16.05.2020
2903 Clouds 29 1007 78 8000 4.1 100 16:39 16.05.2020
2904 Clouds 29 1007 74 8000 4.1 100 16:20 16.05.2020
2905 Clouds 29 1007 74 8000 4.1 100 15:55 16.05.2020
2906 Clouds 29 1006 78 8000 3.6 100 15:36 16.05.2020
2907 Clouds 29 1006 74 8000 3.6 100 15:18 16.05.2020
2908 Clouds 30 1006 74 8000 4.6 90 14:42 16.05.2020
2909 Clouds 30 1006 74 8000 4.6 90 14:20 16.05.2020
2910 Clouds 30 1005 70 8000 6.2 90 13:56 16.05.2020
2911 Clouds 30 1005 74 9000 5.1 90 13:37 16.05.2020
2912 Clouds 30 1005 74 9000 5.1 90 13:19 16.05.2020
2913 Clouds 31 1004 66 10000 6.2 90 12:44 16.05.2020
2914 Clouds 32 1004 62 10000 7.2 80 12:20 16.05.2020
2915 Clouds 33 1004 62 10000 7.2 80 11:56 16.05.2020
2916 Clouds 33 1004 62 10000 8.2 80 11:38 16.05.2020
2917 Clouds 33 1004 62 10000 8.2 80 11:19 16.05.2020
2918 Clouds 33 1004 62 10000 8.2 80 10:55 16.05.2020
2919 Clouds 34 1004 59 10000 5.1 80 10:36 16.05.2020
2920 Clouds 34 1005 55 10000 5.1 90 10:18 16.05.2020
2921 Clouds 34 1005 59 10000 5.1 60 09:40 16.05.2020
2922 Clouds 34 1005 59 10000 4.6 70 09:19 16.05.2020
2923 Clouds 34 1006 63 10000 5.7 70 08:43 16.05.2020
2924 Clouds 34 1006 63 10000 5.7 70 08:21 16.05.2020
2925 Clouds 34 1006 59 8000 6.2 80 07:46 16.05.2020
2926 Clouds 34 1007 49 6000 6.2 70 07:26 16.05.2020
2927 Clouds 33 1007 49 6000 6.2 70 06:58 16.05.2020
2928 Clouds 33 1007 49 6000 6.2 70 06:39 16.05.2020
2929 Clear 33 1007 49 6000 5.7 60 06:18 16.05.2020
2930 Clear 34 1008 49 6000 3.1 120 05:33 16.05.2020
2931 Haze 28 1007 74 4000 1.5 230 03:37 16.05.2020
2932 Haze 27 1007 78 4000 1.5 220 02:59 16.05.2020
2933 Haze 28 1007 88 4000 1.5 250 02:21 16.05.2020
2934 Haze 25 1007 88 4000 0.73 141 01:47 16.05.2020
2935 Haze 25 1007 88 5000 1.5 200 01:23 16.05.2020
2936 Haze 25 1007 94 5000 1.5 260 00:49 16.05.2020
2937 Haze 25 1007 94 5000 1.5 270 00:22 16.05.2020
2938 Haze 26 1006 88 5000 1.5 250 23:41 15.05.2020
2939 Haze 26 1006 88 5000 1.5 250 23:20 15.05.2020
2940 Haze 26 1006 88 5000 2.1 210 22:58 15.05.2020
2941 Haze 26 1006 83 5000 1.5 170 22:39 15.05.2020
2942 Clouds 27 1006 83 6000 3.1 150 22:19 15.05.2020
2943 Clouds 27 1006 83 6000 2.6 140 21:40 15.05.2020
2944 Clouds 27 1007 78 6000 4.6 130 21:22 15.05.2020
2945 Clouds 28 1007 78 6000 4.6 130 20:59 15.05.2020
2946 Clouds 28 1007 78 6000 4.6 130 20:41 15.05.2020
2947 Clouds 28 1007 78 6000 4.6 130 20:22 15.05.2020
2948 Clouds 28 1007 78 7000 3.6 130 19:58 15.05.2020
2949 Clouds 28 1008 83 7000 4.1 120 19:40 15.05.2020
2950 Clouds 27 1008 83 7000 3.1 110 19:21 15.05.2020
2951 Clouds 27 1008 78 7000 5.1 120 18:45 15.05.2020
2952 Clouds 28 1008 78 7000 5.1 120 18:27 15.05.2020
2953 Clouds 28 1008 78 7000 3.6 120 17:40 15.05.2020
2954 Clouds 28 1008 78 7000 4.6 120 17:20 15.05.2020
2955 Clouds 28 1008 78 7000 4.6 120 16:58 15.05.2020
2956 Clouds 28 1008 78 7000 3.6 110 16:39 15.05.2020
2957 Clouds 28 1008 78 8000 3.1 110 16:19 15.05.2020
2958 Clouds 29 1008 70 6000 3.1 60 15:58 15.05.2020
2959 Clouds 29 1008 70 6000 3.1 60 15:39 15.05.2020
2960 Clouds 29 1008 70 6000 3.1 60 15:19 15.05.2020
2961 Clouds 29 1008 70 6000 3.1 60 14:54 15.05.2020
2962 Clouds 30 1007 70 6000 5.1 60 14:36 15.05.2020
2963 Clouds 30 1007 70 6000 4.1 60 14:18 15.05.2020
2964 Clouds 30 1006 66 6000 4.1 60 13:40 15.05.2020
2965 Clouds 31 1006 66 6000 5.1 60 13:20 15.05.2020
2966 Clouds 32 1006 59 6000 5.1 50 12:40 15.05.2020
2967 Clouds 32 1005 55 6000 6.2 30 12:19 15.05.2020
2968 Clouds 33 1005 55 6000 6.2 30 11:57 15.05.2020
2969 Clouds 33 1005 55 6000 6.2 30 11:39 15.05.2020
2970 Clouds 33 1005 55 6000 6.2 30 11:21 15.05.2020
2971 Clouds 33 1005 55 6000 7.2 40 10:59 15.05.2020
2972 Clouds 34 1005 52 6000 6.7 40 10:40 15.05.2020
2973 Clouds 34 1005 52 6000 6.7 40 10:21 15.05.2020
2974 Clouds 34 1005 52 6000 7.2 60 09:58 15.05.2020
2975 Clouds 34 1006 52 6000 7.7 60 09:37 15.05.2020
2976 Clouds 34 1006 52 6000 7.7 60 09:37 15.05.2020
2977 Clouds 34 1006 52 6000 7.7 80 09:18 15.05.2020
2978 Clouds 34 1006 52 6000 7.7 80 08:56 15.05.2020
2979 Clouds 34 1007 52 6000 7.7 40 08:37 15.05.2020
2980 Clouds 34 1007 52 6000 6.2 60 08:18 15.05.2020
2981 Clouds 33 1007 52 6000 6.2 70 07:43 15.05.2020
2982 Clouds 33 1007 52 6000 6.2 70 07:24 15.05.2020
2983 Clouds 33 1008 55 6000 5.1 80 06:41 15.05.2020
2984 Haze 32 1008 62 5000 2.6 90 05:49 15.05.2020
2985 Haze 30 1009 70 4000 2.6 90 04:27 15.05.2020
2986 Haze 28 1009 83 3000 1.5 120 03:45 15.05.2020
2987 Haze 27 1008 94 3000 1.83 84 02:30 15.05.2020
2988 Haze 26 1008 94 4000 2.11 99 01:19 15.05.2020
2989 Haze 26 1007 94 5000 2.11 99 00:46 15.05.2020
2990 Haze 26 1007 94 5000 2.16 107 00:28 15.05.2020
2991 Haze 26 1007 88 5000 2.16 107 23:44 14.05.2020
2992 Haze 26 1007 88 5000 2.14 103 23:21 14.05.2020
2993 Mist 26 1007 88 2900 2.14 103 22:57 14.05.2020
2994 Mist 26 1007 88 3000 1.5 250 22:39 14.05.2020
2995 Mist 26 1007 88 3600 2.1 270 22:19 14.05.2020
2996 Mist 26 1007 88 3600 2.1 270 21:56 14.05.2020
2997 Haze 27 1007 83 5000 1.5 160 21:37 14.05.2020
2998 Haze 27 1007 88 5000 2.1 100 21:19 14.05.2020
2999 Haze 27 1008 83 5000 2.6 90 20:43 14.05.2020
3000 Haze 27 1008 83 5000 2.6 90 20:21 14.05.2020
3001 Haze 27 1008 83 5000 2.6 100 19:59 14.05.2020
3002 Clouds 27 1009 83 6000 1.5 120 19:40 14.05.2020
3003 Clouds 27 1009 83 6000 1.5 120 19:20 14.05.2020
3004 Clouds 28 1009 78 6000 1.5 0 18:58 14.05.2020
3005 Clouds 28 1009 83 6000 2.6 120 18:38 14.05.2020
3006 Clouds 28 1009 83 6000 2.6 120 18:20 14.05.2020
3007 Clouds 28 1009 78 6000 2.6 130 17:58 14.05.2020
3008 Clouds 28 1009 78 6000 3.6 120 17:37 14.05.2020
3009 Clouds 28 1009 78 6000 2.6 130 17:19 14.05.2020
3010 Clouds 28 1009 78 6000 2.6 130 16:57 14.05.2020
3011 Clouds 28 1009 78 7000 2.6 120 16:38 14.05.2020
3012 Clouds 28 1009 78 7000 3.1 120 16:19 14.05.2020
3013 Clouds 28 1009 78 7000 3.1 120 15:56 14.05.2020
3014 Clouds 29 1007 74 6000 4.6 60 15:37 14.05.2020
3015 Clouds 29 1007 74 6000 4.6 60 15:18 14.05.2020
3016 Clouds 29 1007 74 6000 4.6 60 14:40 14.05.2020
3017 Clouds 29 1007 74 6000 4.6 60 14:20 14.05.2020
3018 Clouds 29 1007 74 6000 4.6 60 14:20 14.05.2020
3019 Clouds 30 1007 70 6000 3.1 60 13:57 14.05.2020
3020 Clouds 30 1007 70 6000 5.1 70 13:39 14.05.2020
3021 Clouds 30 1007 66 6000 5.1 70 13:20 14.05.2020
3022 Clouds 30 1007 66 6000 5.1 70 12:59 14.05.2020
3023 Clouds 31 1006 62 6000 5.1 50 12:39 14.05.2020
3024 Clouds 32 1006 59 6000 6.7 70 12:20 14.05.2020
3025 Clouds 32 1006 59 6000 6.7 70 11:58 14.05.2020
3026 Clouds 32 1006 62 6000 5.1 30 11:39 14.05.2020
3027 Clouds 32 1006 62 6000 5.7 60 11:20 14.05.2020
3028 Clouds 32 1006 62 6000 5.7 60 10:55 14.05.2020
3029 Clouds 33 1006 59 6000 5.1 40 10:36 14.05.2020
3030 Clouds 34 1006 59 6000 4.6 60 10:18 14.05.2020
3031 Clouds 33 1006 62 6000 4.6 60 09:39 14.05.2020
3032 Clouds 34 1007 55 6000 4.6 40 09:19 14.05.2020
3033 Clouds 34 1007 55 6000 4.6 40 08:41 14.05.2020
3034 Clouds 34 1007 55 6000 4.6 40 08:20 14.05.2020
3035 Clouds 34 1008 52 6000 5.1 80 07:46 14.05.2020
3036 Clouds 34 1008 52 6000 5.1 80 07:25 14.05.2020
3037 Clouds 33 1008 52 6000 5.1 120 06:54 14.05.2020
3038 Clouds 33 1008 52 6000 5.1 110 06:31 14.05.2020
3039 Clouds 32 1008 55 6000 5.1 60 05:55 14.05.2020
3040 Clouds 32 1009 55 6000 4.1 100 05:29 14.05.2020
3041 Haze 31 1009 62 5000 2.6 120 04:25 14.05.2020
3042 Haze 30 1010 74 5000 1.5 150 03:27 14.05.2020
3043 Haze 28 1009 83 4000 1.74 100 02:41 14.05.2020
3044 Haze 27 1009 88 4000 2.25 97 01:56 14.05.2020
3045 Haze 26 1009 94 4000 2.2 96 01:24 14.05.2020
3046 Haze 26 1008 94 5000 2.2 96 00:48 14.05.2020
3047 Haze 26 1008 94 5000 2.14 98 00:24 14.05.2020
3048 Haze 27 1008 83 5000 2.14 98 23:44 13.05.2020
3049 Haze 26 1008 83 5000 2.1 110 23:21 13.05.2020
3050 Haze 26 1008 83 5000 2.1 110 22:54 13.05.2020
3051 Haze 26 1008 83 5000 2.1 110 22:54 13.05.2020
3052 Haze 26 1008 83 5000 2.1 110 22:54 13.05.2020
3053 Haze 27 1008 78 5000 2.1 150 22:36 13.05.2020
3054 Haze 27 1008 83 4000 2.6 160 22:18 13.05.2020
3055 Haze 27 1008 83 4000 2.6 160 21:55 13.05.2020
3056 Clouds 28 1008 74 6000 1.5 0 21:37 13.05.2020
3057 Clouds 28 1009 78 6000 2.1 0 21:18 13.05.2020
3058 Clouds 28 1009 78 8000 1.5 150 20:41 13.05.2020
3059 Clouds 28 1009 78 8000 1.5 150 20:41 13.05.2020
3060 Clouds 28 1009 78 8000 1.5 150 20:23 13.05.2020
3061 Clouds 28 1009 78 7000 2.1 0 19:43 13.05.2020
3062 Clouds 28 1009 78 7000 2.1 0 19:24 13.05.2020
3063 Clouds 28 1010 78 7000 3.1 120 18:56 13.05.2020
3064 Clouds 28 1010 78 7000 3.1 120 18:38 13.05.2020
3065 Clouds 28 1010 78 7000 3.6 110 18:20 13.05.2020
3066 Clouds 28 1010 78 7000 3.6 110 18:20 13.05.2020
3067 Clouds 28 1010 78 7000 3.6 110 18:20 13.05.2020
3068 Clouds 28 1010 78 7000 3.6 110 18:20 13.05.2020
3069 Clouds 28 1010 78 7000 3.6 110 18:19 13.05.2020
3070 Clouds 29 1010 74 6000 2.1 140 17:39 13.05.2020
3071 Clouds 29 1010 78 6000 2.6 110 17:19 13.05.2020
3072 Clouds 28 1010 78 6000 2.6 110 16:56 13.05.2020
3073 Clouds 29 1009 74 6000 3.6 90 16:37 13.05.2020
3074 Clouds 29 1009 74 6000 3.6 90 16:18 13.05.2020
3075 Clouds 29 1009 74 6000 3.6 90 16:18 13.05.2020
3076 Clouds 29 1009 74 6000 3.6 90 15:42 13.05.2020
3077 Clouds 29 1009 74 6000 3.6 90 15:19 13.05.2020
3078 Clouds 29 1008 74 6000 4.6 60 14:57 13.05.2020
3079 Clouds 29 1008 74 6000 4.6 70 14:39 13.05.2020
3080 Clouds 29 1007 74 6000 6.2 40 14:21 13.05.2020
3081 Clouds 29 1007 74 6000 6.2 40 13:57 13.05.2020
3082 Clouds 30 1007 70 6000 6.2 60 13:38 13.05.2020
3083 Clouds 30 1007 70 6000 6.2 60 13:19 13.05.2020
3084 Clouds 31 1007 66 6000 7.2 60 12:43 13.05.2020
3085 Clouds 31 1007 66 6000 7.2 60 12:23 13.05.2020
3086 Clouds 31 1006 62 6000 6.7 70 11:57 13.05.2020
3087 Clouds 32 1006 62 6000 4.1 80 11:39 13.05.2020
3088 Clouds 32 1006 62 6000 4.1 80 11:20 13.05.2020
3089 Clouds 33 1006 59 6000 4.1 70 10:59 13.05.2020
3090 Clouds 33 1006 59 6000 4.6 60 10:39 13.05.2020
3091 Clouds 33 1006 59 6000 4.6 60 10:20 13.05.2020
3092 Rain 32 1006 62 6000 6.2 30 10:20 13.05.2020
3093 Rain 32 1006 62 6000 6.2 30 09:58 13.05.2020
3094 Rain 33 1007 59 6000 5.1 50 09:39 13.05.2020
3095 Clouds 32 1007 62 6000 5.1 30 09:21 13.05.2020
3096 Haze 33 1008 59 5000 4.6 70 08:41 13.05.2020
3097 Haze 33 1008 59 5000 4.6 70 08:22 13.05.2020
3098 Haze 33 1008 59 5000 2.6 90 07:59 13.05.2020
3099 Haze 33 1008 59 5000 2.6 90 07:59 13.05.2020
3100 Haze 32 1009 59 5000 6.2 30 07:36 13.05.2020
3101 Haze 33 1009 59 5000 5.7 60 06:58 13.05.2020
3102 Haze 33 1010 59 5000 4.1 90 06:40 13.05.2020
3103 Haze 32 1011 70 5000 4.1 110 05:50 13.05.2020
3104 Haze 29 1011 74 4000 3.6 70 04:22 13.05.2020
3105 Haze 29 1010 88 3000 1.5 120 02:59 13.05.2020
3106 Mist 27 1010 100 2000 1.5 120 02:20 13.05.2020
3107 Mist 26 1010 94 2000 1.5 230 01:21 13.05.2020
3108 Mist 26 1009 100 2500 1.5 230 00:41 13.05.2020
3109 Mist 26 1009 100 2500 1.5 240 00:19 13.05.2020
3110 Mist 26 1009 100 2500 1.5 240 23:40 12.05.2020
3111 Rain 26 1009 100 2500 1.5 240 23:21 12.05.2020
3112 Rain 27 1009 94 3000 1.5 270 22:57 12.05.2020
3113 Thunderstorm 26 1009 94 4000 2.6 0 22:38 12.05.2020
3114 Thunderstorm 26 1010 88 2000 4.1 130 22:20 12.05.2020
3115 Thunderstorm 27 1010 88 2000 4.1 130 21:54 12.05.2020
3116 Thunderstorm 27 1009 94 2500 1.5 0 21:36 12.05.2020
3117 Rain 27 1009 88 2900 3.54 108 21:18 12.05.2020
3118 Rain 27 1009 88 2900 3.41 106 20:56 12.05.2020
3119 Haze 27 1010 94 4000 1.5 240 20:37 12.05.2020
3120 Haze 27 1010 94 4000 1.5 240 20:19 12.05.2020
3121 Haze 28 1010 94 4000 1.5 240 19:54 12.05.2020
3122 Haze 28 1010 94 4000 1.5 240 19:36 12.05.2020
3123 Rain 28 1010 94 4000 1.5 200 19:18 12.05.2020
3124 Rain 27 1010 94 4000 1.5 200 18:41 12.05.2020
3125 Haze 27 1010 94 4000 1.5 220 18:23 12.05.2020
3126 Haze 27 1010 94 4000 1.5 220 17:54 12.05.2020
3127 Haze 27 1010 94 4000 2.1 220 17:36 12.05.2020
3128 Haze 27 1010 94 4000 1.5 170 17:18 12.05.2020
3129 Haze 27 1010 94 4000 1.5 170 16:42 12.05.2020
3130 Rain 28 1010 83 5000 3.1 140 16:20 12.05.2020
3131 Rain 28 1010 83 5000 3.1 140 15:55 12.05.2020
3132 Rain 28 1010 83 5000 3.1 140 15:55 12.05.2020
3133 Thunderstorm 29 1009 74 5000 4.1 60 15:36 12.05.2020
3134 Thunderstorm 29 1009 74 5000 4.1 60 15:18 12.05.2020
3135 Thunderstorm 29 1009 74 5000 4.1 60 14:54 12.05.2020
3136 Thunderstorm 29 1009 74 5000 4.1 60 14:36 12.05.2020
3137 Rain 30 1008 70 6000 3.6 70 14:18 12.05.2020
3138 Rain 30 1008 70 6000 3.6 70 13:54 12.05.2020
3139 Rain 31 1008 74 6000 4.1 90 13:36 12.05.2020
3140 Rain 31 1007 70 6000 4.1 60 13:18 12.05.2020
3141 Rain 31 1007 70 6000 4.1 60 12:54 12.05.2020
3142 Rain 32 1007 70 5000 4.1 60 12:36 12.05.2020
3143 Rain 32 1007 66 6000 4.1 60 12:18 12.05.2020
3144 Rain 32 1007 66 6000 4.1 60 11:55 12.05.2020
3145 Rain 32 1006 62 6000 4.1 60 11:36 12.05.2020
3146 Rain 33 1006 62 6000 5.1 40 11:18 12.05.2020
3147 Rain 33 1006 62 6000 5.1 40 10:54 12.05.2020
3148 Rain 34 1006 59 6000 5.1 30 10:36 12.05.2020
3149 Clouds 33 1006 63 6000 3.6 40 10:18 12.05.2020
3150 Clouds 33 1006 63 6000 3.6 40 10:18 12.05.2020
3151 Clouds 33 1006 63 6000 3.6 40 09:54 12.05.2020
3152 Clouds 33 1007 59 6000 3.6 40 09:36 12.05.2020
3153 Clouds 34 1007 59 6000 5.1 30 09:18 12.05.2020
3154 Clouds 34 1007 52 6000 2.1 30 08:39 12.05.2020
3155 Clouds 34 1007 52 6000 2.1 30 08:19 12.05.2020
3156 Clouds 34 1008 56 6000 4.1 60 07:44 12.05.2020
3157 Clouds 34 1008 56 6000 4.1 60 07:25 12.05.2020
3158 Clouds 34 1009 63 8000 5.1 30 06:55 12.05.2020
3159 Clouds 33 1009 66 10000 4.1 20 06:36 12.05.2020
3160 Clouds 33 1009 63 10000 2.6 0 06:18 12.05.2020
3161 Clouds 33 1010 59 6000 3.6 90 05:44 12.05.2020
3162 Clouds 30 1010 79 6000 1.89 80 03:48 12.05.2020
3163 Haze 29 1010 83 5000 1.72 82 02:53 12.05.2020
3164 Haze 28 1010 94 4000 1.61 83 02:26 12.05.2020
3165 Haze 27 1009 94 4000 2.18 88 01:33 12.05.2020
3166 Haze 26 1009 94 5000 1.78 89 00:40 12.05.2020
3167 Haze 27 1009 94 5000 1.5 88 00:18 12.05.2020
3168 Haze 27 1009 94 5000 1.5 88 23:54 11.05.2020
3169 Clouds 27 1009 94 6000 1.5 88 23:36 11.05.2020
3170 Clouds 27 1009 83 6000 1 170 23:18 11.05.2020
3171 Clouds 27 1009 83 6000 1 170 22:54 11.05.2020
3172 Clouds 27 1009 83 6000 1.5 180 22:36 11.05.2020
3173 Clouds 27 1009 83 6000 1 160 22:18 11.05.2020
3174 Clouds 27 1009 83 6000 1 160 21:54 11.05.2020
3175 Clouds 27 1009 83 6000 1 0 21:36 11.05.2020
3176 Clouds 27 1009 83 6000 1.5 170 21:18 11.05.2020
3177 Clouds 27 1010 83 6000 1 200 20:42 11.05.2020
3178 Clouds 27 1010 83 6000 1 200 20:21 11.05.2020
3179 Clouds 27 1010 83 6000 1 0 19:58 11.05.2020
3180 Clouds 27 1010 83 6000 1 200 19:40 11.05.2020
3181 Clouds 28 1010 83 6000 1 200 19:21 11.05.2020
3182 Clouds 28 1010 79 6000 1.5 160 18:56 11.05.2020
3183 Clouds 28 1010 79 6000 1.5 160 18:38 11.05.2020
3184 Clouds 28 1010 88 6000 1.5 210 18:19 11.05.2020
3185 Clouds 28 1010 88 6000 1.5 210 17:57 11.05.2020
3186 Clouds 28 1010 88 6000 1.5 210 17:57 11.05.2020
3187 Clouds 28 1010 83 7000 1 0 17:38 11.05.2020
3188 Clouds 28 1010 79 7000 1 160 17:19 11.05.2020
3189 Clouds 29 1010 79 7000 1 160 16:56 11.05.2020
3190 Rain 28 1010 83 6000 2.1 220 16:37 11.05.2020
3191 Rain 28 1010 83 6000 2.1 220 16:18 11.05.2020
3192 Rain 28 1010 83 6000 2.1 220 15:42 11.05.2020
3193 Rain 29 1010 74 6000 1.5 160 15:20 11.05.2020
3194 Rain 29 1010 74 6000 1.5 160 14:58 11.05.2020
3195 Thunderstorm 29 1009 74 6000 2.6 130 14:40 11.05.2020
3196 Rain 29 1009 74 6000 3.1 120 14:21 11.05.2020
3197 Clouds 29 1008 70 6000 4.1 90 13:42 11.05.2020
3198 Clouds 29 1008 70 6000 4.1 90 13:42 11.05.2020
3199 Rain 30 1008 70 6000 4.6 60 13:23 11.05.2020
3200 Rain 30 1008 70 6000 4.6 60 12:59 11.05.2020
3201 Clouds 31 1008 66 6000 5.1 50 12:41 11.05.2020
3202 Clouds 31 1008 66 6000 5.1 50 12:23 11.05.2020
3203 Clouds 31 1007 74 6000 5.1 40 11:58 11.05.2020
3204 Clouds 32 1007 70 6000 5.1 40 11:40 11.05.2020
3205 Clouds 32 1007 70 6000 5.1 40 11:21 11.05.2020
3206 Rain 32 1007 66 6000 4.6 40 10:58 11.05.2020
3207 Thunderstorm 32 1007 62 6000 5.1 60 10:40 11.05.2020
3208 Clouds 33 1007 59 6000 4.6 40 10:21 11.05.2020
3209 Clouds 33 1007 59 6000 4.6 40 09:58 11.05.2020
3210 Clouds 33 1008 59 6000 5.1 60 09:39 11.05.2020
3211 Clouds 33 1008 62 6000 7.7 40 09:19 11.05.2020
3212 Clouds 33 1008 62 6000 7.7 40 08:54 11.05.2020
3213 Clouds 34 1008 52 6000 4.1 70 08:36 11.05.2020
3214 Clouds 34 1008 52 6000 5.1 40 08:18 11.05.2020
3215 Clouds 33 1008 55 6000 3.6 100 07:41 11.05.2020
3216 Clouds 33 1008 55 6000 3.6 100 07:23 11.05.2020
3217 Clouds 33 1009 66 6000 3.6 130 06:39 11.05.2020
3218 Clouds 32 1010 66 6000 4.1 120 05:54 11.05.2020
3219 Clouds 32 1010 62 6000 2.1 110 05:23 11.05.2020
3220 Clouds 31 1011 70 6000 1.17 170 04:19 11.05.2020
3221 Haze 27 1011 94 4000 2.1 250 02:37 11.05.2020
3222 Haze 27 1011 94 4000 2.1 240 02:19 11.05.2020
3223 Haze 26 1010 94 4000 1.5 240 01:23 11.05.2020
3224 Haze 26 1010 94 4000 1.5 250 00:42 11.05.2020
3225 Mist 26 1009 100 3000 1.82 123 00:19 11.05.2020
3226 Mist 26 1009 100 3000 1.82 123 23:42 10.05.2020
3227 Mist 26 1009 100 3000 1.15 118 23:20 10.05.2020
3228 Haze 27 1009 88 5000 2.1 210 22:55 10.05.2020
3229 Haze 27 1009 88 4000 1.5 220 22:37 10.05.2020
3230 Haze 27 1009 88 4400 1.5 240 22:18 10.05.2020
3231 Haze 27 1010 88 5000 1 0 21:43 10.05.2020
3232 Haze 27 1010 88 5000 1 0 21:19 10.05.2020
3233 Haze 28 1010 83 5000 1 170 20:43 10.05.2020
3234 Haze 28 1010 83 5000 1 170 20:25 10.05.2020
3235 Haze 28 1010 83 5000 1.5 130 19:59 10.05.2020
3236 Haze 28 1011 88 5000 1.5 140 19:40 10.05.2020
3237 Haze 28 1011 88 5000 1.5 140 19:22 10.05.2020
3238 Haze 28 1011 88 5000 1.5 0 18:57 10.05.2020
3239 Haze 28 1011 88 5000 1.5 200 18:37 10.05.2020
3240 Clouds 28 1011 83 6000 2.1 0 18:19 10.05.2020
3241 Clouds 28 1011 83 6000 2.1 0 17:58 10.05.2020
3242 Clouds 28 1011 88 6000 1.5 160 17:40 10.05.2020
3243 Clouds 28 1011 88 6000 1.5 160 17:40 10.05.2020
3244 Clouds 28 1011 88 6000 1.5 160 17:21 10.05.2020
3245 -273 0 0 0 0 0 16:55 10.05.2020
3246 Clouds 28 1011 83 6000 1.5 170 16:55 10.05.2020
3247 Clouds 28 1011 88 7000 1.5 200 16:37 10.05.2020
3248 Clouds 28 1011 83 8000 2.1 150 16:18 10.05.2020
3249 Clouds 28 1010 83 8000 1.5 200 15:42 10.05.2020
3250 Haze 27 1009 94 5000 2.1 150 15:23 10.05.2020
3251 Haze 27 1009 94 5000 2.1 150 14:57 10.05.2020
3252 Haze 27 1009 94 5000 2.1 150 14:38 10.05.2020
3253 Haze 27 1009 94 5000 2.6 210 14:19 10.05.2020
3254 Haze 27 1009 94 5000 2.6 210 13:58 10.05.2020
3255 Rain 26 1008 100 3000 3.6 220 13:37 10.05.2020
3256 Rain 26 1008 100 1000 6.7 220 13:19 10.05.2020
3257 Rain 26 1008 100 1000 6.7 220 13:19 10.05.2020
3258 Rain 26 1008 100 1000 6.7 220 12:56 10.05.2020
3259 Thunderstorm 28 1008 78 1000 6.7 250 12:38 10.05.2020
3260 Thunderstorm 29 1007 66 4000 3.1 20 12:20 10.05.2020
3261 Rain 29 1007 66 4000 3.1 20 11:55 10.05.2020
3262 Haze 30 1007 66 5000 2.1 120 11:36 10.05.2020
3263 Haze 31 1007 62 5000 2.1 50 11:18 10.05.2020
3264 Haze 32 1007 62 5000 3.1 110 10:43 10.05.2020
3265 Haze 33 1007 62 5000 3.1 110 10:25 10.05.2020
3266 Haze 31 1007 66 5000 2.6 180 09:57 10.05.2020
3267 Haze 31 1007 70 4000 2.1 310 09:39 10.05.2020
3268 Haze 32 1007 70 4000 2.1 310 09:20 10.05.2020
3269 Thunderstorm 31 1009 83 3000 6.7 230 08:47 10.05.2020
3270 Thunderstorm 30 1009 83 3000 6.7 230 08:23 10.05.2020
3271 Rain 33 1009 62 3000 3.6 120 07:44 10.05.2020
3272 Haze 33 1010 62 5000 4.1 20 07:20 10.05.2020
3273 Haze 33 1010 62 5000 4.1 20 06:52 10.05.2020
3274 Haze 33 1010 62 4000 3.6 50 06:30 10.05.2020
3275 Haze 32 1010 70 4000 2.6 10 05:48 10.05.2020
3276 Haze 32 1010 70 4000 3.1 40 04:50 10.05.2020
3277 Haze 30 1010 74 4000 2.6 110 04:31 10.05.2020
3278 Haze 31 1010 74 3000 3.6 80 03:54 10.05.2020
3279 Haze 30 1010 79 2500 4.1 90 03:35 10.05.2020
3280 Mist 28 1009 94 2000 2.1 120 02:41 10.05.2020
3281 Mist 27 1009 94 2000 2.1 130 02:18 10.05.2020
3282 Mist 27 1009 100 2000 2.1 140 01:40 10.05.2020
3283 Haze 26 1009 94 3000 2.6 150 01:19 10.05.2020
3284 Haze 26 1009 94 3000 2.6 150 00:53 10.05.2020
3285 Haze 26 1009 94 3000 1.48 197 00:23 10.05.2020
3286 Haze 26 1008 94 3000 1.5 120 23:57 09.05.2020
3287 Haze 27 1009 94 3000 1.5 160 23:39 09.05.2020
3288 Clouds 27 1009 83 6000 2.6 210 23:19 09.05.2020
3289 Clouds 27 1009 88 6000 1.5 220 22:42 09.05.2020
3290 Clouds 27 1009 88 6000 1.5 220 22:23 09.05.2020
3291 Rain 27 1009 94 6000 2.6 250 21:58 09.05.2020
3292 Rain 27 1009 94 6000 2.6 250 21:40 09.05.2020
3293 Clouds 27 1009 94 6000 2.6 250 21:21 09.05.2020
3294 Haze 28 1010 88 5000 2.1 240 20:58 09.05.2020
3295 Haze 28 1010 88 5000 1.5 240 20:38 09.05.2020
3296 Haze 28 1010 88 5000 1.5 240 20:20 09.05.2020
3297 Haze 28 1010 88 5000 2.6 230 19:56 09.05.2020
3298 Haze 28 1010 88 4000 2.6 240 19:37 09.05.2020
3299 Haze 28 1010 88 4000 2.6 240 19:18 09.05.2020
3300 Haze 28 1010 88 4000 2.6 240 19:18 09.05.2020
3301 Haze 28 1010 88 4000 3.1 250 18:43 09.05.2020
3302 Haze 28 1010 88 4000 3.1 250 18:24 09.05.2020
3303 Haze 29 1011 83 4000 3.1 260 17:46 09.05.2020
3304 Haze 28 1011 83 4000 3.1 260 17:23 09.05.2020
3305 Haze 28 1010 88 5000 2.1 260 16:57 09.05.2020
3306 Haze 28 1009 88 5000 1.5 260 16:38 09.05.2020
3307 Haze 28 1009 88 5000 1.5 260 16:19 09.05.2020
3308 Haze 28 1009 88 5000 1.5 260 16:19 09.05.2020
3309 Haze 28 1009 88 5000 1.5 260 15:44 09.05.2020
3310 Haze 28 1009 88 5000 1.5 260 15:26 09.05.2020
3311 Haze 28 1009 88 5000 1.5 250 14:57 09.05.2020
3312 Haze 28 1008 88 5000 1.5 240 14:39 09.05.2020
3313 Haze 29 1008 83 5000 1.5 210 14:18 09.05.2020
3314 Haze 29 1008 83 5000 1.5 210 13:56 09.05.2020
3315 Haze 29 1008 78 5000 1.5 140 13:38 09.05.2020
3316 Haze 30 1008 79 5000 2.1 120 13:18 09.05.2020
3317 Haze 30 1008 79 5000 2.6 120 12:41 09.05.2020
3318 Haze 30 1008 79 5000 2.6 120 12:22 09.05.2020
3319 Haze 31 1008 70 5000 2.1 100 11:55 09.05.2020
3320 Haze 31 1008 70 5000 2.1 90 11:37 09.05.2020
3321 Haze 31 1008 70 5000 2.1 150 11:18 09.05.2020
3322 Haze 31 1008 70 5000 1.5 90 10:42 09.05.2020
3323 Haze 31 1008 70 5000 1.5 90 10:23 09.05.2020
3324 Haze 31 1008 70 5000 2.6 90 09:55 09.05.2020
3325 Haze 30 1008 70 5000 2.6 50 09:37 09.05.2020
3326 Haze 31 1009 74 4000 2.6 70 09:18 09.05.2020
3327 Haze 30 1009 74 4000 2.1 10 08:48 09.05.2020
3328 Haze 31 1009 74 4000 2.1 10 08:30 09.05.2020
3329 Haze 30 1010 74 4000 1.5 50 07:48 09.05.2020
3330 Haze 30 1010 74 4000 1.5 50 07:30 09.05.2020
3331 Rain 28 1010 83 5000 3.1 60 06:47 09.05.2020
3332 Rain 28 1010 83 5000 3.1 60 06:22 09.05.2020
3333 Haze 28 1010 83 5000 2.6 110 05:45 09.05.2020
3334 Haze 27 1010 83 5000 3.1 100 03:44 09.05.2020
3335 Haze 27 1010 83 5000 3.1 100 03:22 09.05.2020
3336 Haze 27 1010 88 3000 2.1 60 02:30 09.05.2020
3337 Haze 26 1009 88 3000 1.5 30 01:52 09.05.2020
3338 Haze 26 1009 88 3000 1.5 30 01:23 09.05.2020
3339 Haze 26 1009 94 4000 1.6 228 00:47 09.05.2020
3340 Haze 26 1009 94 4000 1.68 219 00:29 09.05.2020
3341 Haze 26 1009 88 5000 2.1 240 23:49 08.05.2020
3342 Haze 26 1009 88 5000 2.1 240 23:29 08.05.2020
3343 Haze 26 1009 94 5000 1 260 22:59 08.05.2020
3344 Haze 26 1009 94 5000 2.1 230 22:40 08.05.2020
3345 Haze 26 1009 94 5000 2.6 230 22:19 08.05.2020
3346 Haze 26 1009 94 5000 2.6 230 21:59 08.05.2020
3347 Haze 27 1009 88 5000 2.6 210 21:39 08.05.2020
3348 Haze 27 1010 88 5000 3.6 220 21:19 08.05.2020
3349 Haze 27 1010 88 5000 3.6 220 20:56 08.05.2020
3350 Haze 26 1010 94 5000 2.1 220 20:38 08.05.2020
3351 Haze 26 1010 88 4600 2.1 220 20:20 08.05.2020
3352 Haze 27 1010 88 5000 2.1 210 19:44 08.05.2020
3353 Haze 27 1010 88 5000 2.1 210 19:24 08.05.2020
3354 Haze 27 1010 88 5000 2.6 220 18:56 08.05.2020
3355 Haze 27 1011 88 5000 1.5 250 18:38 08.05.2020
3356 Haze 27 1011 88 5000 3.1 230 18:18 08.05.2020
3357 Haze 27 1011 88 5000 2.6 230 17:42 08.05.2020
3358 Haze 27 1010 88 5000 3.1 230 17:18 08.05.2020
3359 Haze 27 1010 88 4600 3.1 210 16:45 08.05.2020
3360 Haze 28 1010 88 4600 3.1 210 16:26 08.05.2020
3361 Haze 28 1010 88 5000 1.5 0 15:57 08.05.2020
3362 Haze 28 1010 88 5000 1.5 0 15:57 08.05.2020
3363 Clouds 28 1009 83 6000 2.1 230 15:39 08.05.2020
3364 Haze 28 1008 83 5000 2.6 240 15:18 08.05.2020
3365 Haze 28 1008 83 5000 2.6 240 14:54 08.05.2020
3366 Haze 28 1008 83 5000 2.6 240 14:36 08.05.2020
3367 Haze 28 1008 79 5000 2.1 270 14:18 08.05.2020
3368 Haze 28 1007 83 5000 2.6 230 13:40 08.05.2020
3369 Haze 30 1007 74 5000 2.1 230 13:20 08.05.2020
3370 Haze 30 1007 74 5000 2.1 230 12:54 08.05.2020
3371 Haze 30 1007 70 5000 1.5 150 12:36 08.05.2020
3372 Haze 30 1007 70 5000 1.5 150 12:36 08.05.2020
3373 Haze 31 1007 70 5000 1.5 150 12:18 08.05.2020
3374 Haze 32 1006 66 5000 2.1 90 11:43 08.05.2020
3375 Haze 32 1006 66 5000 2.1 90 11:22 08.05.2020
3376 Clouds 31 1006 70 6000 3.1 260 10:58 08.05.2020
3377 Haze 30 1006 78 5000 3.6 190 10:40 08.05.2020
3378 Clouds 31 1007 70 8000 3.6 160 10:19 08.05.2020
3379 Haze 30 1007 66 5000 3.1 150 09:42 08.05.2020
3380 Haze 30 1007 66 5000 3.1 150 09:20 08.05.2020
3381 Haze 32 1007 66 5000 3.1 150 08:59 08.05.2020
3382 Haze 32 1008 70 5000 3.1 140 08:40 08.05.2020
3383 Rain 32 1009 66 5000 1.5 160 08:21 08.05.2020
3384 Rain 32 1009 66 5000 1.5 160 07:41 08.05.2020
3385 Rain 33 1009 66 5000 1.5 160 07:23 08.05.2020
3386 Haze 34 1009 55 5000 1.5 100 06:50 08.05.2020
3387 Haze 34 1010 59 5000 2.1 140 06:21 08.05.2020
3388 Haze 32 1010 62 5000 2.78 71 05:36 08.05.2020
3389 Haze 30 1010 70 4000 1.5 210 04:21 08.05.2020
3390 Mist 28 1009 94 3000 1.5 240 02:32 08.05.2020
3391 Mist 27 1008 94 2500 1.42 120 01:45 08.05.2020
3392 Mist 27 1008 94 2500 1.66 97 01:23 08.05.2020
3393 Mist 26 1008 94 3000 1.66 97 00:51 08.05.2020
3394 Mist 27 1008 94 3000 1.8 109 00:29 08.05.2020
3395 Mist 26 1008 94 3000 1.8 109 23:58 07.05.2020
3396 Mist 27 1008 94 3000 1.8 109 23:40 07.05.2020
3397 Mist 27 1008 94 3000 2.17 107 23:21 07.05.2020
3398 Haze 27 1008 94 3000 1.5 200 22:54 07.05.2020
3399 Haze 27 1008 94 3000 1 210 22:36 07.05.2020
3400 Haze 27 1008 83 3000 1.5 0 22:18 07.05.2020
3401 Haze 28 1008 83 3000 1.5 0 21:54 07.05.2020
3402 Haze 28 1009 88 3000 2.1 230 21:36 07.05.2020
3403 Haze 28 1009 83 4000 2.1 230 21:18 07.05.2020
3404 Haze 28 1009 83 5000 1.5 0 20:41 07.05.2020
3405 Haze 28 1009 83 5000 1.5 0 20:21 07.05.2020
3406 Clouds 29 1009 79 9000 1.5 0 19:50 07.05.2020
3407 Clouds 29 1009 79 9000 1.5 0 19:24 07.05.2020
3408 Clouds 29 1009 79 9000 0.5 0 18:59 07.05.2020
3409 Clouds 29 1009 79 9000 1.5 80 18:40 07.05.2020
3410 Clouds 29 1009 79 9000 1.5 80 18:21 07.05.2020
3411 Clouds 29 1009 79 9000 1 70 17:43 07.05.2020
3412 Clouds 29 1009 79 9000 1 70 17:21 07.05.2020
3413 Clouds 29 1009 79 9000 1 70 17:21 07.05.2020
3414 Clouds 29 1009 79 9000 1 70 17:21 07.05.2020
3415 Clouds 30 1009 74 10000 2.1 80 16:56 07.05.2020
3416 Clouds 30 1009 70 10000 3.1 90 16:38 07.05.2020
3417 Clouds 30 1009 74 10000 4.1 70 16:18 07.05.2020
3418 Clouds 30 1009 74 10000 4.1 70 15:55 07.05.2020
3419 Clouds 30 1008 74 6000 3.1 70 15:36 07.05.2020
3420 Clouds 30 1008 74 6000 3.1 70 15:18 07.05.2020
3421 Clouds 30 1008 74 6000 3.1 70 14:41 07.05.2020
3422 Clouds 30 1008 74 6000 3.1 70 14:19 07.05.2020
3423 Clouds 31 1007 70 6000 5.7 50 13:43 07.05.2020
3424 Clouds 31 1007 70 6000 5.7 50 13:25 07.05.2020
3425 Clouds 32 1006 62 6000 6.2 60 12:45 07.05.2020
3426 Clouds 32 1006 62 6000 6.2 60 12:45 07.05.2020
3427 Clouds 33 1006 59 6000 6.2 50 12:20 07.05.2020
3428 Clouds 34 1006 59 6000 6.2 50 11:59 07.05.2020
3429 Clouds 34 1006 59 6000 6.2 50 11:59 07.05.2020
3430 Clouds 34 1006 59 6000 6.2 50 11:59 07.05.2020
3431 Clouds 34 1005 56 6000 6.2 100 11:39 07.05.2020
3432 Clouds 33 1006 56 6000 6.7 90 11:20 07.05.2020
3433 Clouds 34 1006 52 6000 7.2 70 10:42 07.05.2020
3434 Clouds 34 1006 52 6000 7.2 70 10:23 07.05.2020
3435 Rain 34 1006 55 6000 5.1 130 09:41 07.05.2020
3436 Rain 34 1006 55 6000 5.1 130 09:20 07.05.2020
3437 Clouds 35 1007 52 6000 6.7 90 08:57 07.05.2020
3438 Clouds 35 1008 52 6000 6.7 40 08:38 07.05.2020
3439 Clouds 35 1008 52 6000 5.7 100 08:20 07.05.2020
3440 Clouds 34 1008 52 6000 3.6 40 07:46 07.05.2020
3441 Clouds 34 1008 52 6000 3.6 40 07:28 07.05.2020
3442 Clouds 34 1009 55 6000 4.1 90 06:56 07.05.2020
3443 Clouds 34 1009 59 6000 2.1 80 06:35 07.05.2020
3444 Clouds 33 1010 59 6000 2.6 70 05:38 07.05.2020
3445 Clouds 32 1010 62 6000 2.1 130 04:25 07.05.2020
3446 Haze 29 1009 78 5000 1.5 240 03:26 07.05.2020
3447 Haze 29 1009 83 4000 2.1 220 02:53 07.05.2020
3448 Mist 25 1008 100 3000 1.5 260 01:46 07.05.2020
3449 Mist 25 1008 100 3000 1.5 260 01:24 07.05.2020
3450 Haze 27 1008 94 4000 1.5 250 00:50 07.05.2020
3451 Haze 27 1007 94 4000 1.5 250 00:29 07.05.2020
3452 Haze 25 1007 94 4000 1.5 250 23:57 06.05.2020
3453 Haze 26 1007 94 4000 1.5 90 23:38 06.05.2020
3454 Haze 26 1007 94 4000 1.5 90 23:19 06.05.2020
3455 Haze 26 1008 94 4000 1.5 80 22:54 06.05.2020
3456 Clouds 27 1008 83 6000 1 0 22:36 06.05.2020
3457 Clouds 27 1008 83 6000 1 130 22:18 06.05.2020
3458 Clouds 27 1009 88 6000 0.5 0 21:42 06.05.2020
3459 Clouds 27 1009 88 6000 0.5 0 21:22 06.05.2020
3460 Clouds 27 1009 83 7000 1 0 20:56 06.05.2020
3461 Clouds 27 1009 83 7000 1 160 20:37 06.05.2020
3462 Clouds 27 1010 83 8000 1 0 20:19 06.05.2020
3463 Clouds 27 1010 83 8000 1 0 19:56 06.05.2020
3464 Haze 27 1011 94 5000 1.5 310 19:37 06.05.2020
3465 Haze 27 1011 94 5000 1.5 310 19:18 06.05.2020
3466 Haze 27 1011 94 5000 1.5 310 18:55 06.05.2020
3467 Haze 27 1011 94 5000 1.5 310 18:36 06.05.2020
3468 Haze 27 1011 94 5000 1.5 200 18:18 06.05.2020
3469 Haze 27 1011 94 5000 1.5 200 17:54 06.05.2020
3470 Haze 27 1011 94 5000 1.5 200 17:36 06.05.2020
3471 Haze 27 1011 94 5000 1.5 200 17:18 06.05.2020
3472 Haze 27 1011 94 5000 1.5 200 16:54 06.05.2020
3473 Clouds 28 1010 83 8000 2.1 160 16:36 06.05.2020
3474 Clouds 28 1010 83 8000 2.1 150 16:18 06.05.2020
3475 Clouds 28 1010 83 7000 2.1 150 15:42 06.05.2020
3476 Haze 27 1009 94 5000 2.1 220 15:22 06.05.2020
3477 Rain 27 1009 94 5000 2.1 220 14:56 06.05.2020
3478 Haze 27 1009 94 5000 2.1 220 14:38 06.05.2020
3479 Haze 28 1009 94 5000 2.1 210 14:18 06.05.2020
3480 Haze 28 1009 94 5000 2.1 210 13:57 06.05.2020
3481 Rain 28 1008 94 4000 2.1 240 13:37 06.05.2020
3482 Rain 29 1008 83 4000 3.6 240 13:18 06.05.2020
3483 Haze 30 1008 78 4000 3.1 270 12:42 06.05.2020
3484 Haze 30 1008 78 4000 3.1 270 12:24 06.05.2020
3485 Haze 31 1007 62 5000 5.1 40 11:42 06.05.2020
3486 Haze 31 1007 62 5000 5.1 40 11:42 06.05.2020
3487 Haze 31 1007 62 5000 5.1 40 11:22 06.05.2020
3488 Rain 32 1007 62 6000 4.1 60 10:58 06.05.2020
3489 Rain 33 1007 59 6000 4.6 60 10:39 06.05.2020
3490 Rain 31 1007 59 6000 4.6 60 10:19 06.05.2020
3491 Rain 31 1007 59 6000 4.1 70 09:57 06.05.2020
3492 Rain 32 1007 59 6000 4.6 30 09:37 06.05.2020
3493 Rain 33 1008 59 6000 5.1 70 09:19 06.05.2020
3494 Rain 34 1008 52 6000 6.2 40 08:42 06.05.2020
3495 Rain 33 1008 55 6000 6.2 30 08:20 06.05.2020
3496 Rain 34 1008 55 6000 6.2 30 07:56 06.05.2020
3497 Clouds 33 1009 62 6000 5.1 40 07:38 06.05.2020
3498 Clouds 33 1010 66 6000 5.1 70 07:18 06.05.2020
3499 Clouds 33 1010 66 6000 5.1 70 06:46 06.05.2020
3500 Clouds 32 1010 66 6000 5.1 70 06:20 06.05.2020
3501 Clouds 32 1011 66 6000 5.1 60 05:39 06.05.2020
3502 Haze 32 1010 66 5000 6.7 90 04:52 06.05.2020
3503 Haze 30 1010 70 5000 3.1 80 03:53 06.05.2020
3504 Haze 29 1010 74 4000 1.5 100 03:28 06.05.2020
3505 Haze 28 1010 83 3000 1.5 100 02:54 06.05.2020
3506 Haze 28 1009 88 3000 2.55 113 02:26 06.05.2020
3507 Haze 27 1009 94 3000 2.55 113 01:43 06.05.2020
3508 Haze 27 1009 94 3000 2.21 120 01:21 06.05.2020
3509 Haze 27 1009 94 5000 2.21 120 00:44 06.05.2020
3510 Haze 27 1009 94 5000 2.19 123 00:19 06.05.2020
3511 Haze 27 1009 94 5000 2.19 123 00:19 06.05.2020
3512 Haze 27 1009 94 5000 2.1 200 23:41 05.05.2020
3513 Haze 27 1009 94 4000 1.5 160 23:20 05.05.2020
3514 Haze 27 1009 94 4000 1.5 160 22:55 05.05.2020
3515 Haze 27 1009 94 4000 1.5 210 22:37 05.05.2020
3516 Haze 27 1009 94 5000 1.5 220 22:18 05.05.2020
3517 Haze 28 1009 88 5000 1.5 180 21:41 05.05.2020
3518 Haze 28 1009 88 5000 1.5 180 21:21 05.05.2020
3519 Haze 28 1010 88 5000 1.5 180 20:59 05.05.2020
3520 Haze 28 1010 88 5000 1.5 200 20:40 05.05.2020
3521 Haze 27 1010 94 5000 1.5 240 20:20 05.05.2020
3522 Haze 27 1010 94 5000 1.5 240 19:59 05.05.2020
3523 Haze 28 1010 88 5000 1.5 200 19:39 05.05.2020
3524 Rain 28 1011 88 5000 2.6 200 19:21 05.05.2020
3525 Rain 28 1011 88 5000 2.6 200 18:56 05.05.2020
3526 Rain 28 1011 88 5000 3.1 170 18:38 05.05.2020
3527 Rain 28 1011 88 5000 3.1 170 18:19 05.05.2020
3528 Clouds 29 1011 83 6000 2.6 180 18:19 05.05.2020
3529 Clouds 29 1011 83 6000 2.6 180 17:54 05.05.2020
3530 Clouds 29 1011 79 7000 1.5 90 17:36 05.05.2020
3531 Clouds 29 1010 83 7000 2.1 70 17:18 05.05.2020
3532 Clouds 29 1010 83 8000 1 0 16:38 05.05.2020
3533 Clouds 29 1009 83 8000 2.6 40 16:19 05.05.2020
3534 Clouds 29 1009 83 8000 2.6 40 15:57 05.05.2020
3535 Clouds 29 1009 83 8000 3.1 50 15:38 05.05.2020
3536 Clouds 29 1009 83 8000 3.1 50 15:20 05.05.2020
3537 Clouds 30 1008 70 6000 2.1 360 14:54 05.05.2020
3538 Clouds 30 1008 70 6000 2.1 360 14:36 05.05.2020
3539 Clouds 30 1008 70 6000 2.1 360 14:18 05.05.2020
3540 Clouds 30 1008 70 6000 2.1 360 13:54 05.05.2020
3541 Clouds 30 1008 70 6000 4.1 40 13:36 05.05.2020
3542 Clouds 31 1007 66 6000 3.1 80 13:18 05.05.2020
3543 Clouds 31 1007 66 6000 3.1 80 12:41 05.05.2020
3544 Clouds 31 1007 66 6000 3.1 80 12:22 05.05.2020
3545 Clouds 32 1007 62 7000 5.1 50 11:59 05.05.2020
3546 Clouds 32 1007 62 7000 5.1 30 11:40 05.05.2020
3547 Clouds 32 1007 62 7000 5.1 30 11:19 05.05.2020
3548 Clouds 33 1006 55 7000 5.7 60 10:55 05.05.2020
3549 Clouds 33 1006 55 7000 5.7 60 10:36 05.05.2020
3550 Clouds 34 1007 59 7000 5.1 60 10:18 05.05.2020
3551 Clouds 33 1007 59 7000 5.1 60 09:44 05.05.2020
3552 Clouds 34 1007 59 7000 5.1 60 09:26 05.05.2020
3553 Clouds 34 1008 59 7000 5.1 60 08:58 05.05.2020
3554 Clouds 33 1008 59 7000 5.1 60 08:39 05.05.2020
3555 Clouds 34 1009 59 7000 4.6 70 08:18 05.05.2020
3556 Clouds 34 1009 59 7000 4.6 70 07:43 05.05.2020
3557 Clouds 34 1010 59 6000 4.1 70 07:21 05.05.2020
3558 Clouds 34 1010 59 6000 4.1 70 06:54 05.05.2020
3559 Clouds 33 1010 62 6000 4.6 50 06:31 05.05.2020
3560 Clouds 33 1011 59 6000 5.1 60 05:53 05.05.2020
3561 Clouds 32 1011 70 6000 4.1 80 04:59 05.05.2020
3562 Haze 28 1010 83 5000 1.5 90 02:39 05.05.2020
3563 Haze 25 1009 94 4000 2.92 113 00:57 05.05.2020
3564 Haze 26 1009 94 5000 2.92 113 00:33 05.05.2020
3565 Haze 26 1009 88 5000 1.5 110 23:55 04.05.2020
3566 Haze 26 1009 88 5000 1.5 120 23:36 04.05.2020
3567 Clouds 27 1008 83 6000 1 60 23:18 04.05.2020
3568 Clouds 27 1008 83 6000 1 60 22:42 04.05.2020
3569 Clouds 27 1008 83 6000 1.5 80 22:22 04.05.2020
3570 Clouds 27 1008 83 6000 1.5 80 21:59 04.05.2020
3571 Haze 27 1009 83 5000 1.5 80 21:41 04.05.2020
3572 Haze 27 1009 83 5000 1.5 80 21:41 04.05.2020
3573 Haze 27 1009 83 5000 1.5 80 21:41 04.05.2020
3574 Haze 27 1009 83 5000 1.5 80 21:41 04.05.2020
3575 Haze 27 1010 88 5000 1 0 21:19 04.05.2020
3576 Haze 27 1009 83 5000 1.5 80 21:19 04.05.2020
3577 Haze 25 1010 88 5000 1 0 20:41 04.05.2020
3578 Haze 27 1010 88 5000 1 0 20:21 04.05.2020
3579 Haze 28 1010 83 5000 1 70 19:58 04.05.2020
3580 Haze 27 1010 88 5000 1 0 19:40 04.05.2020
3581 Haze 27 1010 88 5000 1 0 19:40 04.05.2020
3582 Haze 28 1010 78 5000 1.5 130 19:18 04.05.2020
3583 Haze 27 1010 78 5000 2.1 120 18:39 04.05.2020
3584 Clouds 27 1011 88 6000 1.5 70 18:20 04.05.2020
3585 Clouds 27 1011 88 6000 1.5 70 17:57 04.05.2020
3586 Clouds 27 1010 78 6000 2.6 100 17:39 04.05.2020
3587 Clouds 28 1011 83 7000 3.1 90 17:20 04.05.2020
3588 Clouds 28 1011 83 7000 3.1 90 16:58 04.05.2020
3589 Rain 28 1010 83 5000 3.6 90 16:40 04.05.2020
3590 Haze 28 1010 83 5000 3.6 90 16:19 04.05.2020
3591 Haze 28 1010 83 5000 3.6 90 15:42 04.05.2020
3592 Haze 28 1010 83 5000 3.6 90 15:22 04.05.2020
3593 Haze 28 1009 83 5000 3.6 100 14:53 04.05.2020
3594 Haze 28 1009 83 5000 3.6 100 14:53 04.05.2020
3595 Haze 28 1010 83 5000 4.6 90 14:53 04.05.2020
3596 Haze 28 1010 83 5000 4.6 90 14:53 04.05.2020
3597 Haze 28 1010 83 5000 4.6 90 14:53 04.05.2020
3598 Haze 28 1009 83 5000 3.6 100 14:25 04.05.2020
3599 Haze 28 1009 83 5000 3.6 100 14:25 04.05.2020
3600 Haze 28 1009 83 5000 3.6 100 14:25 04.05.2020
3601 Haze 28 1009 83 5000 3.6 100 14:25 04.05.2020
3602 Rain 29 1009 78 5000 4.1 110 13:23 04.05.2020
3603 Rain 29 1009 78 5000 4.1 110 13:23 04.05.2020
3604 Rain 29 1009 78 5000 4.1 110 13:23 04.05.2020
3605 Rain 29 1009 78 6000 4.6 120 13:23 04.05.2020
3606 Rain 29 1009 78 5000 4.1 110 13:23 04.05.2020
3607 Clouds 29 1008 74 6000 5.7 100 12:44 04.05.2020
3608 Clouds 29 1008 74 6000 5.7 100 12:44 04.05.2020
3609 Clouds 29 1008 74 6000 5.7 100 12:44 04.05.2020
3610 Clouds 29 1008 74 6000 5.7 100 12:44 04.05.2020
3611 Clouds 29 1008 74 6000 5.7 100 12:44 04.05.2020
3612 Clouds 31 1008 74 6000 5.1 80 11:28 04.05.2020
3613 Clouds 31 1008 74 6000 5.1 80 11:28 04.05.2020
3614 Clouds 31 1008 74 6000 5.1 80 11:28 04.05.2020
3615 Clouds 31 1008 74 6000 5.1 80 11:28 04.05.2020
3616 Clouds 31 1008 74 6000 5.1 80 11:28 04.05.2020
3617 Clouds 30 1009 79 6000 3.6 40 09:29 04.05.2020
3618 Haze 28 1009 94 4000 3.1 40 07:54 04.05.2020
3619 Rain 28 1010 94 3000 3.1 10 07:34 04.05.2020
3620 Rain 29 1011 74 4000 4.1 70 05:55 04.05.2020
3621 Haze 30 1011 74 5000 4.6 70 04:52 04.05.2020
3622 Haze 30 1010 78 5000 1.5 130 02:56 04.05.2020
3623 Haze 27 1008 83 5000 2.1 70 01:45 04.05.2020
3624 Haze 27 1008 83 5000 2.1 70 01:45 04.05.2020
3625 Haze 27 1008 88 5000 1.5 130 00:23 04.05.2020
3626 Haze 27 1008 88 5000 1.5 130 00:23 04.05.2020
3627 Haze 27 1007 88 5000 1.5 120 23:44 03.05.2020
3628 Haze 27 1007 88 5000 1.5 120 23:24 03.05.2020
3629 Haze 28 1008 79 5000 2.6 90 22:44 03.05.2020
3630 Haze 28 1008 79 5000 2.6 90 22:44 03.05.2020
3631 Haze 28 1008 79 5000 2.6 90 22:25 03.05.2020
3632 Haze 29 1008 79 5000 2.1 110 21:56 03.05.2020
3633 Thunderstorm 28 1008 79 5000 1 120 21:38 03.05.2020
3634 Thunderstorm 28 1009 79 5000 1.5 0 21:20 03.05.2020
3635 Haze 28 1009 79 5000 2.1 0 20:43 03.05.2020
3636 Haze 28 1009 79 5000 2.1 0 20:43 03.05.2020
3637 Haze 28 1009 79 5000 2.1 0 20:21 03.05.2020
3638 Clouds 29 1010 79 7000 2.1 110 19:50 03.05.2020
3639 Clouds 28 1010 79 7000 3.1 100 19:50 03.05.2020
3640 Clouds 29 1010 79 7000 2.1 110 19:50 03.05.2020
3641 Clouds 29 1010 79 7000 3.1 100 19:31 03.05.2020
3642 Clouds 29 1010 79 7000 3.1 100 18:58 03.05.2020
3643 Clouds 29 1011 74 7000 2.6 100 18:38 03.05.2020
3644 Clouds 29 1011 74 7000 2.6 100 18:38 03.05.2020
3645 Clouds 29 1011 74 7000 2.6 100 18:38 03.05.2020
3646 Clouds 29 1011 74 7000 2.6 100 18:38 03.05.2020
3647 Clouds 29 1011 74 7000 2.6 100 18:38 03.05.2020
3648 Clouds 29 1011 74 7000 3.1 90 18:19 03.05.2020
3649 Clouds 29 1010 74 7000 2.6 80 17:41 03.05.2020
3650 Clouds 30 1010 74 7000 2.6 90 17:21 03.05.2020
3651 Clouds 30 1010 74 7000 4.1 80 16:46 03.05.2020
3652 Clouds 30 1010 74 7000 3.1 60 16:21 03.05.2020
3653 Clouds 30 1010 74 7000 3.1 60 15:59 03.05.2020
3654 Clouds 29 1009 74 6000 3.6 60 15:40 03.05.2020
3655 Clouds 29 1009 74 6000 3.6 60 15:20 03.05.2020
3656 Clouds 29 1009 74 6000 3.6 60 14:58 03.05.2020
3657 Clouds 29 1009 74 6000 3.6 60 14:40 03.05.2020
3658 Clouds 30 1009 74 6000 3.6 60 14:21 03.05.2020
3659 Clouds 30 1009 74 6000 4.1 60 13:54 03.05.2020
3660 Clouds 30 1008 66 6000 3.1 30 13:21 03.05.2020
3661 Rain 31 1007 62 6000 4.6 60 12:45 03.05.2020
3662 Rain 32 1007 59 6000 6.2 60 12:18 03.05.2020
3663 Rain 32 1007 59 6000 6.2 60 11:56 03.05.2020
3664 Rain 33 1006 55 6000 5.1 60 11:37 03.05.2020
3665 Rain 33 1006 52 6000 5.1 50 11:19 03.05.2020
3666 Rain 34 1006 52 6000 6.7 50 10:47 03.05.2020
3667 Rain 34 1006 52 6000 6.7 50 10:46 03.05.2020
3668 Rain 34 1006 52 6000 6.7 50 10:46 03.05.2020
3669 Rain 33 1006 55 6000 6.2 50 09:58 03.05.2020
3670 Clouds 33 1006 59 6000 5.1 60 09:37 03.05.2020
3671 Clouds 33 1007 59 6000 4.1 70 08:56 03.05.2020
3672 Clouds 33 1007 59 6000 5.1 60 08:26 03.05.2020
3673 Clouds 34 1009 59 6000 2.6 110 07:40 03.05.2020
3674 Clouds 32 1010 62 6000 2.6 70 06:26 03.05.2020
3675 Clouds 32 1010 62 6000 2.6 70 06:26 03.05.2020
3676 Clouds 32 1010 62 6000 2.6 70 06:26 03.05.2020
3677 Clouds 32 1010 62 6000 2.6 70 06:25 03.05.2020
3678 Clouds 32 1010 62 6000 2.6 70 06:24 03.05.2020
3679 Haze 31 1011 66 5000 4.1 90 05:49 03.05.2020
3680 Haze 31 1011 66 5000 4.1 90 05:49 03.05.2020
3681 Haze 31 1011 74 4000 2.1 120 04:56 03.05.2020
3682 Haze 30 1011 74 4000 2.1 120 04:27 03.05.2020
3683 Haze 28 1011 83 3000 2.1 130 03:25 03.05.2020
3684 Haze 28 1011 83 3000 2.1 130 03:25 03.05.2020
3685 Mist 26 1009 100 2000 2.45 100 02:25 03.05.2020
3686 Mist 26 1009 100 2000 2.45 100 01:46 03.05.2020
3687 Mist 26 1009 100 2000 2.76 94 01:27 03.05.2020
3688 Mist 26 1009 100 3000 2.76 94 00:56 03.05.2020
3689 Haze 26 1008 100 4000 2.76 94 00:37 03.05.2020
3690 Haze 26 1008 83 3500 2.1 170 00:19 03.05.2020
3691 Haze 26 1008 83 3500 2.1 170 00:19 03.05.2020
3692 Haze 26 1008 83 3500 2.1 190 23:43 02.05.2020
3693 Haze 26 1008 83 3500 2.1 190 23:25 02.05.2020
3694 Haze 26 1008 83 3500 2.6 200 22:43 02.05.2020
3695 Haze 26 1008 83 3500 2.6 200 22:24 02.05.2020
3696 Haze 26 1008 83 3700 1.5 210 21:57 02.05.2020
3697 Haze 26 1008 83 3600 1.5 220 21:39 02.05.2020
3698 Haze 26 1009 83 4000 1.5 190 21:19 02.05.2020
3699 Haze 26 1009 83 4000 1.5 190 20:57 02.05.2020
3700 Haze 26 1009 83 4000 2.6 190 20:37 02.05.2020
3701 Haze 26 1009 88 5000 2.6 170 20:19 02.05.2020
3702 Haze 26 1009 88 5000 2.6 170 19:57 02.05.2020
3703 Haze 26 1009 88 5000 3.1 170 19:38 02.05.2020
3704 Haze 26 1009 88 5000 3.1 170 19:38 02.05.2020
3705 Haze 26 1009 88 5000 2.6 160 19:19 02.05.2020
3706 Haze 26 1009 88 5000 2.6 160 18:55 02.05.2020
3707 Haze 27 1010 83 5000 1 190 18:36 02.05.2020
3708 Haze 27 1010 83 5000 0.5 240 18:18 02.05.2020
3709 Haze 26 1010 88 5000 0.5 0 17:39 02.05.2020
3710 Clouds 26 1010 88 6000 1 270 17:20 02.05.2020
3711 Clouds 24 1010 88 6000 1 270 16:59 02.05.2020
3712 Clouds 24 1010 88 7000 1.5 290 16:39 02.05.2020
3713 Clouds 24 1010 88 7000 1.5 290 16:21 02.05.2020
3714 Clouds 27 1009 83 6000 1 310 15:43 02.05.2020
3715 Clouds 27 1008 78 6000 1.5 30 15:20 02.05.2020
3716 Clouds 27 1008 78 6000 1.5 30 15:20 02.05.2020
3717 Clouds 28 1008 78 6000 1.5 30 14:58 02.05.2020
3718 Clouds 28 1008 78 6000 1.5 30 14:39 02.05.2020
3719 Clouds 28 1008 78 6000 1.5 30 14:20 02.05.2020
3720 Clouds 28 1007 74 6000 2.6 40 13:40 02.05.2020
3721 Clouds 28 1007 74 6000 2.6 40 13:22 02.05.2020
3722 Clouds 29 1007 70 6000 2.6 40 12:44 02.05.2020
3723 Clouds 29 1006 62 6000 2.6 40 12:25 02.05.2020
3724 Clouds 29 1006 62 6000 2.6 40 11:59 02.05.2020
3725 Clouds 29 1006 62 6000 2.6 40 11:41 02.05.2020
3726 Clouds 29 1006 62 6000 2.6 40 11:22 02.05.2020
3727 Clouds 29 1006 62 6000 2.1 20 10:59 02.05.2020
3728 Clouds 29 1007 62 6000 1.5 350 10:39 02.05.2020
3729 Clouds 29 1007 62 6000 1.5 350 10:20 02.05.2020
3730 Clouds 29 1007 66 6000 2.6 10 09:57 02.05.2020
3731 Clouds 29 1007 66 6000 2.1 30 09:38 02.05.2020
3732 Clouds 28 1008 70 6000 2.6 60 09:20 02.05.2020
3733 Clouds 28 1008 70 6000 2.6 60 09:20 02.05.2020
3734 Clouds 28 1008 70 6000 2.6 60 09:20 02.05.2020
3735 Clouds 28 1008 70 6000 2.6 60 08:49 02.05.2020
3736 Clouds 28 1008 70 6000 2.6 60 08:30 02.05.2020
3737 Clouds 28 1009 74 6000 3.1 60 07:48 02.05.2020
3738 Clouds 29 1009 74 6000 3.1 60 07:29 02.05.2020
3739 Haze 28 1009 78 5000 2.6 60 06:53 02.05.2020
3740 Rain 28 1010 88 5000 2.1 40 06:18 02.05.2020
3741 Rain 27 1010 88 5000 2.1 40 05:27 02.05.2020
3742 Rain 26 1011 88 5000 2.6 200 04:25 02.05.2020
3743 Rain 25 1011 88 5000 2.6 300 03:34 02.05.2020
3744 Rain 25 1010 83 6000 7.2 250 02:37 02.05.2020
3745 Rain 25 1010 83 6000 7.2 240 01:51 02.05.2020
3746 Rain 26 1009 88 6000 6.7 240 00:58 02.05.2020
3747 Haze 26 1009 88 5000 6.7 220 00:39 02.05.2020
3748 Haze 26 1009 88 5000 2.6 270 00:18 02.05.2020
3749 Haze 26 1008 88 5000 2.1 280 23:40 01.05.2020
3750 Haze 26 1008 88 5000 2.1 280 23:20 01.05.2020
3751 Mist 26 1009 83 5000 3.6 270 22:57 01.05.2020
3752 Mist 26 1008 83 4000 3.6 280 22:38 01.05.2020
3753 Clouds 26 1008 83 6000 2.6 270 22:18 01.05.2020
3754 Clouds 26 1008 83 6000 2.6 270 21:57 01.05.2020
3755 Mist 26 1008 83 5000 3.6 240 21:38 01.05.2020
3756 Mist 26 1009 83 5000 2.6 230 21:18 01.05.2020
3757 Mist 26 1009 83 5000 2.6 230 21:18 01.05.2020
3758 Mist 26 1009 83 5000 2.6 230 20:56 01.05.2020
3759 Haze 26 1010 88 5000 2.6 120 20:37 01.05.2020
3760 Haze 26 1010 88 5000 2.6 120 20:19 01.05.2020
3761 Haze 26 1010 88 5000 2.6 120 19:42 01.05.2020
3762 Clouds 26 1010 83 8000 2.6 200 19:22 01.05.2020
3763 Clouds 26 1010 83 8000 2.6 200 18:58 01.05.2020
3764 Clouds 26 1010 88 8000 2.6 180 18:40 01.05.2020
3765 Clouds 26 1010 83 8000 3.1 210 18:21 01.05.2020
3766 Clouds 26 1010 83 8000 3.1 210 17:57 01.05.2020
3767 Clouds 26 1010 83 8000 3.6 200 17:39 01.05.2020
3768 Clouds 26 1010 83 8000 3.6 200 17:20 01.05.2020
3769 Clouds 26 1011 83 8000 4.1 220 16:56 01.05.2020
3770 Rain 26 1010 88 5000 4.6 220 16:38 01.05.2020
3771 Haze 26 1010 88 5000 4.6 220 16:19 01.05.2020
3772 Haze 26 1010 88 5000 4.6 220 15:55 01.05.2020
3773 Haze 26 1010 88 5000 4.6 220 15:36 01.05.2020
3774 Haze 26 1010 83 5000 5.1 200 15:18 01.05.2020
3775 Haze 27 1009 78 5000 4.1 210 14:41 01.05.2020
3776 Haze 27 1009 78 5000 4.1 210 14:23 01.05.2020
3777 Haze 28 1008 74 5000 3.1 340 13:41 01.05.2020
3778 Rain 28 1008 74 5000 3.1 340 13:23 01.05.2020
3779 Haze 30 1007 74 5000 4.1 20 12:58 01.05.2020
3780 Clouds 30 1007 74 6000 3.6 10 12:40 01.05.2020
3781 Clouds 30 1007 74 6000 3.1 10 12:20 01.05.2020
3782 Clouds 30 1007 74 6000 3.1 10 11:59 01.05.2020
3783 Clouds 30 1006 70 6000 4.1 350 11:40 01.05.2020
3784 Clouds 31 1007 66 6000 4.6 20 11:19 01.05.2020
3785 Clouds 31 1007 66 6000 4.1 10 10:41 01.05.2020
3786 Clouds 31 1007 66 6000 4.1 10 10:20 01.05.2020
3787 Clouds 31 1007 66 6000 4.6 30 09:59 01.05.2020
3788 Rain 31 1007 62 5000 4.6 40 09:41 01.05.2020
3789 Haze 31 1008 66 5000 3.6 10 09:19 01.05.2020
3790 Haze 31 1008 66 5000 4.1 20 08:46 01.05.2020
3791 Haze 31 1008 66 5000 4.1 20 08:28 01.05.2020
3792 Haze 31 1008 62 5000 3.6 60 07:58 01.05.2020
3793 Haze 32 1009 62 5000 3.6 10 07:38 01.05.2020
3794 Haze 32 1009 58 5000 2.6 40 06:59 01.05.2020
3795 Haze 32 1010 62 5000 3.1 90 06:18 01.05.2020
3796 Haze 30 1010 74 5000 2.1 40 05:21 01.05.2020
3797 Mist 28 1010 94 2000 1.5 280 03:44 01.05.2020
3798 Mist 27 1010 100 2000 1.5 260 02:53 01.05.2020
3799 Mist 26 1009 100 2000 1.5 240 02:34 01.05.2020
3800 Mist 25 1009 100 2000 1.5 240 01:47 01.05.2020
3801 Mist 25 1009 100 2000 1.5 240 01:27 01.05.2020
3802 Mist 25 1009 100 3000 1.5 200 00:40 01.05.2020
3803 Mist 25 1009 100 3000 1.5 200 00:21 01.05.2020
3804 Mist 25 1009 100 3000 1.5 240 23:57 30.04.2020
3805 Mist 26 1009 100 3000 1.5 230 23:39 30.04.2020
3806 Haze 25 1008 88 5000 1.5 230 23:20 30.04.2020
3807 Haze 25 1008 88 5000 1.5 230 22:56 30.04.2020
3808 Haze 26 1009 88 4000 1.5 220 22:38 30.04.2020
3809 Haze 26 1009 88 5000 2.1 200 22:18 30.04.2020
3810 Haze 24 1009 88 5000 1.5 240 21:42 30.04.2020
3811 Haze 26 1009 88 5000 1.5 240 21:22 30.04.2020
3812 Haze 26 1009 88 5000 1.5 230 20:58 30.04.2020
3813 Haze 26 1010 88 5000 2.6 220 20:40 30.04.2020
3814 Rain 26 1010 88 5000 1.5 260 20:18 30.04.2020
3815 Haze 26 1010 88 5000 1 0 19:46 30.04.2020
3816 Haze 26 1010 94 3000 1.5 210 19:26 30.04.2020
3817 Haze 26 1010 94 3000 1.5 210 18:59 30.04.2020
3818 Haze 26 1010 94 3000 1.5 210 18:39 30.04.2020
3819 Haze 26 1010 94 3000 1.5 210 18:21 30.04.2020
3820 Rain 25 1011 100 3000 1.5 150 17:58 30.04.2020
3821 Rain 25 1011 100 3000 1.5 150 17:39 30.04.2020
3822 Rain 26 1011 88 5000 2.1 150 17:20 30.04.2020
3823 Rain 26 1011 88 5000 2.1 150 16:57 30.04.2020
3824 Rain 26 1010 94 5000 2.6 0 16:38 30.04.2020
3825 Rain 26 1011 94 6000 3.6 90 16:18 30.04.2020
3826 Clouds 26 1011 83 6000 1.5 0 15:45 30.04.2020
3827 Thunderstorm 26 1010 100 3000 2.6 200 15:24 30.04.2020
3828 Thunderstorm 26 1010 100 3000 2.6 200 14:57 30.04.2020
3829 Thunderstorm 26 1010 100 3000 2.6 200 14:39 30.04.2020
3830 Thunderstorm 25 1010 100 3000 4.1 170 14:19 30.04.2020
3831 Thunderstorm 26 1010 100 3000 4.1 170 13:55 30.04.2020
3832 Thunderstorm 27 1009 88 2000 7.2 120 13:36 30.04.2020
3833 Rain 28 1008 79 5000 1.5 330 13:18 30.04.2020
3834 Rain 29 1008 70 6000 1.5 330 12:41 30.04.2020
3835 Rain 30 1008 70 6000 1.5 330 12:20 30.04.2020
3836 Rain 30 1008 70 6000 2.1 330 11:58 30.04.2020
3837 Rain 31 1008 66 6000 2.1 10 11:36 30.04.2020
3838 Rain 31 1008 62 6000 2.6 30 11:18 30.04.2020
3839 Clouds 32 1008 59 6000 4.1 90 10:41 30.04.2020
3840 Clouds 32 1008 62 6000 2.6 40 10:22 30.04.2020
3841 Clouds 32 1008 62 6000 2.6 40 09:57 30.04.2020
3842 Haze 32 1009 62 5000 4.6 40 09:39 30.04.2020
3843 Haze 32 1009 66 4000 2.1 30 09:20 30.04.2020
3844 Haze 32 1009 70 4000 2.1 10 08:47 30.04.2020
3845 Haze 32 1009 70 4000 2.1 10 08:26 30.04.2020
3846 Rain 32 1010 70 3000 2.6 60 07:57 30.04.2020
3847 Rain 32 1010 70 3000 2.6 60 07:39 30.04.2020
3848 Haze 31 1010 74 2500 2.6 30 07:19 30.04.2020
3849 Haze 31 1011 74 2500 2.1 30 06:32 30.04.2020
3850 Haze 31 1012 74 2000 2.1 60 05:47 30.04.2020
3851 Haze 30 1011 83 2000 1.5 120 04:46 30.04.2020
3852 Haze 30 1011 83 2000 1.5 120 04:24 30.04.2020
3853 Mist 28 1011 100 2000 1.53 97 02:52 30.04.2020
3854 Mist 27 1011 100 2000 1.67 92 02:28 30.04.2020
3855 Mist 26 1010 94 2000 1.5 120 01:37 30.04.2020
3856 Mist 26 1010 94 4000 2.3 96 00:53 30.04.2020
3857 Mist 26 1010 94 4000 2.11 100 00:25 30.04.2020
3858 Mist 26 1009 100 3000 2.11 100 23:59 29.04.2020
3859 -273 0 0 0 0 0 23:59 29.04.2020
3860 Mist 26 1009 88 3300 2.11 100 23:41 29.04.2020
3861 Mist 26 1009 88 3300 2.22 109 23:23 29.04.2020
3862 Mist 26 1009 88 2500 1 200 22:58 29.04.2020
3863 Mist 26 1009 88 2500 1 200 22:39 29.04.2020
3864 Mist 26 1009 88 2600 2.1 220 22:19 29.04.2020
3865 Mist 26 1009 88 2500 3.1 200 21:39 29.04.2020
3866 Haze 27 1010 83 3000 2.1 220 21:20 29.04.2020
3867 Haze 27 1010 83 3000 2.1 220 20:58 29.04.2020
3868 Haze 27 1010 83 3000 2.1 180 20:39 29.04.2020
3869 Haze 27 1010 83 3000 2.1 180 20:19 29.04.2020
3870 Haze 27 1010 83 4000 1.5 190 19:54 29.04.2020
3871 Haze 27 1011 83 4000 1.5 160 19:36 29.04.2020
3872 Haze 27 1011 83 4000 1.5 200 19:18 29.04.2020
3873 Haze 27 1011 83 4000 1 180 18:41 29.04.2020
3874 Haze 27 1011 83 4000 1 180 18:20 29.04.2020
3875 Haze 27 1011 83 5000 2.1 190 17:55 29.04.2020
3876 Haze 27 1011 83 5000 1 0 17:37 29.04.2020
3877 Haze 27 1011 83 5000 2.1 200 17:18 29.04.2020
3878 Haze 27 1011 83 5000 2.1 200 17:18 29.04.2020
3879 Haze 26 1011 83 5000 2.6 210 16:37 29.04.2020
3880 Haze 26 1010 83 5000 2.1 0 16:19 29.04.2020
3881 Haze 26 1010 83 5000 2.1 0 16:19 29.04.2020
3882 Haze 26 1010 83 5000 2.1 0 15:57 29.04.2020
3883 Haze 26 1009 94 5000 2.02 74 15:38 29.04.2020
3884 Haze 26 1009 94 5000 2.47 53 15:20 29.04.2020
3885 Haze 26 1009 94 5000 2.47 53 14:45 29.04.2020
3886 Haze 26 1009 94 5000 3.11 53 14:26 29.04.2020
3887 Haze 26 1009 94 5000 3.11 53 13:58 29.04.2020
3888 Haze 26 1008 94 5000 2.1 250 13:40 29.04.2020
3889 Haze 27 1008 94 5000 2.1 250 13:20 29.04.2020
3890 Haze 27 1008 94 5000 2.1 250 12:56 29.04.2020
3891 Haze 27 1008 94 5000 2.1 250 12:38 29.04.2020
3892 Haze 27 1007 88 5000 1.5 320 12:18 29.04.2020
3893 Haze 27 1007 88 5000 1.5 320 12:18 29.04.2020
3894 Haze 27 1007 88 5000 1.5 320 11:39 29.04.2020
3895 Thunderstorm 27 1007 88 4000 2.6 330 11:20 29.04.2020
3896 Thunderstorm 28 1007 88 4000 2.6 330 10:55 29.04.2020
3897 Thunderstorm 29 1007 94 1000 4.1 270 10:37 29.04.2020
3898 Thunderstorm 29 1007 88 2000 3.6 210 10:18 29.04.2020
3899 Haze 28 1008 74 5000 4.6 220 09:41 29.04.2020
3900 Haze 31 1008 62 5000 1.5 120 09:22 29.04.2020
3901 Rain 32 1008 59 6000 2.6 110 08:45 29.04.2020
3902 Rain 32 1008 59 6000 2.6 110 08:26 29.04.2020
3903 Rain 32 1009 59 6000 3.6 60 07:57 29.04.2020
3904 Clouds 32 1009 63 6000 3.6 50 07:38 29.04.2020
3905 Clouds 32 1010 62 6000 4.02 55 07:18 29.04.2020
3906 Clouds 34 1010 62 6000 4.02 55 06:48 29.04.2020
3907 Clouds 32 1010 62 6000 3.46 67 06:29 29.04.2020
3908 Clouds 32 1010 62 6000 3.46 67 06:29 29.04.2020
3909 Clouds 33 1011 62 6000 1.5 110 05:21 29.04.2020
3910 Clouds 32 1011 66 6000 2.6 70 05:21 29.04.2020
3911 Haze 30 1011 74 5000 1.5 170 04:21 29.04.2020
3912 Haze 30 1011 74 5000 1.5 170 03:55 29.04.2020
3913 Mist 26 1010 100 3000 2.14 114 02:39 29.04.2020
3914 Mist 25 1009 100 1800 1.76 123 01:44 29.04.2020
3915 Mist 25 1009 100 1800 1.86 127 01:20 29.04.2020
3916 Mist 25 1009 100 2000 1.86 127 00:39 29.04.2020
3917 Mist 25 1009 100 2000 1.9 134 00:19 29.04.2020
3918 Mist 25 1009 100 2000 1.9 134 23:48 28.04.2020
3919 Mist 25 1009 100 2000 2.12 143 23:23 28.04.2020
3920 Haze 25 1008 88 4800 2.1 170 22:55 28.04.2020
3921 Haze 25 1008 83 5000 1 150 22:37 28.04.2020
3922 Haze 25 1009 83 5000 0.5 0 22:18 28.04.2020
3923 Haze 25 1009 83 5000 0.5 0 21:54 28.04.2020
3924 Haze 25 1009 88 5000 2.1 180 21:36 28.04.2020
3925 Haze 25 1009 83 5000 2.1 160 21:18 28.04.2020
3926 Haze 25 1009 83 5000 2.1 190 20:40 28.04.2020
3927 Haze 26 1010 83 5000 2.1 180 20:21 28.04.2020
3928 Haze 26 1010 83 5000 2.1 180 19:58 28.04.2020
3929 Haze 26 1010 83 5000 1.5 150 19:40 28.04.2020
3930 Haze 26 1010 83 5000 1.5 160 19:21 28.04.2020
3931 Haze 26 1010 83 5000 1.5 160 18:58 28.04.2020
3932 Haze 26 1010 83 5000 2.6 140 18:38 28.04.2020
3933 Haze 26 1010 83 5000 2.6 0 18:19 28.04.2020
3934 Haze 26 1010 83 4000 3.1 160 17:38 28.04.2020
3935 Haze 26 1010 83 4000 2.6 180 17:20 28.04.2020
3936 Haze 26 1010 83 4000 2.6 180 16:59 28.04.2020
3937 Haze 26 1010 83 4000 2.6 160 16:40 28.04.2020
3938 Haze 26 1010 100 3000 3.4 73 16:22 28.04.2020
3939 Rain 26 1010 100 3000 3.4 73 15:57 28.04.2020
3940 Haze 26 1010 100 3000 3.4 73 15:39 28.04.2020
3941 Rain 26 1010 100 3000 1.5 150 15:20 28.04.2020
3942 Rain 26 1010 100 3000 1.5 150 14:56 28.04.2020
3943 Rain 26 1010 100 3000 1.5 150 14:38 28.04.2020
3944 Rain 26 1010 100 3000 2.1 130 14:19 28.04.2020
3945 Rain 26 1010 100 3000 2.1 130 13:56 28.04.2020
3946 Rain 26 1010 100 2000 2.1 120 13:37 28.04.2020
3947 Thunderstorm 27 1010 94 2000 3.6 100 13:19 28.04.2020
3948 Thunderstorm 27 1009 94 1000 6.2 120 12:43 28.04.2020
3949 Thunderstorm 27 1009 94 1000 6.2 120 12:24 28.04.2020
3950 Thunderstorm 30 1008 62 5000 6.7 350 11:44 28.04.2020
3951 Thunderstorm 31 1008 62 5000 6.7 350 11:24 28.04.2020
3952 Haze 31 1008 66 5000 6.7 20 10:59 28.04.2020
3953 Haze 31 1008 70 5000 4.1 360 10:39 28.04.2020
3954 Rain 31 1008 70 5000 4.1 310 10:19 28.04.2020
3955 Haze 32 1008 70 5000 4.1 310 09:56 28.04.2020
3956 Haze 33 1008 70 5000 4.6 300 09:38 28.04.2020
3957 Rain 33 1008 70 5000 4.6 300 09:20 28.04.2020
3958 Rain 33 1009 70 3000 3.1 330 08:45 28.04.2020
3959 Rain 33 1009 70 3000 3.1 330 08:26 28.04.2020
3960 Haze 33 1010 59 5000 3.1 40 07:44 28.04.2020
3961 Haze 33 1010 66 5000 1.5 270 07:19 28.04.2020
3962 Haze 33 1011 59 5000 1.5 250 06:48 28.04.2020
3963 Haze 33 1011 59 5000 1.5 250 06:20 28.04.2020
3964 Haze 30 1011 74 4000 1.5 100 05:40 28.04.2020
3965 Haze 29 1012 78 4000 1.5 180 04:56 28.04.2020
3966 Haze 27 1011 94 4000 1.5 240 02:59 28.04.2020
3967 Haze 26 1010 94 4000 1.5 240 02:28 28.04.2020
3968 Haze 26 1010 94 4000 2.44 241 01:23 28.04.2020
3969 Haze 25 1010 94 4000 1.5 180 00:51 28.04.2020
3970 Haze 26 1009 94 4000 1.5 240 00:22 28.04.2020
3971 Haze 25 1009 88 5000 1 230 23:45 27.04.2020
3972 Haze 25 1009 88 5000 1 230 23:24 27.04.2020
3973 Clouds 25 1009 88 6000 1.5 220 22:55 27.04.2020
3974 Clouds 25 1009 88 6000 1 0 22:37 27.04.2020
3975 Clouds 26 1009 88 6000 1 270 22:18 27.04.2020
3976 Clouds 26 1009 88 6000 1 270 21:55 27.04.2020
3977 Clouds 26 1010 83 6000 1.5 230 21:37 27.04.2020
3978 Clouds 26 1010 88 7000 2.6 240 21:18 27.04.2020
3979 Clouds 26 1011 83 7000 1 230 20:43 27.04.2020
3980 Clouds 26 1011 83 7000 1 230 20:22 27.04.2020
3981 Clouds 26 1011 88 8000 1 240 19:58 27.04.2020
3982 Clouds 26 1011 88 7000 1 250 19:39 27.04.2020
3983 Clouds 26 1011 88 8000 1.5 250 19:20 27.04.2020
3984 Haze 26 1012 94 4000 1.5 250 18:57 27.04.2020
3985 Haze 26 1012 94 4000 1.5 250 18:39 27.04.2020
3986 Haze 26 1012 94 4000 1.5 250 18:19 27.04.2020
3987 Haze 26 1012 94 4000 2.1 260 17:43 27.04.2020
3988 Haze 26 1012 94 4000 1.5 230 17:21 27.04.2020
3989 Haze 26 1012 94 4000 1.5 230 16:58 27.04.2020
3990 Haze 26 1011 94 4000 1.5 250 16:39 27.04.2020
3991 Haze 26 1011 94 4000 1.5 250 16:39 27.04.2020
3992 Clouds 26 1011 88 9000 3.6 200 16:20 27.04.2020
3993 Clouds 26 1011 88 9000 3.6 200 15:56 27.04.2020
3994 Haze 26 1011 94 4000 2.1 170 15:38 27.04.2020
3995 Haze 26 1011 94 4000 2.1 170 15:38 27.04.2020
3996 Haze 26 1011 94 4000 2.1 170 15:18 27.04.2020
3997 Haze 26 1011 94 4000 2.1 170 14:42 27.04.2020
3998 Rain 26 1011 94 4000 2.1 170 14:23 27.04.2020
3999 Haze 26 1010 94 4000 3.6 240 13:59 27.04.2020
4000 Rain 26 1010 88 4000 3.6 240 13:41 27.04.2020
4001 Rain 26 1010 94 4000 4.1 240 13:20 27.04.2020
4002 Rain 26 1010 94 4000 4.1 240 12:56 27.04.2020
4003 Rain 26 1009 88 3000 4.6 240 12:38 27.04.2020
4004 Rain 26 1009 88 2000 3.6 210 12:19 27.04.2020
4005 Rain 27 1009 78 4000 3.6 180 11:41 27.04.2020
4006 Haze 27 1008 78 5000 3.6 240 11:19 27.04.2020
4007 Rain 28 1008 78 5000 3.6 240 10:57 27.04.2020
4008 Rain 29 1008 78 5000 3.1 240 10:38 27.04.2020
4009 Rain 30 1008 74 5000 5.1 270 10:19 27.04.2020
4010 Haze 32 1008 62 3000 5.1 70 09:43 27.04.2020
4011 Haze 32 1008 62 3000 5.1 70 09:43 27.04.2020
4012 Rain 32 1008 62 4000 5.1 60 09:19 27.04.2020
4013 Rain 32 1008 62 4000 5.1 60 08:57 27.04.2020
4014 Rain 32 1009 55 6000 3.6 60 08:38 27.04.2020
4015 Rain 33 1009 55 6000 2.1 360 08:19 27.04.2020
4016 Clouds 33 1010 59 6000 3.6 60 07:44 27.04.2020
4017 Clouds 33 1010 59 6000 3.6 60 07:20 27.04.2020
4018 Clouds 30 1011 70 6000 1.5 140 06:44 27.04.2020
4019 Clouds 30 1011 70 6000 1.5 140 06:24 27.04.2020
4020 Clouds 30 1011 74 6000 1.5 150 05:49 27.04.2020
4021 Haze 28 1011 83 5000 1.5 240 04:41 27.04.2020
4022 Rain 27 1011 100 4000 1.5 240 03:49 27.04.2020
4023 Rain 26 1011 94 2000 2.6 50 02:42 27.04.2020
4024 Thunderstorm 26 1010 94 3000 1.5 20 01:34 27.04.2020
4025 Thunderstorm 26 1010 88 5000 1.5 270 00:56 27.04.2020
4026 Haze 26 1010 88 5000 2.1 270 00:19 27.04.2020
4027 Haze 26 1010 88 5000 2.1 270 23:56 26.04.2020
4028 Haze 26 1010 88 5000 1.5 270 23:37 26.04.2020
4029 Thunderstorm 26 1010 88 5000 1 0 23:19 26.04.2020
4030 Thunderstorm 24 1010 88 5000 1 0 22:57 26.04.2020
4031 Thunderstorm 24 1010 88 5000 2.6 0 22:39 26.04.2020
4032 Thunderstorm 24 1010 88 6000 1 0 22:19 26.04.2020
4033 Thunderstorm 24 1010 88 6000 1 0 21:57 26.04.2020
4034 Thunderstorm 25 1010 83 6000 1 0 21:37 26.04.2020
4035 Thunderstorm 26 1010 88 6000 1.5 230 21:18 26.04.2020
4036 Thunderstorm 26 1010 88 5000 2.1 270 20:40 26.04.2020
4037 Thunderstorm 26 1010 88 5000 2.1 270 20:21 26.04.2020
4038 Haze 26 1011 88 5000 2.1 280 19:59 26.04.2020
4039 Haze 24 1011 83 5000 2.1 260 19:38 26.04.2020
4040 Haze 25 1011 83 5000 2.1 260 19:20 26.04.2020
4041 Thunderstorm 24 1011 83 5000 3.1 220 18:55 26.04.2020
4042 Thunderstorm 24 1012 83 5000 2.6 260 18:36 26.04.2020
4043 Thunderstorm 24 1012 88 5000 1.5 290 18:18 26.04.2020
4044 Thunderstorm 24 1012 88 5000 2.1 250 17:41 26.04.2020
4045 Thunderstorm 25 1012 88 5000 2.1 250 17:22 26.04.2020
4046 Thunderstorm 24 1011 88 5000 1.5 200 16:55 26.04.2020
4047 Thunderstorm 24 1012 88 5000 3.1 240 16:36 26.04.2020
4048 Thunderstorm 24 1011 88 5000 4.1 210 16:18 26.04.2020
4049 Thunderstorm 24 1011 88 5000 4.1 210 15:54 26.04.2020
4050 Rain 24 1010 94 4000 1.5 80 15:36 26.04.2020
4051 Rain 25 1010 94 4000 1.5 80 15:18 26.04.2020
4052 Rain 26 1010 94 4000 1.5 80 14:40 26.04.2020
4053 Rain 26 1010 94 4000 3.6 200 14:19 26.04.2020
4054 Rain 26 1010 94 4000 3.6 200 13:58 26.04.2020
4055 Rain 28 1009 88 2000 5.1 200 13:38 26.04.2020
4056 Haze 29 1008 66 5000 5.1 60 13:19 26.04.2020
4057 Haze 29 1008 66 5000 5.1 60 12:54 26.04.2020
4058 Rain 29 1008 66 5000 5.1 60 12:36 26.04.2020
4059 Rain 31 1007 62 6000 4.6 20 12:18 26.04.2020
4060 Rain 32 1007 62 6000 4.6 20 11:42 26.04.2020
4061 Rain 32 1007 62 6000 4.6 20 11:23 26.04.2020
4062 Rain 32 1007 66 6000 4.6 20 10:59 26.04.2020
4063 Rain 33 1007 62 6000 3.6 10 10:41 26.04.2020
4064 Rain 32 1007 62 6000 3.6 10 10:41 26.04.2020
4065 Rain 33 1007 62 6000 3.6 10 10:23 26.04.2020
4066 Rain 33 1007 59 6000 4.1 20 09:57 26.04.2020
4067 Clouds 33 1007 59 6000 5.1 40 09:37 26.04.2020
4068 Clouds 33 1008 59 6000 3.1 40 09:18 26.04.2020
4069 Haze 34 1008 59 5000 3.1 360 08:41 26.04.2020
4070 Haze 34 1008 59 5000 3.1 360 08:22 26.04.2020
4071 Haze 34 1009 59 5000 2.6 10 07:48 26.04.2020
4072 Haze 34 1009 59 5000 2.6 10 07:23 26.04.2020
4073 Haze 33 1010 59 5000 1.5 300 06:47 26.04.2020
4074 Haze 33 1010 59 5000 1.5 300 06:21 26.04.2020
4075 Haze 32 1010 62 5000 1.5 100 05:49 26.04.2020
4076 Haze 32 1010 62 5000 1.5 100 05:28 26.04.2020
4077 Haze 30 1011 70 5000 1.5 180 04:30 26.04.2020
4078 Haze 29 1010 74 4000 1.5 200 03:39 26.04.2020
4079 Haze 28 1010 83 4000 1.27 143 02:37 26.04.2020
4080 Mist 27 1010 88 3000 1.8 145 02:19 26.04.2020
4081 Mist 26 1009 88 3000 1.8 145 01:36 26.04.2020
4082 Mist 26 1009 94 3000 1.8 145 00:41 26.04.2020
4083 Mist 26 1009 94 3000 1.77 166 00:21 26.04.2020
4084 Mist 26 1009 94 3000 1.77 166 23:55 25.04.2020
4085 Mist 27 1009 94 3000 1.77 166 23:36 25.04.2020
4086 Haze 27 1009 83 3600 1.5 280 23:18 25.04.2020
4087 Haze 27 1009 83 3600 1.5 0 22:42 25.04.2020
4088 Haze 27 1009 83 3600 1.5 0 22:20 25.04.2020
4089 Haze 27 1009 83 3800 2.1 210 21:58 25.04.2020
4090 Haze 27 1009 83 5000 2.1 220 21:38 25.04.2020
4091 Haze 27 1010 88 2900 2.1 250 21:18 25.04.2020
4092 Haze 27 1010 83 5000 1.5 280 20:43 25.04.2020
4093 Haze 27 1010 83 5000 1.5 280 20:23 25.04.2020
4094 Haze 27 1010 83 5000 2.1 280 19:59 25.04.2020
4095 Clouds 27 1010 78 6000 1 0 19:39 25.04.2020
4096 Clouds 28 1010 78 6000 1 160 19:20 25.04.2020
4097 Clouds 28 1010 78 6000 1 150 18:44 25.04.2020
4098 Clouds 28 1010 78 6000 1 150 18:22 25.04.2020
4099 Clouds 28 1010 78 6000 1 0 17:59 25.04.2020
4100 Clouds 28 1010 78 6000 1.5 130 17:40 25.04.2020
4101 Clouds 28 1010 78 6000 1.5 130 17:22 25.04.2020
4102 Clouds 28 1010 78 7000 2.1 120 16:59 25.04.2020
4103 Clouds 28 1010 78 7000 2.1 110 16:41 25.04.2020
4104 Clouds 28 1010 78 7000 2.1 110 16:23 25.04.2020
4105 Clouds 29 1010 78 8000 2.6 100 15:55 25.04.2020
4106 Clouds 29 1009 70 6000 2.1 50 15:37 25.04.2020
4107 Clouds 29 1009 70 6000 2.1 50 15:18 25.04.2020
4108 Clouds 29 1009 70 6000 2.1 50 14:56 25.04.2020
4109 Clouds 29 1009 70 6000 2.1 50 14:37 25.04.2020
4110 Clouds 30 1008 62 6000 2.6 90 14:18 25.04.2020
4111 Clouds 30 1008 62 6000 2.6 90 13:41 25.04.2020
4112 Clouds 30 1008 62 6000 2.6 90 13:41 25.04.2020
4113 Clouds 30 1008 62 6000 3.1 80 13:19 25.04.2020
4114 Clouds 30 1008 62 6000 3.1 80 12:56 25.04.2020
4115 Clouds 31 1008 58 6000 4.1 70 12:38 25.04.2020
4116 Clouds 31 1008 58 6000 4.1 70 12:38 25.04.2020
4117 Clouds 31 1008 62 6000 4.1 50 12:19 25.04.2020
4118 Clouds 31 1008 62 6000 3.6 60 11:43 25.04.2020
4119 Clouds 32 1008 62 6000 3.6 60 11:25 25.04.2020
4120 Clouds 32 1007 59 6000 4.6 20 10:59 25.04.2020
4121 Clouds 32 1008 59 6000 3.6 70 10:41 25.04.2020
4122 Clouds 32 1008 59 6000 3.6 30 10:21 25.04.2020
4123 Clouds 32 1008 59 6000 4.1 40 09:45 25.04.2020
4124 Clouds 31 1008 59 6000 4.1 40 09:26 25.04.2020
4125 Clouds 31 1008 55 6000 4.6 50 08:57 25.04.2020
4126 Clouds 32 1009 52 6000 3.1 90 08:38 25.04.2020
4127 Clouds 31 1009 55 6000 3.6 50 08:20 25.04.2020
4128 Clouds 31 1009 55 6000 4.1 70 07:45 25.04.2020
4129 Clouds 31 1009 55 6000 4.1 70 07:23 25.04.2020
4130 Clouds 31 1010 55 6000 3.1 60 06:44 25.04.2020
4131 Clouds 31 1010 58 6000 4.1 70 05:56 25.04.2020
4132 Haze 30 1011 58 5000 3.6 100 05:30 25.04.2020
4133 Haze 29 1010 74 5000 1.5 150 04:42 25.04.2020
4134 Haze 26 1010 88 5000 1.5 300 02:59 25.04.2020
4135 Mist 25 1009 94 4000 2.1 230 02:20 25.04.2020
4136 Mist 25 1009 100 3000 2.1 230 01:51 25.04.2020
4137 Mist 25 1008 100 3000 2.1 230 01:27 25.04.2020
4138 Mist 25 1008 100 3000 2.1 230 00:50 25.04.2020
4139 Mist 25 1008 100 3000 1.5 230 00:31 25.04.2020
4140 Mist 25 1008 100 3000 2.27 145 23:43 24.04.2020
4141 Haze 26 1008 88 4700 1 0 23:22 24.04.2020
4142 Haze 26 1008 88 4700 1 0 22:56 24.04.2020
4143 Haze 26 1009 88 5000 1 200 22:37 24.04.2020
4144 Haze 26 1009 88 5000 1 0 22:19 24.04.2020
4145 Haze 26 1009 88 5000 1 0 21:54 24.04.2020
4146 Haze 24 1009 88 5000 1 230 21:36 24.04.2020
4147 Haze 26 1009 88 5000 1 0 21:18 24.04.2020
4148 Haze 25 1009 88 5000 1 0 20:54 24.04.2020
4149 Haze 25 1010 88 5000 1 0 20:36 24.04.2020
4150 Haze 27 1010 83 5000 1 0 20:18 24.04.2020
4151 Clouds 27 1011 94 6000 1.5 240 19:39 24.04.2020
4152 Clouds 27 1011 94 6000 1.5 240 19:20 24.04.2020
4153 Clouds 27 1011 94 6000 1.5 240 18:43 24.04.2020
4154 Clouds 27 1011 94 6000 1.5 240 18:25 24.04.2020
4155 Clouds 27 1011 94 6000 2.1 250 17:54 24.04.2020
4156 Clouds 27 1011 88 6000 2.1 230 17:36 24.04.2020
4157 Clouds 25 1011 88 6000 1.5 240 17:18 24.04.2020
4158 Clouds 25 1011 88 6000 1.5 240 16:56 24.04.2020
4159 Clouds 25 1011 88 7000 2.1 230 16:38 24.04.2020
4160 Clouds 25 1010 88 7000 1.5 240 16:20 24.04.2020
4161 Clouds 25 1010 88 7000 1.5 230 15:41 24.04.2020
4162 Clouds 25 1009 88 6000 1.5 240 15:20 24.04.2020
4163 Clouds 26 1009 88 6000 1.5 240 14:41 24.04.2020
4164 Clouds 27 1009 88 6000 1.5 240 14:22 24.04.2020
4165 Clouds 27 1009 88 6000 1.5 240 13:59 24.04.2020
4166 Rain 27 1008 83 6000 2.1 180 13:41 24.04.2020
4167 Rain 30 1008 83 6000 2.1 180 13:21 24.04.2020
4168 Rain 30 1008 78 6000 1.5 150 12:57 24.04.2020
4169 Rain 30 1008 88 6000 3.1 210 12:39 24.04.2020
4170 Rain 30 1008 83 6000 3.1 210 12:19 24.04.2020
4171 Rain 30 1007 83 6000 3.1 210 11:43 24.04.2020
4172 Rain 30 1007 83 6000 3.1 210 11:22 24.04.2020
4173 Rain 31 1007 83 6000 2.6 240 10:57 24.04.2020
4174 Rain 31 1007 74 6000 2.6 180 10:38 24.04.2020
4175 Rain 31 1007 78 6000 2.1 120 10:20 24.04.2020
4176 Thunderstorm 31 1008 83 5000 2.6 120 09:55 24.04.2020
4177 Thunderstorm 31 1008 83 5000 2.6 120 09:36 24.04.2020
4178 Haze 31 1008 83 5000 5.1 180 09:18 24.04.2020
4179 Haze 32 1008 66 5000 4.1 120 08:42 24.04.2020
4180 Rain 33 1008 55 6000 6.7 30 08:19 24.04.2020
4181 Rain 33 1008 55 6000 6.7 30 07:56 24.04.2020
4182 Rain 33 1009 59 6000 6.2 60 07:38 24.04.2020
4183 Rain 33 1009 59 6000 6.2 60 07:19 24.04.2020
4184 Rain 33 1010 66 6000 5.1 60 06:42 24.04.2020
4185 Rain 33 1010 62 6000 6.2 90 05:50 24.04.2020
4186 Clouds 31 1011 62 6000 3.1 60 05:18 24.04.2020
4187 Clouds 29 1010 66 6000 3.1 120 03:28 24.04.2020
4188 Clouds 28 1010 78 6000 4.6 110 02:49 24.04.2020
4189 Clouds 28 1010 78 6000 4.6 110 02:30 24.04.2020
4190 Haze 28 1009 78 5000 4.6 100 01:46 24.04.2020
4191 Haze 27 1008 83 5000 2.1 120 00:50 24.04.2020
4192 Haze 27 1008 88 5000 2.6 130 00:19 24.04.2020
4193 Haze 27 1008 88 5000 2.1 110 23:46 23.04.2020
4194 Haze 27 1008 88 5000 2.1 110 23:27 23.04.2020
4195 Haze 27 1008 88 4000 2.1 160 22:57 23.04.2020
4196 Haze 27 1008 83 5000 1.5 140 22:39 23.04.2020
4197 Haze 28 1008 83 5000 1.5 140 22:20 23.04.2020
4198 Clouds 27 1008 88 7000 2.1 120 21:57 23.04.2020
4199 Clouds 27 1008 83 7000 3.1 140 21:39 23.04.2020
4200 Clouds 28 1009 79 7000 3.1 150 21:20 23.04.2020
4201 Clouds 28 1009 79 7000 3.1 150 21:20 23.04.2020
4202 Clouds 29 1009 79 7000 3.1 150 20:56 23.04.2020
4203 Clouds 28 1009 83 8000 3.1 120 20:38 23.04.2020
4204 Clouds 28 1009 83 8000 3.6 120 20:19 23.04.2020
4205 Clouds 28 1009 83 8000 3.6 120 19:55 23.04.2020
4206 Clouds 28 1009 83 8000 3.1 110 19:37 23.04.2020
4207 Clouds 28 1010 79 8000 3.1 100 19:19 23.04.2020
4208 Clouds 29 1010 79 8000 3.1 120 18:40 23.04.2020
4209 Clouds 29 1010 79 8000 4.1 110 18:22 23.04.2020
4210 Clouds 29 1010 79 8000 4.1 110 17:58 23.04.2020
4211 Clouds 27 1010 79 8000 3.1 100 17:39 23.04.2020
4212 Clouds 27 1010 79 8000 3.1 100 17:21 23.04.2020
4213 Clouds 27 1009 79 8000 3.1 110 16:55 23.04.2020
4214 Clouds 27 1009 79 7000 3.1 110 16:37 23.04.2020
4215 Clouds 27 1009 79 7000 3.1 110 16:18 23.04.2020
4216 Clouds 27 1008 79 7000 3.6 90 15:41 23.04.2020
4217 Clouds 27 1008 79 7000 3.6 90 15:41 23.04.2020
4218 Clouds 27 1008 74 7000 4.1 110 15:22 23.04.2020
4219 Clouds 27 1008 74 7000 4.1 110 14:56 23.04.2020
4220 Clouds 27 1007 74 7000 3.6 90 14:37 23.04.2020
4221 Clouds 28 1007 74 7000 3.6 90 14:18 23.04.2020
4222 Clouds 28 1007 74 7000 4.1 90 13:40 23.04.2020
4223 Clouds 28 1007 74 7000 4.1 90 13:40 23.04.2020
4224 Clouds 32 1006 66 9000 5.7 70 13:22 23.04.2020
4225 Clouds 32 1006 66 9000 5.7 70 12:59 23.04.2020
4226 Clouds 33 1006 66 10000 6.7 70 12:41 23.04.2020
4227 Clouds 33 1006 66 10000 6.7 70 12:23 23.04.2020
4228 Clouds 33 1006 66 10000 7.7 90 11:47 23.04.2020
4229 Rain 33 1006 59 5000 7.7 100 11:28 23.04.2020
4230 Haze 34 1006 59 5000 7.7 100 10:59 23.04.2020
4231 Haze 34 1006 59 5000 7.7 100 10:59 23.04.2020
4232 Rain 34 1007 56 6000 5.1 60 10:40 23.04.2020
4233 Rain 34 1007 56 6000 5.1 60 10:20 23.04.2020
4234 Clouds 34 1007 56 6000 4.6 70 09:41 23.04.2020
4235 Clouds 34 1008 52 6000 5.1 60 09:19 23.04.2020
4236 Clouds 34 1008 52 6000 5.1 60 08:52 23.04.2020
4237 Clouds 34 1008 52 6000 5.1 60 08:32 23.04.2020
4238 Clouds 34 1008 50 6000 5.1 70 07:59 23.04.2020
4239 Clouds 34 1009 50 6000 5.1 70 07:40 23.04.2020
4240 Clouds 35 1009 50 6000 5.1 70 07:22 23.04.2020
4241 Haze 34 1010 59 5000 3.1 90 06:46 23.04.2020
4242 Haze 33 1010 62 5000 3.1 70 05:56 23.04.2020
4243 Haze 31 1011 66 5000 2.1 90 05:22 23.04.2020
4244 Haze 31 1011 66 5000 3.6 90 04:50 23.04.2020
4245 Haze 28 1009 88 3000 2.19 123 02:24 23.04.2020
4246 Haze 27 1009 88 3000 2.19 123 01:41 23.04.2020
4247 Haze 27 1009 88 3000 2.19 123 00:57 23.04.2020
4248 Haze 27 1009 88 3000 2.03 125 00:29 23.04.2020
4249 Haze 27 1008 88 4000 2.03 125 23:59 22.04.2020
4250 Haze 27 1008 88 4000 2.03 125 23:41 22.04.2020
4251 Haze 27 1008 83 5000 2.6 230 23:22 22.04.2020
4252 Haze 27 1008 83 5000 2.6 230 22:54 22.04.2020
4253 Clouds 27 1009 83 6000 2.1 250 22:36 22.04.2020
4254 Haze 27 1009 83 5000 2.6 230 22:18 22.04.2020
4255 Haze 27 1009 83 5000 2.6 230 21:54 22.04.2020
4256 Clouds 27 1009 83 7000 2.6 220 21:36 22.04.2020
4257 Clouds 28 1009 78 9000 2.1 140 21:18 22.04.2020
4258 Clouds 28 1009 78 9000 2.1 150 20:43 22.04.2020
4259 Clouds 28 1010 78 9000 2.1 130 20:19 22.04.2020
4260 Clouds 28 1010 78 9000 2.1 130 20:19 22.04.2020
4261 Clouds 28 1010 78 9000 2.1 130 19:57 22.04.2020
4262 Clouds 29 1010 74 9000 2.1 140 19:38 22.04.2020
4263 Clouds 29 1010 74 9000 2.1 140 19:38 22.04.2020
4264 Clouds 29 1011 78 9000 2.1 120 19:18 22.04.2020
4265 Clouds 29 1011 78 9000 2.1 120 18:58 22.04.2020
4266 Clouds 29 1010 74 9000 2.6 130 18:40 22.04.2020
4267 Clouds 29 1010 79 9000 1.5 100 18:21 22.04.2020
4268 Clouds 29 1010 79 9000 2.6 90 17:44 22.04.2020
4269 Clouds 29 1010 79 9000 2.6 90 17:26 22.04.2020
4270 Clouds 30 1010 79 9000 2.6 90 16:58 22.04.2020
4271 Clouds 30 1010 79 9000 2.6 90 16:58 22.04.2020
4272 Clouds 30 1010 79 10000 2.6 100 16:40 22.04.2020
4273 Clouds 30 1010 79 10000 2.6 100 16:21 22.04.2020
4274 Clouds 30 1008 70 6000 4.6 60 15:41 22.04.2020
4275 Clouds 30 1008 70 6000 4.6 60 15:22 22.04.2020
4276 Clouds 30 1008 70 6000 4.6 60 14:58 22.04.2020
4277 Clouds 30 1008 70 6000 3.6 70 14:38 22.04.2020
4278 Clouds 30 1008 70 6000 4.1 50 14:20 22.04.2020
4279 Clouds 30 1008 70 6000 4.1 50 13:55 22.04.2020
4280 Clouds 30 1007 70 6000 6.2 60 13:36 22.04.2020
4281 Clouds 31 1007 62 7000 6.7 40 13:18 22.04.2020
4282 Clouds 31 1007 55 7000 6.7 50 12:39 22.04.2020
4283 Clouds 32 1007 52 7000 7.7 50 12:21 22.04.2020
4284 Clouds 32 1007 52 7000 7.7 60 11:40 22.04.2020
4285 Clouds 33 1007 52 7000 7.7 60 11:22 22.04.2020
4286 Clouds 33 1006 49 7000 7.7 50 10:59 22.04.2020
4287 Clouds 34 1006 44 7000 7.2 20 10:39 22.04.2020
4288 Clouds 33 1007 46 7000 6.7 60 10:20 22.04.2020
4289 Clouds 33 1007 49 7000 7.2 60 09:39 22.04.2020
4290 Clouds 34 1007 49 7000 7.2 60 09:21 22.04.2020
4291 Clouds 34 1007 52 7000 7.2 80 08:58 22.04.2020
4292 Clouds 35 1008 52 6000 6.7 90 08:40 22.04.2020
4293 Clouds 35 1008 52 6000 6.7 90 08:21 22.04.2020
4294 Clouds 35 1008 49 6000 6.7 70 07:53 22.04.2020
4295 Clouds 35 1009 52 6000 2.6 80 07:28 22.04.2020
4296 Clouds 33 1009 52 6000 3.1 30 06:53 22.04.2020
4297 Clouds 33 1009 52 6000 3.1 30 06:53 22.04.2020
4298 Clouds 33 1010 52 6000 3.6 120 06:21 22.04.2020
4299 Clouds 33 1010 52 6000 3.1 110 05:37 22.04.2020
4300 Haze 31 1011 62 5000 3.1 90 04:20 22.04.2020
4301 Haze 28 1010 78 3000 1.5 120 02:51 22.04.2020
4302 Haze 26 1010 94 3000 1.5 170 01:53 22.04.2020
4303 Haze 26 1010 94 3000 1.5 210 01:27 22.04.2020
4304 Haze 25 1009 94 4000 1.5 180 00:57 22.04.2020
4305 Haze 25 1009 94 4000 1.5 220 00:37 22.04.2020
4306 Haze 26 1009 94 4000 1.5 230 00:19 22.04.2020
4307 Haze 26 1009 94 4000 1.5 230 23:41 21.04.2020
4308 Haze 26 1009 94 4000 1.5 230 23:19 21.04.2020
4309 Mist 26 1009 83 2500 1 180 22:40 21.04.2020
4310 Mist 26 1009 83 2500 1 180 22:22 21.04.2020
4311 Mist 26 1009 83 2500 2.1 190 21:59 21.04.2020
4312 Mist 26 1009 83 4000 2.1 200 21:41 21.04.2020
4313 Mist 26 1009 83 4000 2.1 200 21:23 21.04.2020
4314 Mist 27 1009 78 4000 2.1 220 20:57 21.04.2020
4315 Mist 27 1010 78 4000 2.1 200 20:39 21.04.2020
4316 Mist 27 1010 78 4000 1.5 170 20:21 21.04.2020
4317 Haze 27 1010 78 5000 2.1 170 19:41 21.04.2020
4318 Haze 28 1010 74 5000 1.5 0 19:20 21.04.2020
4319 Clouds 28 1011 78 6000 1.5 70 18:58 21.04.2020
4320 Clouds 27 1011 78 6000 1.5 70 18:39 21.04.2020
4321 Clouds 28 1011 78 6000 1.5 70 18:19 21.04.2020
4322 Clouds 28 1011 78 6000 1.5 70 17:57 21.04.2020
4323 Clouds 28 1010 78 6000 2.1 50 17:38 21.04.2020
4324 Clouds 28 1010 78 6000 2.1 60 17:19 21.04.2020
4325 Clouds 28 1010 78 6000 2.1 60 16:39 21.04.2020
4326 Clouds 28 1010 78 6000 1.5 90 16:19 21.04.2020
4327 Clouds 28 1010 78 6000 1.5 90 16:19 21.04.2020
4328 Clouds 28 1010 78 6000 1.5 90 15:58 21.04.2020
4329 Clouds 28 1008 70 6000 2.1 90 15:40 21.04.2020
4330 Clouds 29 1008 70 6000 2.1 90 15:22 21.04.2020
4331 Clouds 29 1008 70 6000 2.1 90 14:58 21.04.2020
4332 Clouds 29 1008 70 6000 2.1 90 14:39 21.04.2020
4333 Clouds 29 1008 70 6000 2.1 90 14:21 21.04.2020
4334 Clouds 30 1008 66 6000 3.1 90 13:42 21.04.2020
4335 Clouds 31 1008 66 6000 3.1 90 13:23 21.04.2020
4336 Clouds 31 1007 66 6000 3.1 90 12:58 21.04.2020
4337 Clouds 31 1007 66 6000 3.1 90 12:37 21.04.2020
4338 Clouds 31 1007 66 6000 3.1 90 12:18 21.04.2020
4339 Clouds 32 1007 66 6000 3.1 90 11:55 21.04.2020
4340 Clouds 32 1007 66 6000 3.1 90 11:55 21.04.2020
4341 Clouds 32 1007 62 6000 2.1 120 11:37 21.04.2020
4342 Clouds 32 1007 66 6000 3.1 140 11:18 21.04.2020
4343 Clouds 32 1007 66 6000 3.1 140 10:56 21.04.2020
4344 Clouds 32 1007 66 6000 3.1 110 10:38 21.04.2020
4345 Clouds 33 1007 62 6000 3.1 140 10:20 21.04.2020
4346 Clouds 32 1008 66 6000 3.6 110 09:37 21.04.2020
4347 Clouds 32 1008 66 6000 3.6 110 09:19 21.04.2020
4348 Clouds 32 1009 66 6000 4.6 80 08:57 21.04.2020
4349 Clouds 32 1009 66 6000 4.6 80 08:39 21.04.2020
4350 Clouds 32 1009 66 6000 4.6 80 08:19 21.04.2020
4351 Clouds 32 1010 66 6000 4.6 90 07:44 21.04.2020
4352 Clouds 32 1010 62 6000 4.1 130 07:22 21.04.2020
4353 Haze 32 1011 66 5000 5.1 130 06:49 21.04.2020
4354 Haze 32 1011 66 5000 5.1 130 06:20 21.04.2020
4355 Haze 32 1012 74 5000 4.1 120 05:48 21.04.2020
4356 Haze 31 1011 74 4000 4.1 130 04:20 21.04.2020
4357 Haze 30 1011 83 3000 3.1 130 03:42 21.04.2020
4358 Haze 27 1009 88 5000 1.88 117 01:46 21.04.2020
4359 Haze 27 1009 88 5000 1.88 117 01:18 21.04.2020
4360 Haze 27 1009 88 5000 1.88 117 00:35 21.04.2020
4361 Haze 27 1008 83 5000 1.5 200 23:45 20.04.2020
4362 Haze 27 1008 83 5000 1.5 200 23:25 20.04.2020
4363 Haze 27 1009 83 5000 1.5 170 22:58 20.04.2020
4364 Haze 27 1008 83 5000 2.1 190 22:39 20.04.2020
4365 Haze 27 1009 83 5000 2.6 200 22:20 20.04.2020
4366 Haze 27 1009 83 5000 2.6 200 22:20 20.04.2020
4367 Haze 27 1009 83 5000 2.6 200 21:57 20.04.2020
4368 Haze 28 1009 83 5000 3.1 190 21:39 20.04.2020
4369 Haze 28 1009 78 5000 4.1 200 21:19 20.04.2020
4370 Haze 28 1009 78 5000 4.1 200 20:58 20.04.2020
4371 Haze 28 1010 74 5000 1 0 20:38 20.04.2020
4372 Clouds 28 1010 78 6000 1 0 20:18 20.04.2020
4373 Clouds 28 1010 78 6000 1 0 20:18 20.04.2020
4374 Clouds 28 1010 78 6000 1 0 20:18 20.04.2020
4375 Clouds 28 1010 78 6000 1 0 19:58 20.04.2020
4376 Clouds 28 1010 74 6000 1 0 19:39 20.04.2020
4377 Clouds 29 1010 74 6000 1 0 19:19 20.04.2020
4378 Clouds 29 1011 74 6000 1 0 18:43 20.04.2020
4379 Clouds 29 1011 74 6000 1 100 18:23 20.04.2020
4380 Clouds 30 1011 74 6000 1 100 17:56 20.04.2020
4381 Clouds 30 1010 74 6000 1.5 50 17:38 20.04.2020
4382 Clouds 30 1010 74 6000 1.5 60 17:19 20.04.2020
4383 Clouds 30 1010 74 6000 1.5 60 16:59 20.04.2020
4384 Clouds 30 1010 70 6000 1.5 30 16:39 20.04.2020
4385 Clouds 30 1010 70 7000 1.5 30 16:19 20.04.2020
4386 Clouds 30 1009 70 8000 1.5 40 15:45 20.04.2020
4387 Clouds 30 1009 70 6000 3.6 30 15:24 20.04.2020
4388 Clouds 30 1009 70 6000 3.6 30 14:58 20.04.2020
4389 Clouds 30 1009 70 6000 3.6 30 14:40 20.04.2020
4390 Clouds 31 1008 62 6000 2.1 10 14:19 20.04.2020
4391 Clouds 31 1008 62 6000 2.1 10 13:56 20.04.2020
4392 Clouds 31 1008 62 6000 2.1 10 13:37 20.04.2020
4393 Clouds 31 1007 62 6000 4.1 20 13:19 20.04.2020
4394 Clouds 32 1007 62 6000 4.1 30 12:42 20.04.2020
4395 Clouds 33 1007 59 6000 3.6 20 12:21 20.04.2020
4396 Clouds 33 1007 59 6000 3.6 20 11:42 20.04.2020
4397 Clouds 33 1007 59 6000 3.6 20 11:22 20.04.2020
4398 Clouds 33 1006 59 6000 4.1 10 10:57 20.04.2020
4399 Clouds 34 1007 59 6000 4.1 50 10:39 20.04.2020
4400 Clouds 33 1007 59 6000 4.1 50 10:20 20.04.2020
4401 Clouds 33 1007 59 6000 4.1 20 09:59 20.04.2020
4402 Clouds 34 1007 59 6000 4.1 20 09:40 20.04.2020
4403 Clouds 34 1007 59 6000 4.1 20 09:21 20.04.2020
4404 Clouds 34 1009 52 6000 3.1 60 08:42 20.04.2020
4405 Clouds 34 1009 52 6000 3.1 60 08:23 20.04.2020
4406 Clouds 34 1009 55 6000 3.1 20 07:56 20.04.2020
4407 Clouds 34 1009 55 6000 3.1 20 07:37 20.04.2020
4408 Haze 33 1010 55 5000 3.1 360 07:19 20.04.2020
4409 Haze 32 1011 62 5000 4.1 30 06:37 20.04.2020
4410 Haze 32 1012 62 5000 3.6 70 05:48 20.04.2020
4411 Clouds 32 1012 74 6000 2.6 90 04:46 20.04.2020
4412 Haze 29 1011 88 3000 1.35 131 02:47 20.04.2020
4413 Haze 29 1011 88 3000 1.56 133 02:26 20.04.2020
4414 Mist 27 1011 94 2500 1.56 133 01:29 20.04.2020
4415 Mist 27 1010 94 2500 1.56 133 00:44 20.04.2020
4416 Mist 27 1010 94 2500 0.96 138 00:20 20.04.2020
4417 Haze 28 1009 78 4000 1 0 23:39 19.04.2020
4418 Haze 28 1009 78 4000 1 0 23:21 19.04.2020
4419 Haze 27 1009 83 5000 1 0 22:55 19.04.2020
4420 Haze 27 1009 83 5000 1 0 22:55 19.04.2020
4421 Rain 27 1009 88 4000 1.5 120 22:37 19.04.2020
4422 Haze 28 1010 83 4000 1.5 130 22:19 19.04.2020
4423 Haze 28 1010 83 4000 1 0 21:42 19.04.2020
4424 Haze 28 1010 88 4000 1 60 21:23 19.04.2020
4425 Haze 28 1010 88 4000 1 60 20:57 19.04.2020
4426 Haze 28 1010 83 4000 1 0 20:39 19.04.2020
4427 Haze 29 1010 79 5000 1 20 20:20 19.04.2020
4428 Haze 29 1010 79 5000 1 20 19:56 19.04.2020
4429 Haze 29 1011 83 5000 1 0 19:38 19.04.2020
4430 Haze 29 1011 79 5000 1 0 19:19 19.04.2020
4431 Haze 29 1011 79 5000 1 0 18:55 19.04.2020
4432 Haze 29 1011 79 5000 1 0 18:36 19.04.2020
4433 Haze 30 1011 79 5000 1.5 60 18:18 19.04.2020
4434 Haze 30 1011 79 5000 1.5 60 17:55 19.04.2020
4435 Haze 30 1011 79 5000 1.5 0 17:37 19.04.2020
4436 Haze 30 1011 79 5000 1 20 17:19 19.04.2020
4437 Haze 30 1011 74 5000 1 20 16:40 19.04.2020
4438 Clouds 30 1011 79 6000 1 0 16:21 19.04.2020
4439 Clouds 30 1011 79 6000 1 0 15:58 19.04.2020
4440 Thunderstorm 30 1009 70 4000 2.6 330 15:39 19.04.2020
4441 Thunderstorm 30 1009 70 4000 2.6 330 15:18 19.04.2020
4442 Thunderstorm 30 1009 70 4000 2.6 330 14:39 19.04.2020
4443 Haze 30 1009 70 4000 2.6 320 14:21 19.04.2020
4444 Haze 30 1009 70 4000 2.6 320 14:21 19.04.2020
4445 Haze 30 1009 70 4000 2.6 320 13:57 19.04.2020
4446 Haze 30 1008 74 4000 2.6 340 13:36 19.04.2020
4447 Haze 31 1007 70 4000 2.6 330 13:18 19.04.2020
4448 Haze 32 1007 62 4000 2.1 350 12:44 19.04.2020
4449 Haze 32 1007 62 4000 2.1 350 12:24 19.04.2020
4450 Haze 33 1007 59 4000 3.1 350 11:54 19.04.2020
4451 Haze 33 1006 59 4000 5.1 20 11:36 19.04.2020
4452 Haze 33 1006 59 4000 5.1 20 11:36 19.04.2020
4453 Haze 33 1006 59 5000 3.1 30 11:18 19.04.2020
4454 Rain 34 1007 56 5000 4.6 330 10:41 19.04.2020
4455 Rain 34 1007 56 5000 4.6 330 10:41 19.04.2020
4456 Rain 34 1007 56 5000 6.7 20 10:21 19.04.2020
4457 Rain 35 1007 56 5000 6.7 20 09:57 19.04.2020
4458 Haze 34 1008 56 5000 5.1 70 09:39 19.04.2020
4459 Haze 35 1008 56 5000 3.1 10 09:18 19.04.2020
4460 Haze 35 1009 49 5000 2.6 350 08:40 19.04.2020
4461 Haze 35 1009 49 5000 2.6 350 08:40 19.04.2020
4462 Haze 34 1009 49 5000 2.6 350 08:21 19.04.2020
4463 Haze 35 1010 59 5000 3.6 50 07:48 19.04.2020
4464 Haze 33 1010 59 5000 3.6 50 07:25 19.04.2020
4465 Haze 33 1010 59 5000 3.6 50 07:25 19.04.2020
4466 Haze 35 1011 55 5000 3.6 70 06:57 19.04.2020
4467 Haze 32 1011 59 5000 2.6 40 06:23 19.04.2020
4468 Haze 31 1012 62 5000 1.5 90 05:34 19.04.2020
4469 Haze 30 1012 79 4000 2.1 120 03:54 19.04.2020
4470 Mist 27 1011 94 4000 0.61 193 02:49 19.04.2020
4471 Mist 26 1011 94 3000 1.5 140 02:18 19.04.2020
4472 Haze 25 1010 94 4000 1.5 210 01:22 19.04.2020
4473 Haze 25 1010 94 4000 1.5 230 00:41 19.04.2020
4474 Haze 25 1010 94 4000 1.5 230 00:41 19.04.2020
4475 Haze 25 1010 94 4000 1.5 160 00:20 19.04.2020
4476 Haze 25 1010 94 4000 1.5 120 23:43 18.04.2020
4477 Haze 25 1009 88 5000 1.5 290 23:20 18.04.2020
4478 Haze 25 1009 88 5000 1.5 290 22:55 18.04.2020
4479 Haze 26 1010 83 5000 1.5 300 22:37 18.04.2020
4480 Haze 25 1010 88 5000 1.5 250 22:19 18.04.2020
4481 Haze 26 1010 83 5000 1.5 230 21:43 18.04.2020
4482 Haze 26 1011 83 4000 1 0 21:22 18.04.2020
4483 Haze 26 1011 83 4000 1 0 20:59 18.04.2020
4484 Haze 26 1011 83 4000 2.6 200 20:40 18.04.2020
4485 Haze 26 1012 83 3000 1.5 0 20:21 18.04.2020
4486 Haze 26 1012 83 3000 3.1 260 19:43 18.04.2020
4487 Haze 27 1013 83 4000 2.1 240 19:25 18.04.2020
4488 Haze 27 1013 83 4000 2.1 240 18:58 18.04.2020
4489 Haze 27 1013 83 4000 2.1 240 18:36 18.04.2020
4490 Haze 27 1013 88 4000 1.5 260 18:18 18.04.2020
4491 Haze 27 1013 94 4000 1.5 270 17:41 18.04.2020
4492 Haze 27 1013 78 5000 2.6 240 17:21 18.04.2020
4493 Haze 27 1013 78 5000 2.6 240 16:56 18.04.2020
4494 Haze 27 1012 78 5000 2.1 230 16:36 18.04.2020
4495 Haze 27 1011 78 5000 2.1 210 16:18 18.04.2020
4496 Rain 27 1011 83 4000 1.5 180 15:38 18.04.2020
4497 Rain 27 1011 83 4000 1.5 180 15:38 18.04.2020
4498 Rain 27 1011 83 4000 1.5 180 15:20 18.04.2020
4499 Rain 27 1011 83 4000 1.5 180 14:44 18.04.2020
4500 Rain 27 1011 83 4000 1.5 180 14:25 18.04.2020
4501 Rain 28 1011 83 4000 1.5 180 13:54 18.04.2020
4502 Rain 28 1010 78 5000 5.1 240 13:36 18.04.2020
4503 Rain 29 1010 74 5000 3.1 240 13:18 18.04.2020
4504 Rain 30 1009 74 5000 2.6 360 12:41 18.04.2020
4505 Rain 30 1009 70 5000 3.1 360 12:22 18.04.2020
4506 Rain 31 1008 66 5000 2.1 330 11:43 18.04.2020
4507 Rain 31 1008 66 5000 2.1 330 11:24 18.04.2020
4508 Rain 32 1008 66 4000 4.6 360 10:58 18.04.2020
4509 Rain 31 1008 74 4000 2.6 330 10:37 18.04.2020
4510 Thunderstorm 30 1008 79 4000 2.6 270 10:18 18.04.2020
4511 Rain 30 1009 83 4000 1.5 360 09:42 18.04.2020
4512 Rain 29 1009 83 4000 1.5 360 09:23 18.04.2020
4513 Thunderstorm 30 1009 79 4000 2.6 360 08:56 18.04.2020
4514 Rain 33 1009 52 5000 2.6 360 08:38 18.04.2020
4515 Clouds 34 1010 55 6000 1.5 30 08:18 18.04.2020
4516 Clouds 33 1010 49 6000 1.5 360 07:37 18.04.2020
4517 Clouds 33 1011 59 6000 1.5 270 06:59 18.04.2020
4518 Clouds 33 1012 55 6000 2.6 240 06:29 18.04.2020
4519 Clouds 31 1012 62 6000 2.6 270 05:36 18.04.2020
4520 Haze 30 1012 66 5000 2.6 270 04:47 18.04.2020
4521 Haze 30 1012 66 5000 2.6 270 04:25 18.04.2020
4522 Haze 29 1010 83 5000 1.5 200 02:49 18.04.2020
4523 Haze 26 1010 88 4000 1.69 231 02:23 18.04.2020
4524 Haze 26 1010 88 4000 1.69 231 01:57 18.04.2020
4525 Haze 25 1010 88 4000 1.69 231 01:35 18.04.2020
4526 Haze 25 1010 88 4000 1.69 231 01:35 18.04.2020
4527 Haze 24 1009 88 3500 2.1 270 00:47 18.04.2020
4528 Clouds 25 1008 88 6000 1.5 270 00:22 18.04.2020
4529 Clouds 25 1008 88 6000 1.5 270 23:56 17.04.2020
4530 Haze 25 1009 83 2500 3.1 280 23:38 17.04.2020
4531 Haze 25 1009 83 3500 2.1 270 23:18 17.04.2020
4532 Haze 25 1009 83 3500 2.1 270 22:56 17.04.2020
4533 Haze 25 1009 83 4000 2.6 270 22:37 17.04.2020
4534 Haze 25 1010 83 5000 1.5 310 22:18 17.04.2020
4535 Haze 25 1010 83 5000 2.1 280 21:42 17.04.2020
4536 Haze 25 1010 83 5000 2.1 280 21:21 17.04.2020
4537 Haze 25 1010 83 5000 2.6 300 20:57 17.04.2020
4538 Haze 26 1011 83 5000 2.1 270 20:38 17.04.2020
4539 Haze 26 1011 83 5000 2.1 240 20:19 17.04.2020
4540 Haze 26 1011 83 5000 2.1 240 19:58 17.04.2020
4541 Clouds 26 1011 83 6000 2.1 200 19:40 17.04.2020
4542 Clouds 26 1011 83 6000 2.1 200 19:22 17.04.2020
4543 Clouds 26 1012 78 7000 3.1 230 18:44 17.04.2020
4544 Clouds 26 1012 78 7000 3.1 230 18:24 17.04.2020
4545 Clouds 26 1012 78 7000 3.1 230 18:24 17.04.2020
4546 Clouds 26 1012 78 7000 2.6 240 17:55 17.04.2020
4547 Clouds 26 1012 78 7000 3.6 200 17:37 17.04.2020
4548 Clouds 26 1012 78 7000 3.1 200 17:18 17.04.2020
4549 Clouds 26 1012 78 8000 4.1 180 16:42 17.04.2020
4550 Clouds 26 1012 78 8000 4.6 180 16:23 17.04.2020
4551 Clouds 27 1012 69 9000 4.6 200 15:44 17.04.2020
4552 Rain 27 1011 78 6000 3.6 180 15:24 17.04.2020
4553 Rain 27 1011 78 6000 3.6 180 14:57 17.04.2020
4554 Rain 27 1011 78 6000 3.6 180 14:39 17.04.2020
4555 Rain 29 1009 62 6000 3.1 360 14:20 17.04.2020
4556 Rain 30 1009 62 6000 3.1 360 13:55 17.04.2020
4557 Rain 30 1009 62 6000 3.1 360 13:36 17.04.2020
4558 Rain 31 1009 62 6000 2.6 340 13:18 17.04.2020
4559 Clouds 31 1008 62 6000 3.1 350 12:44 17.04.2020
4560 Clouds 32 1008 59 6000 4.6 340 12:23 17.04.2020
4561 Clouds 32 1007 59 6000 4.1 360 11:42 17.04.2020
4562 Rain 33 1007 59 6000 3.1 350 11:19 17.04.2020
4563 Rain 33 1007 59 6000 3.1 350 10:56 17.04.2020
4564 Rain 33 1007 59 6000 3.1 350 10:56 17.04.2020
4565 Rain 33 1007 59 6000 3.1 350 10:38 17.04.2020
4566 Clouds 33 1008 55 6000 3.1 350 10:18 17.04.2020
4567 Clouds 34 1008 55 6000 3.1 350 09:41 17.04.2020
4568 Clouds 34 1009 52 6000 1.5 350 09:20 17.04.2020
4569 Clouds 34 1009 52 6000 1.5 350 08:57 17.04.2020
4570 Clouds 34 1009 52 6000 1.5 350 08:39 17.04.2020
4571 Clouds 34 1010 59 6000 2.6 50 08:19 17.04.2020
4572 Clouds 34 1010 59 6000 2.6 50 07:44 17.04.2020
4573 Clouds 33 1010 62 6000 1.5 340 07:22 17.04.2020
4574 Clouds 32 1011 59 6000 2.6 10 06:45 17.04.2020
4575 Clouds 32 1011 66 6000 1.38 36 06:22 17.04.2020
4576 Haze 31 1012 66 5000 1.5 130 05:25 17.04.2020
4577 Haze 28 1011 83 3000 1.5 180 03:19 17.04.2020
4578 Mist 26 1011 94 2500 1.9 127 02:19 17.04.2020
4579 Mist 25 1010 94 2500 1.9 127 01:29 17.04.2020
4580 Mist 26 1010 94 3000 1.9 127 00:51 17.04.2020
4581 Mist 26 1010 94 3000 1.21 152 00:19 17.04.2020
4582 Mist 26 1010 94 3000 1.21 152 23:42 16.04.2020
4583 Mist 27 1010 94 3000 1.21 152 23:22 16.04.2020
4584 Haze 27 1009 83 4000 1.5 0 22:56 16.04.2020
4585 Haze 27 1010 83 4000 2.1 130 22:37 16.04.2020
4586 Haze 27 1010 83 4000 2.1 130 22:19 16.04.2020
4587 Haze 27 1009 83 4000 2.1 220 21:42 16.04.2020
4588 Haze 27 1009 83 4000 2.1 220 21:20 16.04.2020
4589 Haze 26 1009 83 4000 2.1 200 20:59 16.04.2020
4590 Haze 26 1010 83 4000 2.1 210 20:39 16.04.2020
4591 Haze 26 1010 83 4000 1.5 210 20:19 16.04.2020
4592 Haze 26 1010 83 4000 1.5 210 19:55 16.04.2020
4593 Haze 26 1010 83 4000 1.5 210 19:36 16.04.2020
4594 Haze 26 1010 83 5000 1 0 19:18 16.04.2020
4595 Haze 26 1010 83 5000 1 0 18:42 16.04.2020
4596 Clouds 26 1011 83 6000 1 290 18:23 16.04.2020
4597 Clouds 26 1011 83 6000 1 290 17:57 16.04.2020
4598 Haze 27 1011 83 5000 1 330 17:39 16.04.2020
4599 Haze 27 1011 83 5000 1 330 17:18 16.04.2020
4600 Clouds 27 1010 79 6000 2.1 70 16:42 16.04.2020
4601 Clouds 28 1010 79 6000 2.1 70 16:24 16.04.2020
4602 Clouds 28 1010 79 6000 2.1 70 15:46 16.04.2020
4603 Clouds 28 1010 74 6000 3.1 20 15:20 16.04.2020
4604 Clouds 28 1010 79 6000 2.1 70 15:20 16.04.2020
4605 Clouds 28 1010 74 6000 3.1 20 14:59 16.04.2020
4606 Clouds 28 1010 74 6000 3.1 20 14:40 16.04.2020
4607 Clouds 28 1009 74 6000 3.6 30 14:22 16.04.2020
4608 Rain 29 1008 74 5000 4.1 340 13:58 16.04.2020
4609 Clouds 29 1009 74 6000 3.6 30 13:58 16.04.2020
4610 Rain 29 1008 74 5000 4.1 340 13:40 16.04.2020
4611 Rain 30 1008 70 5000 6.2 360 13:21 16.04.2020
4612 Rain 30 1008 70 5000 6.2 360 13:21 16.04.2020
4613 Rain 31 1008 66 5000 6.2 20 12:57 16.04.2020
4614 Rain 29 1008 66 5000 6.2 20 12:38 16.04.2020
4615 Rain 31 1007 70 5000 7.2 10 12:19 16.04.2020
4616 Rain 30 1007 70 5000 7.2 10 11:56 16.04.2020
4617 Rain 31 1007 66 6000 6.2 20 11:38 16.04.2020
4618 Clouds 31 1007 62 6000 6.2 10 11:18 16.04.2020
4619 Clouds 32 1007 62 6000 6.2 10 10:54 16.04.2020
4620 Clouds 32 1007 62 6000 6.2 10 10:54 16.04.2020
4621 Rain 33 1007 62 6000 4.1 30 10:36 16.04.2020
4622 Rain 33 1007 59 6000 3.6 60 10:18 16.04.2020
4623 Rain 33 1007 55 6000 7.2 40 09:39 16.04.2020
4624 Rain 33 1008 63 6000 5.1 20 09:20 16.04.2020
4625 Rain 33 1007 55 6000 7.2 40 09:20 16.04.2020
4626 Rain 33 1008 59 6000 4.1 30 08:45 16.04.2020
4627 Rain 33 1008 59 6000 4.1 30 08:26 16.04.2020
4628 Rain 33 1009 59 6000 3.1 350 07:59 16.04.2020
4629 Rain 33 1009 52 6000 4.1 10 07:41 16.04.2020
4630 Rain 33 1010 55 6000 4.6 50 07:20 16.04.2020
4631 Clouds 32 1010 55 6000 2.1 100 06:41 16.04.2020
4632 Clouds 32 1010 55 6000 2.1 100 06:41 16.04.2020
4633 Clouds 33 1011 59 6000 2.1 20 06:22 16.04.2020
4634 Clouds 30 1012 62 6000 2.1 40 04:53 16.04.2020
4635 Haze 29 1011 74 4000 1.5 50 03:28 16.04.2020
4636 Haze 28 1011 83 3000 1.5 60 02:59 16.04.2020
4637 Mist 28 1011 100 3000 1.5 150 02:36 16.04.2020
4638 Mist 26 1010 100 2500 1.5 160 01:29 16.04.2020
4639 Mist 25 1010 100 3000 1.5 90 00:54 16.04.2020
4640 Mist 25 1009 100 3000 0.92 180 00:21 16.04.2020
4641 Mist 25 1009 100 3000 1.5 140 23:55 15.04.2020
4642 Mist 25 1009 100 3000 1.5 140 23:36 15.04.2020
4643 Haze 26 1009 83 5000 3.1 180 23:18 15.04.2020
4644 Haze 26 1009 83 5000 1.5 140 22:39 15.04.2020
4645 Haze 26 1009 83 5000 1.5 140 22:20 15.04.2020
4646 Haze 26 1009 88 5000 2.1 170 21:56 15.04.2020
4647 Haze 26 1009 88 5000 2.6 170 21:37 15.04.2020
4648 Haze 26 1009 88 5000 2.6 170 21:19 15.04.2020
4649 Haze 26 1009 88 5000 3.6 160 20:54 15.04.2020
4650 Haze 26 1009 88 5000 3.6 160 20:54 15.04.2020
4651 Haze 26 1010 88 5000 2.6 160 20:36 15.04.2020
4652 Haze 26 1010 88 5000 3.1 190 20:18 15.04.2020
4653 Haze 26 1010 88 5000 3.1 190 19:41 15.04.2020
4654 Haze 27 1011 83 5000 3.1 190 19:20 15.04.2020
4655 Clouds 27 1011 83 6000 2.1 200 18:42 15.04.2020
4656 Clouds 28 1012 78 6000 1 290 18:23 15.04.2020
4657 Clouds 28 1012 78 6000 1 290 17:58 15.04.2020
4658 Clouds 27 1012 83 6000 1 0 17:39 15.04.2020
4659 Clouds 27 1012 83 6000 1 0 17:20 15.04.2020
4660 Clouds 27 1011 83 7000 1 290 16:56 15.04.2020
4661 Clouds 28 1011 78 7000 1 0 16:37 15.04.2020
4662 Clouds 28 1011 83 8000 1 0 16:19 15.04.2020
4663 Clouds 27 1011 83 8000 1 0 15:57 15.04.2020
4664 Rain 28 1010 83 6000 3.6 30 15:38 15.04.2020
4665 Rain 28 1010 83 6000 3.6 30 15:19 15.04.2020
4666 Rain 28 1010 83 6000 3.6 30 14:57 15.04.2020
4667 Rain 28 1010 83 6000 3.6 30 14:38 15.04.2020
4668 Rain 28 1010 83 6000 2.1 360 14:20 15.04.2020
4669 Rain 28 1010 83 6000 2.1 360 13:57 15.04.2020
4670 Rain 29 1010 83 6000 1.5 20 13:38 15.04.2020
4671 Rain 27 1009 83 6000 1.5 360 13:19 15.04.2020
4672 Rain 28 1009 79 6000 2.6 360 12:43 15.04.2020
4673 Clouds 29 1009 79 6000 2.6 30 12:23 15.04.2020
4674 Clouds 29 1009 79 6000 2.6 30 11:59 15.04.2020
4675 Rain 29 1008 88 5000 2.6 30 11:41 15.04.2020
4676 Rain 29 1008 83 5000 4.1 360 11:23 15.04.2020
4677 Rain 29 1008 83 5000 4.1 360 10:56 15.04.2020
4678 Rain 30 1008 89 4000 3.1 40 10:36 15.04.2020
4679 Rain 30 1009 94 3000 3.1 60 10:18 15.04.2020
4680 Rain 30 1009 94 3000 3.1 60 09:54 15.04.2020
4681 Thunderstorm 29 1010 94 1000 2.1 50 09:36 15.04.2020
4682 Thunderstorm 29 1010 94 1000 2.1 360 09:18 15.04.2020
4683 Rain 30 1010 88 3000 4.1 50 08:40 15.04.2020
4684 Rain 30 1010 88 3000 4.1 30 08:19 15.04.2020
4685 Rain 31 1010 88 3000 4.1 30 07:54 15.04.2020
4686 Rain 31 1010 74 4000 5.1 30 07:32 15.04.2020
4687 Haze 32 1012 66 5000 2.1 330 06:34 15.04.2020
4688 Haze 32 1012 66 5000 1.5 300 05:51 15.04.2020
4689 Haze 31 1012 70 5000 2.6 120 05:19 15.04.2020
4690 Haze 31 1012 79 5000 1.5 70 04:44 15.04.2020
4691 Haze 29 1012 83 5000 1.5 150 03:34 15.04.2020
4692 Haze 28 1011 94 4000 1.93 117 02:57 15.04.2020
4693 Mist 26 1010 100 3000 1.93 117 01:57 15.04.2020
4694 Mist 26 1010 100 3000 1.93 117 01:39 15.04.2020
4695 Haze 26 1010 100 5000 1.93 117 01:18 15.04.2020
4696 Mist 26 1010 88 2500 2.1 230 00:36 15.04.2020
4697 Clouds 26 1009 88 6000 1.5 200 00:18 15.04.2020
4698 Clouds 26 1009 88 6000 1.5 200 23:54 14.04.2020
4699 Clouds 26 1010 88 6000 1 0 23:36 14.04.2020
4700 Mist 25 1010 88 2800 1.5 0 23:18 14.04.2020
4701 Mist 25 1010 88 2800 1.5 0 22:54 14.04.2020
4702 Clouds 25 1009 83 6000 2.1 170 22:36 14.04.2020
4703 Rain 25 1009 88 6000 1.5 240 22:18 14.04.2020
4704 Rain 25 1009 88 6000 1.5 240 21:54 14.04.2020
4705 Haze 25 1010 88 5000 2.1 0 21:36 14.04.2020
4706 Haze 25 1010 83 5000 1 240 21:18 14.04.2020
4707 Haze 25 1010 88 5000 1.5 80 20:40 14.04.2020
4708 Haze 25 1010 88 5000 1.5 80 20:22 14.04.2020
4709 Haze 25 1010 94 5000 2.1 40 19:58 14.04.2020
4710 Thunderstorm 25 1011 83 4000 3.1 110 19:38 14.04.2020
4711 Thunderstorm 26 1011 88 3000 2.1 0 19:20 14.04.2020
4712 Thunderstorm 26 1011 88 3000 2.1 0 18:55 14.04.2020
4713 Thunderstorm 27 1011 88 3000 2.1 210 18:37 14.04.2020
4714 Haze 27 1011 83 4000 2.1 210 18:18 14.04.2020
4715 Haze 27 1011 83 4000 2.1 210 17:55 14.04.2020
4716 Haze 27 1011 83 4000 1.5 260 17:36 14.04.2020
4717 Haze 27 1011 79 5000 2.6 270 17:18 14.04.2020
4718 Haze 28 1011 79 5000 1 0 16:41 14.04.2020
4719 Haze 28 1011 79 5000 1 0 16:22 14.04.2020
4720 Haze 28 1010 79 5000 1 360 15:58 14.04.2020
4721 Haze 28 1010 79 5000 1 350 15:38 14.04.2020
4722 Clouds 28 1010 79 6000 0.5 100 15:19 14.04.2020
4723 Clouds 28 1010 79 6000 0.5 100 14:57 14.04.2020
4724 Clouds 29 1009 74 6000 1 10 14:39 14.04.2020
4725 Clouds 29 1009 74 6000 1 10 14:39 14.04.2020
4726 Clouds 29 1009 74 7000 2.1 30 14:21 14.04.2020
4727 Clouds 29 1009 74 7000 2.1 10 13:45 14.04.2020
4728 Clouds 29 1009 74 7000 2.1 10 13:24 14.04.2020
4729 Clouds 29 1008 74 7000 2.6 340 12:59 14.04.2020
4730 Rain 31 1007 59 6000 3.1 20 12:40 14.04.2020
4731 Rain 31 1007 59 6000 3.1 20 12:20 14.04.2020
4732 Rain 31 1007 59 6000 3.1 20 11:54 14.04.2020
4733 Rain 31 1007 59 6000 3.1 20 11:36 14.04.2020
4734 Rain 31 1007 66 6000 3.1 40 11:18 14.04.2020
4735 Rain 31 1007 66 6000 3.1 40 10:41 14.04.2020
4736 Rain 31 1007 66 6000 3.1 40 10:23 14.04.2020
4737 Rain 30 1008 74 5000 2.1 20 09:42 14.04.2020
4738 Rain 31 1008 74 5000 2.1 20 09:24 14.04.2020
4739 Rain 31 1008 66 5000 1.5 350 08:57 14.04.2020
4740 Rain 31 1009 66 5000 4.1 20 08:39 14.04.2020
4741 Rain 31 1008 65 0 3.46 21 08:21 14.04.2020
4742 Rain 31 1008 65 0 3.46 21 07:53 14.04.2020
4743 Rain 31 1008 65 0 3.46 21 07:29 14.04.2020
4744 Rain 31 1008 65 0 3.46 21 06:47 14.04.2020
4745 Rain 30 1011 68 0 1.57 46 05:55 14.04.2020
4746 Haze 29 1011 79 4000 2.6 90 03:52 14.04.2020
4747 Mist 27 1010 94 2500 2.1 90 02:44 14.04.2020
4748 Mist 25 1010 100 2500 2.1 90 01:39 14.04.2020
4749 Mist 25 1009 94 3000 1.5 90 01:18 14.04.2020
4750 Mist 25 1009 94 3000 1.5 90 00:33 14.04.2020
4751 Mist 25 1009 94 3000 1.5 90 23:59 13.04.2020
4752 Mist 25 1009 94 3000 1.5 90 23:39 13.04.2020
4753 Mist 25 1009 94 3000 1.5 90 23:21 13.04.2020
4754 Haze 26 1009 88 4000 2.1 150 22:56 13.04.2020
4755 Haze 26 1009 88 4000 2.6 190 22:37 13.04.2020
4756 Haze 26 1009 88 4100 2.1 180 22:19 13.04.2020
4757 Haze 26 1009 88 4100 2.1 180 21:54 13.04.2020
4758 Haze 26 1010 88 3800 2.1 0 21:36 13.04.2020
4759 Haze 26 1010 88 5000 2.6 160 21:18 13.04.2020
4760 Clouds 26 1010 88 6000 3.1 160 20:41 13.04.2020
4761 Clouds 26 1010 88 6000 3.1 160 20:20 13.04.2020
4762 Clouds 26 1010 88 6000 3.1 160 20:20 13.04.2020
4763 Clouds 27 1010 83 6000 1 160 19:58 13.04.2020
4764 Clouds 27 1010 83 6000 2.1 170 19:37 13.04.2020
4765 Clouds 27 1010 83 6000 2.1 170 19:37 13.04.2020
4766 Clouds 27 1010 83 6000 2.1 170 19:37 13.04.2020
4767 Clouds 27 1011 83 6000 2.1 140 19:19 13.04.2020
4768 Clouds 27 1011 83 6000 2.1 140 19:19 13.04.2020
4769 Clouds 27 1011 83 6000 2.1 140 18:57 13.04.2020
4770 Clouds 27 1011 83 6000 2.1 140 18:38 13.04.2020
4771 Thunderstorm 27 1011 88 6000 2.1 0 18:19 13.04.2020
4772 Thunderstorm 27 1011 88 6000 2.1 0 17:57 13.04.2020
4773 Thunderstorm 27 1011 88 5000 3.6 150 17:37 13.04.2020
4774 Thunderstorm 27 1011 88 5000 3.6 150 17:19 13.04.2020
4775 Rain 27 1010 94 5000 2.6 150 16:58 13.04.2020
4776 Rain 27 1010 94 5000 2.6 150 16:38 13.04.2020
4777 Rain 27 1010 94 5000 2.6 150 16:19 13.04.2020
4778 Rain 27 1010 94 5000 2.6 150 15:56 13.04.2020
4779 Rain 27 1010 94 5000 2.6 140 15:37 13.04.2020
4780 Rain 28 1010 88 5000 1.5 90 15:18 13.04.2020
4781 Rain 27 1009 88 5000 2.6 90 14:41 13.04.2020
4782 Rain 27 1009 88 5000 2.6 90 14:22 13.04.2020
4783 Rain 26 1009 94 4000 2.1 60 13:56 13.04.2020
4784 Thunderstorm 26 1008 94 4000 2.1 330 13:38 13.04.2020
4785 Thunderstorm 26 1008 100 3000 2.6 360 13:20 13.04.2020
4786 Thunderstorm 26 1008 100 3000 2.6 360 12:59 13.04.2020
4787 Thunderstorm 26 1008 94 2000 4.1 240 12:40 13.04.2020
4788 Thunderstorm 28 1007 88 3000 5.1 180 12:20 13.04.2020
4789 Thunderstorm 29 1007 88 3000 5.1 180 11:58 13.04.2020
4790 Rain 30 1006 70 5000 2.1 30 11:40 13.04.2020
4791 Rain 32 1006 63 5000 2.6 30 11:18 13.04.2020
4792 Rain 31 1006 63 5000 2.6 30 11:18 13.04.2020
4793 Rain 33 1006 63 5000 2.6 30 10:55 13.04.2020
4794 Rain 32 1006 59 6000 3.6 30 10:37 13.04.2020
4795 Clouds 31 1007 66 6000 3.1 30 10:18 13.04.2020
4796 Clouds 30 1007 66 6000 3.1 40 09:44 13.04.2020
4797 Clouds 31 1007 66 6000 3.1 40 09:25 13.04.2020
4798 Rain 33 1008 63 5000 3.1 30 08:47 13.04.2020
4799 Rain 33 1008 63 5000 3.1 30 08:28 13.04.2020
4800 Rain 32 1009 66 5000 5.7 30 07:58 13.04.2020
4801 Rain 32 1009 66 5000 5.1 360 07:38 13.04.2020
4802 Rain 32 1010 62 5000 2.1 90 07:19 13.04.2020
4803 Haze 32 1010 70 5000 2.1 30 06:46 13.04.2020
4804 Haze 31 1011 74 5000 4.1 30 05:53 13.04.2020
4805 Haze 29 1011 70 5000 3.1 70 05:27 13.04.2020
4806 Haze 30 1011 74 5000 2.6 40 04:50 13.04.2020
4807 Haze 30 1011 83 4000 3.1 90 04:20 13.04.2020
4808 Mist 29 1011 94 3000 2.6 90 03:44 13.04.2020
4809 Mist 26 1011 100 2000 1.42 162 02:49 13.04.2020
4810 Mist 26 1010 100 2000 1.34 163 01:49 13.04.2020
4811 Mist 26 1010 100 2500 1.34 163 01:30 13.04.2020
4812 Mist 25 1009 100 2500 1.34 163 00:55 13.04.2020
4813 Mist 25 1009 100 2500 1.34 163 00:36 13.04.2020
4814 Mist 25 1009 100 3000 1.05 203 00:18 13.04.2020
4815 Mist 25 1009 100 3000 1.05 203 23:42 12.04.2020
4816 Mist 25 1009 100 3000 1.05 203 23:22 12.04.2020
4817 Mist 25 1009 94 3500 1.5 110 22:55 12.04.2020
4818 Mist 25 1009 94 4500 2.1 0 22:36 12.04.2020
4819 Mist 25 1009 94 4500 2.1 0 22:18 12.04.2020
4820 Clouds 25 1009 94 5000 2.1 0 21:39 12.04.2020
4821 Clouds 25 1010 94 6000 2.1 200 21:20 12.04.2020
4822 Clouds 25 1010 94 6000 2.1 200 20:55 12.04.2020
4823 Clouds 25 1010 94 6000 2.1 230 20:37 12.04.2020
4824 Clouds 25 1010 94 6000 2.1 230 20:19 12.04.2020
4825 Rain 25 1010 94 6000 1.5 0 19:41 12.04.2020
4826 Rain 26 1011 94 4000 2.6 270 19:20 12.04.2020
4827 Rain 26 1011 94 4000 2.6 270 18:59 12.04.2020
4828 Rain 26 1011 94 4000 2.6 240 18:40 12.04.2020
4829 Rain 26 1011 94 4000 2.6 240 18:20 12.04.2020
4830 Haze 26 1010 94 5000 2.1 220 17:55 12.04.2020
4831 Haze 27 1010 94 5000 2.1 220 17:37 12.04.2020
4832 Haze 27 1010 94 5000 2.1 220 17:37 12.04.2020
4833 Haze 27 1010 94 5000 2.1 220 17:18 12.04.2020
4834 Rain 27 1011 94 5000 2.1 270 16:54 12.04.2020
4835 Rain 27 1011 94 5000 2.1 270 16:54 12.04.2020
4836 Clouds 27 1010 74 7000 2.1 290 16:36 12.04.2020
4837 Clouds 27 1010 74 6000 1 350 16:18 12.04.2020
4838 Clouds 27 1010 74 6000 1.5 20 15:41 12.04.2020
4839 Thunderstorm 28 1009 88 1800 6.7 70 15:21 12.04.2020
4840 Thunderstorm 28 1009 88 1800 6.7 70 14:39 12.04.2020
4841 Rain 29 1008 83 3000 2.1 270 14:21 12.04.2020
4842 Rain 29 1008 83 3000 2.1 270 13:58 12.04.2020
4843 Rain 29 1008 83 3000 2.6 30 13:37 12.04.2020
4844 Rain 29 1007 83 3000 3.1 90 13:18 12.04.2020
4845 Rain 28 1007 83 4000 2.6 80 12:46 12.04.2020
4846 Rain 30 1007 89 3000 2.6 70 12:22 12.04.2020
4847 Rain 31 1007 89 3000 2.6 70 11:59 12.04.2020
4848 Rain 31 1007 89 3000 3.6 110 11:38 12.04.2020
4849 Rain 30 1007 94 2500 2.1 110 11:19 12.04.2020
4850 Rain 31 1007 94 2500 2.1 110 10:56 12.04.2020
4851 Rain 31 1007 94 2500 3.1 100 10:38 12.04.2020
4852 Thunderstorm 31 1007 94 1500 3.6 120 10:20 12.04.2020
4853 Thunderstorm 32 1007 94 1500 3.6 120 09:56 12.04.2020
4854 Rain 33 1007 66 4000 6.2 40 09:37 12.04.2020
4855 Rain 33 1007 66 4000 6.2 40 09:19 12.04.2020
4856 Rain 32 1007 66 4000 6.2 40 08:50 12.04.2020
4857 Rain 33 1008 66 5000 5.1 10 08:30 12.04.2020
4858 Rain 34 1009 59 5000 3.6 20 07:47 12.04.2020
4859 Rain 33 1009 59 4000 2.6 350 07:19 12.04.2020
4860 Haze 32 1010 62 4000 1.5 230 06:54 12.04.2020
4861 Haze 32 1010 62 4000 1.5 230 06:28 12.04.2020
4862 Haze 32 1011 62 4000 1.5 240 05:48 12.04.2020
4863 Haze 32 1011 66 4000 1.5 340 04:32 12.04.2020
4864 Haze 29 1011 79 2500 2.33 124 03:30 12.04.2020
4865 Haze 28 1010 83 5000 3.1 170 02:48 12.04.2020
4866 Mist 27 1009 94 2000 2.14 134 02:29 12.04.2020
4867 Mist 26 1009 94 2000 2.14 134 01:23 12.04.2020
4868 Mist 26 1009 88 3000 2.1 270 00:43 12.04.2020
4869 Mist 26 1009 88 4000 2.1 220 00:21 12.04.2020
4870 Mist 26 1009 88 4000 2.1 220 23:59 11.04.2020
4871 Mist 26 1009 88 4000 2.1 190 23:40 11.04.2020
4872 Mist 26 1009 88 4000 2.1 190 23:22 11.04.2020
4873 Mist 26 1009 88 4000 2.1 190 23:22 11.04.2020
4874 Haze 26 1010 88 5000 1.5 210 22:39 11.04.2020
4875 Haze 26 1010 88 5000 1.5 210 22:20 11.04.2020
4876 Haze 26 1010 88 5000 1.5 210 21:56 11.04.2020
4877 Haze 26 1010 88 5000 2.1 190 21:37 11.04.2020
4878 Haze 26 1010 88 5000 2.1 190 21:18 11.04.2020
4879 Haze 26 1010 88 5000 2.1 190 21:18 11.04.2020
4880 Clouds 27 1010 83 6000 2.6 190 20:56 11.04.2020
4881 Clouds 27 1010 78 8000 2.1 0 20:38 11.04.2020
4882 Clouds 27 1010 78 8000 2.1 0 20:19 11.04.2020
4883 Clouds 27 1011 78 7000 2.1 230 19:57 11.04.2020
4884 Clouds 27 1011 78 7000 2.1 0 19:38 11.04.2020
4885 Clouds 26 1011 78 7000 3.6 220 19:18 11.04.2020
4886 Clouds 26 1011 78 7000 3.6 220 19:18 11.04.2020
4887 Clouds 26 1011 78 7000 3.6 220 19:18 11.04.2020
4888 Clouds 26 1011 78 7000 3.6 220 18:55 11.04.2020
4889 Clouds 26 1011 78 6000 3.6 220 18:37 11.04.2020
4890 Haze 26 1012 74 5000 3.1 230 18:18 11.04.2020
4891 Haze 27 1012 74 5000 3.1 230 17:58 11.04.2020
4892 Haze 27 1012 83 4000 3.6 260 17:38 11.04.2020
4893 Haze 27 1012 83 4000 3.6 260 17:19 11.04.2020
4894 Haze 27 1011 74 4500 1 0 16:43 11.04.2020
4895 Haze 27 1011 74 4500 1 0 16:22 11.04.2020
4896 Haze 27 1011 74 4500 1 0 16:22 11.04.2020
4897 Clouds 27 1011 74 8000 1 20 15:54 11.04.2020
4898 Haze 27 1010 94 4000 2.1 220 15:36 11.04.2020
4899 Haze 27 1010 94 4000 2.1 220 15:18 11.04.2020
4900 Haze 28 1010 94 4000 2.1 220 14:41 11.04.2020
4901 Haze 28 1010 94 4000 2.1 220 14:41 11.04.2020
4902 Haze 27 1010 94 4000 2.1 220 14:23 11.04.2020
4903 Haze 28 1009 83 5000 1.31 19 13:58 11.04.2020
4904 Haze 28 1009 83 5000 1.31 19 13:38 11.04.2020
4905 Haze 28 1008 79 5000 1.5 230 13:18 11.04.2020
4906 Haze 29 1008 79 5000 1.5 230 12:41 11.04.2020
4907 Rain 30 1008 62 5000 3.6 20 12:18 11.04.2020
4908 Rain 30 1008 62 5000 3.6 20 11:56 11.04.2020
4909 Rain 30 1008 62 5000 3.6 20 11:38 11.04.2020
4910 Rain 30 1008 62 6000 4.1 60 11:18 11.04.2020
4911 Rain 31 1008 62 6000 4.1 60 10:43 11.04.2020
4912 Rain 32 1008 62 6000 4.1 60 10:22 11.04.2020
4913 Clouds 33 1008 52 6000 4.1 50 09:59 11.04.2020
4914 Clouds 33 1008 52 6000 2.1 230 09:39 11.04.2020
4915 Clouds 33 1010 52 6000 2.1 110 09:21 11.04.2020
4916 Clouds 33 1010 52 6000 2.1 110 08:47 11.04.2020
4917 Clouds 33 1010 52 6000 2.1 110 08:28 11.04.2020
4918 Clouds 33 1010 52 6000 1.5 130 07:52 11.04.2020
4919 Clouds 33 1011 55 6000 1.5 140 07:34 11.04.2020
4920 Clouds 32 1012 58 6000 2.53 350 06:49 11.04.2020
4921 Clouds 32 1012 55 6000 1.1 19 06:19 11.04.2020
4922 Clouds 31 1012 55 6000 1.1 19 05:52 11.04.2020
4923 Haze 29 1012 83 5000 1.5 180 03:41 11.04.2020
4924 Haze 27 1012 94 3000 1.5 150 02:24 11.04.2020
4925 Mist 25 1012 100 2000 1.5 200 01:24 11.04.2020
4926 Mist 25 1011 100 2000 1.5 150 00:44 11.04.2020
4927 Mist 25 1011 100 2000 2.4 181 00:20 11.04.2020
4928 Mist 25 1011 100 2000 2.4 181 23:58 10.04.2020
4929 Mist 25 1011 100 2000 2.4 181 23:40 10.04.2020
4930 Mist 25 1011 100 2000 2.4 181 23:19 10.04.2020
4931 Mist 24 1011 94 5000 2.1 210 22:55 10.04.2020
4932 Mist 24 1011 94 4800 2.6 250 22:36 10.04.2020
4933 Haze 24 1011 94 4000 1 270 22:18 10.04.2020
4934 Haze 24 1011 94 5000 2.6 300 21:41 10.04.2020
4935 Haze 26 1011 88 5000 2.1 300 21:20 10.04.2020
4936 Haze 26 1011 88 5000 2.1 300 20:56 10.04.2020
4937 Haze 25 1012 88 5000 2.1 280 20:37 10.04.2020
4938 Rain 25 1012 88 5000 1 0 20:19 10.04.2020
4939 Rain 25 1012 88 5000 2.1 0 19:54 10.04.2020
4940 Rain 25 1012 88 5000 2.1 0 19:36 10.04.2020
4941 Thunderstorm 25 1013 94 5000 3.1 170 19:18 10.04.2020
4942 Thunderstorm 25 1013 94 5000 3.1 170 18:54 10.04.2020
4943 Thunderstorm 25 1013 94 2000 2.1 30 18:36 10.04.2020
4944 Thunderstorm 27 1013 94 2000 2.1 30 18:18 10.04.2020
4945 Thunderstorm 27 1013 94 2000 2.1 30 17:55 10.04.2020
4946 Thunderstorm 26 1013 94 2000 2.1 30 17:37 10.04.2020
4947 Haze 26 1013 88 5000 1.5 250 17:18 10.04.2020
4948 Haze 26 1013 88 5000 1.5 250 17:18 10.04.2020
4949 Haze 27 1013 88 5000 2.6 190 16:41 10.04.2020
4950 Haze 27 1013 88 5000 2.6 190 16:22 10.04.2020
4951 Haze 27 1012 88 5000 2.1 190 15:58 10.04.2020
4952 Haze 27 1012 88 5000 2.1 190 15:58 10.04.2020
4953 Rain 27 1011 88 3000 2.1 260 15:38 10.04.2020
4954 Rain 27 1011 88 3000 2.1 260 15:20 10.04.2020
4955 Rain 27 1011 88 3000 2.1 260 14:58 10.04.2020
4956 Rain 27 1011 88 3000 2.1 260 14:39 10.04.2020
4957 Rain 27 1011 88 3000 2.1 260 14:20 10.04.2020
4958 Rain 26 1010 88 3000 4.1 260 13:45 10.04.2020
4959 Rain 26 1010 88 3000 4.1 260 13:22 10.04.2020
4960 Rain 26 1009 94 3000 6.2 240 12:55 10.04.2020
4961 Thunderstorm 26 1009 94 2000 6.7 270 12:36 10.04.2020
4962 Thunderstorm 26 1009 94 2000 6.2 300 12:18 10.04.2020
4963 Thunderstorm 28 1009 94 2000 2.6 270 11:42 10.04.2020
4964 Thunderstorm 29 1009 94 2000 2.6 270 11:23 10.04.2020
4965 Thunderstorm 29 1008 88 3000 3.1 240 10:56 10.04.2020
4966 Rain 31 1008 66 3000 4.1 10 10:37 10.04.2020
4967 Rain 31 1008 63 4000 4.6 10 10:19 10.04.2020
4968 Rain 32 1009 63 5000 4.1 30 09:43 10.04.2020
4969 Rain 31 1009 63 5000 4.1 30 09:20 10.04.2020
4970 Rain 31 1009 63 5000 4.1 30 09:20 10.04.2020
4971 Rain 33 1010 63 5000 4.6 330 08:47 10.04.2020
4972 Rain 33 1010 63 5000 4.6 330 08:27 10.04.2020
4973 Rain 32 1011 62 5000 1.5 240 07:49 10.04.2020
4974 Rain 32 1011 62 5000 1.5 240 07:30 10.04.2020
4975 Haze 32 1012 59 5000 2.6 250 06:59 10.04.2020
4976 Haze 32 1012 63 5000 2.1 270 06:30 10.04.2020
4977 Haze 31 1013 62 5000 1.5 240 05:59 10.04.2020
4978 Haze 30 1013 70 5000 1.5 300 05:25 10.04.2020
4979 Haze 31 1013 62 5000 2.1 360 04:53 10.04.2020
4980 Haze 28 1013 79 4000 1.5 180 03:34 10.04.2020
4981 Mist 26 1012 94 3000 1.5 240 02:51 10.04.2020
4982 Mist 26 1012 94 3000 1.5 240 02:32 10.04.2020
4983 Mist 25 1011 100 3000 1.5 220 01:46 10.04.2020
4984 Haze 26 1011 94 4000 1.5 220 01:25 10.04.2020
4985 Haze 25 1011 94 4000 1.5 220 00:46 10.04.2020
4986 Haze 25 1010 94 4000 1.5 160 00:20 10.04.2020
4987 Haze 26 1011 94 4000 1.5 240 23:42 09.04.2020
4988 Haze 26 1011 94 4000 1.5 240 23:24 09.04.2020
4989 Haze 26 1011 88 4500 1 180 22:57 09.04.2020
4990 Thunderstorm 26 1011 88 4600 2.1 210 22:39 09.04.2020
4991 Thunderstorm 26 1011 88 4600 2.1 210 22:21 09.04.2020
4992 Haze 25 1011 88 5000 1.5 190 21:38 09.04.2020
4993 Haze 26 1011 88 5000 1.5 190 21:20 09.04.2020
4994 Haze 25 1011 83 5000 1 210 20:47 09.04.2020
4995 Haze 25 1011 83 5000 1 210 20:23 09.04.2020
4996 Haze 25 1011 83 5000 2.1 170 19:59 09.04.2020
4997 Haze 26 1012 83 5000 2.6 190 19:39 09.04.2020
4998 Haze 26 1012 83 5000 2.6 170 19:21 09.04.2020
4999 Haze 26 1012 83 5000 3.1 170 18:42 09.04.2020
5000 Haze 26 1012 83 5000 2.6 170 18:21 09.04.2020
5001 Haze 26 1012 83 5000 2.6 170 17:58 09.04.2020
5002 Haze 26 1012 78 5000 2.6 190 17:39 09.04.2020
5003 Haze 26 1012 78 5000 1 0 17:19 09.04.2020
5004 Haze 26 1012 78 5000 1 0 17:19 09.04.2020
5005 Clouds 26 1012 78 6000 2.6 210 16:40 09.04.2020
5006 Clouds 27 1012 78 6000 2.6 210 16:20 09.04.2020
5007 Clouds 27 1011 78 6000 2.6 0 15:56 09.04.2020
5008 Rain 27 1011 83 5000 2.6 130 15:37 09.04.2020
5009 Rain 27 1011 83 5000 2.6 130 15:19 09.04.2020
5010 Rain 27 1011 83 5000 2.6 130 14:43 09.04.2020
5011 Rain 28 1011 74 5000 2.6 60 14:21 09.04.2020
5012 Rain 28 1011 74 5000 2.6 60 13:59 09.04.2020
5013 Rain 28 1010 74 5000 2.6 40 13:40 09.04.2020
5014 Haze 28 1010 74 5000 1.5 20 13:22 09.04.2020
5015 Haze 28 1010 74 5000 1.5 20 12:55 09.04.2020
5016 Rain 29 1010 70 5000 1.5 330 12:36 09.04.2020
5017 Rain 30 1009 70 5000 2.6 30 12:18 09.04.2020
5018 Rain 30 1009 62 5000 5.1 360 11:43 09.04.2020
5019 Rain 30 1008 62 5000 3.1 330 11:20 09.04.2020
5020 Rain 30 1008 62 5000 3.1 330 10:59 09.04.2020
5021 Rain 31 1009 70 5000 3.6 360 10:41 09.04.2020
5022 Rain 31 1009 66 5000 2.1 270 10:21 09.04.2020
5023 Rain 31 1009 66 5000 2.1 270 09:57 09.04.2020
5024 Rain 32 1009 66 5000 2.1 300 09:38 09.04.2020
5025 Rain 32 1009 66 5000 2.1 300 09:20 09.04.2020
5026 Rain 31 1011 70 5000 2.1 300 08:44 09.04.2020
5027 Rain 31 1011 70 5000 2.1 300 08:23 09.04.2020
5028 Rain 31 1011 70 5000 2.1 300 07:57 09.04.2020
5029 Rain 30 1011 70 5000 1.5 330 07:28 09.04.2020
5030 Rain 30 1012 70 5000 3.1 360 06:57 09.04.2020
5031 Rain 30 1012 70 5000 1.5 360 06:25 09.04.2020
5032 Haze 31 1012 66 5000 1.5 240 05:46 09.04.2020
5033 Haze 30 1012 74 5000 1.5 120 04:26 09.04.2020
5034 Haze 28 1011 88 3000 1.54 115 02:33 09.04.2020
5035 Haze 26 1011 94 3000 1.5 150 01:44 09.04.2020
5036 Haze 26 1011 94 4000 1.54 115 01:24 09.04.2020
5037 Haze 26 1010 94 4000 1.5 220 00:43 09.04.2020
5038 Haze 25 1010 88 2300 2.6 230 00:20 09.04.2020
5039 Haze 25 1010 88 2300 2.6 230 23:59 08.04.2020
5040 Haze 25 1010 88 2300 2.6 230 23:41 08.04.2020
5041 Haze 25 1011 88 2000 2.6 250 23:21 08.04.2020
5042 Haze 25 1010 88 2000 1.5 260 22:44 08.04.2020
5043 Haze 25 1011 88 2000 2.1 290 22:24 08.04.2020
5044 Haze 25 1010 88 3000 2.1 300 21:57 08.04.2020
5045 Haze 25 1010 88 3000 2.1 300 21:39 08.04.2020
5046 Haze 26 1011 83 3000 2.1 250 21:20 08.04.2020
5047 Haze 26 1011 83 3000 2.1 250 20:58 08.04.2020
5048 Haze 26 1011 83 4000 3.1 280 20:39 08.04.2020
5049 Haze 26 1011 83 4000 3.1 280 20:20 08.04.2020
5050 Clouds 26 1011 78 7000 1 180 19:56 08.04.2020
5051 Clouds 27 1011 78 7000 1 180 19:37 08.04.2020
5052 Clouds 26 1012 78 7000 1 100 19:19 08.04.2020
5053 Clouds 26 1012 78 7000 1 100 19:19 08.04.2020
5054 Clouds 27 1012 78 7000 1 100 18:42 08.04.2020
5055 Clouds 27 1012 78 7000 1 110 18:23 08.04.2020
5056 Clouds 27 1012 74 7000 1.5 40 17:56 08.04.2020
5057 Clouds 27 1012 74 7000 1.5 40 17:38 08.04.2020
5058 Clouds 27 1012 78 7000 1 0 17:18 08.04.2020
5059 Clouds 27 1012 78 7000 1 0 16:42 08.04.2020
5060 Clouds 28 1010 74 6000 1.5 330 16:23 08.04.2020
5061 Clouds 27 1011 78 7000 2.1 20 15:55 08.04.2020
5062 Clouds 27 1011 78 7000 2.1 20 15:37 08.04.2020
5063 Clouds 27 1011 78 7000 2.1 20 15:18 08.04.2020
5064 Clouds 28 1010 74 10000 2.1 20 14:42 08.04.2020
5065 Clouds 28 1009 66 6000 1.5 330 14:24 08.04.2020
5066 Clouds 29 1009 66 6000 1.5 330 13:54 08.04.2020
5067 Clouds 29 1009 66 6000 1.5 330 13:54 08.04.2020
5068 Clouds 29 1009 66 6000 1.5 330 13:36 08.04.2020
5069 Rain 29 1009 59 6000 3.1 350 13:18 08.04.2020
5070 Clouds 30 1008 66 6000 1.5 350 12:41 08.04.2020
5071 Clouds 31 1007 62 6000 3.2 335 12:18 08.04.2020
5072 Clouds 31 1007 62 6000 3.2 335 12:18 08.04.2020
5073 Clouds 32 1007 62 6000 3.2 335 11:56 08.04.2020
5074 Clouds 32 1007 62 6000 3.2 335 11:38 08.04.2020
5075 Clouds 32 1007 62 6000 1.5 190 11:19 08.04.2020
5076 Rain 32 1008 62 6000 1.5 140 10:55 08.04.2020
5077 Rain 31 1008 62 6000 1.5 140 10:37 08.04.2020
5078 Rain 31 1008 70 6000 2.6 10 10:18 08.04.2020
5079 Rain 31 1008 70 6000 2.6 10 10:18 08.04.2020
5080 Rain 31 1009 70 6000 2.6 250 09:42 08.04.2020
5081 Rain 32 1009 70 6000 2.6 250 09:21 08.04.2020
5082 Rain 32 1009 74 6000 1.5 280 08:59 08.04.2020
5083 Clouds 31 1010 79 6000 3.6 270 08:41 08.04.2020
5084 Clouds 30 1010 79 6000 3.6 270 08:21 08.04.2020
5085 Rain 30 1010 66 6000 2.6 340 07:43 08.04.2020
5086 Rain 30 1012 74 5000 2.1 360 07:22 08.04.2020
5087 Rain 30 1012 74 5000 2.1 360 06:48 08.04.2020
5088 Clouds 31 1012 62 6000 4.1 260 05:49 08.04.2020
5089 Clouds 29 1011 70 6000 3.26 290 03:34 08.04.2020
5090 Clouds 26 1011 83 6000 2.51 234 02:41 08.04.2020
5091 Clouds 26 1010 88 6000 2.51 234 02:19 08.04.2020
5092 Clouds 25 1010 88 6000 2.51 234 01:30 08.04.2020
5093 Clouds 25 1009 88 6000 2.51 234 00:59 08.04.2020
5094 Clouds 25 1009 88 6000 2.51 234 00:59 08.04.2020
5095 Clouds 25 1009 83 6000 2.51 234 00:40 08.04.2020
5096 Clouds 26 1009 83 6000 3.03 227 00:20 08.04.2020
5097 Clouds 26 1009 83 6000 1.5 180 23:39 07.04.2020
5098 Clouds 26 1009 83 6000 1.5 180 23:20 07.04.2020
5099 Clouds 26 1009 83 7000 3.1 260 22:57 07.04.2020
5100 Clouds 26 1009 83 7000 3.1 260 22:38 07.04.2020
5101 Clouds 26 1009 83 8000 2.6 240 22:19 07.04.2020
5102 Clouds 26 1009 83 8000 2.6 240 21:56 07.04.2020
5103 Clouds 26 1009 83 8000 2.6 240 21:37 07.04.2020
5104 Clouds 26 1009 83 8000 3.6 230 21:18 07.04.2020
5105 Clouds 26 1010 83 7000 4.1 250 20:55 07.04.2020
5106 Clouds 26 1010 83 7000 4.1 250 20:36 07.04.2020
5107 Clouds 26 1010 83 7000 4.1 250 20:18 07.04.2020
5108 Clouds 26 1010 83 10000 3.6 250 19:55 07.04.2020
5109 Clouds 26 1010 83 10000 4.1 240 19:36 07.04.2020
5110 Clouds 26 1010 83 10000 4.1 240 19:18 07.04.2020
5111 Clouds 26 1010 83 10000 4.1 240 19:18 07.04.2020
5112 Clouds 26 1011 78 10000 3.6 240 18:41 07.04.2020
5113 Clouds 26 1011 78 10000 3.6 240 18:21 07.04.2020
5114 Clouds 26 1010 74 6000 6.7 220 17:57 07.04.2020
5115 Clouds 26 1010 74 6000 6.7 220 17:38 07.04.2020
5116 Clouds 26 1010 74 6000 6.7 220 17:20 07.04.2020
5117 Clouds 26 1010 74 6000 7.7 260 16:44 07.04.2020
5118 Clouds 26 1010 74 6000 7.7 260 16:26 07.04.2020
5119 Clouds 26 1010 74 6000 7.7 250 15:46 07.04.2020
5120 Clouds 27 1009 70 6000 7.7 240 15:27 07.04.2020
5121 Clouds 27 1009 70 6000 7.7 240 14:57 07.04.2020
5122 Clouds 27 1009 70 6000 5.1 270 14:38 07.04.2020
5123 Clouds 27 1009 70 6000 5.1 270 14:20 07.04.2020
5124 Clouds 28 1008 66 6000 4.6 250 13:43 07.04.2020
5125 Clouds 29 1007 66 6000 7.2 260 13:20 07.04.2020
5126 Clouds 30 1007 66 6000 7.2 260 12:58 07.04.2020
5127 Clouds 30 1007 62 6000 6.7 280 12:39 07.04.2020
5128 Clouds 30 1007 62 6000 5.7 320 12:21 07.04.2020
5129 Clouds 30 1007 62 6000 5.7 320 11:58 07.04.2020
5130 Clouds 30 1007 62 6000 5.1 260 11:40 07.04.2020
5131 Clouds 31 1007 62 6000 5.1 260 11:20 07.04.2020
5132 Rain 30 1007 70 6000 6.7 270 10:54 07.04.2020
5133 Rain 30 1007 70 6000 7.2 300 10:36 07.04.2020
5134 Rain 30 1007 62 6000 4.1 270 10:18 07.04.2020
5135 Clouds 31 1008 62 6000 4.1 300 09:40 07.04.2020
5136 Clouds 33 1008 62 6000 3.6 290 09:18 07.04.2020
5137 Clouds 33 1008 59 7000 6.2 270 08:40 07.04.2020
5138 Clouds 33 1008 59 7000 6.2 270 08:22 07.04.2020
5139 Clouds 32 1009 62 7000 6.2 240 07:57 07.04.2020
5140 Clouds 31 1010 62 7000 5.7 250 07:38 07.04.2020
5141 Clouds 31 1010 66 7000 5.7 240 07:20 07.04.2020
5142 Clouds 31 1010 66 7000 4.1 210 06:42 07.04.2020
5143 Clouds 31 1011 62 7000 4.1 240 06:18 07.04.2020
5144 Clouds 30 1012 66 7000 4.6 220 05:29 07.04.2020
5145 Clouds 30 1012 74 7000 5.1 230 04:35 07.04.2020
5146 Rain 28 1011 78 7000 4.1 240 03:24 07.04.2020
5147 Rain 26 1011 83 7000 2.1 270 02:47 07.04.2020
5148 Haze 25 1010 94 5000 1.5 240 01:47 07.04.2020
5149 Haze 25 1010 94 5000 1.5 240 01:23 07.04.2020
5150 Haze 25 1009 94 5000 1.5 230 00:27 07.04.2020
5151 Haze 25 1009 94 5000 2.1 240 23:44 06.04.2020
5152 Haze 25 1009 94 5000 2.1 240 23:23 06.04.2020
5153 Haze 25 1010 88 5000 2.6 280 22:57 06.04.2020
5154 Haze 25 1010 88 5000 2.6 280 22:37 06.04.2020
5155 Haze 25 1010 88 5000 1.5 290 22:19 06.04.2020
5156 Haze 25 1010 88 5000 1.5 290 21:56 06.04.2020
5157 Haze 25 1010 88 5000 3.6 270 21:38 06.04.2020
5158 Clouds 25 1010 88 6000 2.6 280 21:18 06.04.2020
5159 Rain 25 1010 88 5000 3.6 270 20:42 06.04.2020
5160 Rain 25 1010 88 5000 3.6 270 20:23 06.04.2020
5161 Rain 25 1011 88 5000 3.1 270 19:59 06.04.2020
5162 Rain 25 1011 88 5000 2.6 280 19:40 06.04.2020
5163 Rain 25 1011 88 5000 2.6 270 19:22 06.04.2020
5164 Rain 25 1011 88 5000 2.6 270 18:56 06.04.2020
5165 Rain 25 1012 88 5000 3.6 260 18:37 06.04.2020
5166 Rain 26 1012 88 5000 2.6 290 18:19 06.04.2020
5167 Rain 26 1012 88 5000 2.1 280 17:42 06.04.2020
5168 Rain 24 1011 88 6000 1.5 270 17:19 06.04.2020
5169 Rain 24 1011 88 6000 1.5 270 17:19 06.04.2020
5170 Rain 24 1011 88 6000 1.5 270 17:19 06.04.2020
5171 Rain 24 1011 88 6000 1 0 16:50 06.04.2020
5172 Rain 24 1011 88 6000 1 0 16:31 06.04.2020
5173 Rain 24 1011 88 6000 2.6 220 15:41 06.04.2020
5174 Rain 25 1009 94 4000 2.1 230 13:46 06.04.2020
5175 Rain 25 1009 94 4000 1.5 220 13:24 06.04.2020
5176 Thunderstorm 25 1009 100 3000 1.5 180 13:02 06.04.2020
5177 Thunderstorm 26 1009 94 3000 1.5 170 12:22 06.04.2020
5178 Thunderstorm 26 1009 100 3000 1.5 140 11:54 06.04.2020
5179 Thunderstorm 26 1009 100 3000 1.5 140 11:54 06.04.2020
5180 Thunderstorm 26 1009 100 2000 2.6 170 11:33 06.04.2020
5181 Thunderstorm 26 1009 100 2000 2.6 170 11:33 06.04.2020
5182 Thunderstorm 26 1009 100 2000 2.6 170 11:33 06.04.2020
5183 Thunderstorm 26 1009 100 2000 2.6 170 11:33 06.04.2020
5184 Thunderstorm 26 1009 100 2000 2.6 170 11:33 06.04.2020
5185 Thunderstorm 26 1008 94 2000 2.6 200 10:52 06.04.2020
5186 Thunderstorm 26 1008 94 2000 2.6 200 10:52 06.04.2020
5187 Thunderstorm 27 1008 94 2000 2.6 200 10:52 06.04.2020
5188 Thunderstorm 27 1008 94 2000 2.6 200 10:52 06.04.2020
5189 Thunderstorm 27 1008 94 2000 2.6 200 10:52 06.04.2020
5190 Thunderstorm 28 1008 88 1800 6.2 200 10:22 06.04.2020
5191 Thunderstorm 30 1007 70 5000 3.6 10 09:47 06.04.2020
5192 Thunderstorm 30 1007 70 5000 3.6 10 09:47 06.04.2020
5193 Thunderstorm 30 1007 70 5000 3.6 10 09:47 06.04.2020
5194 Clouds 32 1008 66 6000 3.1 350 09:21 06.04.2020
5195 Clouds 31 1008 66 6000 3.1 360 08:54 06.04.2020
5196 Rain 32 1008 59 6000 4.6 360 08:30 06.04.2020
5197 Clouds 32 1009 59 6000 2.1 260 07:39 06.04.2020
5198 Clouds 32 1010 62 6000 2.1 270 06:47 06.04.2020
5199 Clouds 31 1011 66 6000 2.6 270 06:24 06.04.2020
5200 Haze 30 1011 74 5000 2.1 250 04:20 06.04.2020
5201 Haze 27 1011 88 4000 1.5 280 02:59 06.04.2020
5202 Haze 26 1010 94 4000 2.1 190 02:36 06.04.2020
5203 Mist 26 1009 94 3000 1.5 270 01:47 06.04.2020
5204 Thunderstorm 25 1009 88 5000 2.6 250 00:46 06.04.2020
5205 Thunderstorm 25 1009 88 5000 2.6 250 00:46 06.04.2020
5206 Thunderstorm 25 1010 88 5000 3.1 260 00:24 06.04.2020
5207 Thunderstorm 25 1010 88 5000 2.6 250 23:44 05.04.2020
5208 Haze 25 1009 88 5000 3.6 260 23:26 05.04.2020
5209 Haze 25 1010 88 5000 4.1 260 22:56 05.04.2020
5210 Haze 26 1010 88 4200 3.1 280 22:38 05.04.2020
5211 Haze 26 1010 88 4200 3.1 280 22:38 05.04.2020
5212 Haze 26 1010 88 4200 3.1 280 22:38 05.04.2020
5213 Haze 26 1010 88 4200 3.1 280 22:38 05.04.2020
5214 Haze 26 1010 88 4200 3.1 280 22:18 05.04.2020
5215 Haze 26 1010 88 5000 2.6 290 21:55 05.04.2020
5216 Haze 26 1010 88 5000 3.6 270 21:37 05.04.2020
5217 Haze 26 1010 88 5000 3.6 270 21:18 05.04.2020
5218 Haze 26 1011 88 5000 2.1 210 20:20 05.04.2020
5219 Haze 26 1011 88 5000 2.1 210 20:20 05.04.2020
5220 Haze 26 1012 88 5000 1.5 0 19:39 05.04.2020
5221 Haze 26 1012 88 5000 1.5 0 19:21 05.04.2020
5222 Haze 27 1012 83 5000 1 330 18:44 05.04.2020
5223 Haze 27 1012 88 5000 1.5 270 18:44 05.04.2020
5224 Haze 27 1012 83 5000 1 330 18:44 05.04.2020
5225 Haze 27 1012 88 5000 1.5 270 18:44 05.04.2020
5226 Haze 26 1012 88 5000 2.1 240 17:57 05.04.2020
5227 Haze 27 1012 83 5000 2.6 240 17:39 05.04.2020
5228 Haze 27 1012 83 5000 2.6 240 17:39 05.04.2020
5229 Haze 27 1012 83 5000 2.6 240 17:39 05.04.2020
5230 Haze 27 1012 83 5000 2.6 240 17:20 05.04.2020
5231 Haze 27 1012 83 5000 2.6 240 17:20 05.04.2020
5232 Haze 27 1012 83 5000 2.6 240 17:20 05.04.2020
5233 Haze 27 1012 83 5000 2.6 240 17:20 05.04.2020
5234 Haze 27 1012 83 5000 2.6 240 17:20 05.04.2020
5235 Haze 27 1012 78 5000 2.1 0 16:21 05.04.2020
5236 Clouds 27 1011 78 6000 2.1 230 15:53 05.04.2020
5237 Clouds 26 1011 83 7000 2.6 270 15:33 05.04.2020
5238 Haze 26 1010 88 5000 2.1 210 14:57 05.04.2020
5239 Haze 26 1010 88 5000 2.1 210 14:55 05.04.2020
5240 Haze 26 1010 88 5000 2.1 210 14:33 05.04.2020
5241 Haze 26 1010 88 5000 2.1 210 14:28 05.04.2020
5242 Haze 26 1010 88 5000 2.1 210 14:28 05.04.2020
5243 Haze 26 1010 88 5000 2.1 210 14:28 05.04.2020
5244 Haze 26 1010 88 5000 2.1 210 14:27 05.04.2020
5245 Rain 26 1009 88 5000 2.6 160 13:44 05.04.2020
5246 Rain 26 1009 88 5000 2.6 160 13:44 05.04.2020
5247 Rain 27 1009 78 5000 2.1 270 12:54 05.04.2020
5248 Rain 27 1009 78 5000 2.1 270 12:54 05.04.2020
5249 Rain 27 1009 78 5000 2.1 270 12:54 05.04.2020
5250 Rain 27 1009 78 5000 2.1 270 12:54 05.04.2020
5251 Rain 27 1009 78 5000 2.1 270 12:54 05.04.2020
5252 Rain 27 1008 78 5000 3.1 240 11:43 05.04.2020
5253 Rain 27 1008 78 5000 2.1 180 11:21 05.04.2020
5254 Rain 27 1008 78 5000 2.1 180 11:21 05.04.2020
5255 Rain 27 1008 74 5000 2.1 220 10:59 05.04.2020
5256 Rain 27 1008 83 5000 3.1 240 10:40 05.04.2020
5257 Rain 27 1008 83 5000 3.1 240 10:40 05.04.2020
5258 Rain 28 1008 83 5000 3.1 240 10:18 05.04.2020
5259 Clouds 30 1008 66 6000 3.6 360 09:43 05.04.2020
5260 Clouds 31 1008 66 6000 3.6 360 09:24 05.04.2020
5261 Clouds 31 1008 66 6000 3.6 360 09:24 05.04.2020
5262 Clouds 31 1008 66 6000 3.6 360 09:24 05.04.2020
5263 Clouds 31 1008 66 6000 3.6 360 09:24 05.04.2020
5264 Clouds 31 1008 66 6000 3.6 360 09:24 05.04.2020
5265 Haze 32 1009 63 5000 3.1 360 07:42 05.04.2020
5266 Haze 30 1011 70 5000 2.6 120 04:36 05.04.2020
5267 Haze 30 1011 74 4000 2.1 210 03:33 05.04.2020
5268 Haze 27 1011 83 4000 2.6 180 02:52 05.04.2020
5269 Haze 26 1010 88 4000 2.6 130 01:48 05.04.2020
5270 Haze 26 1010 88 4000 2.1 150 01:28 05.04.2020
5271 Haze 26 1010 88 4000 2.1 200 00:44 05.04.2020
5272 Haze 26 1009 88 4000 2.1 170 00:21 05.04.2020
5273 Haze 26 1009 88 4000 1.34 235 23:56 04.04.2020
5274 Haze 26 1009 88 4000 1.5 280 23:37 04.04.2020
5275 Haze 26 1009 88 4000 1.5 280 23:19 04.04.2020
5276 Haze 26 1009 88 3000 2.6 270 22:41 04.04.2020
5277 Haze 26 1009 88 3000 1.5 280 22:22 04.04.2020
5278 Haze 26 1009 88 4000 1.5 330 21:59 04.04.2020
5279 Haze 27 1009 83 5000 1.5 320 21:40 04.04.2020
5280 Haze 27 1009 83 5000 1.5 320 21:20 04.04.2020
5281 Haze 27 1009 83 5000 2.1 310 20:59 04.04.2020
5282 Haze 27 1009 78 5000 1 330 20:41 04.04.2020
5283 Haze 27 1009 78 5000 1 330 20:22 04.04.2020
5284 Clouds 27 1010 78 6000 1 190 19:57 04.04.2020
5285 Clouds 27 1011 78 6000 1 190 19:37 04.04.2020
5286 Clouds 27 1011 78 6000 1 190 19:19 04.04.2020
5287 Clouds 27 1011 78 6000 1.5 0 18:56 04.04.2020
5288 Clouds 27 1011 78 6000 2.6 200 18:38 04.04.2020
5289 Clouds 27 1011 78 6000 2.6 200 18:19 04.04.2020
5290 Clouds 27 1012 83 6000 3.6 180 17:56 04.04.2020
5291 Clouds 27 1012 78 6000 3.1 190 17:38 04.04.2020
5292 Clouds 27 1012 78 6000 3.1 190 17:38 04.04.2020
5293 Clouds 27 1012 78 6000 3.1 190 17:38 04.04.2020
5294 Clouds 28 1012 78 6000 3.1 190 17:18 04.04.2020
5295 Clouds 28 1011 78 6000 3.1 160 16:42 04.04.2020
5296 Rain 28 1011 88 4000 3.6 170 16:22 04.04.2020
5297 Rain 28 1011 88 4000 3.6 170 15:55 04.04.2020
5298 Rain 28 1011 88 4000 3.6 170 15:37 04.04.2020
5299 Rain 28 1011 88 4000 3.6 170 15:18 04.04.2020
5300 Rain 28 1011 88 3000 2.6 150 14:43 04.04.2020
5301 Rain 28 1010 83 3000 2.6 160 14:23 04.04.2020
5302 Rain 29 1009 78 4000 3.1 180 13:56 04.04.2020
5303 Rain 29 1009 74 4000 3.6 150 13:38 04.04.2020
5304 Rain 29 1009 74 4000 3.6 150 13:19 04.04.2020
5305 Rain 29 1009 74 4000 3.6 150 13:19 04.04.2020
5306 Rain 30 1009 70 5000 4.1 10 12:45 04.04.2020
5307 Rain 30 1009 70 5000 4.1 10 12:26 04.04.2020
5308 Rain 31 1008 66 6000 4.1 330 11:59 04.04.2020
5309 Rain 31 1008 66 6000 4.1 330 11:59 04.04.2020
5310 Rain 32 1007 62 6000 3.6 320 11:38 04.04.2020
5311 Rain 32 1007 62 6000 3.6 320 11:20 04.04.2020
5312 Clouds 32 1007 62 6000 4.1 360 10:56 04.04.2020
5313 Clouds 33 1007 62 6000 6.2 300 10:38 04.04.2020
5314 Clouds 33 1007 62 6000 6.2 300 10:19 04.04.2020
5315 Clouds 32 1007 62 6000 6.2 360 09:55 04.04.2020
5316 Clouds 32 1008 63 6000 5.7 320 09:37 04.04.2020
5317 Clouds 32 1008 63 6000 5.7 320 09:37 04.04.2020
5318 Clouds 32 1008 63 6000 5.7 320 09:18 04.04.2020
5319 Clouds 33 1008 59 6000 4.6 330 08:42 04.04.2020
5320 Clouds 33 1008 63 6000 3.1 360 08:21 04.04.2020
5321 Clouds 33 1009 59 6000 3.6 300 07:46 04.04.2020
5322 Rain 33 1009 55 5000 2.6 310 07:26 04.04.2020
5323 Rain 33 1010 59 5000 1.5 300 06:56 04.04.2020
5324 Rain 32 1010 59 5000 1.5 300 06:20 04.04.2020
5325 Rain 31 1011 66 5000 2.1 270 05:43 04.04.2020
5326 Haze 31 1011 66 5000 1.5 220 05:24 04.04.2020
5327 Haze 29 1011 70 5000 1.5 240 04:31 04.04.2020
5328 Haze 29 1011 74 4000 1.5 10 03:53 04.04.2020
5329 Haze 29 1011 74 4000 1.5 150 03:22 04.04.2020
5330 Haze 27 1010 88 3000 1.5 140 02:38 04.04.2020
5331 Haze 27 1010 88 3000 1.5 140 02:20 04.04.2020
5332 Mist 26 1009 94 3000 1.51 163 01:26 04.04.2020
5333 Haze 26 1009 94 4000 1.51 163 00:52 04.04.2020
5334 Haze 26 1009 94 5000 1.51 163 00:30 04.04.2020
5335 Haze 26 1009 88 5000 1.5 220 23:41 03.04.2020
5336 Haze 26 1009 88 5000 1.5 220 23:22 03.04.2020
5337 Haze 26 1009 88 3800 2.1 260 22:59 03.04.2020
5338 Haze 26 1009 88 3800 2.1 260 22:40 03.04.2020
5339 Haze 26 1009 88 3800 2.1 260 22:19 03.04.2020
5340 Haze 25 1009 88 4000 2.6 280 21:56 03.04.2020
5341 Haze 25 1009 83 3000 3.1 280 21:37 03.04.2020
5342 Haze 26 1009 83 3000 3.1 280 21:19 03.04.2020
5343 Haze 25 1009 88 3000 2.1 270 20:54 03.04.2020
5344 Haze 25 1010 83 4000 1.5 260 20:36 03.04.2020
5345 Haze 26 1010 83 4000 1.5 260 20:18 03.04.2020
5346 Haze 26 1010 83 4200 2.6 270 19:54 03.04.2020
5347 Haze 26 1010 83 4500 1.5 270 19:36 03.04.2020
5348 Haze 26 1010 83 4500 1.5 270 19:36 03.04.2020
5349 Haze 26 1010 78 4000 0.5 310 19:18 03.04.2020
5350 Haze 27 1010 78 4000 0.5 310 18:42 03.04.2020
5351 Haze 27 1011 88 5000 1.5 150 18:23 03.04.2020
5352 Haze 27 1011 88 5000 1.5 150 17:58 03.04.2020
5353 Haze 27 1011 88 5000 1.5 150 17:40 03.04.2020
5354 Haze 27 1011 88 5000 1.5 150 17:19 03.04.2020
5355 Haze 27 1011 88 5000 1.5 150 17:19 03.04.2020
5356 Haze 27 1010 88 5000 1.5 230 16:54 03.04.2020
5357 Clouds 27 1010 78 7000 3.1 200 16:36 03.04.2020
5358 Clouds 27 1010 78 7000 3.1 200 16:18 03.04.2020
5359 Clouds 27 1010 78 6000 1.5 0 15:41 03.04.2020
5360 Rain 28 1009 83 5000 1.5 340 15:22 03.04.2020
5361 Rain 27 1012 69 0 0.89 265 14:57 03.04.2020
5362 Rain 27 1011 69 0 0.89 275 14:39 03.04.2020
5363 Rain 28 1008 79 5000 3.1 360 14:21 03.04.2020
5364 Rain 28 1008 79 5000 3.1 360 13:46 03.04.2020
5365 Rain 28 1008 79 5000 3.1 360 13:26 03.04.2020
5366 Rain 29 1008 79 5000 2.6 360 12:56 03.04.2020
5367 Rain 30 1008 74 5000 2.1 30 12:38 03.04.2020
5368 Rain 30 1008 74 5000 2.1 30 12:18 03.04.2020
5369 Rain 31 1007 74 5000 1.5 330 11:55 03.04.2020
5370 Rain 31 1007 74 5000 1.5 330 11:55 03.04.2020
5371 Rain 32 1007 66 4000 3.1 30 11:37 03.04.2020
5372 Rain 32 1007 66 4000 3.1 30 11:18 03.04.2020
5373 Rain 32 1007 62 5000 4.1 290 10:56 03.04.2020
5374 Rain 31 1008 66 6000 2.1 270 10:37 03.04.2020
5375 Rain 31 1008 66 6000 2.1 270 10:18 03.04.2020
5376 Rain 32 1008 66 5000 2.6 270 09:55 03.04.2020
5377 Rain 31 1008 66 5000 5.1 270 09:37 03.04.2020
5378 Rain 31 1008 66 5000 5.1 270 09:18 03.04.2020
5379 Rain 30 1008 70 6000 8.2 270 08:43 03.04.2020
5380 Clouds 32 1008 59 6000 2.1 330 08:23 03.04.2020
5381 Clouds 33 1009 52 6000 1.5 330 07:51 03.04.2020
5382 Clouds 34 1009 55 6000 2.6 300 07:33 03.04.2020
5383 Clouds 33 1010 59 6000 2.1 330 06:57 03.04.2020
5384 Clouds 32 1010 66 6000 2.1 330 06:27 03.04.2020
5385 Haze 32 1011 62 5000 3.1 270 05:42 03.04.2020
5386 Haze 29 1011 74 4000 2.72 286 03:52 03.04.2020
5387 Haze 29 1011 74 4000 2.72 286 03:31 03.04.2020
5388 Haze 26 1010 88 3000 2.11 231 02:30 03.04.2020
5389 Haze 25 1009 94 4000 2.11 231 01:24 03.04.2020
5390 Haze 25 1009 83 5000 1.5 270 00:43 03.04.2020
5391 Haze 25 1009 83 5000 1.5 270 00:23 03.04.2020
5392 Clouds 25 1008 88 0 1.79 240 23:43 02.04.2020
5393 Clouds 25 1008 88 6000 2.1 240 23:24 02.04.2020
5394 Clouds 23 1008 88 6000 2.1 240 23:00 02.04.2020
5395 Clouds 25 1008 88 6000 2.1 240 22:41 02.04.2020
5396 Clouds 23 1008 88 6000 2.1 240 22:22 02.04.2020
5397 Clouds 24 1008 83 6000 3.1 260 21:57 02.04.2020
5398 Haze 24 1009 83 5000 3.1 240 21:37 02.04.2020
5399 Haze 26 1009 83 5000 3.1 240 21:18 02.04.2020
5400 Clouds 26 1009 83 6000 3.1 250 20:44 02.04.2020
5401 Clouds 25 1009 83 6000 3.1 270 20:24 02.04.2020
5402 Clouds 25 1010 88 7000 3.1 280 19:57 02.04.2020
5403 Clouds 25 1010 88 7000 3.1 280 19:38 02.04.2020
5404 Clouds 25 1010 88 7000 3.1 280 19:20 02.04.2020
5405 Clouds 25 1010 88 7000 2.1 300 18:43 02.04.2020
5406 Rain 26 1010 88 7000 2.1 300 18:21 02.04.2020
5407 Rain 26 1010 83 10000 2.1 270 17:59 02.04.2020
5408 Rain 26 1010 83 10000 2.1 270 17:59 02.04.2020
5409 Rain 26 1010 78 10000 2.6 220 17:41 02.04.2020
5410 Rain 26 1010 78 10000 2.6 220 17:22 02.04.2020
5411 Clouds 26 1010 78 10000 2.1 260 16:58 02.04.2020
5412 Clouds 26 1010 78 10000 3.1 260 16:39 02.04.2020
5413 Clouds 26 1010 78 10000 3.1 260 16:21 02.04.2020
5414 Clouds 26 1010 78 10000 3.6 250 15:56 02.04.2020
5415 Clouds 26 1010 78 10000 3.6 250 15:38 02.04.2020
5416 Clouds 27 1009 70 6000 4.6 270 15:18 02.04.2020
5417 Clouds 27 1009 70 6000 4.6 270 14:56 02.04.2020
5418 Clouds 27 1009 70 6000 4.6 270 14:37 02.04.2020
5419 Clouds 28 1009 70 6000 4.1 230 14:18 02.04.2020
5420 Clouds 28 1009 70 6000 4.1 230 13:54 02.04.2020
5421 Clouds 28 1008 70 6000 5.1 240 13:36 02.04.2020
5422 Clouds 27 1008 70 6000 5.1 240 13:18 02.04.2020
5423 Clouds 29 1007 70 6000 5.1 220 12:41 02.04.2020
5424 Clouds 30 1007 70 6000 5.1 220 12:19 02.04.2020
5425 Clouds 30 1007 66 6000 5.1 240 11:57 02.04.2020
5426 Rain 31 1007 58 6000 4.6 290 11:39 02.04.2020
5427 Rain 31 1007 58 6000 4.6 290 11:20 02.04.2020
5428 Rain 32 1006 58 6000 3.6 270 10:56 02.04.2020
5429 Rain 32 1006 58 6000 3.6 280 10:38 02.04.2020
5430 Rain 32 1006 58 6000 3.6 280 10:20 02.04.2020
5431 Rain 32 1006 62 6000 5.1 250 09:58 02.04.2020
5432 Rain 33 1007 59 6000 4.6 250 09:39 02.04.2020
5433 Rain 32 1007 59 6000 4.6 250 09:20 02.04.2020
5434 Rain 34 1007 62 6000 2.1 340 08:47 02.04.2020
5435 Rain 32 1008 62 6000 2.6 300 08:27 02.04.2020
5436 Clouds 33 1008 59 6000 3.1 280 07:47 02.04.2020
5437 Clouds 33 1009 55 6000 2.6 270 07:22 02.04.2020
5438 Clouds 33 1010 55 6000 3.1 270 06:59 02.04.2020
5439 Clouds 32 1010 59 6000 4.1 260 06:23 02.04.2020
5440 Clouds 32 1010 66 6000 4.1 250 05:45 02.04.2020
5441 Clouds 30 1010 70 6000 6.2 230 04:47 02.04.2020
5442 Haze 27 1010 83 5000 2.01 216 02:18 02.04.2020
5443 Haze 26 1009 88 5000 2.01 216 00:58 02.04.2020
5444 Haze 26 1008 88 5000 2.01 216 00:36 02.04.2020
5445 Haze 26 1008 88 5000 2.62 226 00:18 02.04.2020
5446 Haze 25 1008 94 5000 2.62 226 23:38 01.04.2020
5447 Haze 25 1008 94 5000 2.62 226 23:19 01.04.2020
5448 Clouds 25 1008 88 7000 2.1 270 22:56 01.04.2020
5449 Clouds 25 1008 88 7000 2.1 270 22:37 01.04.2020
5450 Clouds 25 1008 88 7000 2.1 270 22:19 01.04.2020
5451 Haze 25 1009 88 5000 2.1 270 21:39 01.04.2020
5452 Haze 25 1009 88 5000 2.1 270 21:19 01.04.2020
5453 Haze 25 1009 83 5000 1.5 280 20:56 01.04.2020
5454 Clouds 25 1009 83 8000 2.6 260 20:38 01.04.2020
5455 Clouds 25 1009 83 8000 2.6 260 20:19 01.04.2020
5456 Clouds 26 1009 83 8000 2.6 270 19:57 01.04.2020
5457 Clouds 26 1010 83 8000 3.1 240 19:37 01.04.2020
5458 Clouds 26 1010 83 8000 3.1 240 19:37 01.04.2020
5459 Clouds 26 1010 83 8000 3.1 240 19:19 01.04.2020
5460 Clouds 26 1010 83 8000 2.6 230 18:42 01.04.2020
5461 Clouds 26 1010 83 8000 2.6 230 18:22 01.04.2020
5462 Clouds 26 1011 83 8000 2.6 240 17:57 01.04.2020
5463 Clouds 26 1010 74 8000 3.6 240 17:37 01.04.2020
5464 Clouds 26 1010 74 8000 3.6 240 17:19 01.04.2020
5465 Clouds 27 1010 78 6000 2.47 274 16:56 01.04.2020
5466 Clouds 27 1010 78 6000 2.47 274 16:38 01.04.2020
5467 Clouds 27 1010 78 6000 2.47 274 16:20 01.04.2020
5468 Clouds 27 1010 78 6000 2.47 274 15:56 01.04.2020
5469 Clouds 27 1009 78 6000 2.47 274 15:37 01.04.2020
5470 Clouds 27 1009 78 6000 3.19 307 15:18 01.04.2020
5471 Clouds 28 1008 70 6000 1.5 340 14:40 01.04.2020
5472 Clouds 28 1008 70 6000 1.5 340 14:22 01.04.2020
5473 Clouds 28 1008 70 6000 2.1 330 13:59 01.04.2020
5474 Rain 28 1008 70 6000 2.6 360 13:39 01.04.2020
5475 Rain 29 1008 70 6000 2.6 360 13:20 01.04.2020
5476 Rain 29 1008 70 6000 2.6 360 13:20 01.04.2020
5477 Rain 29 1008 62 6000 2.6 330 12:58 01.04.2020
5478 Rain 29 1007 62 6000 3.6 350 12:40 01.04.2020
5479 Rain 30 1007 62 6000 3.6 350 12:21 01.04.2020
5480 Clouds 30 1007 62 6000 2.6 10 11:56 01.04.2020
5481 Clouds 31 1006 55 6000 3.6 360 11:37 01.04.2020
5482 Clouds 31 1006 55 6000 3.6 360 11:18 01.04.2020
5483 Clouds 33 1006 55 6000 3.6 340 10:39 01.04.2020
5484 Clouds 33 1006 55 6000 3.6 340 10:21 01.04.2020
5485 Clouds 33 1007 55 6000 4.1 20 09:59 01.04.2020
5486 Clouds 33 1007 55 6000 4.1 20 09:59 01.04.2020
5487 Clouds 32 1007 62 6000 6.7 10 09:40 01.04.2020
5488 Clouds 32 1007 62 6000 6.7 10 09:20 01.04.2020
5489 Clouds 33 1007 59 6000 6.7 350 08:44 01.04.2020
5490 Clouds 33 1007 59 6000 6.7 350 08:44 01.04.2020
5491 Clouds 33 1008 59 6000 4.1 330 08:20 01.04.2020
5492 Clouds 34 1008 55 6000 3.1 360 07:58 01.04.2020
5493 Clouds 33 1008 55 6000 3.1 360 07:58 01.04.2020
5494 Clouds 33 1009 55 6000 3.1 20 07:40 01.04.2020
5495 Clouds 33 1009 55 6000 3.1 20 07:19 01.04.2020
5496 Clouds 32 1010 59 6000 2.1 280 06:42 01.04.2020
5497 Clouds 32 1010 59 6000 2.1 280 06:20 01.04.2020
5498 Clouds 31 1011 66 6000 1.5 270 05:28 01.04.2020
5499 Haze 28 1010 83 5000 1.5 270 03:40 01.04.2020
5500 Haze 27 1010 83 5000 1.5 210 02:59 01.04.2020
5501 Haze 26 1010 94 5000 1.5 180 02:31 01.04.2020
5502 Haze 25 1010 94 5000 1.5 180 01:50 01.04.2020
5503 Mist 25 1010 94 3000 0.51 225 01:25 01.04.2020
5504 Rain 25 1010 94 3000 1.5 270 00:47 01.04.2020
5505 Rain 25 1010 94 3000 1.5 330 00:22 01.04.2020
5506 Rain 25 1010 94 3000 1.5 360 23:55 31.03.2020
5507 Rain 25 1010 100 3000 2.6 330 23:37 31.03.2020
5508 Haze 25 1010 83 5000 2.1 320 23:19 31.03.2020
5509 Haze 25 1010 88 5000 5.7 320 22:40 31.03.2020
5510 Haze 26 1010 83 5000 5.1 320 22:21 31.03.2020
5511 Haze 26 1010 83 5000 5.1 320 21:58 31.03.2020
5512 Thunderstorm 26 1009 88 5000 2.1 290 21:39 31.03.2020
5513 Haze 26 1009 88 5000 2.1 230 21:21 31.03.2020
5514 Clouds 26 1010 88 6000 1.5 0 20:57 31.03.2020
5515 Clouds 26 1010 88 6000 1.5 0 20:37 31.03.2020
5516 Clouds 26 1010 83 6000 2.1 240 20:19 31.03.2020
5517 Clouds 26 1010 83 6000 2.1 240 19:56 31.03.2020
5518 Clouds 27 1010 83 6000 2.1 240 19:37 31.03.2020
5519 Clouds 27 1010 83 6000 1.5 280 19:19 31.03.2020
5520 Clouds 27 1011 78 6000 2.1 280 18:44 31.03.2020
5521 Clouds 27 1010 78 6000 2.1 220 18:20 31.03.2020
5522 Clouds 27 1010 78 6000 2.1 220 17:57 31.03.2020
5523 Clouds 27 1010 78 6000 2.1 220 17:57 31.03.2020
5524 Clouds 27 1011 83 7000 2.1 230 17:39 31.03.2020
5525 Clouds 27 1011 83 7000 2.1 230 17:39 31.03.2020
5526 Clouds 27 1010 83 7000 3.1 240 17:21 31.03.2020
5527 Clouds 27 1010 83 7000 3.1 240 16:56 31.03.2020
5528 Clouds 27 1010 78 8000 3.1 230 16:37 31.03.2020
5529 Clouds 27 1010 78 8000 3.1 230 16:18 31.03.2020
5530 Clouds 27 1010 78 8000 2.6 220 15:56 31.03.2020
5531 Clouds 27 1010 78 8000 2.6 200 15:37 31.03.2020
5532 Clouds 27 1010 78 8000 2.6 200 15:37 31.03.2020
5533 Haze 27 1009 94 5000 2.6 140 15:18 31.03.2020
5534 Haze 27 1009 94 5000 2.6 140 14:42 31.03.2020
5535 Haze 27 1009 94 5000 2.6 140 14:23 31.03.2020
5536 Rain 27 1009 94 5000 1.94 263 13:59 31.03.2020
5537 Rain 27 1009 100 5000 1.94 263 13:41 31.03.2020
5538 Rain 27 1009 100 5000 1.94 263 13:19 31.03.2020
5539 Rain 27 1009 100 5000 1.94 263 13:19 31.03.2020
5540 Rain 27 1008 100 5000 2.6 130 12:46 31.03.2020
5541 Rain 27 1008 94 5000 2.6 270 12:21 31.03.2020
5542 Thunderstorm 27 1008 100 2000 2.1 140 11:59 31.03.2020
5543 Thunderstorm 28 1008 100 2000 2.1 140 11:38 31.03.2020
5544 Thunderstorm 29 1008 100 2000 2.1 140 11:19 31.03.2020
5545 Thunderstorm 32 1006 74 4000 4.1 270 10:56 31.03.2020
5546 Thunderstorm 30 1006 74 4000 4.1 270 10:38 31.03.2020
5547 Thunderstorm 31 1006 74 4000 4.1 270 10:20 31.03.2020
5548 Rain 32 1007 70 6000 4.1 330 09:55 31.03.2020
5549 Clouds 33 1007 59 6000 2.6 330 09:37 31.03.2020
5550 Clouds 34 1007 59 6000 2.6 330 09:19 31.03.2020
5551 Clouds 34 1007 47 6000 2.1 240 08:54 31.03.2020
5552 Clouds 32 1008 49 6000 2.6 360 08:36 31.03.2020
5553 Clouds 33 1008 49 6000 2.6 360 08:18 31.03.2020
5554 Clouds 34 1008 52 6000 3.6 210 07:43 31.03.2020
5555 Clouds 34 1008 52 6000 3.6 210 07:23 31.03.2020
5556 Clouds 34 1009 52 6000 3.1 150 06:58 31.03.2020
5557 Clouds 33 1009 55 6000 4.1 190 06:39 31.03.2020
5558 Clouds 31 1010 66 6000 3.1 260 05:42 31.03.2020
5559 Clouds 31 1010 66 6000 3.1 260 05:23 31.03.2020
5560 Haze 26 1010 94 5000 2.15 275 02:53 31.03.2020
5561 Haze 26 1010 94 5000 1.5 230 01:47 31.03.2020
5562 Haze 25 1010 94 5000 1.5 230 01:19 31.03.2020
5563 Mist 25 1010 94 4000 2.6 270 00:43 31.03.2020
5564 Mist 25 1010 94 4000 2.6 270 00:20 31.03.2020
5565 Mist 25 1009 94 4000 2.1 290 23:40 30.03.2020
5566 Mist 25 1009 94 3000 1.5 320 23:20 30.03.2020
5567 Mist 25 1009 94 3000 1 250 22:57 30.03.2020
5568 Mist 25 1009 94 3000 2.6 280 22:38 30.03.2020
5569 Mist 25 1009 94 3000 2.6 280 22:19 30.03.2020
5570 Mist 25 1009 94 3000 2.6 280 21:57 30.03.2020
5571 Mist 25 1009 94 4000 1 0 21:38 30.03.2020
5572 Mist 25 1009 94 4000 1 0 21:20 30.03.2020
5573 Mist 25 1010 94 2900 1 270 20:58 30.03.2020
5574 Mist 25 1010 94 3000 2.6 280 20:38 30.03.2020
5575 Mist 25 1010 94 3000 2.6 280 20:19 30.03.2020
5576 Mist 25 1010 94 2400 2.6 280 19:54 30.03.2020
5577 Mist 25 1010 94 3000 1 300 19:36 30.03.2020
5578 Mist 25 1010 94 3000 1 300 19:18 30.03.2020
5579 Haze 25 1010 94 4000 1 320 18:41 30.03.2020
5580 Haze 25 1010 94 4000 1 320 18:23 30.03.2020
5581 Clouds 26 1010 88 6000 1.5 0 17:57 30.03.2020
5582 Clouds 26 1010 88 7000 2.1 140 17:39 30.03.2020
5583 Clouds 26 1010 88 7000 2.1 140 17:19 30.03.2020
5584 Clouds 26 1010 88 7000 2.1 140 16:57 30.03.2020
5585 Clouds 26 1010 83 7000 3.1 130 16:39 30.03.2020
5586 Clouds 26 1010 83 7000 3.1 130 16:20 30.03.2020
5587 Clouds 26 1010 83 7000 2.6 160 15:55 30.03.2020
5588 Clouds 26 1010 88 7000 2.6 160 15:37 30.03.2020
5589 Clouds 25 1010 88 7000 2.6 160 15:19 30.03.2020
5590 Clouds 25 1009 88 7000 2.6 0 14:55 30.03.2020
5591 Rain 25 1009 88 7000 3.6 170 14:36 30.03.2020
5592 Rain 25 1009 94 4000 1.5 220 14:18 30.03.2020
5593 Rain 25 1009 94 4000 1.5 220 13:54 30.03.2020
5594 Rain 25 1009 94 4000 1.5 220 13:36 30.03.2020
5595 Rain 25 1009 94 4000 1.5 220 13:18 30.03.2020
5596 Rain 25 1008 94 4000 2.6 220 12:41 30.03.2020
5597 Rain 25 1008 94 4000 2.6 220 12:20 30.03.2020
5598 Thunderstorm 25 1008 94 4000 4.1 240 11:57 30.03.2020
5599 Thunderstorm 25 1008 94 4000 4.1 240 11:39 30.03.2020
5600 Thunderstorm 25 1008 94 4000 4.1 240 11:21 30.03.2020
5601 Thunderstorm 26 1008 88 3000 3.1 270 10:41 30.03.2020
5602 Thunderstorm 26 1008 88 3000 3.1 270 10:22 30.03.2020
5603 Thunderstorm 26 1008 94 3000 2.6 220 09:58 30.03.2020
5604 Thunderstorm 27 1008 94 3000 2.6 220 09:39 30.03.2020
5605 Thunderstorm 27 1008 94 3000 2.6 220 09:19 30.03.2020
5606 Thunderstorm 28 1008 88 3000 2.1 10 08:42 30.03.2020
5607 Thunderstorm 28 1008 88 3000 2.1 10 08:23 30.03.2020
5608 Rain 30 1008 55 5000 2.6 100 07:53 30.03.2020
5609 Rain 31 1008 55 5000 2.6 100 07:34 30.03.2020
5610 Haze 32 1009 59 5000 1.5 220 06:59 30.03.2020
5611 Haze 32 1009 59 5000 1.5 220 06:33 30.03.2020
5612 Haze 32 1010 62 5000 2.1 210 05:59 30.03.2020
5613 Haze 32 1010 62 5000 2.1 210 05:34 30.03.2020
5614 Haze 30 1010 70 5000 1.5 260 04:26 30.03.2020
5615 Haze 29 1010 74 4000 1.5 210 03:45 30.03.2020
5616 Haze 28 1010 88 4000 1.5 140 02:42 30.03.2020
5617 Haze 26 1009 94 4000 0.77 206 01:48 30.03.2020
5618 Haze 26 1008 94 4000 0.77 206 00:56 30.03.2020
5619 Haze 26 1008 94 4000 0.77 206 00:25 30.03.2020
5620 Haze 26 1008 94 4000 0.63 181 23:43 29.03.2020
5621 Haze 26 1008 94 4000 0.63 181 23:24 29.03.2020
5622 Clouds 26 1008 83 6000 1 290 22:59 29.03.2020
5623 Clouds 26 1008 83 6000 1.5 290 22:39 29.03.2020
5624 Clouds 26 1008 83 6000 1.5 290 22:20 29.03.2020
5625 Clouds 26 1008 83 6000 1 0 21:58 29.03.2020
5626 Clouds 26 1008 83 6000 1.5 190 21:37 29.03.2020
5627 Clouds 26 1008 83 6000 1.5 190 21:18 29.03.2020
5628 Clouds 26 1009 83 6000 2.1 190 20:55 29.03.2020
5629 Clouds 26 1009 83 6000 2.1 190 20:55 29.03.2020
5630 Clouds 26 1009 83 6000 2.1 210 20:37 29.03.2020
5631 Clouds 26 1009 83 6000 2.1 210 20:37 29.03.2020
5632 Clouds 26 1009 83 6000 2.1 210 20:18 29.03.2020
5633 Clouds 26 1009 83 6000 2.1 210 19:55 29.03.2020
5634 Clouds 26 1009 83 6000 2.1 200 19:37 29.03.2020
5635 Clouds 26 1010 83 6000 1.5 0 19:18 29.03.2020
5636 Clouds 27 1010 78 6000 2.1 0 18:54 29.03.2020
5637 Clouds 27 1010 78 6000 2.1 0 18:36 29.03.2020
5638 Clouds 27 1010 78 6000 2.1 0 18:18 29.03.2020
5639 Clouds 26 1010 83 7000 1.5 240 17:42 29.03.2020
5640 Clouds 26 1010 83 7000 1.5 240 17:23 29.03.2020
5641 Haze 26 1009 88 4000 1.5 120 16:59 29.03.2020
5642 Haze 26 1009 88 4000 1.5 120 16:40 29.03.2020
5643 Haze 26 1009 88 4000 1.5 120 16:21 29.03.2020
5644 Haze 26 1009 88 4000 1.5 120 15:59 29.03.2020
5645 Rain 26 1009 94 4000 2.1 230 15:40 29.03.2020
5646 Rain 26 1009 94 4000 2.1 230 15:21 29.03.2020
5647 Rain 26 1009 94 3000 2.1 130 14:57 29.03.2020
5648 Rain 26 1009 94 3000 3.6 240 14:37 29.03.2020
5649 Thunderstorm 26 1008 94 3000 3.6 150 14:19 29.03.2020
5650 Thunderstorm 27 1008 94 3000 3.6 150 13:55 29.03.2020
5651 Thunderstorm 27 1008 88 2000 6.2 190 13:37 29.03.2020
5652 Rain 28 1008 78 3000 6.2 150 13:19 29.03.2020
5653 Rain 30 1007 70 4000 4.1 10 12:54 29.03.2020
5654 Rain 30 1007 70 4000 4.1 10 12:54 29.03.2020
5655 Rain 30 1007 70 4000 4.1 10 12:36 29.03.2020
5656 Rain 30 1006 66 5000 3.6 350 12:18 29.03.2020
5657 Rain 31 1006 66 5000 4.1 330 11:39 29.03.2020
5658 Rain 32 1006 66 5000 4.1 330 11:21 29.03.2020
5659 Rain 32 1005 59 5000 6.2 360 10:55 29.03.2020
5660 Rain 32 1005 59 5000 6.2 350 10:37 29.03.2020
5661 Rain 32 1005 59 5000 6.2 350 10:18 29.03.2020
5662 Rain 33 1006 63 4000 2.6 40 09:39 29.03.2020
5663 Rain 32 1006 63 4000 2.6 40 09:19 29.03.2020
5664 Rain 32 1006 63 4000 2.6 40 08:52 29.03.2020
5665 Rain 33 1007 70 4000 3.1 20 08:28 29.03.2020
5666 Rain 32 1007 70 3000 4.6 30 07:58 29.03.2020
5667 Thunderstorm 33 1008 59 4000 3.1 320 07:39 29.03.2020
5668 Thunderstorm 33 1008 59 4000 3.1 320 07:39 29.03.2020
5669 Haze 33 1008 55 5000 2.1 40 07:20 29.03.2020
5670 Haze 30 1009 66 4000 3.1 250 04:59 29.03.2020
5671 Haze 30 1009 66 4000 3.1 250 04:59 29.03.2020
5672 Haze 30 1009 74 4000 1.5 350 03:48 29.03.2020
5673 Haze 29 1009 79 4000 1.5 270 03:26 29.03.2020
5674 Haze 27 1009 83 4000 1.5 180 01:50 29.03.2020
5675 Mist 27 1008 94 3000 1.5 190 01:23 29.03.2020
5676 Mist 26 1008 94 3000 1.56 206 00:55 29.03.2020
5677 Mist 26 1008 94 4000 1.5 160 00:30 29.03.2020
5678 Haze 26 1008 83 4000 1.56 206 23:42 28.03.2020
5679 Haze 25 1008 83 4000 1.56 206 23:23 28.03.2020
5680 Haze 25 1008 94 4000 2.14 216 22:58 28.03.2020
5681 Haze 25 1007 94 4000 1.5 330 22:38 28.03.2020
5682 Haze 25 1007 94 4000 1.5 330 22:20 28.03.2020
5683 Haze 25 1007 88 4000 2.1 300 21:43 28.03.2020
5684 Haze 25 1007 88 5000 1 260 21:24 28.03.2020
5685 Haze 25 1008 88 5000 1.5 250 20:59 28.03.2020
5686 Haze 25 1008 88 5000 1.5 250 20:41 28.03.2020
5687 Haze 25 1008 88 5000 2.1 230 20:23 28.03.2020
5688 Haze 25 1008 83 5000 2.6 230 19:57 28.03.2020
5689 Haze 26 1008 83 5000 2.6 210 19:38 28.03.2020
5690 Haze 26 1008 83 5000 2.6 210 19:20 28.03.2020
5691 Haze 26 1008 83 5000 3.1 230 18:56 28.03.2020
5692 Haze 26 1009 83 5000 2.1 250 18:38 28.03.2020
5693 Haze 26 1009 83 5000 2.1 250 18:38 28.03.2020
5694 Haze 26 1009 83 5000 1 280 18:19 28.03.2020
5695 Haze 26 1009 83 5000 1 280 17:38 28.03.2020
5696 Haze 27 1009 83 5000 2.1 300 17:20 28.03.2020
5697 Haze 27 1009 78 5000 2.6 300 16:43 28.03.2020
5698 Haze 27 1009 78 5000 2.6 300 16:20 28.03.2020
5699 Haze 27 1010 83 5000 2.1 310 15:58 28.03.2020
5700 Clouds 27 1010 78 6000 2.1 320 15:39 28.03.2020
5701 Clouds 27 1010 78 6000 2.1 320 15:19 28.03.2020
5702 Clouds 27 1009 83 6000 2.6 300 14:54 28.03.2020
5703 Clouds 27 1009 79 6000 1.5 330 14:36 28.03.2020
5704 Haze 28 1008 74 5000 2.32 292 14:18 28.03.2020
5705 Haze 28 1008 74 5000 2.32 292 13:38 28.03.2020
5706 Haze 28 1008 74 5000 2.32 293 13:19 28.03.2020
5707 Haze 29 1007 70 5000 1.5 300 12:39 28.03.2020
5708 Haze 29 1007 70 5000 1.5 300 12:21 28.03.2020
5709 Haze 30 1006 66 5000 1.5 330 11:42 28.03.2020
5710 Haze 30 1006 66 5000 2.1 310 11:21 28.03.2020
5711 Haze 30 1006 66 5000 2.1 310 10:56 28.03.2020
5712 Rain 31 1006 66 5000 1.5 330 10:38 28.03.2020
5713 Rain 31 1006 66 5000 1.5 330 10:18 28.03.2020
5714 Rain 31 1007 66 5000 2.6 330 09:41 28.03.2020
5715 Rain 31 1007 70 5000 3.6 360 09:23 28.03.2020
5716 Rain 32 1007 74 5000 1.5 330 08:46 28.03.2020
5717 Rain 31 1008 70 5000 3.1 20 08:27 28.03.2020
5718 Rain 32 1008 66 5000 3.1 360 07:59 28.03.2020
5719 Rain 32 1008 62 5000 2.1 330 07:41 28.03.2020
5720 Haze 32 1010 66 5000 1.5 10 06:55 28.03.2020
5721 Haze 32 1010 66 5000 1.5 10 06:33 28.03.2020
5722 Haze 32 1010 66 5000 1.5 260 05:41 28.03.2020
5723 Haze 32 1011 66 5000 2.1 240 05:19 28.03.2020
5724 Haze 31 1011 66 5000 1.5 270 04:40 28.03.2020
5725 Haze 29 1011 74 4000 1.5 90 02:55 28.03.2020
5726 Haze 28 1010 83 5000 1 0 01:49 28.03.2020
5727 Mist 26 1009 94 2000 0.94 196 01:24 28.03.2020
5728 Mist 25 1009 94 2000 0.94 196 00:55 28.03.2020
5729 Mist 25 1009 94 2000 0.94 196 00:33 28.03.2020
5730 Haze 25 1009 94 4000 0.94 196 23:54 27.03.2020
5731 Haze 26 1009 94 4000 0.94 196 23:36 27.03.2020
5732 Haze 26 1008 94 5000 1.5 150 23:18 27.03.2020
5733 Haze 25 1008 94 5000 1.5 150 22:54 27.03.2020
5734 Haze 25 1008 94 5000 1.5 150 22:36 27.03.2020
5735 Haze 25 1008 94 5000 1.5 150 22:18 27.03.2020
5736 Haze 26 1009 83 5000 1.5 0 21:42 27.03.2020
5737 Haze 26 1009 83 5000 1.5 0 21:23 27.03.2020
5738 Haze 26 1009 83 5000 2.1 190 20:58 27.03.2020
5739 Haze 26 1009 83 5000 2.1 190 20:58 27.03.2020
5740 Haze 26 1009 83 5000 1.5 200 20:39 27.03.2020
5741 Haze 26 1009 83 5000 1.5 200 20:20 27.03.2020
5742 Haze 26 1010 78 5000 0.5 0 19:56 27.03.2020
5743 Clouds 27 1010 78 6000 1.5 0 19:38 27.03.2020
5744 Clouds 27 1010 78 6000 1.5 0 19:19 27.03.2020
5745 Clouds 27 1010 78 7000 1 0 18:43 27.03.2020
5746 Clouds 27 1010 78 7000 1 0 18:23 27.03.2020
5747 Clouds 27 1010 78 7000 1.5 0 17:57 27.03.2020
5748 Clouds 27 1010 78 6000 2.1 0 17:38 27.03.2020
5749 Clouds 27 1011 78 8000 2.6 190 17:19 27.03.2020
5750 Clouds 27 1011 78 8000 2.1 0 16:44 27.03.2020
5751 Clouds 27 1011 78 8000 2.1 0 16:25 27.03.2020
5752 Clouds 27 1011 78 8000 2.1 0 16:25 27.03.2020
5753 Clouds 27 1011 78 8000 2.1 0 16:25 27.03.2020
5754 Clouds 27 1010 78 6000 2.1 210 15:46 27.03.2020
5755 Rain 27 1012 74 0 0.89 229 15:27 27.03.2020
5756 Rain 27 1012 73 0 0.54 223 14:59 27.03.2020
5757 Rain 27 1011 73 0 0.54 223 14:40 27.03.2020
5758 Clouds 28 1009 74 6000 3.6 190 14:22 27.03.2020
5759 Clouds 28 1009 74 6000 3.6 190 13:54 27.03.2020
5760 Clouds 28 1009 74 6000 3.6 190 13:36 27.03.2020
5761 Clouds 28 1009 74 6000 3.6 190 13:18 27.03.2020
5762 Clouds 27 1008 94 6000 2.6 340 12:42 27.03.2020
5763 Clouds 30 1007 70 6000 3.1 340 12:19 27.03.2020
5764 Clouds 30 1007 70 6000 3.1 340 11:55 27.03.2020
5765 Clouds 31 1007 70 6000 3.1 340 11:36 27.03.2020
5766 Haze 32 1007 66 5000 3.6 360 11:18 27.03.2020
5767 Haze 32 1007 66 5000 3.6 360 10:41 27.03.2020
5768 Haze 33 1007 66 5000 3.6 360 10:22 27.03.2020
5769 Haze 33 1008 66 5000 4.6 10 09:59 27.03.2020
5770 Haze 34 1008 66 5000 4.6 10 09:40 27.03.2020
5771 Haze 33 1008 66 5000 4.6 10 09:22 27.03.2020
5772 Haze 33 1008 66 5000 2.6 330 08:59 27.03.2020
5773 Haze 33 1008 66 5000 2.6 330 08:59 27.03.2020
5774 Haze 33 1008 66 5000 2.6 330 08:40 27.03.2020
5775 Haze 33 1008 66 5000 2.6 330 08:21 27.03.2020
5776 Haze 32 1009 66 5000 2.6 360 07:57 27.03.2020
5777 Haze 32 1009 66 5000 2.6 360 07:38 27.03.2020
5778 Haze 33 1010 62 5000 1.5 270 07:20 27.03.2020
5779 Haze 33 1010 62 5000 1.5 270 06:39 27.03.2020
5780 Haze 33 1010 70 5000 1.5 270 05:45 27.03.2020
5781 Haze 31 1011 78 5000 1.5 240 03:34 27.03.2020
5782 Haze 28 1011 88 4000 1.5 250 01:55 27.03.2020
5783 Haze 26 1010 94 4000 1.5 270 01:18 27.03.2020
5784 Mist 26 1009 94 3000 1.68 165 00:41 27.03.2020
5785 Haze 26 1009 94 4000 1.68 165 00:19 27.03.2020
5786 Haze 26 1009 94 4000 1.68 165 23:37 26.03.2020
5787 Haze 26 1009 94 4000 3.53 195 23:18 26.03.2020
5788 Haze 26 1009 94 4000 3.53 195 22:56 26.03.2020
5789 Haze 26 1009 94 4000 3.53 195 22:36 26.03.2020
5790 Haze 26 1009 94 4000 3.53 195 22:18 26.03.2020
5791 Rain 26 1010 85 0 3.53 195 21:40 26.03.2020
5792 Rain 26 1010 85 0 0.45 225 21:21 26.03.2020
5793 Rain 26 1010 85 0 0.89 226 20:59 26.03.2020
5794 Rain 26 1010 85 0 0.89 227 20:39 26.03.2020
5795 Rain 26 1011 85 0 0.89 229 20:21 26.03.2020
5796 Rain 26 1011 85 0 0.65 140 19:58 26.03.2020
5797 Rain 26 1011 85 0 0.65 140 19:40 26.03.2020
5798 Rain 26 1011 85 0 0.89 229 19:21 26.03.2020
5799 Rain 26 1011 85 0 1.79 226 18:58 26.03.2020
5800 Rain 26 1011 86 0 1.79 216 18:40 26.03.2020
5801 Rain 26 1012 86 0 0.89 198 18:21 26.03.2020
5802 Rain 26 1012 86 0 0.89 225 17:44 26.03.2020
5803 Rain 26 1012 86 0 0.89 225 17:44 26.03.2020
5804 Rain 26 1012 86 0 1.34 220 17:20 26.03.2020
5805 Rain 26 1012 85 0 0.89 225 16:57 26.03.2020
5806 Rain 26 1012 85 0 0.89 235 16:38 26.03.2020
5807 Rain 26 1012 85 0 0.89 235 16:38 26.03.2020
5808 Rain 26 1012 85 0 2.68 239 16:19 26.03.2020
5809 Rain 27 1012 85 0 1.79 225 15:54 26.03.2020
5810 Rain 27 1012 84 0 2.24 224 15:36 26.03.2020
5811 Rain 27 1012 84 0 3.13 236 15:18 26.03.2020
5812 Rain 27 1009 88 3000 3.1 150 14:42 26.03.2020
5813 Rain 27 1009 88 3000 3.1 150 14:24 26.03.2020
5814 Rain 27 1009 88 3000 3.1 150 13:55 26.03.2020
5815 Rain 28 1009 83 3000 3.1 200 13:37 26.03.2020
5816 Rain 28 1009 83 3000 3.1 200 13:19 26.03.2020
5817 Rain 29 1007 70 5000 2.1 340 12:38 26.03.2020
5818 Rain 30 1007 66 5000 2.6 320 12:20 26.03.2020
5819 Rain 30 1007 66 5000 3.6 350 11:46 26.03.2020
5820 Rain 30 1007 66 5000 3.6 350 11:23 26.03.2020
5821 Rain 32 1006 55 5000 4.1 340 10:57 26.03.2020
5822 Rain 32 1006 55 5000 4.1 340 10:39 26.03.2020
5823 Rain 32 1006 55 5000 4.1 340 10:19 26.03.2020
5824 Rain 31 1006 59 5000 4.1 40 09:44 26.03.2020
5825 Rain 32 1006 59 5000 5.7 330 09:21 26.03.2020
5826 Rain 32 1007 55 5000 5.7 20 08:57 26.03.2020
5827 Rain 32 1007 55 5000 5.7 20 08:57 26.03.2020
5828 Rain 32 1007 66 5000 4.6 10 08:38 26.03.2020
5829 Rain 32 1007 66 5000 4.6 10 08:19 26.03.2020
5830 Rain 32 1008 66 5000 4.6 30 07:44 26.03.2020
5831 Clouds 33 1008 66 6000 4.1 70 07:23 26.03.2020
5832 Haze 33 1009 66 5000 4.1 60 06:57 26.03.2020
5833 Haze 33 1009 66 5000 4.1 60 06:32 26.03.2020
5834 Haze 32 1010 70 4000 2.1 10 05:29 26.03.2020
5835 Haze 30 1011 83 4000 1.5 340 03:45 26.03.2020
5836 Rain 28 1010 88 4000 1.5 330 02:56 26.03.2020
5837 Rain 27 1010 88 4000 2.6 50 01:51 26.03.2020
5838 Rain 27 1009 88 4000 2.6 60 00:56 26.03.2020
5839 Rain 27 1009 83 4000 2.1 30 00:22 26.03.2020
5840 Rain 27 1008 94 4000 3.1 30 23:41 25.03.2020
5841 Rain 27 1008 94 4000 1.5 120 23:22 25.03.2020
5842 Haze 27 1008 88 4000 1.5 120 22:42 25.03.2020
5843 Haze 27 1008 88 4000 1.5 120 22:21 25.03.2020
5844 Rain 28 1009 80 0 1.34 194 21:56 25.03.2020
5845 Rain 28 1009 81 0 0.89 209 21:38 25.03.2020
5846 Rain 28 1009 80 0 0.89 235 21:20 25.03.2020
5847 Rain 28 1009 80 0 0.73 252 20:56 25.03.2020
5848 Rain 28 1009 80 0 0.73 252 20:37 25.03.2020
5849 Rain 27 1009 83 0 1.13 242 20:18 25.03.2020
5850 Rain 28 1010 80 0 1.17 136 19:43 25.03.2020
5851 Rain 28 1010 80 0 0.48 131 19:43 25.03.2020
5852 Rain 28 1010 79 0 0.48 131 19:23 25.03.2020
5853 Rain 27 1010 83 0 0.48 131 18:58 25.03.2020
5854 Rain 28 1010 79 0 0.48 131 18:40 25.03.2020
5855 Rain 28 1010 79 0 0.89 229 18:21 25.03.2020
5856 Rain 28 1010 78 0 0.89 216 17:56 25.03.2020
5857 Rain 28 1011 77 0 0.89 224 17:38 25.03.2020
5858 Rain 28 1010 77 0 0.89 220 17:38 25.03.2020
5859 Rain 28 1010 77 0 0.45 241 17:20 25.03.2020
5860 Rain 28 1011 76 0 0.89 236 16:44 25.03.2020
5861 Rain 28 1011 76 0 0.89 233 16:26 25.03.2020
5862 Rain 28 1011 75 0 0.46 5 15:59 25.03.2020
5863 Rain 28 1010 75 0 0.46 5 15:41 25.03.2020
5864 Rain 28 1010 75 0 0.77 32 15:41 25.03.2020
5865 Rain 28 1010 74 0 0.46 5 15:20 25.03.2020
5866 Rain 28 1010 74 0 0.45 264 14:55 25.03.2020
5867 Rain 28 1010 74 0 0.45 247 14:37 25.03.2020
5868 Rain 29 1008 79 5000 1.5 240 14:18 25.03.2020
5869 Rain 29 1008 79 5000 1.5 240 13:42 25.03.2020
5870 Rain 29 1008 79 5000 1.5 240 13:22 25.03.2020
5871 Rain 29 1007 74 5000 2.1 360 12:38 25.03.2020
5872 Rain 29 1007 74 5000 2.6 360 12:19 25.03.2020
5873 Rain 29 1007 74 5000 2.6 360 11:56 25.03.2020
5874 Rain 30 1006 79 5000 3.6 330 11:37 25.03.2020
5875 Clouds 30 1006 74 6000 2.1 330 11:19 25.03.2020
5876 Clouds 31 1006 74 6000 2.1 330 10:56 25.03.2020
5877 Clouds 31 1006 74 6000 4.6 360 10:38 25.03.2020
5878 Clouds 31 1006 74 6000 4.6 360 10:18 25.03.2020
5879 Clouds 31 1006 70 6000 3.1 360 09:43 25.03.2020
5880 Clouds 32 1006 70 6000 4.1 360 09:24 25.03.2020
5881 Clouds 33 1006 66 6000 3.1 360 08:57 25.03.2020
5882 Clouds 33 1006 59 6000 3.1 40 08:39 25.03.2020
5883 Clouds 33 1006 59 6000 3.1 40 08:19 25.03.2020
5884 Haze 33 1007 62 5000 5.1 50 07:41 25.03.2020
5885 Haze 34 1007 62 5000 5.1 50 07:22 25.03.2020
5886 Haze 33 1007 66 5000 3.6 90 06:50 25.03.2020
5887 Haze 34 1008 62 5000 1.5 20 06:28 25.03.2020
5888 Haze 34 1008 62 5000 1.5 20 06:28 25.03.2020
5889 Haze 34 1008 62 5000 4.6 120 05:56 25.03.2020
5890 Haze 34 1008 62 5000 2.1 40 05:30 25.03.2020
5891 Haze 32 1009 70 5000 1.5 50 04:39 25.03.2020
5892 Haze 32 1010 70 5000 1.5 60 03:49 25.03.2020
5893 Haze 31 1010 79 5000 2.1 40 03:29 25.03.2020
5894 Haze 27 1009 100 5000 1.5 300 01:25 25.03.2020
5895 Haze 25 1009 100 5000 1.5 300 00:49 25.03.2020
5896 Haze 25 1009 100 5000 1.5 300 00:25 25.03.2020
5897 Clouds 24 1010 88 0 1.27 139 23:46 24.03.2020
5898 Clouds 24 1010 88 0 1.27 139 23:28 24.03.2020
5899 Rain 24 1010 87 0 0.45 341 22:57 24.03.2020
5900 Rain 24 1010 86 0 1.4 146 22:38 24.03.2020
5901 Rain 24 1010 86 0 1.4 146 22:19 24.03.2020
5902 Rain 24 1010 86 0 1.4 146 22:19 24.03.2020
5903 Rain 24 1010 86 0 1.4 146 22:19 24.03.2020
5904 Rain 24 1010 85 0 0.45 321 21:56 24.03.2020
5905 Rain 24 1010 84 0 0.45 231 21:38 24.03.2020
5906 Rain 26 1010 83 0 1.79 230 21:18 24.03.2020
5907 Rain 26 1010 83 0 1.79 230 21:18 24.03.2020
5908 Rain 26 1010 83 0 1.79 222 20:57 24.03.2020
5909 Rain 26 1010 82 0 1.79 226 20:39 24.03.2020
5910 Rain 26 1010 82 0 2.24 247 20:21 24.03.2020
5911 Rain 26 1010 82 0 2.68 224 19:45 24.03.2020
5912 Rain 27 1010 82 0 1.34 240 19:19 24.03.2020
5913 Rain 27 1011 82 0 2.24 232 18:56 24.03.2020
5914 Rain 27 1011 82 0 2.68 226 18:37 24.03.2020
5915 Rain 27 1011 82 0 2.68 226 18:37 24.03.2020
5916 Rain 27 1011 81 0 0.89 243 18:19 24.03.2020
5917 Rain 27 1011 81 0 0.89 239 17:43 24.03.2020
5918 Rain 27 1011 81 0 0.89 216 17:24 24.03.2020
5919 Haze 27 1010 78 5000 3.1 180 16:59 24.03.2020
5920 Haze 27 1010 83 5000 3.6 190 16:41 24.03.2020
5921 Haze 27 1010 83 5000 3.6 190 16:23 24.03.2020
5922 Haze 27 1010 83 5000 4.6 190 15:59 24.03.2020
5923 Haze 27 1009 83 4000 4.1 200 15:40 24.03.2020
5924 Haze 27 1009 83 4000 4.1 200 15:22 24.03.2020
5925 Clouds 28 1009 78 7000 1 0 14:43 24.03.2020
5926 Clouds 28 1009 78 7000 1 0 14:43 24.03.2020
5927 Clouds 28 1009 78 7000 1 0 14:43 24.03.2020
5928 Rain 27 1011 79 0 1.79 227 14:22 24.03.2020
5929 Rain 28 1010 74 0 2.68 239 13:55 24.03.2020
5930 Rain 28 1010 73 0 1.79 199 13:36 24.03.2020
5931 Rain 28 1008 83 3000 2.1 130 13:18 24.03.2020
5932 Rain 28 1008 83 3000 2.1 130 12:41 24.03.2020
5933 Rain 29 1008 83 3000 2.1 130 12:23 24.03.2020
5934 Rain 29 1007 78 4000 2.6 100 11:41 24.03.2020
5935 Rain 30 1007 78 4000 2.6 100 11:20 24.03.2020
5936 Clouds 30 1006 70 10000 3.1 10 10:57 24.03.2020
5937 Rain 31 1006 70 6000 4.6 20 10:38 24.03.2020
5938 Rain 31 1006 70 6000 4.6 20 10:18 24.03.2020
5939 Clouds 31 1007 66 10000 5.1 20 09:43 24.03.2020
5940 Rain 31 1006 66 6000 3.1 360 09:25 24.03.2020
5941 Clouds 31 1007 70 10000 6.2 350 08:40 24.03.2020
5942 Clouds 31 1007 70 10000 6.2 350 08:21 24.03.2020
5943 Clouds 31 1008 70 8000 6.2 330 07:59 24.03.2020
5944 Rain 30 1008 70 5000 2.6 300 07:41 24.03.2020
5945 Rain 31 1008 70 5000 2.6 300 07:21 24.03.2020
5946 Clouds 31 1009 70 8000 5.7 350 06:35 24.03.2020
5947 Rain 31 1009 70 4000 1.5 320 05:42 24.03.2020
5948 Clouds 31 1010 66 7000 1.5 30 04:51 24.03.2020
5949 Haze 29 1010 74 4000 1.5 190 03:21 24.03.2020
5950 Haze 29 1010 83 3000 1.5 130 02:37 24.03.2020
5951 Mist 25 1009 100 3000 1.5 150 00:54 24.03.2020
5952 Mist 25 1009 100 3000 1.5 120 00:27 24.03.2020
5953 Mist 25 1008 88 3300 2.6 0 23:56 23.03.2020
5954 Haze 25 1008 88 3000 1.5 150 23:37 23.03.2020
5955 Haze 25 1008 88 3000 2.6 160 23:19 23.03.2020
5956 Haze 25 1008 88 3000 2.6 160 22:44 23.03.2020
5957 Mist 25 1008 94 3000 0.47 338 22:22 23.03.2020
5958 Haze 25 1008 88 3100 1 0 21:55 23.03.2020
5959 Clouds 25 1008 88 3900 1.5 210 21:37 23.03.2020
5960 Clouds 25 1008 88 3900 1.5 210 21:18 23.03.2020
5961 Clouds 25 1008 88 4000 1.5 220 20:44 23.03.2020
5962 Haze 25 1009 88 4000 2.1 210 20:26 23.03.2020
5963 Haze 25 1009 94 3500 1 0 19:59 23.03.2020
5964 Haze 26 1010 88 4000 1 0 19:41 23.03.2020
5965 Haze 26 1010 88 4000 1 0 19:22 23.03.2020
5966 Haze 26 1010 88 4000 1 0 18:54 23.03.2020
5967 Haze 26 1010 83 4500 1.5 230 18:36 23.03.2020
5968 Haze 26 1010 83 4500 1.5 230 18:18 23.03.2020
5969 Haze 26 1010 83 4000 1 0 17:41 23.03.2020
5970 Haze 26 1011 83 4000 2.6 200 17:20 23.03.2020
5971 Haze 26 1011 83 4000 2.6 200 16:55 23.03.2020
5972 Haze 26 1011 83 4000 2.6 200 16:36 23.03.2020
5973 Haze 26 1011 83 4000 2.6 200 16:18 23.03.2020
5974 Haze 26 1010 88 4000 3.1 190 15:40 23.03.2020
5975 Haze 26 1010 88 4000 3.1 190 15:19 23.03.2020
5976 Haze 26 1010 88 4000 2.6 220 14:38 23.03.2020
5977 Haze 26 1010 88 4000 2.6 220 14:19 23.03.2020
5978 Haze 26 1009 94 4000 1.5 150 13:57 23.03.2020
5979 Haze 26 1009 88 4000 1.5 140 13:38 23.03.2020
5980 Haze 26 1009 88 4000 1.5 140 13:38 23.03.2020
5981 Haze 26 1009 88 4000 1.5 140 13:38 23.03.2020
5982 Haze 26 1009 88 4000 1.5 140 13:20 23.03.2020
5983 Rain 26 1008 83 4000 1.5 160 12:43 23.03.2020
5984 Rain 26 1008 83 4000 1.5 160 12:25 23.03.2020
5985 Clouds 26 1008 83 6000 2.6 0 11:57 23.03.2020
5986 Rain 25 1008 78 5000 2.61 354 11:38 23.03.2020
5987 Rain 25 1008 78 5000 2.61 354 11:38 23.03.2020
5988 Rain 26 1008 83 5000 2.1 160 11:19 23.03.2020
5989 Rain 27 1008 83 5000 2.1 160 10:56 23.03.2020
5990 Rain 28 1008 78 5000 2.6 180 10:37 23.03.2020
5991 Rain 27 1008 78 5000 2.6 180 10:19 23.03.2020
5992 Rain 29 1008 66 5000 2.1 210 09:43 23.03.2020
5993 Rain 29 1008 66 5000 2.1 210 09:21 23.03.2020
5994 Rain 32 1008 59 5000 2.1 360 08:40 23.03.2020
5995 Rain 32 1008 59 5000 2.1 360 08:20 23.03.2020
5996 Rain 31 1009 59 5000 3.1 360 07:59 23.03.2020
5997 Rain 31 1009 59 5000 3.1 360 07:59 23.03.2020
5998 Rain 31 1009 62 5000 1.5 330 07:40 23.03.2020
5999 Rain 31 1009 62 5000 1.5 330 07:19 23.03.2020
6000 Rain 32 1010 59 5000 1.5 330 06:48 23.03.2020
6001 Clouds 32 1011 66 10000 3.6 20 05:50 23.03.2020
6002 Clouds 31 1011 62 10000 3.1 10 04:57 23.03.2020
6003 Haze 29 1012 66 5000 1.5 100 03:24 23.03.2020
6004 Clouds 27 1011 78 9000 1.5 0 01:50 23.03.2020
6005 Clouds 26 1011 88 6000 2.35 129 00:52 23.03.2020
6006 Mist 25 1011 88 3000 1 0 00:33 23.03.2020
6007 Haze 25 1010 94 4000 1.5 250 23:46 22.03.2020
6008 Haze 25 1010 94 4000 1.5 250 23:25 22.03.2020
6009 Haze 25 1010 94 4000 1.5 210 22:45 22.03.2020
6010 Haze 25 1010 94 4000 1.5 210 22:23 22.03.2020
6011 Mist 25 1010 88 2500 1.5 0 21:55 22.03.2020
6012 Mist 25 1010 88 2500 1 0 21:37 22.03.2020
6013 Mist 25 1010 88 2500 1 0 21:18 22.03.2020
6014 Mist 25 1010 94 2500 1 260 20:46 22.03.2020
6015 Mist 25 1010 94 2500 2.6 270 20:25 22.03.2020
6016 Mist 25 1010 94 2500 2.6 270 20:25 22.03.2020
6017 Mist 25 1011 94 2500 2.1 280 19:58 22.03.2020
6018 Mist 25 1011 94 3000 1 360 19:40 22.03.2020
6019 Mist 25 1011 94 3000 1 360 19:20 22.03.2020
6020 Haze 25 1011 88 5000 1 10 18:59 22.03.2020
6021 Clouds 26 1011 83 7000 1 40 18:41 22.03.2020
6022 Clouds 26 1011 83 7000 1 40 18:22 22.03.2020
6023 Clouds 26 1012 88 6000 0.5 0 17:58 22.03.2020
6024 Clouds 26 1012 83 8000 2.1 0 17:38 22.03.2020
6025 Clouds 26 1012 83 8000 2.1 0 17:20 22.03.2020
6026 Clouds 26 1012 83 8000 2.6 200 16:57 22.03.2020
6027 Clouds 26 1012 88 8000 2.6 180 16:39 22.03.2020
6028 Clouds 26 1012 88 8000 2.6 180 16:39 22.03.2020
6029 Clouds 26 1012 88 8000 2.6 180 16:21 22.03.2020
6030 Clouds 26 1012 88 8000 3.1 210 15:44 22.03.2020
6031 Clouds 26 1012 88 8000 2.6 220 15:26 22.03.2020
6032 Clouds 26 1011 88 8000 1.5 230 14:46 22.03.2020
6033 Clouds 27 1011 88 8000 1 250 14:19 22.03.2020
6034 Clouds 27 1010 88 7000 1 300 13:55 22.03.2020
6035 Clouds 27 1010 78 6000 1.5 20 13:37 22.03.2020
6036 Clouds 28 1010 78 6000 1.5 20 13:18 22.03.2020
6037 Clouds 28 1009 83 8000 1.5 360 12:43 22.03.2020
6038 Clouds 29 1009 74 10000 2.1 360 12:20 22.03.2020
6039 Clouds 29 1009 74 10000 2.1 360 11:56 22.03.2020
6040 Clouds 29 1008 66 6000 3.1 10 11:37 22.03.2020
6041 Clouds 29 1008 66 6000 3.1 10 11:19 22.03.2020
6042 Clouds 30 1008 62 6000 4.1 350 10:43 22.03.2020
6043 Clouds 30 1008 62 6000 4.1 350 10:23 22.03.2020
6044 Clouds 30 1008 62 6000 2.1 10 09:48 22.03.2020
6045 Clouds 30 1008 62 6000 1.5 240 09:29 22.03.2020
6046 Clouds 29 1008 58 6000 2.1 280 08:54 22.03.2020
6047 Clouds 29 1009 58 6000 2.1 20 08:36 22.03.2020
6048 Clouds 29 1009 58 6000 2.1 20 08:18 22.03.2020
6049 Clouds 30 1009 62 6000 2.1 300 07:41 22.03.2020
6050 Clouds 29 1011 70 6000 2.1 150 07:18 22.03.2020
6051 Rain 26 1012 83 6000 1 0 05:54 22.03.2020
6052 Rain 26 1013 94 5000 2.1 320 04:50 22.03.2020
6053 Thunderstorm 27 1013 94 5000 0.5 0 02:43 22.03.2020
6054 Rain 26 1012 88 4000 1.49 89 01:20 22.03.2020
6055 Haze 26 1011 88 5000 2.1 130 00:35 22.03.2020
6056 Rain 26 1011 94 5000 1 290 23:57 21.03.2020
6057 Thunderstorm 26 1010 88 5000 2.1 290 23:38 21.03.2020
6058 Thunderstorm 26 1010 94 4000 0.5 0 23:18 21.03.2020
6059 Thunderstorm 26 1010 88 4000 2.1 70 22:38 21.03.2020
6060 Thunderstorm 26 1010 88 4000 2.1 70 22:20 21.03.2020
6061 Thunderstorm 26 1010 83 4000 5.7 20 21:59 21.03.2020
6062 Thunderstorm 27 1010 83 5000 2.6 0 21:39 21.03.2020
6063 Thunderstorm 28 1010 83 5000 2.6 0 21:21 21.03.2020
6064 Thunderstorm 28 1010 83 5000 2.1 30 20:45 21.03.2020
6065 Haze 28 1010 83 5000 2.1 50 20:23 21.03.2020
6066 Haze 28 1010 83 5000 2.6 50 19:57 21.03.2020
6067 Haze 28 1011 83 5000 3.1 60 19:38 21.03.2020
6068 Haze 28 1011 83 5000 3.1 60 19:19 21.03.2020
6069 Haze 28 1011 83 5000 3.6 70 18:54 21.03.2020
6070 Haze 28 1011 83 5000 3.6 70 18:36 21.03.2020
6071 Haze 28 1011 83 5000 3.6 60 18:18 21.03.2020
6072 Haze 28 1011 83 5000 3.6 60 18:18 21.03.2020
6073 Haze 28 1011 83 5000 3.6 70 17:42 21.03.2020
6074 Haze 28 1011 83 5000 3.6 70 17:23 21.03.2020
6075 Haze 28 1012 83 5000 3.6 70 16:56 21.03.2020
6076 Thunderstorm 28 1012 78 5000 2.6 60 16:38 21.03.2020
6077 Thunderstorm 28 1012 78 5000 2.6 60 16:18 21.03.2020
6078 Haze 29 1011 79 5000 1.5 60 15:41 21.03.2020
6079 Haze 29 1011 79 5000 1.5 60 15:23 21.03.2020
6080 Haze 29 1011 79 5000 1.5 50 14:58 21.03.2020
6081 Haze 29 1011 79 5000 1.5 50 14:58 21.03.2020
6082 Haze 29 1010 83 5000 1.5 50 14:40 21.03.2020
6083 Haze 29 1010 83 5000 1.5 50 14:20 21.03.2020
6084 Haze 29 1010 79 5000 2.6 60 13:59 21.03.2020
6085 Clouds 29 1010 74 6000 3.1 40 13:40 21.03.2020
6086 Clouds 29 1010 74 6000 3.1 40 13:21 21.03.2020
6087 Clouds 29 1010 74 6000 3.1 40 13:21 21.03.2020
6088 Clouds 29 1009 79 8000 2.6 50 12:58 21.03.2020
6089 Clouds 29 1009 79 8000 2.6 50 12:37 21.03.2020
6090 Clouds 30 1008 74 9000 3.1 50 12:19 21.03.2020
6091 Clouds 30 1008 74 9000 3.1 50 11:55 21.03.2020
6092 Clouds 29 1008 74 9000 3.1 50 11:37 21.03.2020
6093 Clouds 30 1008 74 9000 4.1 40 11:18 21.03.2020
6094 Clouds 31 1008 74 9000 4.1 40 10:56 21.03.2020
6095 Rain 31 1008 66 6000 4.1 360 10:38 21.03.2020
6096 Rain 31 1008 66 6000 4.1 360 10:19 21.03.2020
6097 Clouds 31 1008 70 6000 3.6 40 09:55 21.03.2020
6098 Clouds 31 1008 66 9000 4.6 70 09:36 21.03.2020
6099 Clouds 31 1008 66 9000 4.6 70 09:18 21.03.2020
6100 Clouds 31 1008 66 9000 4.6 60 08:42 21.03.2020
6101 Clouds 32 1008 66 6000 4.1 10 08:23 21.03.2020
6102 Clouds 32 1010 59 6000 3.6 50 07:43 21.03.2020
6103 Clouds 32 1010 59 6000 3.6 50 07:23 21.03.2020
6104 Clouds 32 1011 66 9000 4.1 80 06:47 21.03.2020
6105 Clouds 32 1011 66 9000 4.1 80 06:27 21.03.2020
6106 Clouds 31 1012 70 9000 4.6 90 05:46 21.03.2020
6107 Haze 31 1013 70 5000 2.6 120 04:46 21.03.2020
6108 Haze 28 1013 70 5000 2.66 62 02:51 21.03.2020
6109 Haze 28 1012 74 4000 1.5 210 02:33 21.03.2020
6110 Haze 25 1011 94 4000 1.28 94 01:32 21.03.2020
6111 Mist 24 1011 100 4000 1.28 94 00:48 21.03.2020
6112 Mist 24 1011 100 3000 1.28 94 00:26 21.03.2020
6113 Mist 24 1010 100 3000 1.28 94 23:51 20.03.2020
6114 Mist 24 1010 100 3000 1.28 94 23:27 20.03.2020
6115 Clouds 24 1010 88 6000 1 0 22:57 20.03.2020
6116 Mist 24 1010 100 3000 1.84 184 22:39 20.03.2020
6117 Mist 24 1010 100 3000 1.84 184 22:20 20.03.2020
6118 Clouds 24 1010 88 6000 1 160 21:55 20.03.2020
6119 Clouds 24 1010 94 6000 0.5 220 21:37 20.03.2020
6120 Clouds 24 1010 94 6000 0.5 220 21:18 20.03.2020
6121 Haze 24 1010 88 5000 0.5 160 20:55 20.03.2020
6122 Haze 25 1011 88 4000 1 160 20:37 20.03.2020
6123 Haze 25 1011 88 4000 1 160 20:18 20.03.2020
6124 Haze 24 1011 94 4000 1 240 19:44 20.03.2020
6125 Haze 25 1011 88 4000 1 0 19:18 20.03.2020
6126 Haze 25 1011 88 4000 1 110 18:55 20.03.2020
6127 Haze 25 1011 88 4000 1 110 18:36 20.03.2020
6128 Haze 25 1012 88 5000 1 150 18:18 20.03.2020
6129 Haze 25 1012 88 5000 1 150 17:39 20.03.2020
6130 Haze 25 1012 88 5000 1.5 180 17:21 20.03.2020
6131 Haze 25 1012 88 5000 1.5 180 16:57 20.03.2020
6132 Haze 25 1013 94 5000 1.5 150 16:39 20.03.2020
6133 Haze 25 1013 94 5000 1.5 150 16:18 20.03.2020
6134 Haze 25 1013 94 5000 2.6 190 15:42 20.03.2020
6135 Haze 25 1013 94 5000 2.6 190 15:21 20.03.2020
6136 Clouds 25 1012 88 6000 2.6 150 14:55 20.03.2020
6137 Rain 25 1012 94 4000 2.1 230 14:37 20.03.2020
6138 Rain 25 1012 94 4000 2.1 230 14:18 20.03.2020
6139 Rain 25 1011 94 3000 3.1 200 13:42 20.03.2020
6140 Rain 25 1011 94 3000 3.1 200 13:19 20.03.2020
6141 Rain 25 1011 88 5000 2.6 170 12:40 20.03.2020
6142 Rain 25 1011 88 5000 2.6 170 12:22 20.03.2020
6143 Rain 25 1010 88 5000 1.5 0 11:58 20.03.2020
6144 Rain 25 1010 88 6000 3.1 220 11:38 20.03.2020
6145 Rain 26 1009 94 3000 2.6 230 11:19 20.03.2020
6146 Thunderstorm 26 1009 100 3000 1.5 150 10:42 20.03.2020
6147 Thunderstorm 26 1009 100 3000 1.5 150 10:21 20.03.2020
6148 Thunderstorm 26 1009 100 3000 1.5 250 09:57 20.03.2020
6149 Thunderstorm 27 1009 100 3000 1.5 300 09:39 20.03.2020
6150 Thunderstorm 26 1009 100 3000 1.5 300 09:19 20.03.2020
6151 Thunderstorm 27 1009 100 2500 2.6 270 08:42 20.03.2020
6152 Thunderstorm 27 1010 94 3000 3.6 300 08:22 20.03.2020
6153 Thunderstorm 27 1010 94 3000 3.6 300 08:22 20.03.2020
6154 Thunderstorm 27 1010 94 3000 3.6 300 08:22 20.03.2020
6155 Thunderstorm 28 1009 88 4000 7.2 10 07:55 20.03.2020
6156 Rain 29 1010 66 4000 2.6 20 07:37 20.03.2020
6157 Rain 30 1010 66 5000 2.6 240 07:18 20.03.2020
6158 Rain 30 1010 74 5000 5.7 300 06:41 20.03.2020
6159 Clouds 31 1012 70 6000 3.6 240 04:52 20.03.2020
6160 Haze 28 1013 78 5000 2.1 240 03:40 20.03.2020
6161 Haze 26 1012 94 4000 1.5 250 02:21 20.03.2020
6162 Mist 26 1011 100 4000 1.5 240 01:33 20.03.2020
6163 Haze 24 1011 94 3000 1 0 00:33 20.03.2020
6164 Clouds 24 1010 94 6000 1 200 23:49 19.03.2020
6165 Clouds 24 1010 94 6000 1 200 23:30 19.03.2020
6166 Mist 24 1010 100 3000 2.39 144 22:57 19.03.2020
6167 Mist 24 1010 100 3000 1.5 270 22:38 19.03.2020
6168 Mist 24 1010 100 3000 1.5 270 22:20 19.03.2020
6169 Mist 24 1010 94 5000 1.5 220 21:55 19.03.2020
6170 Mist 24 1010 94 5000 1 0 21:37 19.03.2020
6171 Mist 24 1010 94 5000 1 0 21:18 19.03.2020
6172 Mist 24 1010 94 5000 1 150 20:42 19.03.2020
6173 Mist 24 1010 94 5000 1 150 20:23 19.03.2020
6174 Clouds 24 1011 94 6000 1 0 19:57 19.03.2020
6175 Clouds 24 1011 94 5000 1.5 220 19:38 19.03.2020
6176 Clouds 24 1011 94 5000 1.5 220 19:20 19.03.2020
6177 Clouds 24 1011 94 5000 1.5 220 18:56 19.03.2020
6178 Clouds 24 1011 94 5000 1.5 220 18:56 19.03.2020
6179 Clouds 24 1012 94 5000 1 0 18:38 19.03.2020
6180 Clouds 24 1012 94 5000 1 0 18:38 19.03.2020
6181 Clouds 24 1012 94 6000 1.5 210 18:19 19.03.2020
6182 Clouds 25 1013 88 6000 1.5 220 17:42 19.03.2020
6183 Rain 25 1013 88 6000 2.1 140 17:19 19.03.2020
6184 Rain 25 1013 88 6000 2.1 140 16:55 19.03.2020
6185 Rain 25 1012 100 4000 2.1 120 16:37 19.03.2020
6186 Rain 25 1012 100 4000 2.1 120 16:19 19.03.2020
6187 Thunderstorm 24 1012 94 5000 1.5 130 15:40 19.03.2020
6188 Thunderstorm 24 1012 94 5000 1.5 130 15:18 19.03.2020
6189 Thunderstorm 25 1012 94 3000 1.5 120 14:43 19.03.2020
6190 Thunderstorm 26 1012 94 3000 1.5 120 14:21 19.03.2020
6191 Thunderstorm 26 1011 94 1500 5.1 180 13:42 19.03.2020
6192 Thunderstorm 26 1011 94 1500 5.1 180 13:21 19.03.2020
6193 Rain 27 1010 88 4000 5.1 180 12:58 19.03.2020
6194 Clouds 27 1010 78 8000 3.6 210 12:40 19.03.2020
6195 Clouds 28 1010 74 8000 2.6 200 12:21 19.03.2020
6196 Clouds 29 1009 70 8000 2.6 0 11:43 19.03.2020
6197 Rain 29 1008 74 6000 3.6 360 11:24 19.03.2020
6198 Rain 29 1008 74 6000 3.6 360 10:58 19.03.2020
6199 Clouds 30 1008 70 6000 2.6 360 10:38 19.03.2020
6200 Clouds 30 1008 70 6000 2.6 360 10:19 19.03.2020
6201 Clouds 30 1008 70 6000 4.1 360 09:55 19.03.2020
6202 Clouds 30 1008 70 6000 2.1 360 09:37 19.03.2020
6203 Clouds 31 1008 70 6000 2.1 360 09:18 19.03.2020
6204 Clouds 31 1009 70 6000 2.6 360 08:41 19.03.2020
6205 Clouds 31 1009 70 6000 2.6 360 08:20 19.03.2020
6206 Rain 29 1010 79 5000 2.1 330 07:45 19.03.2020
6207 Rain 28 1010 79 5000 2.1 330 07:25 19.03.2020
6208 Rain 30 1010 74 6000 4.1 10 06:43 19.03.2020
6209 Clouds 32 1011 62 8000 5.1 330 05:48 19.03.2020
6210 Rain 31 1012 62 5000 2.6 30 04:57 19.03.2020
6211 Rain 31 1012 66 5000 2.1 240 04:39 19.03.2020
6212 Haze 28 1012 70 4000 2.1 300 02:49 19.03.2020
6213 Mist 27 1011 100 2000 2.1 220 01:21 19.03.2020
6214 Mist 25 1010 94 2500 1.5 0 00:28 19.03.2020
6215 Haze 25 1009 94 3000 1.5 230 23:51 18.03.2020
6216 Haze 25 1009 94 3000 1.5 230 23:30 18.03.2020
6217 Haze 25 1009 94 3000 1.5 230 23:30 18.03.2020
6218 Mist 25 1009 88 3900 1.5 240 22:56 18.03.2020
6219 Clouds 25 1009 88 4000 1.5 240 22:38 18.03.2020
6220 Clouds 25 1009 88 4000 1.5 240 22:20 18.03.2020
6221 Mist 26 1010 88 4000 1.5 180 21:42 18.03.2020
6222 Mist 26 1010 88 4000 1.5 180 21:21 18.03.2020
6223 Mist 26 1010 88 4300 1 230 20:59 18.03.2020
6224 Mist 26 1010 94 3700 0.5 190 20:40 18.03.2020
6225 Mist 26 1010 94 3700 0.5 190 20:40 18.03.2020
6226 Mist 26 1010 94 3700 0.5 190 20:20 18.03.2020
6227 Mist 26 1010 88 3000 1.5 210 19:56 18.03.2020
6228 Mist 26 1010 94 3000 1 160 19:38 18.03.2020
6229 Mist 26 1010 94 3000 1 160 19:20 18.03.2020
6230 Mist 26 1011 83 4000 1 180 18:41 18.03.2020
6231 Mist 26 1011 83 4000 1 180 18:21 18.03.2020
6232 Mist 26 1011 83 4000 1 180 18:21 18.03.2020
6233 Mist 26 1011 88 4000 1.5 160 17:59 18.03.2020
6234 Mist 26 1011 88 4000 1.5 160 17:40 18.03.2020
6235 Mist 26 1012 88 4000 2.1 180 17:21 18.03.2020
6236 Mist 26 1012 88 4000 2.1 180 16:58 18.03.2020
6237 Mist 26 1011 88 4000 1 0 16:40 18.03.2020
6238 Mist 26 1011 88 4000 1 0 16:20 18.03.2020
6239 Mist 26 1011 88 4000 1 0 15:45 18.03.2020
6240 Mist 26 1011 83 5000 1 0 15:23 18.03.2020
6241 Clouds 26 1011 83 6000 1 0 14:56 18.03.2020
6242 Clouds 26 1011 78 7000 1 0 14:38 18.03.2020
6243 Clouds 27 1011 78 7000 1 0 14:19 18.03.2020
6244 Clouds 27 1010 83 8000 1.5 0 13:38 18.03.2020
6245 Clouds 27 1010 83 8000 1.5 0 13:19 18.03.2020
6246 Clouds 27 1010 83 8000 2.1 130 12:42 18.03.2020
6247 Clouds 27 1009 83 9000 1 100 12:20 18.03.2020
6248 Clouds 28 1009 78 9000 1 0 11:41 18.03.2020
6249 Clouds 28 1009 83 8000 2.1 0 11:21 18.03.2020
6250 Clouds 28 1009 83 8000 2.1 0 10:58 18.03.2020
6251 Clouds 28 1009 78 6000 1.5 250 10:39 18.03.2020
6252 Clouds 28 1009 78 6000 1.5 250 10:20 18.03.2020
6253 Clouds 28 1008 83 7000 2.1 0 09:59 18.03.2020
6254 Clouds 28 1009 78 6000 2.1 280 09:39 18.03.2020
6255 Clouds 28 1009 78 6000 2.1 280 09:21 18.03.2020
6256 Rain 28 1009 83 5000 2.1 290 08:40 18.03.2020
6257 Rain 27 1009 83 5000 2.1 290 08:21 18.03.2020
6258 Haze 27 1010 88 5000 1.5 10 07:49 18.03.2020
6259 Haze 27 1010 88 5000 1.5 10 07:31 18.03.2020
6260 Rain 26 1010 88 8000 2.6 0 06:54 18.03.2020
6261 Rain 26 1010 88 8000 2.6 0 06:35 18.03.2020
6262 Thunderstorm 26 1011 88 6000 2.6 0 05:37 18.03.2020
6263 Rain 28 1012 79 3000 2.6 90 04:32 18.03.2020
6264 Rain 28 1011 78 3000 1.5 90 03:21 18.03.2020
6265 Rain 27 1011 78 4000 2.54 329 02:35 18.03.2020
6266 Haze 27 1011 88 3000 1.5 170 01:32 18.03.2020
6267 Haze 26 1010 88 5000 1.5 0 00:42 18.03.2020
6268 Rain 26 1010 88 4000 3.16 133 00:21 18.03.2020
6269 Rain 26 1010 88 5000 3.16 133 23:41 17.03.2020
6270 Haze 26 1009 88 5000 0.5 0 23:20 17.03.2020
6271 Thunderstorm 26 1009 88 5000 1 0 22:42 17.03.2020
6272 Thunderstorm 26 1009 88 5000 1 0 22:24 17.03.2020
6273 Thunderstorm 26 1009 88 5000 1 0 21:43 17.03.2020
6274 Thunderstorm 26 1009 88 5000 1 130 21:23 17.03.2020
6275 Thunderstorm 26 1009 94 5000 1 160 20:57 17.03.2020
6276 Thunderstorm 26 1010 88 5000 2.1 140 20:37 17.03.2020
6277 Thunderstorm 26 1010 88 5000 2.1 140 20:19 17.03.2020
6278 Mist 26 1010 94 5000 2.6 100 19:41 17.03.2020
6279 Clouds 26 1010 88 6000 1 0 19:19 17.03.2020
6280 Clouds 26 1010 88 6000 1 0 18:57 17.03.2020
6281 Thunderstorm 26 1011 88 5000 1.5 0 18:39 17.03.2020
6282 Thunderstorm 26 1011 88 5000 1.5 0 18:21 17.03.2020
6283 Mist 26 1011 88 5000 1.5 180 17:56 17.03.2020
6284 Mist 26 1011 88 5000 1.5 180 17:37 17.03.2020
6285 Thunderstorm 26 1012 88 2500 2.1 0 17:18 17.03.2020
6286 Rain 27 1012 83 5000 2.6 220 16:41 17.03.2020
6287 Rain 27 1012 83 5000 2.6 220 16:19 17.03.2020
6288 Clouds 27 1012 83 6000 2.6 230 15:45 17.03.2020
6289 Clouds 27 1011 83 6000 3.6 230 15:22 17.03.2020
6290 Thunderstorm 29 1011 74 8000 1 310 14:44 17.03.2020
6291 Clouds 29 1011 74 7000 1.5 310 14:25 17.03.2020
6292 Clouds 29 1010 74 7000 1.5 300 13:58 17.03.2020
6293 Rain 29 1010 74 5000 2.1 330 13:39 17.03.2020
6294 Rain 29 1010 74 5000 2.1 330 13:21 17.03.2020
6295 Clouds 29 1009 74 8000 2.6 360 12:44 17.03.2020
6296 Rain 30 1008 70 5000 4.6 10 12:24 17.03.2020
6297 Rain 30 1008 70 5000 4.6 10 11:55 17.03.2020
6298 Clouds 31 1008 70 10000 3.6 360 11:37 17.03.2020
6299 Clouds 31 1007 62 6000 4.6 20 11:19 17.03.2020
6300 Clouds 31 1007 62 6000 4.6 20 10:54 17.03.2020
6301 Clouds 31 1007 62 6000 3.1 350 10:36 17.03.2020
6302 Clouds 31 1007 62 6000 3.1 350 10:18 17.03.2020
6303 Clouds 32 1007 62 6000 6.2 10 09:44 17.03.2020
6304 Clouds 33 1007 62 6000 6.2 10 09:20 17.03.2020
6305 Clouds 32 1008 59 6000 5.1 30 08:51 17.03.2020
6306 Clouds 32 1009 59 6000 4.1 350 08:24 17.03.2020
6307 Clouds 33 1009 59 10000 5.1 350 07:58 17.03.2020
6308 Clouds 32 1009 62 6000 2.6 350 07:39 17.03.2020
6309 Clouds 32 1009 62 6000 2.6 350 07:19 17.03.2020
6310 Clouds 33 1010 59 10000 4.6 360 06:40 17.03.2020
6311 Clouds 33 1010 59 10000 3.6 20 06:19 17.03.2020
6312 Haze 31 1012 66 5000 2.1 60 04:40 17.03.2020
6313 Haze 31 1012 70 4000 1.5 90 03:19 17.03.2020
6314 Haze 28 1012 83 3000 1.5 140 01:49 17.03.2020
6315 Mist 27 1011 94 3000 1.9 95 01:29 17.03.2020
6316 Haze 25 1011 88 5000 1.5 130 00:50 17.03.2020
6317 Haze 25 1011 88 5000 1.5 160 23:51 16.03.2020
6318 Haze 25 1011 88 5000 1.5 160 23:33 16.03.2020
6319 Mist 25 1010 100 3000 1.5 210 22:55 16.03.2020
6320 Mist 25 1010 100 3000 1.5 170 22:36 16.03.2020
6321 Mist 25 1010 100 3000 1.5 170 22:18 16.03.2020
6322 Haze 25 1010 88 5000 1 170 21:41 16.03.2020
6323 Clouds 25 1011 88 6000 1 0 21:23 16.03.2020
6324 Clouds 25 1011 88 6000 1 110 20:58 16.03.2020
6325 Clouds 25 1011 88 7000 0.5 0 20:38 16.03.2020
6326 Clouds 25 1011 88 7000 0.5 0 20:20 16.03.2020
6327 Clouds 25 1011 88 6000 3.1 160 19:42 16.03.2020
6328 Clouds 25 1012 88 6000 1.5 150 19:23 16.03.2020
6329 Clouds 25 1012 88 6000 1.5 100 18:57 16.03.2020
6330 Clouds 25 1012 88 6000 1.5 100 18:37 16.03.2020
6331 Clouds 25 1012 88 6000 1 210 18:18 16.03.2020
6332 Clouds 25 1012 88 6000 1.5 160 17:43 16.03.2020
6333 Clouds 25 1012 88 6000 1.5 160 17:24 16.03.2020
6334 Clouds 25 1013 88 6000 1.5 170 16:47 16.03.2020
6335 Clouds 25 1012 88 6000 1.5 190 16:29 16.03.2020
6336 Clouds 25 1012 88 6000 1.5 0 15:57 16.03.2020
6337 Rain 25 1012 88 6000 2.1 0 15:39 16.03.2020
6338 Rain 25 1012 88 6000 2.1 0 15:19 16.03.2020
6339 Thunderstorm 25 1012 100 4000 2.1 180 14:43 16.03.2020
6340 Thunderstorm 25 1012 100 4000 2.1 180 14:19 16.03.2020
6341 Thunderstorm 25 1012 100 4000 2.6 150 13:42 16.03.2020
6342 Thunderstorm 25 1012 100 4000 1.5 160 13:24 16.03.2020
6343 Thunderstorm 25 1011 88 5000 3.1 190 12:46 16.03.2020
6344 Thunderstorm 25 1011 88 5000 3.1 190 12:27 16.03.2020
6345 Thunderstorm 25 1011 88 5000 1 0 11:59 16.03.2020
6346 Thunderstorm 25 1011 88 5000 5.1 180 11:41 16.03.2020
6347 Thunderstorm 26 1010 100 500 8.2 220 11:18 16.03.2020
6348 Rain 28 1009 88 1000 7.7 210 10:42 16.03.2020
6349 Rain 28 1009 88 1000 7.7 210 10:24 16.03.2020
6350 Rain 32 1007 59 6000 5.1 360 09:45 16.03.2020
6351 Rain 32 1007 59 6000 5.1 360 09:27 16.03.2020
6352 Rain 32 1008 59 6000 5.1 360 08:56 16.03.2020
6353 Rain 33 1008 59 6000 7.2 360 08:26 16.03.2020
6354 Clouds 33 1009 59 6000 6.2 360 07:50 16.03.2020
6355 Clouds 33 1010 59 6000 3.6 40 07:28 16.03.2020
6356 Clouds 33 1010 63 6000 3.1 360 06:54 16.03.2020
6357 Clouds 33 1010 63 6000 3.1 360 06:54 16.03.2020
6358 Clouds 32 1010 62 10000 5.1 20 06:26 16.03.2020
6359 Clouds 32 1011 66 10000 5.1 30 05:50 16.03.2020
6360 Clouds 28 1012 78 7000 1 0 02:45 16.03.2020
6361 Haze 27 1011 88 5000 1.5 0 01:20 16.03.2020
6362 Mist 26 1010 94 3000 2.18 147 00:40 16.03.2020
6363 Clouds 26 1010 88 7000 1 110 23:49 15.03.2020
6364 Clouds 26 1010 88 7000 1 0 23:21 15.03.2020
6365 Clouds 26 1010 88 7000 1.5 140 22:56 15.03.2020
6366 Clouds 26 1009 88 7000 1 0 22:37 15.03.2020
6367 Clouds 26 1009 88 7000 1 0 22:19 15.03.2020
6368 Clouds 26 1009 88 6000 1 210 21:39 15.03.2020
6369 Clouds 26 1009 88 6000 1 210 21:19 15.03.2020
6370 Clouds 26 1010 88 6000 1 0 20:43 15.03.2020
6371 Thunderstorm 26 1010 88 5000 1.5 220 20:22 15.03.2020
6372 Haze 26 1010 88 5000 1 0 19:58 15.03.2020
6373 Haze 26 1010 83 5000 0.5 0 19:40 15.03.2020
6374 Haze 26 1010 83 5000 0.5 0 19:22 15.03.2020
6375 Haze 26 1010 88 5000 1 140 18:56 15.03.2020
6376 Haze 26 1011 83 5000 1.5 220 18:38 15.03.2020
6377 Haze 26 1011 83 5000 1.5 220 18:20 15.03.2020
6378 Haze 26 1011 83 5000 2.1 160 17:41 15.03.2020
6379 Haze 26 1011 83 5000 1.5 120 17:22 15.03.2020
6380 Haze 26 1011 83 5000 1.5 120 16:59 15.03.2020
6381 Rain 26 1011 88 5000 1.5 0 16:40 15.03.2020
6382 Rain 26 1011 88 5000 1.5 0 16:22 15.03.2020
6383 Rain 26 1011 83 5000 2.1 150 15:56 15.03.2020
6384 Rain 26 1011 78 5000 2.6 0 15:38 15.03.2020
6385 Rain 26 1011 78 5000 2.6 0 15:19 15.03.2020
6386 Thunderstorm 26 1011 78 5000 3.6 160 14:40 15.03.2020
6387 Thunderstorm 26 1010 78 0 3.6 130 14:22 15.03.2020
6388 Thunderstorm 27 1010 74 6000 3.1 180 13:56 15.03.2020
6389 Thunderstorm 28 1009 74 6000 1.5 360 13:38 15.03.2020
6390 Thunderstorm 28 1009 74 6000 1.5 360 13:38 15.03.2020
6391 Thunderstorm 28 1009 74 6000 1.5 360 13:19 15.03.2020
6392 Clouds 29 1008 74 8000 3.6 10 12:41 15.03.2020
6393 Clouds 29 1008 74 8000 3.6 10 12:23 15.03.2020
6394 Clouds 30 1007 74 10000 3.6 360 11:45 15.03.2020
6395 Clouds 30 1007 74 10000 3.6 360 11:26 15.03.2020
6396 Clouds 30 1007 74 10000 4.1 360 10:59 15.03.2020
6397 Clouds 31 1007 70 10000 4.6 360 10:41 15.03.2020
6398 Clouds 31 1007 70 10000 4.6 360 10:22 15.03.2020
6399 Clouds 31 1007 70 10000 4.6 360 10:22 15.03.2020
6400 Clouds 31 1007 70 10000 5.1 360 09:59 15.03.2020
6401 Clouds 32 1007 66 10000 6.2 10 09:39 15.03.2020
6402 Clouds 32 1007 66 10000 6.2 10 09:20 15.03.2020
6403 Clouds 32 1007 66 10000 5.1 360 08:41 15.03.2020
6404 Clouds 33 1007 66 10000 5.1 10 08:20 15.03.2020
6405 Clouds 33 1008 62 10000 5.7 10 07:50 15.03.2020
6406 Clouds 33 1008 62 10000 5.1 20 07:23 15.03.2020
6407 Clouds 33 1009 66 10000 5.1 10 06:44 15.03.2020
6408 Clouds 32 1009 62 10000 4.1 30 05:49 15.03.2020
6409 Clouds 31 1010 66 10000 4.1 50 04:58 15.03.2020
6410 Haze 31 1011 66 5000 1.5 20 04:40 15.03.2020
6411 Haze 30 1011 66 5000 1.5 20 04:20 15.03.2020
6412 Clouds 29 1011 74 10000 1 0 03:24 15.03.2020
6413 Clouds 29 1010 74 6000 2.6 140 02:28 15.03.2020
6414 Haze 26 1010 83 5000 1 0 00:59 15.03.2020
6415 Haze 26 1010 83 5000 1 0 00:41 15.03.2020
6416 Haze 26 1010 83 5000 1 0 00:19 15.03.2020
6417 Haze 26 1009 83 5000 1 160 23:41 14.03.2020
6418 Haze 26 1009 83 5000 1 160 23:20 14.03.2020
6419 Haze 26 1009 83 5000 1.5 120 22:56 14.03.2020
6420 Haze 26 1009 83 5000 1 0 22:38 14.03.2020
6421 Haze 26 1009 83 5000 1 0 22:20 14.03.2020
6422 Haze 26 1009 83 5000 1.5 160 21:55 14.03.2020
6423 Haze 26 1009 83 5000 1 160 21:36 14.03.2020
6424 Haze 26 1009 83 5000 1 160 21:18 14.03.2020
6425 Clouds 26 1009 83 5000 1 160 20:58 14.03.2020
6426 Haze 26 1009 83 5000 1.5 160 20:39 14.03.2020
6427 Haze 26 1009 83 5000 1.5 160 20:18 14.03.2020
6428 Haze 26 1009 83 5000 1 0 19:42 14.03.2020
6429 Haze 26 1009 83 5000 1 0 19:24 14.03.2020
6430 Haze 26 1010 83 5000 2.6 140 18:41 14.03.2020
6431 Clouds 26 1010 83 6000 3.6 120 18:21 14.03.2020
6432 Clouds 26 1010 83 6000 3.1 130 17:43 14.03.2020
6433 Rain 26 1011 88 5000 2.6 170 17:24 14.03.2020
6434 Rain 26 1011 88 5000 2.6 170 16:59 14.03.2020
6435 Rain 26 1011 88 5000 2.6 150 16:40 14.03.2020
6436 Rain 26 1011 88 5000 2.6 150 16:21 14.03.2020
6437 Rain 26 1011 88 5000 2.6 150 16:21 14.03.2020
6438 Rain 26 1011 88 5000 2.1 160 15:51 14.03.2020
6439 Rain 26 1010 94 4000 3.1 150 15:25 14.03.2020
6440 Rain 27 1010 88 4000 3.1 170 14:45 14.03.2020
6441 Rain 27 1010 83 5000 2.1 200 14:23 14.03.2020
6442 Clouds 27 1010 78 7000 2.6 160 13:57 14.03.2020
6443 Clouds 28 1010 78 7000 2.6 160 13:39 14.03.2020
6444 Thunderstorm 28 1010 79 8000 1.5 0 13:20 14.03.2020
6445 Clouds 28 1010 83 8000 2.1 50 12:45 14.03.2020
6446 Clouds 29 1010 83 8000 2.1 50 12:26 14.03.2020
6447 Clouds 30 1009 74 10000 3.1 340 11:56 14.03.2020
6448 -273 0 0 0 0 0 11:38 14.03.2020
6449 Thunderstorm 30 1008 70 10000 3.6 360 11:19 14.03.2020
6450 Rain 31 1007 62 6000 3.1 360 10:41 14.03.2020
6451 Rain 32 1007 62 6000 3.1 360 10:23 14.03.2020
6452 Clouds 32 1007 59 6000 5.1 360 09:44 14.03.2020
6453 Clouds 32 1007 59 6000 5.1 360 09:24 14.03.2020
6454 Clouds 32 1007 59 6000 5.1 360 09:24 14.03.2020
6455 Clouds 32 1007 56 6000 3.1 360 08:48 14.03.2020
6456 Haze 32 1008 56 5000 2.6 360 08:29 14.03.2020
6457 Rain 32 1008 63 5000 2.1 270 07:55 14.03.2020
6458 Rain 33 1009 55 5000 2.1 360 07:37 14.03.2020
6459 Rain 32 1009 55 5000 2.1 360 07:19 14.03.2020
6460 Clouds 33 1010 62 8000 3.6 330 06:40 14.03.2020
6461 Clouds 33 1010 62 8000 3.6 330 06:40 14.03.2020
6462 Clouds 32 1010 62 8000 3.1 40 05:43 14.03.2020
6463 Clouds 30 1012 66 7000 0.5 0 03:49 14.03.2020
6464 Haze 29 1012 74 3000 1.5 180 03:24 14.03.2020
6465 Haze 29 1012 78 2500 1.5 140 02:23 14.03.2020
6466 Mist 26 1011 83 4000 1 170 00:49 14.03.2020
6467 Mist 26 1010 94 3000 1.87 124 23:50 13.03.2020
6468 Mist 26 1010 94 3000 1.87 124 23:30 13.03.2020
6469 Mist 26 1010 83 3000 1.5 170 22:52 13.03.2020
6470 Haze 26 1009 83 4000 1.5 170 22:26 13.03.2020
6471 Clouds 26 1009 88 6000 0.5 0 21:44 13.03.2020
6472 Clouds 26 1009 88 6000 1 110 21:22 13.03.2020
6473 Clouds 26 1010 83 6000 0.5 0 20:59 13.03.2020
6474 Clouds 27 1010 83 6000 1 120 20:41 13.03.2020
6475 Clouds 27 1010 83 6000 1 120 20:21 13.03.2020
6476 Clouds 27 1010 83 7000 1 0 19:48 13.03.2020
6477 Clouds 26 1010 83 7000 1 0 19:30 13.03.2020
6478 Haze 26 1011 78 5000 1 0 18:51 13.03.2020
6479 Haze 26 1011 78 5000 1 0 18:32 13.03.2020
6480 Haze 26 1012 78 5000 1 0 17:59 13.03.2020
6481 Haze 26 1012 83 5000 1 70 17:41 13.03.2020
6482 Clouds 26 1012 78 8000 1 0 17:20 13.03.2020
6483 Clouds 26 1012 74 8000 1 120 16:42 13.03.2020
6484 Clouds 27 1012 74 8000 1 120 16:24 13.03.2020
6485 Clouds 27 1012 74 8000 1 0 15:59 13.03.2020
6486 Clouds 27 1012 74 8000 1.5 0 15:39 13.03.2020
6487 Clouds 27 1012 74 8000 1.5 0 15:20 13.03.2020
6488 Clouds 27 1012 74 8000 1 0 14:44 13.03.2020
6489 Clouds 28 1011 74 8000 1.5 0 14:23 13.03.2020
6490 Clouds 28 1011 74 8000 1 0 13:58 13.03.2020
6491 Clouds 28 1010 66 6000 1.5 330 13:39 13.03.2020
6492 Clouds 28 1010 66 9000 2.1 0 13:20 13.03.2020
6493 Clouds 28 1010 66 9000 2.1 0 12:55 13.03.2020
6494 Clouds 28 1010 66 9000 2.1 0 12:55 13.03.2020
6495 Clouds 29 1010 66 9000 2.1 0 12:37 13.03.2020
6496 Clouds 28 1010 66 10000 1.5 0 12:18 13.03.2020
6497 Clouds 30 1010 66 10000 2.6 0 11:43 13.03.2020
6498 Clouds 31 1009 62 10000 3.6 320 11:25 13.03.2020
6499 Clouds 32 1009 62 10000 3.6 320 10:57 13.03.2020
6500 Clouds 32 1009 55 6000 2.6 340 10:39 13.03.2020
6501 Clouds 32 1009 55 6000 2.6 340 10:21 13.03.2020
6502 Clouds 32 1009 58 10000 5.7 300 09:44 13.03.2020
6503 Clouds 32 1010 62 6000 3.1 360 09:25 13.03.2020
6504 Clouds 32 1010 62 10000 4.1 310 08:47 13.03.2020
6505 Clouds 32 1010 55 6000 4.1 20 08:23 13.03.2020
6506 Clouds 32 1011 62 10000 5.7 300 07:58 13.03.2020
6507 Clouds 33 1011 62 10000 4.6 300 07:38 13.03.2020
6508 Clouds 32 1011 70 10000 4.6 300 07:19 13.03.2020
6509 Clouds 31 1011 70 10000 4.6 300 06:44 13.03.2020
6510 Clouds 31 1011 70 10000 4.6 300 06:44 13.03.2020
6511 Clouds 32 1012 62 10000 4.1 310 05:56 13.03.2020
6512 Clouds 32 1012 62 10000 4.1 310 05:37 13.03.2020
6513 Clouds 31 1013 66 6000 2.1 210 04:38 13.03.2020
6514 Clouds 30 1013 74 10000 2.6 240 03:46 13.03.2020
6515 Clouds 26 1013 83 6000 2.1 260 01:48 13.03.2020
6516 Haze 25 1013 94 5000 1.5 280 01:19 13.03.2020
6517 Clouds 25 1013 88 7000 2.1 0 00:56 13.03.2020
6518 Clouds 24 1013 88 7000 2.1 0 00:37 13.03.2020
6519 Clouds 24 1013 88 6000 2.1 210 00:18 13.03.2020
6520 Clouds 24 1012 88 6000 2.1 220 23:29 12.03.2020
6521 Rain 24 1013 94 4000 1.5 290 22:59 12.03.2020
6522 Rain 24 1012 94 4000 1.5 230 22:41 12.03.2020
6523 Rain 24 1012 94 4000 1.5 230 22:23 12.03.2020
6524 Rain 24 1013 94 5000 2.6 240 21:54 12.03.2020
6525 Rain 24 1012 88 5000 2.1 210 21:36 12.03.2020
6526 Rain 24 1012 88 5000 2.1 210 21:18 12.03.2020
6527 Rain 24 1013 88 5000 1 0 20:42 12.03.2020
6528 Rain 24 1013 88 5000 1 0 20:42 12.03.2020
6529 Rain 24 1013 88 5000 1 0 20:19 12.03.2020
6530 Clouds 25 1013 83 6000 1 0 19:42 12.03.2020
6531 Clouds 25 1013 83 6000 1 0 19:21 12.03.2020
6532 Clouds 25 1013 83 6000 1 0 19:21 12.03.2020
6533 Clouds 25 1013 83 6000 2.6 190 18:45 12.03.2020
6534 Clouds 25 1013 83 6000 2.6 190 18:25 12.03.2020
6535 Clouds 25 1014 88 6000 0.5 0 17:58 12.03.2020
6536 Clouds 25 1014 88 6000 0.5 0 17:40 12.03.2020
6537 Clouds 25 1013 88 6000 3.1 200 17:21 12.03.2020
6538 Clouds 25 1013 88 6000 3.1 200 16:58 12.03.2020
6539 Clouds 25 1013 88 6000 2.1 180 16:39 12.03.2020
6540 Clouds 25 1013 88 6000 2.1 180 16:20 12.03.2020
6541 Clouds 25 1013 88 6000 2.6 150 15:47 12.03.2020
6542 Clouds 25 1013 88 6000 2.6 150 15:27 12.03.2020
6543 Thunderstorm 25 1013 88 5000 3.1 160 14:54 12.03.2020
6544 Thunderstorm 26 1012 88 5000 1.5 170 14:36 12.03.2020
6545 Thunderstorm 26 1012 88 5000 1.5 170 14:18 12.03.2020
6546 Rain 26 1011 94 2000 1.5 100 13:38 12.03.2020
6547 Rain 25 1011 94 2000 1.5 100 13:20 12.03.2020
6548 Thunderstorm 26 1011 88 3000 2.6 0 12:43 12.03.2020
6549 Thunderstorm 27 1010 83 6000 1.5 0 12:23 12.03.2020
6550 Thunderstorm 27 1010 83 6000 1.5 0 11:59 12.03.2020
6551 Thunderstorm 27 1010 78 6000 1 0 11:39 12.03.2020
6552 Haze 29 1010 83 5000 2.1 150 11:21 12.03.2020
6553 Haze 28 1010 83 5000 2.1 150 10:59 12.03.2020
6554 Haze 28 1010 94 5000 1.5 180 10:41 12.03.2020
6555 Haze 28 1010 94 5000 1.5 180 10:22 12.03.2020
6556 Haze 28 1010 94 5000 1.5 180 10:22 12.03.2020
6557 Rain 27 1010 88 4000 3.4 355 09:49 12.03.2020
6558 Rain 27 1010 88 4000 1.5 330 09:29 12.03.2020
6559 Rain 27 1010 88 4000 2.1 10 08:55 12.03.2020
6560 Thunderstorm 27 1010 83 4000 3.6 360 08:37 12.03.2020
6561 Thunderstorm 27 1010 83 4000 3.6 360 08:18 12.03.2020
6562 Thunderstorm 28 1011 74 4000 6.2 340 07:46 12.03.2020
6563 Rain 30 1011 74 5000 2.6 340 07:21 12.03.2020
6564 Thunderstorm 31 1011 74 7000 3.1 340 05:59 12.03.2020
6565 Rain 31 1011 74 4000 4.27 337 05:27 12.03.2020
6566 Haze 28 1011 83 5000 2.6 0 02:47 12.03.2020
6567 Haze 26 1011 88 5000 1.5 0 01:43 12.03.2020
6568 Rain 26 1011 94 3000 2.1 110 01:21 12.03.2020
6569 Rain 26 1010 83 5000 0.5 0 00:41 12.03.2020
6570 Thunderstorm 25 1010 88 6000 1.5 80 23:57 11.03.2020
6571 Thunderstorm 26 1009 83 6000 1.5 0 23:28 11.03.2020
6572 Thunderstorm 25 1009 83 6000 1.5 0 22:58 11.03.2020
6573 Clouds 25 1009 88 6000 1 180 22:39 11.03.2020
6574 Clouds 25 1009 88 6000 1 180 22:21 11.03.2020
6575 Clouds 25 1009 88 6000 2.1 0 21:56 11.03.2020
6576 Haze 24 1009 88 5000 2.6 190 21:37 11.03.2020
6577 Haze 25 1009 88 5000 2.6 190 21:19 11.03.2020
6578 Haze 25 1009 88 5000 1 0 20:55 11.03.2020
6579 Haze 25 1009 88 5000 1 0 20:55 11.03.2020
6580 Haze 24 1009 88 5000 2.1 160 20:36 11.03.2020
6581 Haze 24 1009 88 5000 2.1 160 20:18 11.03.2020
6582 Haze 24 1010 88 5000 2.6 210 19:42 11.03.2020
6583 Haze 24 1010 88 5000 2.6 210 19:23 11.03.2020
6584 Haze 25 1010 88 5000 2.1 230 18:56 11.03.2020
6585 Clouds 25 1011 88 6000 2.1 220 18:36 11.03.2020
6586 Clouds 25 1011 88 6000 1.5 220 18:18 11.03.2020
6587 Clouds 25 1011 88 6000 1.5 220 17:40 11.03.2020
6588 Clouds 25 1011 88 6000 1.5 230 17:21 11.03.2020
6589 Clouds 25 1011 88 6000 1.5 230 16:56 11.03.2020
6590 Rain 25 1011 83 5000 2.6 0 16:38 11.03.2020
6591 Rain 25 1011 83 5000 2.6 0 16:19 11.03.2020
6592 Thunderstorm 25 1011 88 5000 4.6 340 15:42 11.03.2020
6593 Thunderstorm 25 1011 88 5000 4.6 340 15:23 11.03.2020
6594 Thunderstorm 29 1010 79 6000 2.1 10 14:46 11.03.2020
6595 Thunderstorm 28 1010 83 8000 3.1 60 14:24 11.03.2020
6596 Clouds 28 1010 79 8000 3.6 50 13:59 11.03.2020
6597 Clouds 28 1009 79 8000 2.6 70 13:40 11.03.2020
6598 Clouds 28 1009 79 8000 2.6 70 13:22 11.03.2020
6599 Clouds 28 1008 79 8000 2.6 60 12:55 11.03.2020
6600 Haze 29 1008 74 5000 2.1 10 12:37 11.03.2020
6601 Clouds 29 1007 74 9000 3.6 50 12:18 11.03.2020
6602 Haze 30 1007 66 5000 4.1 10 11:40 11.03.2020
6603 Clouds 30 1007 74 9000 3.1 30 11:20 11.03.2020
6604 Clouds 30 1007 74 9000 3.1 30 10:47 11.03.2020
6605 Haze 31 1007 66 5000 4.6 350 10:20 11.03.2020
6606 Clouds 31 1007 70 10000 3.1 10 09:55 11.03.2020
6607 Rain 31 1007 62 5000 3.6 350 09:36 11.03.2020
6608 Rain 31 1007 62 5000 3.6 350 09:18 11.03.2020
6609 Clouds 32 1008 70 10000 4.6 10 08:42 11.03.2020
6610 Clouds 32 1008 70 10000 4.6 10 08:42 11.03.2020
6611 Rain 33 1007 59 5000 4.1 340 08:23 11.03.2020
6612 Clouds 32 1008 66 10000 5.7 340 07:47 11.03.2020
6613 Clouds 33 1009 66 10000 3.6 350 07:20 11.03.2020
6614 Clouds 33 1009 66 10000 4.1 330 06:49 11.03.2020
6615 Rain 33 1009 59 5000 3.1 350 06:30 11.03.2020
6616 Clouds 33 1009 66 10000 3.1 320 05:32 11.03.2020
6617 Clouds 29 1010 83 6000 2.87 306 02:43 11.03.2020
6618 Clouds 27 1009 88 6000 1.5 190 01:51 11.03.2020
6619 Clouds 25 1008 88 6000 1.5 0 00:53 11.03.2020
6620 Haze 25 1008 94 5000 1.5 150 00:31 11.03.2020
6621 Rain 26 1008 94 4000 1.5 240 23:47 10.03.2020
6622 Rain 25 1008 94 4000 1.5 240 23:22 10.03.2020
6623 Clouds 25 1008 88 7000 2.1 0 22:55 10.03.2020
6624 Rain 25 1008 78 4000 2.6 240 22:36 10.03.2020
6625 Rain 25 1008 78 4000 2.6 240 22:18 10.03.2020
6626 Thunderstorm 25 1008 88 8000 2.6 210 21:55 10.03.2020
6627 Clouds 25 1008 88 8000 2.1 230 21:37 10.03.2020
6628 Clouds 25 1008 88 8000 2.1 230 21:18 10.03.2020
6629 Rain 26 1008 88 8000 2.1 220 20:42 10.03.2020
6630 Rain 26 1008 88 8000 2.1 220 20:42 10.03.2020
6631 Clouds 26 1009 83 8000 2.6 230 20:19 10.03.2020
6632 Clouds 26 1009 78 8000 2.1 230 19:58 10.03.2020
6633 Clouds 26 1009 78 9000 2.1 230 19:40 10.03.2020
6634 Clouds 26 1009 78 9000 2.1 230 19:22 10.03.2020
6635 Clouds 26 1009 78 9000 2.6 220 18:55 10.03.2020
6636 Clouds 26 1009 83 7000 2.6 240 18:37 10.03.2020
6637 Clouds 26 1009 83 7000 2.6 240 18:18 10.03.2020
6638 Thunderstorm 26 1010 74 7000 2.6 220 17:41 10.03.2020
6639 Clouds 27 1009 74 7000 2.6 220 17:22 10.03.2020
6640 Clouds 27 1009 74 7000 2.6 220 16:57 10.03.2020
6641 Clouds 27 1009 78 7000 2.6 210 16:37 10.03.2020
6642 Clouds 27 1009 78 7000 2.6 210 16:18 10.03.2020
6643 Clouds 27 1009 74 9000 2.6 280 15:41 10.03.2020
6644 Clouds 28 1009 74 9000 2.6 280 15:20 10.03.2020
6645 Clouds 28 1009 74 9000 2.1 310 14:58 10.03.2020
6646 Clouds 28 1009 74 9000 3.1 290 14:40 10.03.2020
6647 Clouds 28 1009 74 9000 3.1 290 14:19 10.03.2020
6648 Clouds 28 1009 74 10000 2.6 300 13:43 10.03.2020
6649 Haze 28 1008 94 5000 1.5 330 13:25 10.03.2020
6650 Rain 28 1008 88 5000 1.5 330 12:55 10.03.2020
6651 Rain 28 1007 88 5000 2.1 340 12:37 10.03.2020
6652 Rain 29 1007 62 6000 2.1 350 12:18 10.03.2020
6653 Rain 30 1006 59 6000 1.5 260 11:42 10.03.2020
6654 Rain 31 1006 59 6000 1.5 260 11:24 10.03.2020
6655 Rain 31 1006 59 6000 1.5 260 11:24 10.03.2020
6656 Rain 31 1006 59 5000 2.6 300 10:57 10.03.2020
6657 Rain 31 1006 59 5000 2.6 300 10:57 10.03.2020
6658 Rain 31 1006 55 5000 2.6 270 10:39 10.03.2020
6659 Rain 32 1006 55 5000 2.6 270 10:19 10.03.2020
6660 Clouds 32 1006 55 10000 6.2 310 09:45 10.03.2020
6661 Rain 33 1006 55 5000 3.1 250 09:20 10.03.2020
6662 Rain 33 1006 59 5000 3.1 330 08:58 10.03.2020
6663 Rain 33 1006 59 5000 2.6 330 08:40 10.03.2020
6664 Rain 33 1006 59 5000 2.6 330 08:20 10.03.2020
6665 Clouds 34 1007 49 6000 3.1 240 07:42 10.03.2020
6666 Clouds 34 1007 49 6000 3.1 240 07:23 10.03.2020
6667 Clouds 35 1008 49 6000 4.1 240 06:38 10.03.2020
6668 Clouds 34 1008 59 10000 5.7 320 05:55 10.03.2020
6669 Clouds 34 1008 59 10000 5.1 310 05:35 10.03.2020
6670 Clouds 32 1009 55 6000 4.1 240 04:31 10.03.2020
6671 Clouds 31 1009 58 6000 4.1 240 03:19 10.03.2020
6672 Clouds 27 1008 83 8000 2.6 270 01:36 10.03.2020
6673 Clouds 26 1008 88 7000 3.6 260 00:51 10.03.2020
6674 Clouds 26 1008 88 7000 3.6 260 00:29 10.03.2020
6675 Clouds 26 1008 83 6000 3.6 260 23:43 09.03.2020
6676 Clouds 26 1008 83 6000 3.6 260 23:23 09.03.2020
6677 Clouds 26 1008 83 7000 4.6 250 22:58 09.03.2020
6678 Clouds 26 1008 83 7000 4.1 260 22:38 09.03.2020
6679 Clouds 26 1008 83 7000 4.1 260 22:20 09.03.2020
6680 Clouds 26 1008 88 7000 4.6 270 21:45 09.03.2020
6681 Clouds 26 1008 88 7000 4.6 260 21:22 09.03.2020
6682 Clouds 26 1008 88 7000 4.6 260 20:59 09.03.2020
6683 Clouds 25 1008 88 6000 4.1 260 20:41 09.03.2020
6684 Clouds 25 1008 88 6000 4.1 260 20:22 09.03.2020
6685 Clouds 25 1008 83 6000 4.1 270 19:59 09.03.2020
6686 Clouds 26 1009 83 6000 4.1 270 19:41 09.03.2020
6687 Clouds 26 1009 83 6000 4.1 270 19:19 09.03.2020
6688 Clouds 26 1009 78 6000 4.6 260 18:56 09.03.2020
6689 Clouds 26 1009 78 6000 4.6 260 18:56 09.03.2020
6690 Clouds 26 1009 78 6000 4.6 260 18:38 09.03.2020
6691 Clouds 26 1009 78 6000 5.7 250 18:18 09.03.2020
6692 Clouds 26 1009 78 6000 5.7 250 17:55 09.03.2020
6693 Clouds 26 1009 78 6000 5.7 250 17:37 09.03.2020
6694 Clouds 26 1010 74 6000 6.2 270 17:19 09.03.2020
6695 Clouds 27 1010 74 6000 6.2 270 16:56 09.03.2020
6696 Clouds 26 1010 74 6000 7.2 270 16:37 09.03.2020
6697 Clouds 27 1010 74 6000 7.2 270 16:19 09.03.2020
6698 Clouds 27 1010 74 6000 7.2 270 15:55 09.03.2020
6699 Clouds 27 1010 69 7000 5.7 280 15:37 09.03.2020
6700 Clouds 27 1010 69 7000 5.7 280 15:18 09.03.2020
6701 Clouds 26 1009 74 8000 4.6 280 14:39 09.03.2020
6702 Clouds 27 1009 74 8000 4.6 280 14:20 09.03.2020
6703 Clouds 28 1009 74 8000 5.7 280 13:59 09.03.2020
6704 Clouds 28 1008 70 6000 3.1 230 13:39 09.03.2020
6705 Clouds 28 1008 70 6000 3.1 230 13:20 09.03.2020
6706 Clouds 28 1008 70 10000 5.1 260 12:58 09.03.2020
6707 Clouds 29 1007 58 6000 4.6 250 12:39 09.03.2020
6708 Clouds 29 1007 58 6000 4.6 250 12:19 09.03.2020
6709 Clouds 30 1006 62 10000 8.2 260 11:40 09.03.2020
6710 Clouds 30 1006 62 10000 8.2 260 11:20 09.03.2020
6711 Clouds 31 1006 59 10000 8.7 260 10:57 09.03.2020
6712 Clouds 31 1007 62 10000 8.7 260 10:39 09.03.2020
6713 Clouds 32 1007 62 10000 8.7 260 10:19 09.03.2020
6714 Clouds 33 1007 59 9000 8.2 250 09:42 09.03.2020
6715 Clouds 33 1007 59 9000 8.2 250 09:24 09.03.2020
6716 Clouds 32 1007 59 9000 8.2 250 08:47 09.03.2020
6717 Clouds 32 1007 55 7000 5.1 240 08:29 09.03.2020
6718 Clouds 33 1008 59 9000 5.1 250 07:58 09.03.2020
6719 Clouds 33 1008 62 7000 5.1 280 07:37 09.03.2020
6720 Clouds 33 1008 62 7000 5.1 280 07:18 09.03.2020
6721 Clouds 32 1009 62 7000 6.2 250 06:40 09.03.2020
6722 Clouds 32 1009 62 7000 6.2 250 06:21 09.03.2020
6723 Clouds 31 1010 66 9000 7.2 280 05:45 09.03.2020
6724 Clouds 32 1010 70 8000 6.7 270 04:59 09.03.2020
6725 Clouds 32 1011 70 8000 5.1 270 04:39 09.03.2020
6726 Clouds 30 1011 70 8000 5.1 270 04:20 09.03.2020
6727 Clouds 30 1011 70 8000 5.1 270 04:20 09.03.2020
6728 Clouds 31 1010 62 6000 7.7 230 02:53 09.03.2020
6729 Clouds 25 1009 74 6000 3.1 280 00:44 09.03.2020
6730 Clouds 25 1009 74 6000 3.1 280 00:25 09.03.2020
6731 Clouds 25 1009 78 6000 3.6 250 23:58 08.03.2020
6732 Clouds 24 1009 78 6000 4.1 270 23:38 08.03.2020
6733 Clouds 25 1009 78 6000 4.1 270 23:18 08.03.2020
6734 Clouds 24 100